<?xml version="1.0" encoding="UTF-8" standalone="no" ?>
<gpx xmlns="http://www.topografix.com/GPX/1/1" xmlns:xsi="http://www.w3.org/2001/XMLSchema-instance" xsi:schemaLocation="http://www.topografix.com/GPX/1/1 http://www.topografix.com/GPX/1/1/gpx.xsd" version="1.1" creator="VisuGPX - https://www.visugpx.com">
  <metadata>
    <name>Pornichet 30/07/2020</name>
    <desc><![CDATA[Sortie VTT du jeudi 30 juillet 2020]]></desc>
  </metadata>
  <trk>
    <name><![CDATA[Pornichet Cyclisme]]></name>
    <trkseg>
      <trkpt lat="47.26294" lon="-2.31642">
        <ele>5.1</ele>
        <time>2020-07-30T07:00:39.000Z</time>
      </trkpt>
      <trkpt lat="47.26277" lon="-2.31647">
        <ele>-1.2000000476837</ele>
        <time>2020-07-30T07:00:42.000Z</time>
      </trkpt>
      <trkpt lat="47.26272" lon="-2.31649">
        <ele>-1.2000000476837</ele>
        <time>2020-07-30T07:00:45.000Z</time>
      </trkpt>
      <trkpt lat="47.26263" lon="-2.31654">
        <ele>-1.2000000476837</ele>
        <time>2020-07-30T07:00:47.000Z</time>
      </trkpt>
      <trkpt lat="47.2625" lon="-2.3166">
        <ele>-1.2000000476837</ele>
        <time>2020-07-30T07:00:49.000Z</time>
      </trkpt>
      <trkpt lat="47.26244" lon="-2.31662">
        <ele>-1.2000000476837</ele>
        <time>2020-07-30T07:00:50.000Z</time>
      </trkpt>
      <trkpt lat="47.26222" lon="-2.31673">
        <ele>-1.3999999761581</ele>
        <time>2020-07-30T07:00:54.000Z</time>
      </trkpt>
      <trkpt lat="47.26217" lon="-2.31674">
        <ele>-1.3999999761581</ele>
        <time>2020-07-30T07:00:55.000Z</time>
      </trkpt>
      <trkpt lat="47.26212" lon="-2.31673">
        <ele>-1.6000000238419</ele>
        <time>2020-07-30T07:00:56.000Z</time>
      </trkpt>
      <trkpt lat="47.26209" lon="-2.3167">
        <ele>-1.7999999523163</ele>
        <time>2020-07-30T07:00:57.000Z</time>
      </trkpt>
      <trkpt lat="47.26206" lon="-2.31666">
        <ele>-2</ele>
        <time>2020-07-30T07:00:58.000Z</time>
      </trkpt>
      <trkpt lat="47.262" lon="-2.31655">
        <ele>-2</ele>
        <time>2020-07-30T07:01:00.000Z</time>
      </trkpt>
      <trkpt lat="47.26187" lon="-2.31632">
        <ele>-2</ele>
        <time>2020-07-30T07:01:04.000Z</time>
      </trkpt>
      <trkpt lat="47.26178" lon="-2.31615">
        <ele>-2</ele>
        <time>2020-07-30T07:01:07.000Z</time>
      </trkpt>
      <trkpt lat="47.26169" lon="-2.31595">
        <ele>-2</ele>
        <time>2020-07-30T07:01:10.000Z</time>
      </trkpt>
      <trkpt lat="47.26165" lon="-2.31588">
        <ele>-2</ele>
        <time>2020-07-30T07:01:11.000Z</time>
      </trkpt>
      <trkpt lat="47.26151" lon="-2.31573">
        <ele>-2</ele>
        <time>2020-07-30T07:01:14.000Z</time>
      </trkpt>
      <trkpt lat="47.26146" lon="-2.31569">
        <ele>-2</ele>
        <time>2020-07-30T07:01:15.000Z</time>
      </trkpt>
      <trkpt lat="47.26136" lon="-2.31563">
        <ele>-2</ele>
        <time>2020-07-30T07:01:17.000Z</time>
      </trkpt>
      <trkpt lat="47.26126" lon="-2.3156">
        <ele>-2</ele>
        <time>2020-07-30T07:01:19.000Z</time>
      </trkpt>
      <trkpt lat="47.26103" lon="-2.31565">
        <ele>-2</ele>
        <time>2020-07-30T07:01:23.000Z</time>
      </trkpt>
      <trkpt lat="47.26098" lon="-2.31567">
        <ele>-2</ele>
        <time>2020-07-30T07:01:24.000Z</time>
      </trkpt>
      <trkpt lat="47.26059" lon="-2.31579">
        <ele>-2</ele>
        <time>2020-07-30T07:01:31.000Z</time>
      </trkpt>
      <trkpt lat="47.26023" lon="-2.31583">
        <ele>-2</ele>
        <time>2020-07-30T07:01:38.000Z</time>
      </trkpt>
      <trkpt lat="47.26012" lon="-2.31571">
        <ele>-2</ele>
        <time>2020-07-30T07:01:41.000Z</time>
      </trkpt>
      <trkpt lat="47.25999" lon="-2.31549">
        <ele>-2</ele>
        <time>2020-07-30T07:01:46.000Z</time>
      </trkpt>
      <trkpt lat="47.25991" lon="-2.31557">
        <ele>-2</ele>
        <time>2020-07-30T07:01:49.000Z</time>
      </trkpt>
      <trkpt lat="47.25988" lon="-2.31561">
        <ele>-2</ele>
        <time>2020-07-30T07:01:50.000Z</time>
      </trkpt>
      <trkpt lat="47.25972" lon="-2.31581">
        <ele>-2</ele>
        <time>2020-07-30T07:01:55.000Z</time>
      </trkpt>
      <trkpt lat="47.25952" lon="-2.31604">
        <ele>-2</ele>
        <time>2020-07-30T07:02:00.000Z</time>
      </trkpt>
      <trkpt lat="47.2594" lon="-2.31616">
        <ele>-2</ele>
        <time>2020-07-30T07:02:03.000Z</time>
      </trkpt>
      <trkpt lat="47.25935" lon="-2.3162">
        <ele>-2</ele>
        <time>2020-07-30T07:02:04.000Z</time>
      </trkpt>
      <trkpt lat="47.25904" lon="-2.31637">
        <ele>-2</ele>
        <time>2020-07-30T07:02:09.000Z</time>
      </trkpt>
      <trkpt lat="47.25876" lon="-2.31655">
        <ele>-2</ele>
        <time>2020-07-30T07:02:17.000Z</time>
      </trkpt>
      <trkpt lat="47.25863" lon="-2.31666">
        <ele>-2</ele>
        <time>2020-07-30T07:02:20.000Z</time>
      </trkpt>
      <trkpt lat="47.2585" lon="-2.31682">
        <ele>-2</ele>
        <time>2020-07-30T07:02:23.000Z</time>
      </trkpt>
      <trkpt lat="47.25832" lon="-2.3172">
        <ele>-2</ele>
        <time>2020-07-30T07:02:29.000Z</time>
      </trkpt>
      <trkpt lat="47.25826" lon="-2.31734">
        <ele>-2</ele>
        <time>2020-07-30T07:02:31.000Z</time>
      </trkpt>
      <trkpt lat="47.2582" lon="-2.31757">
        <ele>-2</ele>
        <time>2020-07-30T07:02:34.000Z</time>
      </trkpt>
      <trkpt lat="47.25801" lon="-2.31799">
        <ele>-2</ele>
        <time>2020-07-30T07:02:40.000Z</time>
      </trkpt>
      <trkpt lat="47.25775" lon="-2.31833">
        <ele>-2</ele>
        <time>2020-07-30T07:02:46.000Z</time>
      </trkpt>
      <trkpt lat="47.25742" lon="-2.31861">
        <ele>-2</ele>
        <time>2020-07-30T07:02:53.000Z</time>
      </trkpt>
      <trkpt lat="47.25737" lon="-2.31856">
        <ele>-1.6000000238419</ele>
        <time>2020-07-30T07:02:55.000Z</time>
      </trkpt>
      <trkpt lat="47.25735" lon="-2.31851">
        <ele>-1</ele>
        <time>2020-07-30T07:02:56.000Z</time>
      </trkpt>
      <trkpt lat="47.25732" lon="-2.31845">
        <ele>-0.60000002384186</ele>
        <time>2020-07-30T07:02:57.000Z</time>
      </trkpt>
      <trkpt lat="47.25731" lon="-2.31839">
        <ele>-0.20000000298023</ele>
        <time>2020-07-30T07:02:58.000Z</time>
      </trkpt>
      <trkpt lat="47.25728" lon="-2.31832">
        <ele>0.40000000596046</ele>
        <time>2020-07-30T07:02:59.000Z</time>
      </trkpt>
      <trkpt lat="47.25712" lon="-2.31776">
        <ele>0.40000000596046</ele>
        <time>2020-07-30T07:03:08.000Z</time>
      </trkpt>
      <trkpt lat="47.25708" lon="-2.31763">
        <ele>0.80000001192093</ele>
        <time>2020-07-30T07:03:10.000Z</time>
      </trkpt>
      <trkpt lat="47.25707" lon="-2.31756">
        <ele>1.2000000476837</ele>
        <time>2020-07-30T07:03:11.000Z</time>
      </trkpt>
      <trkpt lat="47.25705" lon="-2.3175">
        <ele>1.6000000238419</ele>
        <time>2020-07-30T07:03:12.000Z</time>
      </trkpt>
      <trkpt lat="47.25703" lon="-2.31743">
        <ele>2</ele>
        <time>2020-07-30T07:03:13.000Z</time>
      </trkpt>
      <trkpt lat="47.25701" lon="-2.31737">
        <ele>2.4000000953674</ele>
        <time>2020-07-30T07:03:14.000Z</time>
      </trkpt>
      <trkpt lat="47.25699" lon="-2.3173">
        <ele>2.4000000953674</ele>
        <time>2020-07-30T07:03:15.000Z</time>
      </trkpt>
      <trkpt lat="47.25688" lon="-2.31696">
        <ele>2.4000000953674</ele>
        <time>2020-07-30T07:03:21.000Z</time>
      </trkpt>
      <trkpt lat="47.25679" lon="-2.31682">
        <ele>2.4000000953674</ele>
        <time>2020-07-30T07:03:24.000Z</time>
      </trkpt>
      <trkpt lat="47.25671" lon="-2.31675">
        <ele>2.4000000953674</ele>
        <time>2020-07-30T07:03:26.000Z</time>
      </trkpt>
      <trkpt lat="47.25667" lon="-2.31672">
        <ele>2.4000000953674</ele>
        <time>2020-07-30T07:03:27.000Z</time>
      </trkpt>
      <trkpt lat="47.25652" lon="-2.31665">
        <ele>2.4000000953674</ele>
        <time>2020-07-30T07:03:31.000Z</time>
      </trkpt>
      <trkpt lat="47.2564" lon="-2.31659">
        <ele>2.4000000953674</ele>
        <time>2020-07-30T07:03:34.000Z</time>
      </trkpt>
      <trkpt lat="47.25626" lon="-2.31658">
        <ele>2.4000000953674</ele>
        <time>2020-07-30T07:03:38.000Z</time>
      </trkpt>
      <trkpt lat="47.2562" lon="-2.31663">
        <ele>2.7999999523163</ele>
        <time>2020-07-30T07:03:40.000Z</time>
      </trkpt>
      <trkpt lat="47.25617" lon="-2.31666">
        <ele>3.2000000476837</ele>
        <time>2020-07-30T07:03:41.000Z</time>
      </trkpt>
      <trkpt lat="47.25614" lon="-2.31669">
        <ele>3.5999999046326</ele>
        <time>2020-07-30T07:03:42.000Z</time>
      </trkpt>
      <trkpt lat="47.25612" lon="-2.31672">
        <ele>4.1999998092651</ele>
        <time>2020-07-30T07:03:43.000Z</time>
      </trkpt>
      <trkpt lat="47.25609" lon="-2.31678">
        <ele>4.5999999046326</ele>
        <time>2020-07-30T07:03:44.000Z</time>
      </trkpt>
      <trkpt lat="47.25605" lon="-2.31689">
        <ele>4.5999999046326</ele>
        <time>2020-07-30T07:03:46.000Z</time>
      </trkpt>
      <trkpt lat="47.25598" lon="-2.31696">
        <ele>4.5999999046326</ele>
        <time>2020-07-30T07:03:48.000Z</time>
      </trkpt>
      <trkpt lat="47.25591" lon="-2.31705">
        <ele>4.5999999046326</ele>
        <time>2020-07-30T07:03:50.000Z</time>
      </trkpt>
      <trkpt lat="47.25587" lon="-2.31717">
        <ele>5</ele>
        <time>2020-07-30T07:03:52.000Z</time>
      </trkpt>
      <trkpt lat="47.25586" lon="-2.31724">
        <ele>5.4000000953674</ele>
        <time>2020-07-30T07:03:53.000Z</time>
      </trkpt>
      <trkpt lat="47.25585" lon="-2.31731">
        <ele>6.1999998092651</ele>
        <time>2020-07-30T07:03:54.000Z</time>
      </trkpt>
      <trkpt lat="47.25583" lon="-2.31738">
        <ele>6.8000001907349</ele>
        <time>2020-07-30T07:03:55.000Z</time>
      </trkpt>
      <trkpt lat="47.25577" lon="-2.31749">
        <ele>6.8000001907349</ele>
        <time>2020-07-30T07:03:57.000Z</time>
      </trkpt>
      <trkpt lat="47.25562" lon="-2.31758">
        <ele>6.8000001907349</ele>
        <time>2020-07-30T07:04:01.000Z</time>
      </trkpt>
      <trkpt lat="47.25542" lon="-2.31772">
        <ele>6.8000001907349</ele>
        <time>2020-07-30T07:04:06.000Z</time>
      </trkpt>
      <trkpt lat="47.25541" lon="-2.31777">
        <ele>6.8000001907349</ele>
        <time>2020-07-30T07:04:07.000Z</time>
      </trkpt>
      <trkpt lat="47.25541" lon="-2.3179">
        <ele>7.1999998092651</ele>
        <time>2020-07-30T07:04:09.000Z</time>
      </trkpt>
      <trkpt lat="47.2554" lon="-2.31796">
        <ele>7.5999999046326</ele>
        <time>2020-07-30T07:04:10.000Z</time>
      </trkpt>
      <trkpt lat="47.25539" lon="-2.318">
        <ele>8</ele>
        <time>2020-07-30T07:04:11.000Z</time>
      </trkpt>
      <trkpt lat="47.25536" lon="-2.31803">
        <ele>8.6000003814697</ele>
        <time>2020-07-30T07:04:12.000Z</time>
      </trkpt>
      <trkpt lat="47.25534" lon="-2.31806">
        <ele>9</ele>
        <time>2020-07-30T07:04:13.000Z</time>
      </trkpt>
      <trkpt lat="47.25525" lon="-2.31811">
        <ele>9</ele>
        <time>2020-07-30T07:04:16.000Z</time>
      </trkpt>
      <trkpt lat="47.2552" lon="-2.31814">
        <ele>9</ele>
        <time>2020-07-30T07:04:18.000Z</time>
      </trkpt>
      <trkpt lat="47.25518" lon="-2.31816">
        <ele>9.3999996185303</ele>
        <time>2020-07-30T07:04:19.000Z</time>
      </trkpt>
      <trkpt lat="47.25516" lon="-2.31817">
        <ele>10.199999809265</ele>
        <time>2020-07-30T07:04:20.000Z</time>
      </trkpt>
      <trkpt lat="47.25514" lon="-2.31818">
        <ele>10.60000038147</ele>
        <time>2020-07-30T07:04:21.000Z</time>
      </trkpt>
      <trkpt lat="47.25513" lon="-2.3182">
        <ele>11</ele>
        <time>2020-07-30T07:04:22.000Z</time>
      </trkpt>
      <trkpt lat="47.25512" lon="-2.31822">
        <ele>11</ele>
        <time>2020-07-30T07:04:24.000Z</time>
      </trkpt>
      <trkpt lat="47.25511" lon="-2.31823">
        <ele>11</ele>
        <time>2020-07-30T07:04:29.000Z</time>
      </trkpt>
      <trkpt lat="47.2551" lon="-2.31826">
        <ele>27</ele>
        <time>2020-07-30T07:12:30.000Z</time>
      </trkpt>
      <trkpt lat="47.25509" lon="-2.31827">
        <ele>27.39999961853</ele>
        <time>2020-07-30T07:12:31.000Z</time>
      </trkpt>
      <trkpt lat="47.25505" lon="-2.31826">
        <ele>27.39999961853</ele>
        <time>2020-07-30T07:12:33.000Z</time>
      </trkpt>
      <trkpt lat="47.25501" lon="-2.31821">
        <ele>27.39999961853</ele>
        <time>2020-07-30T07:12:35.000Z</time>
      </trkpt>
      <trkpt lat="47.25506" lon="-2.31809">
        <ele>27.39999961853</ele>
        <time>2020-07-30T07:12:38.000Z</time>
      </trkpt>
      <trkpt lat="47.25514" lon="-2.31809">
        <ele>27.39999961853</ele>
        <time>2020-07-30T07:12:41.000Z</time>
      </trkpt>
      <trkpt lat="47.25516" lon="-2.31808">
        <ele>27.39999961853</ele>
        <time>2020-07-30T07:12:42.000Z</time>
      </trkpt>
      <trkpt lat="47.25527" lon="-2.31806">
        <ele>27.39999961853</ele>
        <time>2020-07-30T07:12:47.000Z</time>
      </trkpt>
      <trkpt lat="47.25549" lon="-2.318">
        <ele>27.39999961853</ele>
        <time>2020-07-30T07:12:54.000Z</time>
      </trkpt>
      <trkpt lat="47.25562" lon="-2.31794">
        <ele>27.39999961853</ele>
        <time>2020-07-30T07:12:58.000Z</time>
      </trkpt>
      <trkpt lat="47.25562" lon="-2.31789">
        <ele>27.39999961853</ele>
        <time>2020-07-30T07:12:59.000Z</time>
      </trkpt>
      <trkpt lat="47.25568" lon="-2.31772">
        <ele>27.39999961853</ele>
        <time>2020-07-30T07:13:03.000Z</time>
      </trkpt>
      <trkpt lat="47.25571" lon="-2.3177">
        <ele>27.39999961853</ele>
        <time>2020-07-30T07:13:04.000Z</time>
      </trkpt>
      <trkpt lat="47.25577" lon="-2.3177">
        <ele>27.39999961853</ele>
        <time>2020-07-30T07:13:06.000Z</time>
      </trkpt>
      <trkpt lat="47.25584" lon="-2.31769">
        <ele>27.39999961853</ele>
        <time>2020-07-30T07:13:08.000Z</time>
      </trkpt>
      <trkpt lat="47.25593" lon="-2.31771">
        <ele>27.39999961853</ele>
        <time>2020-07-30T07:13:10.000Z</time>
      </trkpt>
      <trkpt lat="47.25602" lon="-2.31772">
        <ele>27.39999961853</ele>
        <time>2020-07-30T07:13:12.000Z</time>
      </trkpt>
      <trkpt lat="47.25618" lon="-2.31783">
        <ele>27.39999961853</ele>
        <time>2020-07-30T07:13:17.000Z</time>
      </trkpt>
      <trkpt lat="47.25621" lon="-2.31782">
        <ele>27.39999961853</ele>
        <time>2020-07-30T07:13:18.000Z</time>
      </trkpt>
      <trkpt lat="47.2563" lon="-2.31778">
        <ele>27.39999961853</ele>
        <time>2020-07-30T07:13:21.000Z</time>
      </trkpt>
      <trkpt lat="47.25633" lon="-2.31782">
        <ele>27.39999961853</ele>
        <time>2020-07-30T07:13:22.000Z</time>
      </trkpt>
      <trkpt lat="47.25637" lon="-2.31792">
        <ele>27</ele>
        <time>2020-07-30T07:13:24.000Z</time>
      </trkpt>
      <trkpt lat="47.25639" lon="-2.31797">
        <ele>26.39999961853</ele>
        <time>2020-07-30T07:13:25.000Z</time>
      </trkpt>
      <trkpt lat="47.25642" lon="-2.31803">
        <ele>26</ele>
        <time>2020-07-30T07:13:26.000Z</time>
      </trkpt>
      <trkpt lat="47.25644" lon="-2.31809">
        <ele>25.60000038147</ele>
        <time>2020-07-30T07:13:27.000Z</time>
      </trkpt>
      <trkpt lat="47.25646" lon="-2.31815">
        <ele>25.200000762939</ele>
        <time>2020-07-30T07:13:28.000Z</time>
      </trkpt>
      <trkpt lat="47.25651" lon="-2.31828">
        <ele>25.200000762939</ele>
        <time>2020-07-30T07:13:30.000Z</time>
      </trkpt>
      <trkpt lat="47.25667" lon="-2.31878">
        <ele>25.200000762939</ele>
        <time>2020-07-30T07:13:37.000Z</time>
      </trkpt>
      <trkpt lat="47.25686" lon="-2.31954">
        <ele>25.200000762939</ele>
        <time>2020-07-30T07:13:47.000Z</time>
      </trkpt>
      <trkpt lat="47.25705" lon="-2.32029">
        <ele>25.200000762939</ele>
        <time>2020-07-30T07:13:57.000Z</time>
      </trkpt>
      <trkpt lat="47.25707" lon="-2.32036">
        <ele>25.200000762939</ele>
        <time>2020-07-30T07:13:58.000Z</time>
      </trkpt>
      <trkpt lat="47.25723" lon="-2.32103">
        <ele>25.200000762939</ele>
        <time>2020-07-30T07:14:07.000Z</time>
      </trkpt>
      <trkpt lat="47.25736" lon="-2.32166">
        <ele>25.200000762939</ele>
        <time>2020-07-30T07:14:15.000Z</time>
      </trkpt>
      <trkpt lat="47.25751" lon="-2.3224">
        <ele>25.200000762939</ele>
        <time>2020-07-30T07:14:23.000Z</time>
      </trkpt>
      <trkpt lat="47.25766" lon="-2.32313">
        <ele>25.200000762939</ele>
        <time>2020-07-30T07:14:30.000Z</time>
      </trkpt>
      <trkpt lat="47.25779" lon="-2.32382">
        <ele>25.200000762939</ele>
        <time>2020-07-30T07:14:36.000Z</time>
      </trkpt>
      <trkpt lat="47.25781" lon="-2.32393">
        <ele>24.39999961853</ele>
        <time>2020-07-30T07:14:37.000Z</time>
      </trkpt>
      <trkpt lat="47.25783" lon="-2.32404">
        <ele>23.799999237061</ele>
        <time>2020-07-30T07:14:38.000Z</time>
      </trkpt>
      <trkpt lat="47.25786" lon="-2.32415">
        <ele>23.39999961853</ele>
        <time>2020-07-30T07:14:39.000Z</time>
      </trkpt>
      <trkpt lat="47.25789" lon="-2.32424">
        <ele>23</ele>
        <time>2020-07-30T07:14:40.000Z</time>
      </trkpt>
      <trkpt lat="47.25792" lon="-2.32432">
        <ele>23</ele>
        <time>2020-07-30T07:14:41.000Z</time>
      </trkpt>
      <trkpt lat="47.25795" lon="-2.32438">
        <ele>22.60000038147</ele>
        <time>2020-07-30T07:14:42.000Z</time>
      </trkpt>
      <trkpt lat="47.25799" lon="-2.32443">
        <ele>22</ele>
        <time>2020-07-30T07:14:43.000Z</time>
      </trkpt>
      <trkpt lat="47.25802" lon="-2.32447">
        <ele>21.60000038147</ele>
        <time>2020-07-30T07:14:44.000Z</time>
      </trkpt>
      <trkpt lat="47.25804" lon="-2.3245">
        <ele>21.200000762939</ele>
        <time>2020-07-30T07:14:45.000Z</time>
      </trkpt>
      <trkpt lat="47.25806" lon="-2.32455">
        <ele>20.799999237061</ele>
        <time>2020-07-30T07:14:46.000Z</time>
      </trkpt>
      <trkpt lat="47.25807" lon="-2.32466">
        <ele>20.799999237061</ele>
        <time>2020-07-30T07:14:48.000Z</time>
      </trkpt>
      <trkpt lat="47.2581" lon="-2.32477">
        <ele>20.799999237061</ele>
        <time>2020-07-30T07:14:51.000Z</time>
      </trkpt>
      <trkpt lat="47.25821" lon="-2.32488">
        <ele>20.799999237061</ele>
        <time>2020-07-30T07:14:55.000Z</time>
      </trkpt>
      <trkpt lat="47.25823" lon="-2.32492">
        <ele>20.799999237061</ele>
        <time>2020-07-30T07:14:56.000Z</time>
      </trkpt>
      <trkpt lat="47.25839" lon="-2.32514">
        <ele>20.799999237061</ele>
        <time>2020-07-30T07:15:01.000Z</time>
      </trkpt>
      <trkpt lat="47.25865" lon="-2.32555">
        <ele>20.799999237061</ele>
        <time>2020-07-30T07:15:09.000Z</time>
      </trkpt>
      <trkpt lat="47.25879" lon="-2.32575">
        <ele>20.799999237061</ele>
        <time>2020-07-30T07:15:13.000Z</time>
      </trkpt>
      <trkpt lat="47.25884" lon="-2.32586">
        <ele>20.799999237061</ele>
        <time>2020-07-30T07:15:15.000Z</time>
      </trkpt>
      <trkpt lat="47.25887" lon="-2.32591">
        <ele>20.799999237061</ele>
        <time>2020-07-30T07:15:16.000Z</time>
      </trkpt>
      <trkpt lat="47.25896" lon="-2.32596">
        <ele>20.799999237061</ele>
        <time>2020-07-30T07:15:18.000Z</time>
      </trkpt>
      <trkpt lat="47.25908" lon="-2.32611">
        <ele>20.799999237061</ele>
        <time>2020-07-30T07:15:21.000Z</time>
      </trkpt>
      <trkpt lat="47.25911" lon="-2.32616">
        <ele>20.799999237061</ele>
        <time>2020-07-30T07:15:22.000Z</time>
      </trkpt>
      <trkpt lat="47.25938" lon="-2.32655">
        <ele>20.799999237061</ele>
        <time>2020-07-30T07:15:30.000Z</time>
      </trkpt>
      <trkpt lat="47.25951" lon="-2.32667">
        <ele>20.799999237061</ele>
        <time>2020-07-30T07:15:34.000Z</time>
      </trkpt>
      <trkpt lat="47.25954" lon="-2.32667">
        <ele>20.799999237061</ele>
        <time>2020-07-30T07:15:35.000Z</time>
      </trkpt>
      <trkpt lat="47.25974" lon="-2.32662">
        <ele>20.799999237061</ele>
        <time>2020-07-30T07:15:41.000Z</time>
      </trkpt>
      <trkpt lat="47.26001" lon="-2.32655">
        <ele>20.799999237061</ele>
        <time>2020-07-30T07:15:47.000Z</time>
      </trkpt>
      <trkpt lat="47.26032" lon="-2.3265">
        <ele>20.799999237061</ele>
        <time>2020-07-30T07:15:53.000Z</time>
      </trkpt>
      <trkpt lat="47.26071" lon="-2.32643">
        <ele>20.799999237061</ele>
        <time>2020-07-30T07:16:01.000Z</time>
      </trkpt>
      <trkpt lat="47.26101" lon="-2.32638">
        <ele>21.200000762939</ele>
        <time>2020-07-30T07:16:07.000Z</time>
      </trkpt>
      <trkpt lat="47.26105" lon="-2.32638">
        <ele>21.60000038147</ele>
        <time>2020-07-30T07:16:08.000Z</time>
      </trkpt>
      <trkpt lat="47.2611" lon="-2.32637">
        <ele>22</ele>
        <time>2020-07-30T07:16:09.000Z</time>
      </trkpt>
      <trkpt lat="47.26115" lon="-2.32637">
        <ele>22.39999961853</ele>
        <time>2020-07-30T07:16:10.000Z</time>
      </trkpt>
      <trkpt lat="47.2612" lon="-2.32637">
        <ele>22.799999237061</ele>
        <time>2020-07-30T07:16:11.000Z</time>
      </trkpt>
      <trkpt lat="47.2614" lon="-2.32641">
        <ele>22.799999237061</ele>
        <time>2020-07-30T07:16:15.000Z</time>
      </trkpt>
      <trkpt lat="47.2617" lon="-2.32655">
        <ele>22.799999237061</ele>
        <time>2020-07-30T07:16:21.000Z</time>
      </trkpt>
      <trkpt lat="47.26175" lon="-2.32658">
        <ele>22.799999237061</ele>
        <time>2020-07-30T07:16:22.000Z</time>
      </trkpt>
      <trkpt lat="47.26205" lon="-2.32687">
        <ele>22.799999237061</ele>
        <time>2020-07-30T07:16:29.000Z</time>
      </trkpt>
      <trkpt lat="47.26216" lon="-2.32699">
        <ele>22.799999237061</ele>
        <time>2020-07-30T07:16:32.000Z</time>
      </trkpt>
      <trkpt lat="47.2623" lon="-2.32718">
        <ele>22.799999237061</ele>
        <time>2020-07-30T07:16:36.000Z</time>
      </trkpt>
      <trkpt lat="47.26258" lon="-2.3276">
        <ele>22.799999237061</ele>
        <time>2020-07-30T07:16:44.000Z</time>
      </trkpt>
      <trkpt lat="47.26261" lon="-2.32766">
        <ele>22.799999237061</ele>
        <time>2020-07-30T07:16:45.000Z</time>
      </trkpt>
      <trkpt lat="47.26276" lon="-2.32795">
        <ele>22.799999237061</ele>
        <time>2020-07-30T07:16:51.000Z</time>
      </trkpt>
      <trkpt lat="47.26285" lon="-2.32838">
        <ele>22.799999237061</ele>
        <time>2020-07-30T07:16:59.000Z</time>
      </trkpt>
      <trkpt lat="47.26286" lon="-2.32844">
        <ele>22.799999237061</ele>
        <time>2020-07-30T07:17:00.000Z</time>
      </trkpt>
      <trkpt lat="47.26293" lon="-2.32858">
        <ele>22.799999237061</ele>
        <time>2020-07-30T07:17:03.000Z</time>
      </trkpt>
      <trkpt lat="47.26308" lon="-2.32864">
        <ele>22.799999237061</ele>
        <time>2020-07-30T07:17:07.000Z</time>
      </trkpt>
      <trkpt lat="47.26317" lon="-2.32874">
        <ele>22.799999237061</ele>
        <time>2020-07-30T07:17:10.000Z</time>
      </trkpt>
      <trkpt lat="47.26318" lon="-2.32879">
        <ele>22.799999237061</ele>
        <time>2020-07-30T07:17:11.000Z</time>
      </trkpt>
      <trkpt lat="47.26331" lon="-2.32919">
        <ele>22.799999237061</ele>
        <time>2020-07-30T07:17:18.000Z</time>
      </trkpt>
      <trkpt lat="47.26344" lon="-2.32962">
        <ele>22.799999237061</ele>
        <time>2020-07-30T07:17:26.000Z</time>
      </trkpt>
      <trkpt lat="47.26357" lon="-2.32979">
        <ele>22.799999237061</ele>
        <time>2020-07-30T07:17:31.000Z</time>
      </trkpt>
      <trkpt lat="47.26363" lon="-2.32985">
        <ele>22.799999237061</ele>
        <time>2020-07-30T07:17:33.000Z</time>
      </trkpt>
      <trkpt lat="47.26364" lon="-2.3299">
        <ele>22.799999237061</ele>
        <time>2020-07-30T07:17:34.000Z</time>
      </trkpt>
      <trkpt lat="47.26365" lon="-2.33008">
        <ele>22.799999237061</ele>
        <time>2020-07-30T07:17:37.000Z</time>
      </trkpt>
      <trkpt lat="47.26366" lon="-2.3302">
        <ele>22.799999237061</ele>
        <time>2020-07-30T07:17:39.000Z</time>
      </trkpt>
      <trkpt lat="47.26368" lon="-2.33079">
        <ele>22.799999237061</ele>
        <time>2020-07-30T07:17:48.000Z</time>
      </trkpt>
      <trkpt lat="47.26372" lon="-2.33126">
        <ele>22.799999237061</ele>
        <time>2020-07-30T07:17:55.000Z</time>
      </trkpt>
      <trkpt lat="47.26375" lon="-2.33178">
        <ele>22.799999237061</ele>
        <time>2020-07-30T07:18:03.000Z</time>
      </trkpt>
      <trkpt lat="47.26377" lon="-2.33214">
        <ele>22.799999237061</ele>
        <time>2020-07-30T07:18:09.000Z</time>
      </trkpt>
      <trkpt lat="47.2638" lon="-2.33245">
        <ele>22.799999237061</ele>
        <time>2020-07-30T07:18:14.000Z</time>
      </trkpt>
      <trkpt lat="47.26384" lon="-2.33257">
        <ele>22.799999237061</ele>
        <time>2020-07-30T07:18:16.000Z</time>
      </trkpt>
      <trkpt lat="47.26394" lon="-2.33268">
        <ele>22.799999237061</ele>
        <time>2020-07-30T07:18:19.000Z</time>
      </trkpt>
      <trkpt lat="47.26406" lon="-2.33274">
        <ele>23.200000762939</ele>
        <time>2020-07-30T07:18:22.000Z</time>
      </trkpt>
      <trkpt lat="47.2641" lon="-2.33276">
        <ele>23.60000038147</ele>
        <time>2020-07-30T07:18:23.000Z</time>
      </trkpt>
      <trkpt lat="47.26414" lon="-2.33276">
        <ele>24</ele>
        <time>2020-07-30T07:18:24.000Z</time>
      </trkpt>
      <trkpt lat="47.26419" lon="-2.33276">
        <ele>24.39999961853</ele>
        <time>2020-07-30T07:18:25.000Z</time>
      </trkpt>
      <trkpt lat="47.26423" lon="-2.33276">
        <ele>24.799999237061</ele>
        <time>2020-07-30T07:18:26.000Z</time>
      </trkpt>
      <trkpt lat="47.26427" lon="-2.33277">
        <ele>24.799999237061</ele>
        <time>2020-07-30T07:18:27.000Z</time>
      </trkpt>
      <trkpt lat="47.26455" lon="-2.33279">
        <ele>24.799999237061</ele>
        <time>2020-07-30T07:18:34.000Z</time>
      </trkpt>
      <trkpt lat="47.26481" lon="-2.33278">
        <ele>24.799999237061</ele>
        <time>2020-07-30T07:18:41.000Z</time>
      </trkpt>
      <trkpt lat="47.26504" lon="-2.3328">
        <ele>24.799999237061</ele>
        <time>2020-07-30T07:18:48.000Z</time>
      </trkpt>
      <trkpt lat="47.2652" lon="-2.33285">
        <ele>24.799999237061</ele>
        <time>2020-07-30T07:18:53.000Z</time>
      </trkpt>
      <trkpt lat="47.26531" lon="-2.33286">
        <ele>24.799999237061</ele>
        <time>2020-07-30T07:18:57.000Z</time>
      </trkpt>
      <trkpt lat="47.26532" lon="-2.3329">
        <ele>24.799999237061</ele>
        <time>2020-07-30T07:18:58.000Z</time>
      </trkpt>
      <trkpt lat="47.26539" lon="-2.33298">
        <ele>24.799999237061</ele>
        <time>2020-07-30T07:19:01.000Z</time>
      </trkpt>
      <trkpt lat="47.2655" lon="-2.33286">
        <ele>24.799999237061</ele>
        <time>2020-07-30T07:19:05.000Z</time>
      </trkpt>
      <trkpt lat="47.26556" lon="-2.3328">
        <ele>25.200000762939</ele>
        <time>2020-07-30T07:19:07.000Z</time>
      </trkpt>
      <trkpt lat="47.26559" lon="-2.33277">
        <ele>26</ele>
        <time>2020-07-30T07:19:08.000Z</time>
      </trkpt>
      <trkpt lat="47.26563" lon="-2.33273">
        <ele>26.39999961853</ele>
        <time>2020-07-30T07:19:09.000Z</time>
      </trkpt>
      <trkpt lat="47.26566" lon="-2.33269">
        <ele>27</ele>
        <time>2020-07-30T07:19:10.000Z</time>
      </trkpt>
      <trkpt lat="47.26574" lon="-2.33262">
        <ele>27</ele>
        <time>2020-07-30T07:19:12.000Z</time>
      </trkpt>
      <trkpt lat="47.266" lon="-2.33237">
        <ele>27</ele>
        <time>2020-07-30T07:19:19.000Z</time>
      </trkpt>
      <trkpt lat="47.26628" lon="-2.33208">
        <ele>27</ele>
        <time>2020-07-30T07:19:27.000Z</time>
      </trkpt>
      <trkpt lat="47.26656" lon="-2.3318">
        <ele>27</ele>
        <time>2020-07-30T07:19:35.000Z</time>
      </trkpt>
      <trkpt lat="47.2667" lon="-2.33165">
        <ele>27.39999961853</ele>
        <time>2020-07-30T07:19:39.000Z</time>
      </trkpt>
      <trkpt lat="47.26674" lon="-2.33161">
        <ele>27.799999237061</ele>
        <time>2020-07-30T07:19:40.000Z</time>
      </trkpt>
      <trkpt lat="47.26678" lon="-2.33157">
        <ele>28.200000762939</ele>
        <time>2020-07-30T07:19:41.000Z</time>
      </trkpt>
      <trkpt lat="47.26682" lon="-2.33153">
        <ele>28.60000038147</ele>
        <time>2020-07-30T07:19:42.000Z</time>
      </trkpt>
      <trkpt lat="47.26685" lon="-2.33149">
        <ele>29</ele>
        <time>2020-07-30T07:19:43.000Z</time>
      </trkpt>
      <trkpt lat="47.26719" lon="-2.33116">
        <ele>29</ele>
        <time>2020-07-30T07:19:52.000Z</time>
      </trkpt>
      <trkpt lat="47.26741" lon="-2.33092">
        <ele>29</ele>
        <time>2020-07-30T07:19:59.000Z</time>
      </trkpt>
      <trkpt lat="47.26754" lon="-2.33088">
        <ele>29</ele>
        <time>2020-07-30T07:20:03.000Z</time>
      </trkpt>
      <trkpt lat="47.26758" lon="-2.33091">
        <ele>29</ele>
        <time>2020-07-30T07:20:04.000Z</time>
      </trkpt>
      <trkpt lat="47.26763" lon="-2.3311">
        <ele>29</ele>
        <time>2020-07-30T07:20:07.000Z</time>
      </trkpt>
      <trkpt lat="47.2676" lon="-2.3314">
        <ele>29</ele>
        <time>2020-07-30T07:20:11.000Z</time>
      </trkpt>
      <trkpt lat="47.26757" lon="-2.33148">
        <ele>29</ele>
        <time>2020-07-30T07:20:12.000Z</time>
      </trkpt>
      <trkpt lat="47.26744" lon="-2.33193">
        <ele>29</ele>
        <time>2020-07-30T07:20:18.000Z</time>
      </trkpt>
      <trkpt lat="47.2673" lon="-2.3324">
        <ele>29</ele>
        <time>2020-07-30T07:20:25.000Z</time>
      </trkpt>
      <trkpt lat="47.26727" lon="-2.33261">
        <ele>29</ele>
        <time>2020-07-30T07:20:28.000Z</time>
      </trkpt>
      <trkpt lat="47.26727" lon="-2.33276">
        <ele>29</ele>
        <time>2020-07-30T07:20:30.000Z</time>
      </trkpt>
      <trkpt lat="47.2673" lon="-2.33292">
        <ele>29</ele>
        <time>2020-07-30T07:20:32.000Z</time>
      </trkpt>
      <trkpt lat="47.26731" lon="-2.33299">
        <ele>29</ele>
        <time>2020-07-30T07:20:33.000Z</time>
      </trkpt>
      <trkpt lat="47.26735" lon="-2.33311">
        <ele>29</ele>
        <time>2020-07-30T07:20:35.000Z</time>
      </trkpt>
      <trkpt lat="47.26745" lon="-2.33351">
        <ele>29</ele>
        <time>2020-07-30T07:20:41.000Z</time>
      </trkpt>
      <trkpt lat="47.26748" lon="-2.33365">
        <ele>29</ele>
        <time>2020-07-30T07:20:43.000Z</time>
      </trkpt>
      <trkpt lat="47.26754" lon="-2.33416">
        <ele>29</ele>
        <time>2020-07-30T07:20:50.000Z</time>
      </trkpt>
      <trkpt lat="47.26759" lon="-2.33468">
        <ele>29</ele>
        <time>2020-07-30T07:20:58.000Z</time>
      </trkpt>
      <trkpt lat="47.26762" lon="-2.33489">
        <ele>29</ele>
        <time>2020-07-30T07:21:01.000Z</time>
      </trkpt>
      <trkpt lat="47.26763" lon="-2.33501">
        <ele>29</ele>
        <time>2020-07-30T07:21:03.000Z</time>
      </trkpt>
      <trkpt lat="47.26765" lon="-2.33507">
        <ele>29</ele>
        <time>2020-07-30T07:21:04.000Z</time>
      </trkpt>
      <trkpt lat="47.26774" lon="-2.33554">
        <ele>29</ele>
        <time>2020-07-30T07:21:11.000Z</time>
      </trkpt>
      <trkpt lat="47.26776" lon="-2.33574">
        <ele>29.39999961853</ele>
        <time>2020-07-30T07:21:14.000Z</time>
      </trkpt>
      <trkpt lat="47.26777" lon="-2.3358">
        <ele>29.799999237061</ele>
        <time>2020-07-30T07:21:15.000Z</time>
      </trkpt>
      <trkpt lat="47.26777" lon="-2.33587">
        <ele>30.200000762939</ele>
        <time>2020-07-30T07:21:16.000Z</time>
      </trkpt>
      <trkpt lat="47.26778" lon="-2.33593">
        <ele>30.60000038147</ele>
        <time>2020-07-30T07:21:17.000Z</time>
      </trkpt>
      <trkpt lat="47.26778" lon="-2.336">
        <ele>31</ele>
        <time>2020-07-30T07:21:18.000Z</time>
      </trkpt>
      <trkpt lat="47.26777" lon="-2.33658">
        <ele>31</ele>
        <time>2020-07-30T07:21:27.000Z</time>
      </trkpt>
      <trkpt lat="47.26776" lon="-2.33671">
        <ele>31.39999961853</ele>
        <time>2020-07-30T07:21:29.000Z</time>
      </trkpt>
      <trkpt lat="47.26776" lon="-2.33677">
        <ele>31.799999237061</ele>
        <time>2020-07-30T07:21:30.000Z</time>
      </trkpt>
      <trkpt lat="47.26777" lon="-2.33683">
        <ele>32.200000762939</ele>
        <time>2020-07-30T07:21:31.000Z</time>
      </trkpt>
      <trkpt lat="47.26778" lon="-2.33688">
        <ele>32.599998474121</ele>
        <time>2020-07-30T07:21:32.000Z</time>
      </trkpt>
      <trkpt lat="47.26779" lon="-2.33694">
        <ele>33.200000762939</ele>
        <time>2020-07-30T07:21:33.000Z</time>
      </trkpt>
      <trkpt lat="47.26792" lon="-2.33718">
        <ele>33.200000762939</ele>
        <time>2020-07-30T07:21:38.000Z</time>
      </trkpt>
      <trkpt lat="47.26796" lon="-2.33723">
        <ele>33.200000762939</ele>
        <time>2020-07-30T07:21:39.000Z</time>
      </trkpt>
      <trkpt lat="47.26806" lon="-2.33735">
        <ele>33.200000762939</ele>
        <time>2020-07-30T07:21:42.000Z</time>
      </trkpt>
      <trkpt lat="47.26809" lon="-2.33739">
        <ele>33.599998474121</ele>
        <time>2020-07-30T07:21:43.000Z</time>
      </trkpt>
      <trkpt lat="47.26813" lon="-2.33742">
        <ele>34</ele>
        <time>2020-07-30T07:21:44.000Z</time>
      </trkpt>
      <trkpt lat="47.26817" lon="-2.33746">
        <ele>34.400001525879</ele>
        <time>2020-07-30T07:21:45.000Z</time>
      </trkpt>
      <trkpt lat="47.2682" lon="-2.3375">
        <ele>34.799999237061</ele>
        <time>2020-07-30T07:21:46.000Z</time>
      </trkpt>
      <trkpt lat="47.26824" lon="-2.33755">
        <ele>35.200000762939</ele>
        <time>2020-07-30T07:21:47.000Z</time>
      </trkpt>
      <trkpt lat="47.26835" lon="-2.33767">
        <ele>35.200000762939</ele>
        <time>2020-07-30T07:21:50.000Z</time>
      </trkpt>
      <trkpt lat="47.26843" lon="-2.33774">
        <ele>35.200000762939</ele>
        <time>2020-07-30T07:21:52.000Z</time>
      </trkpt>
      <trkpt lat="47.26852" lon="-2.33778">
        <ele>35.200000762939</ele>
        <time>2020-07-30T07:21:54.000Z</time>
      </trkpt>
      <trkpt lat="47.26874" lon="-2.33787">
        <ele>35.200000762939</ele>
        <time>2020-07-30T07:21:59.000Z</time>
      </trkpt>
      <trkpt lat="47.26878" lon="-2.33789">
        <ele>35.200000762939</ele>
        <time>2020-07-30T07:22:00.000Z</time>
      </trkpt>
      <trkpt lat="47.26891" lon="-2.33796">
        <ele>35.200000762939</ele>
        <time>2020-07-30T07:22:03.000Z</time>
      </trkpt>
      <trkpt lat="47.26897" lon="-2.33807">
        <ele>35.200000762939</ele>
        <time>2020-07-30T07:22:05.000Z</time>
      </trkpt>
      <trkpt lat="47.269" lon="-2.33819">
        <ele>35.200000762939</ele>
        <time>2020-07-30T07:22:07.000Z</time>
      </trkpt>
      <trkpt lat="47.26909" lon="-2.33859">
        <ele>35.200000762939</ele>
        <time>2020-07-30T07:22:13.000Z</time>
      </trkpt>
      <trkpt lat="47.26921" lon="-2.33909">
        <ele>35.200000762939</ele>
        <time>2020-07-30T07:22:21.000Z</time>
      </trkpt>
      <trkpt lat="47.26925" lon="-2.33929">
        <ele>35.599998474121</ele>
        <time>2020-07-30T07:22:24.000Z</time>
      </trkpt>
      <trkpt lat="47.26927" lon="-2.33935">
        <ele>36</ele>
        <time>2020-07-30T07:22:25.000Z</time>
      </trkpt>
      <trkpt lat="47.26928" lon="-2.33942">
        <ele>36.799999237061</ele>
        <time>2020-07-30T07:22:26.000Z</time>
      </trkpt>
      <trkpt lat="47.26929" lon="-2.33949">
        <ele>37.200000762939</ele>
        <time>2020-07-30T07:22:27.000Z</time>
      </trkpt>
      <trkpt lat="47.26936" lon="-2.33975">
        <ele>37.200000762939</ele>
        <time>2020-07-30T07:22:31.000Z</time>
      </trkpt>
      <trkpt lat="47.26947" lon="-2.34021">
        <ele>37.200000762939</ele>
        <time>2020-07-30T07:22:38.000Z</time>
      </trkpt>
      <trkpt lat="47.26961" lon="-2.34083">
        <ele>37.599998474121</ele>
        <time>2020-07-30T07:22:47.000Z</time>
      </trkpt>
      <trkpt lat="47.26962" lon="-2.3409">
        <ele>38</ele>
        <time>2020-07-30T07:22:48.000Z</time>
      </trkpt>
      <trkpt lat="47.26964" lon="-2.34097">
        <ele>38.400001525879</ele>
        <time>2020-07-30T07:22:49.000Z</time>
      </trkpt>
      <trkpt lat="47.26965" lon="-2.34104">
        <ele>38.799999237061</ele>
        <time>2020-07-30T07:22:50.000Z</time>
      </trkpt>
      <trkpt lat="47.26967" lon="-2.34111">
        <ele>39.200000762939</ele>
        <time>2020-07-30T07:22:51.000Z</time>
      </trkpt>
      <trkpt lat="47.26972" lon="-2.34138">
        <ele>39.200000762939</ele>
        <time>2020-07-30T07:22:55.000Z</time>
      </trkpt>
      <trkpt lat="47.26985" lon="-2.34199">
        <ele>39.200000762939</ele>
        <time>2020-07-30T07:23:04.000Z</time>
      </trkpt>
      <trkpt lat="47.26996" lon="-2.34244">
        <ele>39.200000762939</ele>
        <time>2020-07-30T07:23:11.000Z</time>
      </trkpt>
      <trkpt lat="47.27007" lon="-2.34291">
        <ele>39.200000762939</ele>
        <time>2020-07-30T07:23:19.000Z</time>
      </trkpt>
      <trkpt lat="47.27006" lon="-2.34307">
        <ele>39.200000762939</ele>
        <time>2020-07-30T07:23:23.000Z</time>
      </trkpt>
      <trkpt lat="47.27006" lon="-2.3431">
        <ele>39.200000762939</ele>
        <time>2020-07-30T07:23:24.000Z</time>
      </trkpt>
      <trkpt lat="47.27007" lon="-2.34312">
        <ele>39.200000762939</ele>
        <time>2020-07-30T07:23:26.000Z</time>
      </trkpt>
      <trkpt lat="47.27008" lon="-2.34316">
        <ele>41.200000762939</ele>
        <time>2020-07-30T07:23:48.000Z</time>
      </trkpt>
      <trkpt lat="47.27015" lon="-2.34321">
        <ele>41.200000762939</ele>
        <time>2020-07-30T07:23:52.000Z</time>
      </trkpt>
      <trkpt lat="47.27018" lon="-2.34321">
        <ele>41.200000762939</ele>
        <time>2020-07-30T07:23:53.000Z</time>
      </trkpt>
      <trkpt lat="47.2703" lon="-2.34321">
        <ele>41.200000762939</ele>
        <time>2020-07-30T07:23:59.000Z</time>
      </trkpt>
      <trkpt lat="47.27035" lon="-2.34328">
        <ele>41.200000762939</ele>
        <time>2020-07-30T07:24:02.000Z</time>
      </trkpt>
      <trkpt lat="47.27037" lon="-2.34332">
        <ele>41.200000762939</ele>
        <time>2020-07-30T07:24:03.000Z</time>
      </trkpt>
      <trkpt lat="47.27041" lon="-2.34349">
        <ele>41.200000762939</ele>
        <time>2020-07-30T07:24:06.000Z</time>
      </trkpt>
      <trkpt lat="47.27044" lon="-2.34362">
        <ele>41.200000762939</ele>
        <time>2020-07-30T07:24:08.000Z</time>
      </trkpt>
      <trkpt lat="47.27056" lon="-2.34414">
        <ele>41.200000762939</ele>
        <time>2020-07-30T07:24:15.000Z</time>
      </trkpt>
      <trkpt lat="47.27067" lon="-2.34466">
        <ele>41.799999237061</ele>
        <time>2020-07-30T07:24:22.000Z</time>
      </trkpt>
      <trkpt lat="47.27069" lon="-2.34473">
        <ele>42.200000762939</ele>
        <time>2020-07-30T07:24:23.000Z</time>
      </trkpt>
      <trkpt lat="47.27071" lon="-2.3448">
        <ele>42.599998474121</ele>
        <time>2020-07-30T07:24:24.000Z</time>
      </trkpt>
      <trkpt lat="47.27072" lon="-2.34488">
        <ele>43</ele>
        <time>2020-07-30T07:24:25.000Z</time>
      </trkpt>
      <trkpt lat="47.27074" lon="-2.34496">
        <ele>43.400001525879</ele>
        <time>2020-07-30T07:24:26.000Z</time>
      </trkpt>
      <trkpt lat="47.27081" lon="-2.34525">
        <ele>43.400001525879</ele>
        <time>2020-07-30T07:24:30.000Z</time>
      </trkpt>
      <trkpt lat="47.27097" lon="-2.34596">
        <ele>43.400001525879</ele>
        <time>2020-07-30T07:24:40.000Z</time>
      </trkpt>
      <trkpt lat="47.27113" lon="-2.34667">
        <ele>43.400001525879</ele>
        <time>2020-07-30T07:24:49.000Z</time>
      </trkpt>
      <trkpt lat="47.27127" lon="-2.34721">
        <ele>43.400001525879</ele>
        <time>2020-07-30T07:24:56.000Z</time>
      </trkpt>
      <trkpt lat="47.27136" lon="-2.34768">
        <ele>43.400001525879</ele>
        <time>2020-07-30T07:25:02.000Z</time>
      </trkpt>
      <trkpt lat="47.27149" lon="-2.34829">
        <ele>43.400001525879</ele>
        <time>2020-07-30T07:25:10.000Z</time>
      </trkpt>
      <trkpt lat="47.27156" lon="-2.34859">
        <ele>43.799999237061</ele>
        <time>2020-07-30T07:25:14.000Z</time>
      </trkpt>
      <trkpt lat="47.27158" lon="-2.34867">
        <ele>44.200000762939</ele>
        <time>2020-07-30T07:25:15.000Z</time>
      </trkpt>
      <trkpt lat="47.2716" lon="-2.34874">
        <ele>44.599998474121</ele>
        <time>2020-07-30T07:25:16.000Z</time>
      </trkpt>
      <trkpt lat="47.27162" lon="-2.34881">
        <ele>45</ele>
        <time>2020-07-30T07:25:17.000Z</time>
      </trkpt>
      <trkpt lat="47.27164" lon="-2.34888">
        <ele>45.400001525879</ele>
        <time>2020-07-30T07:25:18.000Z</time>
      </trkpt>
      <trkpt lat="47.27177" lon="-2.34929">
        <ele>45.400001525879</ele>
        <time>2020-07-30T07:25:24.000Z</time>
      </trkpt>
      <trkpt lat="47.2719" lon="-2.34969">
        <ele>45.400001525879</ele>
        <time>2020-07-30T07:25:30.000Z</time>
      </trkpt>
      <trkpt lat="47.27192" lon="-2.34976">
        <ele>45.400001525879</ele>
        <time>2020-07-30T07:25:31.000Z</time>
      </trkpt>
      <trkpt lat="47.27208" lon="-2.35021">
        <ele>45.400001525879</ele>
        <time>2020-07-30T07:25:38.000Z</time>
      </trkpt>
      <trkpt lat="47.27223" lon="-2.3506">
        <ele>45.400001525879</ele>
        <time>2020-07-30T07:25:44.000Z</time>
      </trkpt>
      <trkpt lat="47.27245" lon="-2.35104">
        <ele>45.400001525879</ele>
        <time>2020-07-30T07:25:51.000Z</time>
      </trkpt>
      <trkpt lat="47.2725" lon="-2.35116">
        <ele>45.799999237061</ele>
        <time>2020-07-30T07:25:53.000Z</time>
      </trkpt>
      <trkpt lat="47.27252" lon="-2.3512">
        <ele>46.200000762939</ele>
        <time>2020-07-30T07:25:54.000Z</time>
      </trkpt>
      <trkpt lat="47.27255" lon="-2.35123">
        <ele>46.599998474121</ele>
        <time>2020-07-30T07:25:55.000Z</time>
      </trkpt>
      <trkpt lat="47.27257" lon="-2.35124">
        <ele>47</ele>
        <time>2020-07-30T07:25:56.000Z</time>
      </trkpt>
      <trkpt lat="47.27261" lon="-2.35123">
        <ele>47.400001525879</ele>
        <time>2020-07-30T07:25:57.000Z</time>
      </trkpt>
      <trkpt lat="47.27275" lon="-2.35116">
        <ele>47.400001525879</ele>
        <time>2020-07-30T07:26:01.000Z</time>
      </trkpt>
      <trkpt lat="47.27294" lon="-2.35106">
        <ele>47.400001525879</ele>
        <time>2020-07-30T07:26:07.000Z</time>
      </trkpt>
      <trkpt lat="47.27296" lon="-2.35105">
        <ele>48.200000762939</ele>
        <time>2020-07-30T07:26:08.000Z</time>
      </trkpt>
      <trkpt lat="47.27299" lon="-2.35106">
        <ele>48.599998474121</ele>
        <time>2020-07-30T07:26:09.000Z</time>
      </trkpt>
      <trkpt lat="47.27301" lon="-2.35109">
        <ele>49</ele>
        <time>2020-07-30T07:26:10.000Z</time>
      </trkpt>
      <trkpt lat="47.27303" lon="-2.35113">
        <ele>49.400001525879</ele>
        <time>2020-07-30T07:26:11.000Z</time>
      </trkpt>
      <trkpt lat="47.27307" lon="-2.35124">
        <ele>49.400001525879</ele>
        <time>2020-07-30T07:26:13.000Z</time>
      </trkpt>
      <trkpt lat="47.27309" lon="-2.3513">
        <ele>49.400001525879</ele>
        <time>2020-07-30T07:26:14.000Z</time>
      </trkpt>
      <trkpt lat="47.27312" lon="-2.35143">
        <ele>49.400001525879</ele>
        <time>2020-07-30T07:26:16.000Z</time>
      </trkpt>
      <trkpt lat="47.27315" lon="-2.35157">
        <ele>49.400001525879</ele>
        <time>2020-07-30T07:26:18.000Z</time>
      </trkpt>
      <trkpt lat="47.27321" lon="-2.35183">
        <ele>49.400001525879</ele>
        <time>2020-07-30T07:26:22.000Z</time>
      </trkpt>
      <trkpt lat="47.27331" lon="-2.35228">
        <ele>49.400001525879</ele>
        <time>2020-07-30T07:26:28.000Z</time>
      </trkpt>
      <trkpt lat="47.27342" lon="-2.35278">
        <ele>49.400001525879</ele>
        <time>2020-07-30T07:26:35.000Z</time>
      </trkpt>
      <trkpt lat="47.27345" lon="-2.35284">
        <ele>49.400001525879</ele>
        <time>2020-07-30T07:26:36.000Z</time>
      </trkpt>
      <trkpt lat="47.27349" lon="-2.35297">
        <ele>49.400001525879</ele>
        <time>2020-07-30T07:26:38.000Z</time>
      </trkpt>
      <trkpt lat="47.27361" lon="-2.35355">
        <ele>49.400001525879</ele>
        <time>2020-07-30T07:26:45.000Z</time>
      </trkpt>
      <trkpt lat="47.27373" lon="-2.35417">
        <ele>49</ele>
        <time>2020-07-30T07:26:52.000Z</time>
      </trkpt>
      <trkpt lat="47.27375" lon="-2.35427">
        <ele>48.599998474121</ele>
        <time>2020-07-30T07:26:53.000Z</time>
      </trkpt>
      <trkpt lat="47.27378" lon="-2.35437">
        <ele>48.200000762939</ele>
        <time>2020-07-30T07:26:54.000Z</time>
      </trkpt>
      <trkpt lat="47.2738" lon="-2.35446">
        <ele>47.799999237061</ele>
        <time>2020-07-30T07:26:55.000Z</time>
      </trkpt>
      <trkpt lat="47.27382" lon="-2.35456">
        <ele>47.400001525879</ele>
        <time>2020-07-30T07:26:56.000Z</time>
      </trkpt>
      <trkpt lat="47.27388" lon="-2.35484">
        <ele>47.400001525879</ele>
        <time>2020-07-30T07:26:59.000Z</time>
      </trkpt>
      <trkpt lat="47.27398" lon="-2.35531">
        <ele>47.400001525879</ele>
        <time>2020-07-30T07:27:05.000Z</time>
      </trkpt>
      <trkpt lat="47.27403" lon="-2.35563">
        <ele>47</ele>
        <time>2020-07-30T07:27:09.000Z</time>
      </trkpt>
      <trkpt lat="47.27405" lon="-2.3557">
        <ele>46.400001525879</ele>
        <time>2020-07-30T07:27:10.000Z</time>
      </trkpt>
      <trkpt lat="47.27406" lon="-2.35577">
        <ele>46</ele>
        <time>2020-07-30T07:27:11.000Z</time>
      </trkpt>
      <trkpt lat="47.27407" lon="-2.35585">
        <ele>45.599998474121</ele>
        <time>2020-07-30T07:27:12.000Z</time>
      </trkpt>
      <trkpt lat="47.27408" lon="-2.35593">
        <ele>45.200000762939</ele>
        <time>2020-07-30T07:27:13.000Z</time>
      </trkpt>
      <trkpt lat="47.27411" lon="-2.35623">
        <ele>45.200000762939</ele>
        <time>2020-07-30T07:27:17.000Z</time>
      </trkpt>
      <trkpt lat="47.27416" lon="-2.35659">
        <ele>45.200000762939</ele>
        <time>2020-07-30T07:27:22.000Z</time>
      </trkpt>
      <trkpt lat="47.27413" lon="-2.35665">
        <ele>45.200000762939</ele>
        <time>2020-07-30T07:27:23.000Z</time>
      </trkpt>
      <trkpt lat="47.27405" lon="-2.35672">
        <ele>44.799999237061</ele>
        <time>2020-07-30T07:27:25.000Z</time>
      </trkpt>
      <trkpt lat="47.274" lon="-2.35675">
        <ele>44.400001525879</ele>
        <time>2020-07-30T07:27:26.000Z</time>
      </trkpt>
      <trkpt lat="47.27395" lon="-2.35678">
        <ele>44</ele>
        <time>2020-07-30T07:27:27.000Z</time>
      </trkpt>
      <trkpt lat="47.2739" lon="-2.35681">
        <ele>43.599998474121</ele>
        <time>2020-07-30T07:27:28.000Z</time>
      </trkpt>
      <trkpt lat="47.27385" lon="-2.35684">
        <ele>43.200000762939</ele>
        <time>2020-07-30T07:27:29.000Z</time>
      </trkpt>
      <trkpt lat="47.27365" lon="-2.35698">
        <ele>43.200000762939</ele>
        <time>2020-07-30T07:27:33.000Z</time>
      </trkpt>
      <trkpt lat="47.27331" lon="-2.35726">
        <ele>43.200000762939</ele>
        <time>2020-07-30T07:27:40.000Z</time>
      </trkpt>
      <trkpt lat="47.27328" lon="-2.35731">
        <ele>43.200000762939</ele>
        <time>2020-07-30T07:27:41.000Z</time>
      </trkpt>
      <trkpt lat="47.27325" lon="-2.35742">
        <ele>43.200000762939</ele>
        <time>2020-07-30T07:27:43.000Z</time>
      </trkpt>
      <trkpt lat="47.27331" lon="-2.35761">
        <ele>43.200000762939</ele>
        <time>2020-07-30T07:27:46.000Z</time>
      </trkpt>
      <trkpt lat="47.27336" lon="-2.35775">
        <ele>43.200000762939</ele>
        <time>2020-07-30T07:27:48.000Z</time>
      </trkpt>
      <trkpt lat="47.27341" lon="-2.35789">
        <ele>43.599998474121</ele>
        <time>2020-07-30T07:27:50.000Z</time>
      </trkpt>
      <trkpt lat="47.27343" lon="-2.35797">
        <ele>44</ele>
        <time>2020-07-30T07:27:51.000Z</time>
      </trkpt>
      <trkpt lat="47.27346" lon="-2.35804">
        <ele>44.400001525879</ele>
        <time>2020-07-30T07:27:52.000Z</time>
      </trkpt>
      <trkpt lat="47.27349" lon="-2.35811">
        <ele>44.799999237061</ele>
        <time>2020-07-30T07:27:53.000Z</time>
      </trkpt>
      <trkpt lat="47.27352" lon="-2.35819">
        <ele>45.200000762939</ele>
        <time>2020-07-30T07:27:54.000Z</time>
      </trkpt>
      <trkpt lat="47.2737" lon="-2.35866">
        <ele>45.200000762939</ele>
        <time>2020-07-30T07:28:00.000Z</time>
      </trkpt>
      <trkpt lat="47.27384" lon="-2.35896">
        <ele>45.599998474121</ele>
        <time>2020-07-30T07:28:04.000Z</time>
      </trkpt>
      <trkpt lat="47.27387" lon="-2.35904">
        <ele>46</ele>
        <time>2020-07-30T07:28:05.000Z</time>
      </trkpt>
      <trkpt lat="47.2739" lon="-2.35911">
        <ele>46.400001525879</ele>
        <time>2020-07-30T07:28:06.000Z</time>
      </trkpt>
      <trkpt lat="47.27393" lon="-2.35919">
        <ele>46.799999237061</ele>
        <time>2020-07-30T07:28:07.000Z</time>
      </trkpt>
      <trkpt lat="47.27396" lon="-2.35927">
        <ele>47.200000762939</ele>
        <time>2020-07-30T07:28:08.000Z</time>
      </trkpt>
      <trkpt lat="47.27418" lon="-2.3598">
        <ele>47.200000762939</ele>
        <time>2020-07-30T07:28:15.000Z</time>
      </trkpt>
      <trkpt lat="47.27435" lon="-2.3602">
        <ele>47.200000762939</ele>
        <time>2020-07-30T07:28:21.000Z</time>
      </trkpt>
      <trkpt lat="47.27459" lon="-2.36071">
        <ele>47.200000762939</ele>
        <time>2020-07-30T07:28:29.000Z</time>
      </trkpt>
      <trkpt lat="47.27465" lon="-2.36084">
        <ele>47.200000762939</ele>
        <time>2020-07-30T07:28:31.000Z</time>
      </trkpt>
      <trkpt lat="47.27469" lon="-2.361">
        <ele>47.200000762939</ele>
        <time>2020-07-30T07:28:33.000Z</time>
      </trkpt>
      <trkpt lat="47.27474" lon="-2.36116">
        <ele>47.200000762939</ele>
        <time>2020-07-30T07:28:35.000Z</time>
      </trkpt>
      <trkpt lat="47.27488" lon="-2.36156">
        <ele>47.200000762939</ele>
        <time>2020-07-30T07:28:40.000Z</time>
      </trkpt>
      <trkpt lat="47.27503" lon="-2.36196">
        <ele>47.799999237061</ele>
        <time>2020-07-30T07:28:45.000Z</time>
      </trkpt>
      <trkpt lat="47.27506" lon="-2.36204">
        <ele>48.200000762939</ele>
        <time>2020-07-30T07:28:46.000Z</time>
      </trkpt>
      <trkpt lat="47.27509" lon="-2.36212">
        <ele>48.599998474121</ele>
        <time>2020-07-30T07:28:47.000Z</time>
      </trkpt>
      <trkpt lat="47.27512" lon="-2.3622">
        <ele>49</ele>
        <time>2020-07-30T07:28:48.000Z</time>
      </trkpt>
      <trkpt lat="47.27515" lon="-2.36228">
        <ele>49.400001525879</ele>
        <time>2020-07-30T07:28:49.000Z</time>
      </trkpt>
      <trkpt lat="47.27542" lon="-2.36298">
        <ele>49.400001525879</ele>
        <time>2020-07-30T07:28:58.000Z</time>
      </trkpt>
      <trkpt lat="47.27566" lon="-2.36361">
        <ele>49.400001525879</ele>
        <time>2020-07-30T07:29:06.000Z</time>
      </trkpt>
      <trkpt lat="47.27583" lon="-2.36407">
        <ele>49.400001525879</ele>
        <time>2020-07-30T07:29:12.000Z</time>
      </trkpt>
      <trkpt lat="47.27602" lon="-2.3646">
        <ele>49.400001525879</ele>
        <time>2020-07-30T07:29:19.000Z</time>
      </trkpt>
      <trkpt lat="47.27624" lon="-2.36518">
        <ele>49.400001525879</ele>
        <time>2020-07-30T07:29:27.000Z</time>
      </trkpt>
      <trkpt lat="47.27643" lon="-2.3657">
        <ele>49.400001525879</ele>
        <time>2020-07-30T07:29:34.000Z</time>
      </trkpt>
      <trkpt lat="47.27667" lon="-2.36639">
        <ele>49.400001525879</ele>
        <time>2020-07-30T07:29:43.000Z</time>
      </trkpt>
      <trkpt lat="47.2769" lon="-2.3671">
        <ele>49.400001525879</ele>
        <time>2020-07-30T07:29:52.000Z</time>
      </trkpt>
      <trkpt lat="47.27711" lon="-2.3677">
        <ele>49.400001525879</ele>
        <time>2020-07-30T07:29:59.000Z</time>
      </trkpt>
      <trkpt lat="47.27729" lon="-2.36834">
        <ele>49.400001525879</ele>
        <time>2020-07-30T07:30:06.000Z</time>
      </trkpt>
      <trkpt lat="47.27746" lon="-2.36893">
        <ele>49.400001525879</ele>
        <time>2020-07-30T07:30:13.000Z</time>
      </trkpt>
      <trkpt lat="47.27767" lon="-2.36963">
        <ele>49.400001525879</ele>
        <time>2020-07-30T07:30:22.000Z</time>
      </trkpt>
      <trkpt lat="47.27787" lon="-2.37037">
        <ele>49.799999237061</ele>
        <time>2020-07-30T07:30:31.000Z</time>
      </trkpt>
      <trkpt lat="47.27789" lon="-2.37045">
        <ele>50.200000762939</ele>
        <time>2020-07-30T07:30:32.000Z</time>
      </trkpt>
      <trkpt lat="47.27791" lon="-2.37053">
        <ele>50.599998474121</ele>
        <time>2020-07-30T07:30:33.000Z</time>
      </trkpt>
      <trkpt lat="47.27794" lon="-2.37061">
        <ele>51</ele>
        <time>2020-07-30T07:30:34.000Z</time>
      </trkpt>
      <trkpt lat="47.27796" lon="-2.37068">
        <ele>51.400001525879</ele>
        <time>2020-07-30T07:30:35.000Z</time>
      </trkpt>
      <trkpt lat="47.27805" lon="-2.37106">
        <ele>51.400001525879</ele>
        <time>2020-07-30T07:30:40.000Z</time>
      </trkpt>
      <trkpt lat="47.2782" lon="-2.3715">
        <ele>51.400001525879</ele>
        <time>2020-07-30T07:30:46.000Z</time>
      </trkpt>
      <trkpt lat="47.27828" lon="-2.3717">
        <ele>51.400001525879</ele>
        <time>2020-07-30T07:30:49.000Z</time>
      </trkpt>
      <trkpt lat="47.27833" lon="-2.37183">
        <ele>51.400001525879</ele>
        <time>2020-07-30T07:30:51.000Z</time>
      </trkpt>
      <trkpt lat="47.27834" lon="-2.37208">
        <ele>51.400001525879</ele>
        <time>2020-07-30T07:30:54.000Z</time>
      </trkpt>
      <trkpt lat="47.27841" lon="-2.37242">
        <ele>51.400001525879</ele>
        <time>2020-07-30T07:30:58.000Z</time>
      </trkpt>
      <trkpt lat="47.27859" lon="-2.37312">
        <ele>51.400001525879</ele>
        <time>2020-07-30T07:31:06.000Z</time>
      </trkpt>
      <trkpt lat="47.27881" lon="-2.3739">
        <ele>51.400001525879</ele>
        <time>2020-07-30T07:31:15.000Z</time>
      </trkpt>
      <trkpt lat="47.27894" lon="-2.37445">
        <ele>51.400001525879</ele>
        <time>2020-07-30T07:31:21.000Z</time>
      </trkpt>
      <trkpt lat="47.27909" lon="-2.37509">
        <ele>51.400001525879</ele>
        <time>2020-07-30T07:31:28.000Z</time>
      </trkpt>
      <trkpt lat="47.27926" lon="-2.37583">
        <ele>51.400001525879</ele>
        <time>2020-07-30T07:31:36.000Z</time>
      </trkpt>
      <trkpt lat="47.27944" lon="-2.37656">
        <ele>51.400001525879</ele>
        <time>2020-07-30T07:31:44.000Z</time>
      </trkpt>
      <trkpt lat="47.27962" lon="-2.37735">
        <ele>51.400001525879</ele>
        <time>2020-07-30T07:31:53.000Z</time>
      </trkpt>
      <trkpt lat="47.27975" lon="-2.37782">
        <ele>51.400001525879</ele>
        <time>2020-07-30T07:31:59.000Z</time>
      </trkpt>
      <trkpt lat="47.27979" lon="-2.37795">
        <ele>51.400001525879</ele>
        <time>2020-07-30T07:32:01.000Z</time>
      </trkpt>
      <trkpt lat="47.27982" lon="-2.37819">
        <ele>51.400001525879</ele>
        <time>2020-07-30T07:32:04.000Z</time>
      </trkpt>
      <trkpt lat="47.27986" lon="-2.37847">
        <ele>51.400001525879</ele>
        <time>2020-07-30T07:32:07.000Z</time>
      </trkpt>
      <trkpt lat="47.27988" lon="-2.37855">
        <ele>51.400001525879</ele>
        <time>2020-07-30T07:32:08.000Z</time>
      </trkpt>
      <trkpt lat="47.27992" lon="-2.37882">
        <ele>51.799999237061</ele>
        <time>2020-07-30T07:32:11.000Z</time>
      </trkpt>
      <trkpt lat="47.27994" lon="-2.37891">
        <ele>52.400001525879</ele>
        <time>2020-07-30T07:32:12.000Z</time>
      </trkpt>
      <trkpt lat="47.27996" lon="-2.379">
        <ele>52.799999237061</ele>
        <time>2020-07-30T07:32:13.000Z</time>
      </trkpt>
      <trkpt lat="47.27997" lon="-2.3791">
        <ele>53.200000762939</ele>
        <time>2020-07-30T07:32:14.000Z</time>
      </trkpt>
      <trkpt lat="47.27999" lon="-2.37918">
        <ele>53.599998474121</ele>
        <time>2020-07-30T07:32:15.000Z</time>
      </trkpt>
      <trkpt lat="47.28013" lon="-2.37988">
        <ele>53.599998474121</ele>
        <time>2020-07-30T07:32:23.000Z</time>
      </trkpt>
      <trkpt lat="47.28029" lon="-2.38073">
        <ele>53.599998474121</ele>
        <time>2020-07-30T07:32:32.000Z</time>
      </trkpt>
      <trkpt lat="47.28041" lon="-2.38144">
        <ele>53.599998474121</ele>
        <time>2020-07-30T07:32:39.000Z</time>
      </trkpt>
      <trkpt lat="47.28057" lon="-2.38216">
        <ele>53.599998474121</ele>
        <time>2020-07-30T07:32:46.000Z</time>
      </trkpt>
      <trkpt lat="47.28073" lon="-2.38297">
        <ele>53.599998474121</ele>
        <time>2020-07-30T07:32:54.000Z</time>
      </trkpt>
      <trkpt lat="47.28088" lon="-2.38381">
        <ele>53.599998474121</ele>
        <time>2020-07-30T07:33:02.000Z</time>
      </trkpt>
      <trkpt lat="47.281" lon="-2.38452">
        <ele>53.599998474121</ele>
        <time>2020-07-30T07:33:09.000Z</time>
      </trkpt>
      <trkpt lat="47.28111" lon="-2.38521">
        <ele>53.599998474121</ele>
        <time>2020-07-30T07:33:16.000Z</time>
      </trkpt>
      <trkpt lat="47.28117" lon="-2.38574">
        <ele>53.599998474121</ele>
        <time>2020-07-30T07:33:22.000Z</time>
      </trkpt>
      <trkpt lat="47.28123" lon="-2.38633">
        <ele>53.599998474121</ele>
        <time>2020-07-30T07:33:29.000Z</time>
      </trkpt>
      <trkpt lat="47.28128" lon="-2.3869">
        <ele>53.599998474121</ele>
        <time>2020-07-30T07:33:35.000Z</time>
      </trkpt>
      <trkpt lat="47.28136" lon="-2.38764">
        <ele>53.599998474121</ele>
        <time>2020-07-30T07:33:43.000Z</time>
      </trkpt>
      <trkpt lat="47.2814" lon="-2.38822">
        <ele>53.599998474121</ele>
        <time>2020-07-30T07:33:49.000Z</time>
      </trkpt>
      <trkpt lat="47.28142" lon="-2.38831">
        <ele>53.599998474121</ele>
        <time>2020-07-30T07:33:50.000Z</time>
      </trkpt>
      <trkpt lat="47.28152" lon="-2.38895">
        <ele>53.599998474121</ele>
        <time>2020-07-30T07:33:57.000Z</time>
      </trkpt>
      <trkpt lat="47.28164" lon="-2.38956">
        <ele>53.599998474121</ele>
        <time>2020-07-30T07:34:04.000Z</time>
      </trkpt>
      <trkpt lat="47.28169" lon="-2.39004">
        <ele>53.599998474121</ele>
        <time>2020-07-30T07:34:10.000Z</time>
      </trkpt>
      <trkpt lat="47.28171" lon="-2.39034">
        <ele>53.599998474121</ele>
        <time>2020-07-30T07:34:15.000Z</time>
      </trkpt>
      <trkpt lat="47.28174" lon="-2.39048">
        <ele>53.599998474121</ele>
        <time>2020-07-30T07:34:19.000Z</time>
      </trkpt>
      <trkpt lat="47.28176" lon="-2.39062">
        <ele>53.599998474121</ele>
        <time>2020-07-30T07:34:26.000Z</time>
      </trkpt>
      <trkpt lat="47.28176" lon="-2.39062">
        <ele>53.599998474121</ele>
        <time>2020-07-30T07:34:27.000Z</time>
      </trkpt>
      <trkpt lat="47.28177" lon="-2.3907">
        <ele>53.599998474121</ele>
        <time>2020-07-30T07:34:42.000Z</time>
      </trkpt>
      <trkpt lat="47.28177" lon="-2.39076">
        <ele>53.599998474121</ele>
        <time>2020-07-30T07:34:44.000Z</time>
      </trkpt>
      <trkpt lat="47.28178" lon="-2.391">
        <ele>53.599998474121</ele>
        <time>2020-07-30T07:34:49.000Z</time>
      </trkpt>
      <trkpt lat="47.28178" lon="-2.39107">
        <ele>53.599998474121</ele>
        <time>2020-07-30T07:34:50.000Z</time>
      </trkpt>
      <trkpt lat="47.28179" lon="-2.39136">
        <ele>53.599998474121</ele>
        <time>2020-07-30T07:34:54.000Z</time>
      </trkpt>
      <trkpt lat="47.2818" lon="-2.39182">
        <ele>54</ele>
        <time>2020-07-30T07:35:00.000Z</time>
      </trkpt>
      <trkpt lat="47.28181" lon="-2.39191">
        <ele>54.599998474121</ele>
        <time>2020-07-30T07:35:01.000Z</time>
      </trkpt>
      <trkpt lat="47.28182" lon="-2.39199">
        <ele>55</ele>
        <time>2020-07-30T07:35:02.000Z</time>
      </trkpt>
      <trkpt lat="47.28182" lon="-2.39207">
        <ele>55.599998474121</ele>
        <time>2020-07-30T07:35:03.000Z</time>
      </trkpt>
      <trkpt lat="47.28183" lon="-2.39215">
        <ele>56</ele>
        <time>2020-07-30T07:35:04.000Z</time>
      </trkpt>
      <trkpt lat="47.28184" lon="-2.39251">
        <ele>56</ele>
        <time>2020-07-30T07:35:08.000Z</time>
      </trkpt>
      <trkpt lat="47.28188" lon="-2.39322">
        <ele>56</ele>
        <time>2020-07-30T07:35:16.000Z</time>
      </trkpt>
      <trkpt lat="47.28192" lon="-2.39402">
        <ele>56</ele>
        <time>2020-07-30T07:35:25.000Z</time>
      </trkpt>
      <trkpt lat="47.28192" lon="-2.39471">
        <ele>56</ele>
        <time>2020-07-30T07:35:32.000Z</time>
      </trkpt>
      <trkpt lat="47.28191" lon="-2.39559">
        <ele>56</ele>
        <time>2020-07-30T07:35:41.000Z</time>
      </trkpt>
      <trkpt lat="47.28189" lon="-2.39625">
        <ele>56</ele>
        <time>2020-07-30T07:35:48.000Z</time>
      </trkpt>
      <trkpt lat="47.28188" lon="-2.39692">
        <ele>56</ele>
        <time>2020-07-30T07:35:55.000Z</time>
      </trkpt>
      <trkpt lat="47.28185" lon="-2.39749">
        <ele>56</ele>
        <time>2020-07-30T07:36:01.000Z</time>
      </trkpt>
      <trkpt lat="47.2818" lon="-2.39823">
        <ele>56</ele>
        <time>2020-07-30T07:36:09.000Z</time>
      </trkpt>
      <trkpt lat="47.28172" lon="-2.39904">
        <ele>56</ele>
        <time>2020-07-30T07:36:18.000Z</time>
      </trkpt>
      <trkpt lat="47.28168" lon="-2.39985">
        <ele>56</ele>
        <time>2020-07-30T07:36:27.000Z</time>
      </trkpt>
      <trkpt lat="47.28168" lon="-2.40009">
        <ele>56</ele>
        <time>2020-07-30T07:36:30.000Z</time>
      </trkpt>
      <trkpt lat="47.28166" lon="-2.40026">
        <ele>56</ele>
        <time>2020-07-30T07:36:32.000Z</time>
      </trkpt>
      <trkpt lat="47.28164" lon="-2.40045">
        <ele>56</ele>
        <time>2020-07-30T07:36:34.000Z</time>
      </trkpt>
      <trkpt lat="47.2816" lon="-2.40082">
        <ele>56</ele>
        <time>2020-07-30T07:36:38.000Z</time>
      </trkpt>
      <trkpt lat="47.28155" lon="-2.40147">
        <ele>56</ele>
        <time>2020-07-30T07:36:45.000Z</time>
      </trkpt>
      <trkpt lat="47.28148" lon="-2.40222">
        <ele>56</ele>
        <time>2020-07-30T07:36:53.000Z</time>
      </trkpt>
      <trkpt lat="47.28138" lon="-2.40304">
        <ele>56</ele>
        <time>2020-07-30T07:37:02.000Z</time>
      </trkpt>
      <trkpt lat="47.28137" lon="-2.40312">
        <ele>56</ele>
        <time>2020-07-30T07:37:03.000Z</time>
      </trkpt>
      <trkpt lat="47.28126" lon="-2.40394">
        <ele>56</ele>
        <time>2020-07-30T07:37:12.000Z</time>
      </trkpt>
      <trkpt lat="47.28114" lon="-2.40446">
        <ele>56</ele>
        <time>2020-07-30T07:37:18.000Z</time>
      </trkpt>
      <trkpt lat="47.2811" lon="-2.40453">
        <ele>56</ele>
        <time>2020-07-30T07:37:19.000Z</time>
      </trkpt>
      <trkpt lat="47.28086" lon="-2.40491">
        <ele>56</ele>
        <time>2020-07-30T07:37:24.000Z</time>
      </trkpt>
      <trkpt lat="47.28082" lon="-2.405">
        <ele>56</ele>
        <time>2020-07-30T07:37:25.000Z</time>
      </trkpt>
      <trkpt lat="47.28074" lon="-2.40531">
        <ele>56</ele>
        <time>2020-07-30T07:37:28.000Z</time>
      </trkpt>
      <trkpt lat="47.28072" lon="-2.40542">
        <ele>56</ele>
        <time>2020-07-30T07:37:29.000Z</time>
      </trkpt>
      <trkpt lat="47.28058" lon="-2.40612">
        <ele>56</ele>
        <time>2020-07-30T07:37:36.000Z</time>
      </trkpt>
      <trkpt lat="47.28058" lon="-2.40622">
        <ele>56</ele>
        <time>2020-07-30T07:37:37.000Z</time>
      </trkpt>
      <trkpt lat="47.28061" lon="-2.40649">
        <ele>56</ele>
        <time>2020-07-30T07:37:40.000Z</time>
      </trkpt>
      <trkpt lat="47.28066" lon="-2.40684">
        <ele>56</ele>
        <time>2020-07-30T07:37:45.000Z</time>
      </trkpt>
      <trkpt lat="47.28067" lon="-2.40694">
        <ele>56</ele>
        <time>2020-07-30T07:37:49.000Z</time>
      </trkpt>
      <trkpt lat="47.28066" lon="-2.40701">
        <ele>56</ele>
        <time>2020-07-30T07:37:55.000Z</time>
      </trkpt>
      <trkpt lat="47.28069" lon="-2.40706">
        <ele>56</ele>
        <time>2020-07-30T07:38:12.000Z</time>
      </trkpt>
      <trkpt lat="47.28075" lon="-2.40708">
        <ele>56</ele>
        <time>2020-07-30T07:38:15.000Z</time>
      </trkpt>
      <trkpt lat="47.28083" lon="-2.40713">
        <ele>56</ele>
        <time>2020-07-30T07:38:18.000Z</time>
      </trkpt>
      <trkpt lat="47.28094" lon="-2.40719">
        <ele>56</ele>
        <time>2020-07-30T07:38:21.000Z</time>
      </trkpt>
      <trkpt lat="47.28116" lon="-2.40729">
        <ele>56</ele>
        <time>2020-07-30T07:38:25.000Z</time>
      </trkpt>
      <trkpt lat="47.28124" lon="-2.40731">
        <ele>56</ele>
        <time>2020-07-30T07:38:29.000Z</time>
      </trkpt>
      <trkpt lat="47.28128" lon="-2.40735">
        <ele>56</ele>
        <time>2020-07-30T07:38:31.000Z</time>
      </trkpt>
      <trkpt lat="47.28131" lon="-2.40745">
        <ele>56</ele>
        <time>2020-07-30T07:38:33.000Z</time>
      </trkpt>
      <trkpt lat="47.28135" lon="-2.40775">
        <ele>56</ele>
        <time>2020-07-30T07:38:38.000Z</time>
      </trkpt>
      <trkpt lat="47.2815" lon="-2.40785">
        <ele>56</ele>
        <time>2020-07-30T07:38:41.000Z</time>
      </trkpt>
      <trkpt lat="47.2816" lon="-2.40792">
        <ele>56</ele>
        <time>2020-07-30T07:38:43.000Z</time>
      </trkpt>
      <trkpt lat="47.28177" lon="-2.40805">
        <ele>56</ele>
        <time>2020-07-30T07:38:46.000Z</time>
      </trkpt>
      <trkpt lat="47.28223" lon="-2.40843">
        <ele>56</ele>
        <time>2020-07-30T07:38:54.000Z</time>
      </trkpt>
      <trkpt lat="47.2825" lon="-2.40868">
        <ele>56</ele>
        <time>2020-07-30T07:39:00.000Z</time>
      </trkpt>
      <trkpt lat="47.28256" lon="-2.40874">
        <ele>56</ele>
        <time>2020-07-30T07:39:03.000Z</time>
      </trkpt>
      <trkpt lat="47.28257" lon="-2.40876">
        <ele>56</ele>
        <time>2020-07-30T07:39:04.000Z</time>
      </trkpt>
      <trkpt lat="47.28259" lon="-2.40887">
        <ele>56</ele>
        <time>2020-07-30T07:39:08.000Z</time>
      </trkpt>
      <trkpt lat="47.28258" lon="-2.40906">
        <ele>56</ele>
        <time>2020-07-30T07:39:15.000Z</time>
      </trkpt>
      <trkpt lat="47.28259" lon="-2.40916">
        <ele>56</ele>
        <time>2020-07-30T07:39:19.000Z</time>
      </trkpt>
      <trkpt lat="47.28261" lon="-2.40919">
        <ele>56</ele>
        <time>2020-07-30T07:39:20.000Z</time>
      </trkpt>
      <trkpt lat="47.28261" lon="-2.40934">
        <ele>56</ele>
        <time>2020-07-30T07:39:23.000Z</time>
      </trkpt>
      <trkpt lat="47.28258" lon="-2.40944">
        <ele>56</ele>
        <time>2020-07-30T07:39:25.000Z</time>
      </trkpt>
      <trkpt lat="47.28253" lon="-2.40968">
        <ele>56</ele>
        <time>2020-07-30T07:39:30.000Z</time>
      </trkpt>
      <trkpt lat="47.2825" lon="-2.40988">
        <ele>56</ele>
        <time>2020-07-30T07:39:34.000Z</time>
      </trkpt>
      <trkpt lat="47.28251" lon="-2.4099">
        <ele>56</ele>
        <time>2020-07-30T07:39:35.000Z</time>
      </trkpt>
      <trkpt lat="47.28256" lon="-2.40998">
        <ele>56</ele>
        <time>2020-07-30T07:39:39.000Z</time>
      </trkpt>
      <trkpt lat="47.28257" lon="-2.41">
        <ele>56</ele>
        <time>2020-07-30T07:39:40.000Z</time>
      </trkpt>
      <trkpt lat="47.28257" lon="-2.41014">
        <ele>56</ele>
        <time>2020-07-30T07:39:44.000Z</time>
      </trkpt>
      <trkpt lat="47.28265" lon="-2.41024">
        <ele>56</ele>
        <time>2020-07-30T07:39:48.000Z</time>
      </trkpt>
      <trkpt lat="47.28276" lon="-2.41028">
        <ele>56</ele>
        <time>2020-07-30T07:39:51.000Z</time>
      </trkpt>
      <trkpt lat="47.28284" lon="-2.41033">
        <ele>56</ele>
        <time>2020-07-30T07:39:53.000Z</time>
      </trkpt>
      <trkpt lat="47.28313" lon="-2.41048">
        <ele>56</ele>
        <time>2020-07-30T07:40:00.000Z</time>
      </trkpt>
      <trkpt lat="47.28329" lon="-2.41058">
        <ele>56</ele>
        <time>2020-07-30T07:40:04.000Z</time>
      </trkpt>
      <trkpt lat="47.2834" lon="-2.41066">
        <ele>56</ele>
        <time>2020-07-30T07:40:07.000Z</time>
      </trkpt>
      <trkpt lat="47.28361" lon="-2.41076">
        <ele>56</ele>
        <time>2020-07-30T07:40:13.000Z</time>
      </trkpt>
      <trkpt lat="47.28381" lon="-2.41088">
        <ele>56</ele>
        <time>2020-07-30T07:40:19.000Z</time>
      </trkpt>
      <trkpt lat="47.28381" lon="-2.41103">
        <ele>56</ele>
        <time>2020-07-30T07:40:22.000Z</time>
      </trkpt>
      <trkpt lat="47.28381" lon="-2.41109">
        <ele>56</ele>
        <time>2020-07-30T07:40:23.000Z</time>
      </trkpt>
      <trkpt lat="47.28374" lon="-2.41145">
        <ele>56</ele>
        <time>2020-07-30T07:40:29.000Z</time>
      </trkpt>
      <trkpt lat="47.28365" lon="-2.41184">
        <ele>56</ele>
        <time>2020-07-30T07:40:35.000Z</time>
      </trkpt>
      <trkpt lat="47.28361" lon="-2.41211">
        <ele>56</ele>
        <time>2020-07-30T07:40:41.000Z</time>
      </trkpt>
      <trkpt lat="47.28362" lon="-2.41229">
        <ele>56</ele>
        <time>2020-07-30T07:40:46.000Z</time>
      </trkpt>
      <trkpt lat="47.28366" lon="-2.41233">
        <ele>56</ele>
        <time>2020-07-30T07:40:48.000Z</time>
      </trkpt>
      <trkpt lat="47.28373" lon="-2.41236">
        <ele>56</ele>
        <time>2020-07-30T07:40:50.000Z</time>
      </trkpt>
      <trkpt lat="47.2839" lon="-2.41242">
        <ele>56</ele>
        <time>2020-07-30T07:40:55.000Z</time>
      </trkpt>
      <trkpt lat="47.28409" lon="-2.41252">
        <ele>56</ele>
        <time>2020-07-30T07:41:00.000Z</time>
      </trkpt>
      <trkpt lat="47.28424" lon="-2.41256">
        <ele>56</ele>
        <time>2020-07-30T07:41:03.000Z</time>
      </trkpt>
      <trkpt lat="47.28434" lon="-2.41259">
        <ele>56</ele>
        <time>2020-07-30T07:41:05.000Z</time>
      </trkpt>
      <trkpt lat="47.28438" lon="-2.41261">
        <ele>56</ele>
        <time>2020-07-30T07:41:06.000Z</time>
      </trkpt>
      <trkpt lat="47.28449" lon="-2.4127">
        <ele>56</ele>
        <time>2020-07-30T07:41:09.000Z</time>
      </trkpt>
      <trkpt lat="47.28454" lon="-2.41283">
        <ele>56</ele>
        <time>2020-07-30T07:41:12.000Z</time>
      </trkpt>
      <trkpt lat="47.28454" lon="-2.41288">
        <ele>56</ele>
        <time>2020-07-30T07:41:13.000Z</time>
      </trkpt>
      <trkpt lat="47.2845" lon="-2.41318">
        <ele>56</ele>
        <time>2020-07-30T07:41:19.000Z</time>
      </trkpt>
      <trkpt lat="47.28442" lon="-2.41357">
        <ele>56</ele>
        <time>2020-07-30T07:41:28.000Z</time>
      </trkpt>
      <trkpt lat="47.28432" lon="-2.41395">
        <ele>56</ele>
        <time>2020-07-30T07:41:36.000Z</time>
      </trkpt>
      <trkpt lat="47.28423" lon="-2.41435">
        <ele>56</ele>
        <time>2020-07-30T07:41:44.000Z</time>
      </trkpt>
      <trkpt lat="47.28417" lon="-2.41481">
        <ele>56</ele>
        <time>2020-07-30T07:41:52.000Z</time>
      </trkpt>
      <trkpt lat="47.28414" lon="-2.41526">
        <ele>56</ele>
        <time>2020-07-30T07:41:59.000Z</time>
      </trkpt>
      <trkpt lat="47.28411" lon="-2.4155">
        <ele>56.400001525879</ele>
        <time>2020-07-30T07:42:03.000Z</time>
      </trkpt>
      <trkpt lat="47.2841" lon="-2.41556">
        <ele>56.799999237061</ele>
        <time>2020-07-30T07:42:04.000Z</time>
      </trkpt>
      <trkpt lat="47.28409" lon="-2.41562">
        <ele>57.200000762939</ele>
        <time>2020-07-30T07:42:05.000Z</time>
      </trkpt>
      <trkpt lat="47.28409" lon="-2.41569">
        <ele>57.599998474121</ele>
        <time>2020-07-30T07:42:06.000Z</time>
      </trkpt>
      <trkpt lat="47.28408" lon="-2.41576">
        <ele>58</ele>
        <time>2020-07-30T07:42:07.000Z</time>
      </trkpt>
      <trkpt lat="47.28408" lon="-2.41582">
        <ele>58</ele>
        <time>2020-07-30T07:42:08.000Z</time>
      </trkpt>
      <trkpt lat="47.28407" lon="-2.41588">
        <ele>58</ele>
        <time>2020-07-30T07:42:09.000Z</time>
      </trkpt>
      <trkpt lat="47.28403" lon="-2.41622">
        <ele>58</ele>
        <time>2020-07-30T07:42:14.000Z</time>
      </trkpt>
      <trkpt lat="47.28397" lon="-2.41671">
        <ele>58</ele>
        <time>2020-07-30T07:42:21.000Z</time>
      </trkpt>
      <trkpt lat="47.28386" lon="-2.41718">
        <ele>58</ele>
        <time>2020-07-30T07:42:28.000Z</time>
      </trkpt>
      <trkpt lat="47.28373" lon="-2.41773">
        <ele>58</ele>
        <time>2020-07-30T07:42:36.000Z</time>
      </trkpt>
      <trkpt lat="47.2836" lon="-2.41826">
        <ele>58</ele>
        <time>2020-07-30T07:42:44.000Z</time>
      </trkpt>
      <trkpt lat="47.28342" lon="-2.41894">
        <ele>58</ele>
        <time>2020-07-30T07:42:54.000Z</time>
      </trkpt>
      <trkpt lat="47.28328" lon="-2.4195">
        <ele>58</ele>
        <time>2020-07-30T07:43:02.000Z</time>
      </trkpt>
      <trkpt lat="47.28314" lon="-2.42009">
        <ele>58</ele>
        <time>2020-07-30T07:43:10.000Z</time>
      </trkpt>
      <trkpt lat="47.28309" lon="-2.42029">
        <ele>58</ele>
        <time>2020-07-30T07:43:13.000Z</time>
      </trkpt>
      <trkpt lat="47.28305" lon="-2.42059">
        <ele>58</ele>
        <time>2020-07-30T07:43:17.000Z</time>
      </trkpt>
      <trkpt lat="47.28296" lon="-2.42125">
        <ele>58</ele>
        <time>2020-07-30T07:43:25.000Z</time>
      </trkpt>
      <trkpt lat="47.28285" lon="-2.42197">
        <ele>58</ele>
        <time>2020-07-30T07:43:34.000Z</time>
      </trkpt>
      <trkpt lat="47.28277" lon="-2.42256">
        <ele>58</ele>
        <time>2020-07-30T07:43:42.000Z</time>
      </trkpt>
      <trkpt lat="47.28272" lon="-2.42276">
        <ele>58</ele>
        <time>2020-07-30T07:43:45.000Z</time>
      </trkpt>
      <trkpt lat="47.28269" lon="-2.42295">
        <ele>58</ele>
        <time>2020-07-30T07:43:48.000Z</time>
      </trkpt>
      <trkpt lat="47.28268" lon="-2.42329">
        <ele>58</ele>
        <time>2020-07-30T07:43:53.000Z</time>
      </trkpt>
      <trkpt lat="47.28268" lon="-2.42336">
        <ele>58</ele>
        <time>2020-07-30T07:43:54.000Z</time>
      </trkpt>
      <trkpt lat="47.28267" lon="-2.42343">
        <ele>58</ele>
        <time>2020-07-30T07:43:55.000Z</time>
      </trkpt>
      <trkpt lat="47.28264" lon="-2.42369">
        <ele>58</ele>
        <time>2020-07-30T07:43:59.000Z</time>
      </trkpt>
      <trkpt lat="47.28253" lon="-2.42424">
        <ele>58</ele>
        <time>2020-07-30T07:44:07.000Z</time>
      </trkpt>
      <trkpt lat="47.28236" lon="-2.42468">
        <ele>58</ele>
        <time>2020-07-30T07:44:14.000Z</time>
      </trkpt>
      <trkpt lat="47.28212" lon="-2.42506">
        <ele>58</ele>
        <time>2020-07-30T07:44:21.000Z</time>
      </trkpt>
      <trkpt lat="47.28192" lon="-2.42532">
        <ele>58</ele>
        <time>2020-07-30T07:44:27.000Z</time>
      </trkpt>
      <trkpt lat="47.28187" lon="-2.42533">
        <ele>58.400001525879</ele>
        <time>2020-07-30T07:44:28.000Z</time>
      </trkpt>
      <trkpt lat="47.28183" lon="-2.42532">
        <ele>58.799999237061</ele>
        <time>2020-07-30T07:44:29.000Z</time>
      </trkpt>
      <trkpt lat="47.28179" lon="-2.42532">
        <ele>59.200000762939</ele>
        <time>2020-07-30T07:44:30.000Z</time>
      </trkpt>
      <trkpt lat="47.28174" lon="-2.42531">
        <ele>59.599998474121</ele>
        <time>2020-07-30T07:44:31.000Z</time>
      </trkpt>
      <trkpt lat="47.2817" lon="-2.42531">
        <ele>60</ele>
        <time>2020-07-30T07:44:32.000Z</time>
      </trkpt>
      <trkpt lat="47.28165" lon="-2.42532">
        <ele>60</ele>
        <time>2020-07-30T07:44:33.000Z</time>
      </trkpt>
      <trkpt lat="47.28147" lon="-2.42538">
        <ele>60</ele>
        <time>2020-07-30T07:44:37.000Z</time>
      </trkpt>
      <trkpt lat="47.28112" lon="-2.42547">
        <ele>60</ele>
        <time>2020-07-30T07:44:45.000Z</time>
      </trkpt>
      <trkpt lat="47.281" lon="-2.42551">
        <ele>60</ele>
        <time>2020-07-30T07:44:49.000Z</time>
      </trkpt>
      <trkpt lat="47.28099" lon="-2.42554">
        <ele>60</ele>
        <time>2020-07-30T07:44:50.000Z</time>
      </trkpt>
      <trkpt lat="47.28095" lon="-2.42561">
        <ele>60</ele>
        <time>2020-07-30T07:44:53.000Z</time>
      </trkpt>
      <trkpt lat="47.28092" lon="-2.42561">
        <ele>60</ele>
        <time>2020-07-30T07:44:54.000Z</time>
      </trkpt>
      <trkpt lat="47.28083" lon="-2.4256">
        <ele>60</ele>
        <time>2020-07-30T07:44:58.000Z</time>
      </trkpt>
      <trkpt lat="47.28076" lon="-2.4257">
        <ele>60</ele>
        <time>2020-07-30T07:45:02.000Z</time>
      </trkpt>
      <trkpt lat="47.28074" lon="-2.42574">
        <ele>60</ele>
        <time>2020-07-30T07:45:03.000Z</time>
      </trkpt>
      <trkpt lat="47.28063" lon="-2.4259">
        <ele>60</ele>
        <time>2020-07-30T07:45:08.000Z</time>
      </trkpt>
      <trkpt lat="47.28044" lon="-2.42598">
        <ele>60</ele>
        <time>2020-07-30T07:45:14.000Z</time>
      </trkpt>
      <trkpt lat="47.28027" lon="-2.42614">
        <ele>60</ele>
        <time>2020-07-30T07:45:20.000Z</time>
      </trkpt>
      <trkpt lat="47.28009" lon="-2.42632">
        <ele>60</ele>
        <time>2020-07-30T07:45:26.000Z</time>
      </trkpt>
      <trkpt lat="47.27984" lon="-2.42643">
        <ele>60</ele>
        <time>2020-07-30T07:45:33.000Z</time>
      </trkpt>
      <trkpt lat="47.27963" lon="-2.42648">
        <ele>60</ele>
        <time>2020-07-30T07:45:39.000Z</time>
      </trkpt>
      <trkpt lat="47.27945" lon="-2.4266">
        <ele>60.400001525879</ele>
        <time>2020-07-30T07:45:44.000Z</time>
      </trkpt>
      <trkpt lat="47.27941" lon="-2.42663">
        <ele>60.799999237061</ele>
        <time>2020-07-30T07:45:45.000Z</time>
      </trkpt>
      <trkpt lat="47.27938" lon="-2.42666">
        <ele>61.200000762939</ele>
        <time>2020-07-30T07:45:46.000Z</time>
      </trkpt>
      <trkpt lat="47.27934" lon="-2.42668">
        <ele>61.599998474121</ele>
        <time>2020-07-30T07:45:47.000Z</time>
      </trkpt>
      <trkpt lat="47.27931" lon="-2.4267">
        <ele>62</ele>
        <time>2020-07-30T07:45:48.000Z</time>
      </trkpt>
      <trkpt lat="47.27916" lon="-2.42679">
        <ele>62</ele>
        <time>2020-07-30T07:45:53.000Z</time>
      </trkpt>
      <trkpt lat="47.27905" lon="-2.42683">
        <ele>62</ele>
        <time>2020-07-30T07:45:57.000Z</time>
      </trkpt>
      <trkpt lat="47.27902" lon="-2.42685">
        <ele>62</ele>
        <time>2020-07-30T07:45:58.000Z</time>
      </trkpt>
      <trkpt lat="47.27883" lon="-2.42702">
        <ele>62</ele>
        <time>2020-07-30T07:46:05.000Z</time>
      </trkpt>
      <trkpt lat="47.27862" lon="-2.42713">
        <ele>62</ele>
        <time>2020-07-30T07:46:12.000Z</time>
      </trkpt>
      <trkpt lat="47.27845" lon="-2.42722">
        <ele>62</ele>
        <time>2020-07-30T07:46:18.000Z</time>
      </trkpt>
      <trkpt lat="47.2784" lon="-2.42722">
        <ele>62</ele>
        <time>2020-07-30T07:46:20.000Z</time>
      </trkpt>
      <trkpt lat="47.27831" lon="-2.42727">
        <ele>62</ele>
        <time>2020-07-30T07:46:24.000Z</time>
      </trkpt>
      <trkpt lat="47.2783" lon="-2.4275">
        <ele>62</ele>
        <time>2020-07-30T07:46:28.000Z</time>
      </trkpt>
      <trkpt lat="47.27831" lon="-2.42767">
        <ele>62.400001525879</ele>
        <time>2020-07-30T07:46:31.000Z</time>
      </trkpt>
      <trkpt lat="47.27831" lon="-2.42773">
        <ele>62.799999237061</ele>
        <time>2020-07-30T07:46:32.000Z</time>
      </trkpt>
      <trkpt lat="47.27831" lon="-2.42779">
        <ele>63.400001525879</ele>
        <time>2020-07-30T07:46:33.000Z</time>
      </trkpt>
      <trkpt lat="47.27832" lon="-2.42785">
        <ele>63.799999237061</ele>
        <time>2020-07-30T07:46:34.000Z</time>
      </trkpt>
      <trkpt lat="47.27832" lon="-2.42791">
        <ele>64.199996948242</ele>
        <time>2020-07-30T07:46:35.000Z</time>
      </trkpt>
      <trkpt lat="47.27834" lon="-2.42829">
        <ele>64.199996948242</ele>
        <time>2020-07-30T07:46:42.000Z</time>
      </trkpt>
      <trkpt lat="47.27822" lon="-2.42829">
        <ele>64.199996948242</ele>
        <time>2020-07-30T07:46:45.000Z</time>
      </trkpt>
      <trkpt lat="47.27804" lon="-2.42825">
        <ele>64.199996948242</ele>
        <time>2020-07-30T07:46:49.000Z</time>
      </trkpt>
      <trkpt lat="47.27799" lon="-2.42824">
        <ele>64.199996948242</ele>
        <time>2020-07-30T07:46:50.000Z</time>
      </trkpt>
      <trkpt lat="47.27768" lon="-2.42819">
        <ele>64.199996948242</ele>
        <time>2020-07-30T07:46:56.000Z</time>
      </trkpt>
      <trkpt lat="47.27721" lon="-2.42804">
        <ele>64.199996948242</ele>
        <time>2020-07-30T07:47:05.000Z</time>
      </trkpt>
      <trkpt lat="47.27715" lon="-2.42804">
        <ele>64.199996948242</ele>
        <time>2020-07-30T07:47:06.000Z</time>
      </trkpt>
      <trkpt lat="47.27706" lon="-2.42802">
        <ele>64.199996948242</ele>
        <time>2020-07-30T07:47:08.000Z</time>
      </trkpt>
      <trkpt lat="47.27701" lon="-2.428">
        <ele>64.199996948242</ele>
        <time>2020-07-30T07:47:09.000Z</time>
      </trkpt>
      <trkpt lat="47.27672" lon="-2.42786">
        <ele>64.199996948242</ele>
        <time>2020-07-30T07:47:15.000Z</time>
      </trkpt>
      <trkpt lat="47.27667" lon="-2.42783">
        <ele>64.199996948242</ele>
        <time>2020-07-30T07:47:16.000Z</time>
      </trkpt>
      <trkpt lat="47.27648" lon="-2.42767">
        <ele>64.199996948242</ele>
        <time>2020-07-30T07:47:20.000Z</time>
      </trkpt>
      <trkpt lat="47.27639" lon="-2.42757">
        <ele>64.199996948242</ele>
        <time>2020-07-30T07:47:22.000Z</time>
      </trkpt>
      <trkpt lat="47.27601" lon="-2.42715">
        <ele>64.199996948242</ele>
        <time>2020-07-30T07:47:31.000Z</time>
      </trkpt>
      <trkpt lat="47.27571" lon="-2.42677">
        <ele>64.199996948242</ele>
        <time>2020-07-30T07:47:39.000Z</time>
      </trkpt>
      <trkpt lat="47.27546" lon="-2.42643">
        <ele>64.199996948242</ele>
        <time>2020-07-30T07:47:46.000Z</time>
      </trkpt>
      <trkpt lat="47.27542" lon="-2.4264">
        <ele>64.199996948242</ele>
        <time>2020-07-30T07:47:47.000Z</time>
      </trkpt>
      <trkpt lat="47.27533" lon="-2.42624">
        <ele>64.199996948242</ele>
        <time>2020-07-30T07:47:50.000Z</time>
      </trkpt>
      <trkpt lat="47.27526" lon="-2.42615">
        <ele>64.199996948242</ele>
        <time>2020-07-30T07:47:52.000Z</time>
      </trkpt>
      <trkpt lat="47.2751" lon="-2.426">
        <ele>64.199996948242</ele>
        <time>2020-07-30T07:47:56.000Z</time>
      </trkpt>
      <trkpt lat="47.2749" lon="-2.42579">
        <ele>64.199996948242</ele>
        <time>2020-07-30T07:48:01.000Z</time>
      </trkpt>
      <trkpt lat="47.2748" lon="-2.42565">
        <ele>64.199996948242</ele>
        <time>2020-07-30T07:48:04.000Z</time>
      </trkpt>
      <trkpt lat="47.27476" lon="-2.42561">
        <ele>64.199996948242</ele>
        <time>2020-07-30T07:48:05.000Z</time>
      </trkpt>
      <trkpt lat="47.27453" lon="-2.42539">
        <ele>64.199996948242</ele>
        <time>2020-07-30T07:48:11.000Z</time>
      </trkpt>
      <trkpt lat="47.27444" lon="-2.42538">
        <ele>64.199996948242</ele>
        <time>2020-07-30T07:48:13.000Z</time>
      </trkpt>
      <trkpt lat="47.2744" lon="-2.42542">
        <ele>64.199996948242</ele>
        <time>2020-07-30T07:48:14.000Z</time>
      </trkpt>
      <trkpt lat="47.27426" lon="-2.42565">
        <ele>64.199996948242</ele>
        <time>2020-07-30T07:48:18.000Z</time>
      </trkpt>
      <trkpt lat="47.27421" lon="-2.42569">
        <ele>64.199996948242</ele>
        <time>2020-07-30T07:48:19.000Z</time>
      </trkpt>
      <trkpt lat="47.2741" lon="-2.4257">
        <ele>64.199996948242</ele>
        <time>2020-07-30T07:48:21.000Z</time>
      </trkpt>
      <trkpt lat="47.27401" lon="-2.42567">
        <ele>64.199996948242</ele>
        <time>2020-07-30T07:48:23.000Z</time>
      </trkpt>
      <trkpt lat="47.27385" lon="-2.42564">
        <ele>64.199996948242</ele>
        <time>2020-07-30T07:48:26.000Z</time>
      </trkpt>
      <trkpt lat="47.27358" lon="-2.42561">
        <ele>64.199996948242</ele>
        <time>2020-07-30T07:48:31.000Z</time>
      </trkpt>
      <trkpt lat="47.27353" lon="-2.42563">
        <ele>64.199996948242</ele>
        <time>2020-07-30T07:48:32.000Z</time>
      </trkpt>
      <trkpt lat="47.27311" lon="-2.42568">
        <ele>64.199996948242</ele>
        <time>2020-07-30T07:48:40.000Z</time>
      </trkpt>
      <trkpt lat="47.27297" lon="-2.42572">
        <ele>64.199996948242</ele>
        <time>2020-07-30T07:48:43.000Z</time>
      </trkpt>
      <trkpt lat="47.27292" lon="-2.42574">
        <ele>64.599998474121</ele>
        <time>2020-07-30T07:48:44.000Z</time>
      </trkpt>
      <trkpt lat="47.27288" lon="-2.42577">
        <ele>65</ele>
        <time>2020-07-30T07:48:45.000Z</time>
      </trkpt>
      <trkpt lat="47.27283" lon="-2.42579">
        <ele>65.800003051758</ele>
        <time>2020-07-30T07:48:46.000Z</time>
      </trkpt>
      <trkpt lat="47.27278" lon="-2.42581">
        <ele>66.199996948242</ele>
        <time>2020-07-30T07:48:47.000Z</time>
      </trkpt>
      <trkpt lat="47.27249" lon="-2.42594">
        <ele>66.199996948242</ele>
        <time>2020-07-30T07:48:53.000Z</time>
      </trkpt>
      <trkpt lat="47.2723" lon="-2.42602">
        <ele>66.199996948242</ele>
        <time>2020-07-30T07:48:57.000Z</time>
      </trkpt>
      <trkpt lat="47.2722" lon="-2.42604">
        <ele>66.199996948242</ele>
        <time>2020-07-30T07:48:59.000Z</time>
      </trkpt>
      <trkpt lat="47.27186" lon="-2.42613">
        <ele>66.199996948242</ele>
        <time>2020-07-30T07:49:06.000Z</time>
      </trkpt>
      <trkpt lat="47.27143" lon="-2.42628">
        <ele>66.199996948242</ele>
        <time>2020-07-30T07:49:15.000Z</time>
      </trkpt>
      <trkpt lat="47.27105" lon="-2.42641">
        <ele>66.199996948242</ele>
        <time>2020-07-30T07:49:22.000Z</time>
      </trkpt>
      <trkpt lat="47.27065" lon="-2.42655">
        <ele>66.199996948242</ele>
        <time>2020-07-30T07:49:29.000Z</time>
      </trkpt>
      <trkpt lat="47.27059" lon="-2.42656">
        <ele>66.199996948242</ele>
        <time>2020-07-30T07:49:30.000Z</time>
      </trkpt>
      <trkpt lat="47.27042" lon="-2.42655">
        <ele>66.199996948242</ele>
        <time>2020-07-30T07:49:33.000Z</time>
      </trkpt>
      <trkpt lat="47.2703" lon="-2.42652">
        <ele>66.199996948242</ele>
        <time>2020-07-30T07:49:35.000Z</time>
      </trkpt>
      <trkpt lat="47.27025" lon="-2.42649">
        <ele>66.199996948242</ele>
        <time>2020-07-30T07:49:36.000Z</time>
      </trkpt>
      <trkpt lat="47.2702" lon="-2.42646">
        <ele>66.199996948242</ele>
        <time>2020-07-30T07:49:37.000Z</time>
      </trkpt>
      <trkpt lat="47.27004" lon="-2.42625">
        <ele>66.199996948242</ele>
        <time>2020-07-30T07:49:41.000Z</time>
      </trkpt>
      <trkpt lat="47.27002" lon="-2.42618">
        <ele>66.199996948242</ele>
        <time>2020-07-30T07:49:42.000Z</time>
      </trkpt>
      <trkpt lat="47.26979" lon="-2.42556">
        <ele>66.199996948242</ele>
        <time>2020-07-30T07:49:51.000Z</time>
      </trkpt>
      <trkpt lat="47.26967" lon="-2.42531">
        <ele>66.599998474121</ele>
        <time>2020-07-30T07:49:55.000Z</time>
      </trkpt>
      <trkpt lat="47.26963" lon="-2.42526">
        <ele>67</ele>
        <time>2020-07-30T07:49:56.000Z</time>
      </trkpt>
      <trkpt lat="47.26959" lon="-2.42521">
        <ele>67.400001525879</ele>
        <time>2020-07-30T07:49:57.000Z</time>
      </trkpt>
      <trkpt lat="47.26955" lon="-2.42516">
        <ele>67.800003051758</ele>
        <time>2020-07-30T07:49:58.000Z</time>
      </trkpt>
      <trkpt lat="47.2695" lon="-2.42512">
        <ele>68.199996948242</ele>
        <time>2020-07-30T07:49:59.000Z</time>
      </trkpt>
      <trkpt lat="47.26938" lon="-2.42498">
        <ele>68.199996948242</ele>
        <time>2020-07-30T07:50:02.000Z</time>
      </trkpt>
      <trkpt lat="47.26929" lon="-2.42488">
        <ele>68.199996948242</ele>
        <time>2020-07-30T07:50:04.000Z</time>
      </trkpt>
      <trkpt lat="47.26912" lon="-2.42476">
        <ele>68.199996948242</ele>
        <time>2020-07-30T07:50:08.000Z</time>
      </trkpt>
      <trkpt lat="47.26894" lon="-2.42468">
        <ele>68.199996948242</ele>
        <time>2020-07-30T07:50:13.000Z</time>
      </trkpt>
      <trkpt lat="47.26885" lon="-2.42467">
        <ele>68.199996948242</ele>
        <time>2020-07-30T07:50:15.000Z</time>
      </trkpt>
      <trkpt lat="47.26864" lon="-2.42468">
        <ele>68.199996948242</ele>
        <time>2020-07-30T07:50:19.000Z</time>
      </trkpt>
      <trkpt lat="47.26837" lon="-2.42463">
        <ele>68.199996948242</ele>
        <time>2020-07-30T07:50:24.000Z</time>
      </trkpt>
      <trkpt lat="47.26831" lon="-2.4246">
        <ele>68.199996948242</ele>
        <time>2020-07-30T07:50:25.000Z</time>
      </trkpt>
      <trkpt lat="47.26809" lon="-2.42433">
        <ele>68.599998474121</ele>
        <time>2020-07-30T07:50:30.000Z</time>
      </trkpt>
      <trkpt lat="47.26805" lon="-2.42426">
        <ele>69.199996948242</ele>
        <time>2020-07-30T07:50:31.000Z</time>
      </trkpt>
      <trkpt lat="47.26802" lon="-2.42419">
        <ele>69.599998474121</ele>
        <time>2020-07-30T07:50:32.000Z</time>
      </trkpt>
      <trkpt lat="47.26798" lon="-2.42412">
        <ele>70</ele>
        <time>2020-07-30T07:50:33.000Z</time>
      </trkpt>
      <trkpt lat="47.26794" lon="-2.42405">
        <ele>70.400001525879</ele>
        <time>2020-07-30T07:50:34.000Z</time>
      </trkpt>
      <trkpt lat="47.26778" lon="-2.4237">
        <ele>70.400001525879</ele>
        <time>2020-07-30T07:50:39.000Z</time>
      </trkpt>
      <trkpt lat="47.26766" lon="-2.4235">
        <ele>70.400001525879</ele>
        <time>2020-07-30T07:50:42.000Z</time>
      </trkpt>
      <trkpt lat="47.26755" lon="-2.42342">
        <ele>70.400001525879</ele>
        <time>2020-07-30T07:50:44.000Z</time>
      </trkpt>
      <trkpt lat="47.26724" lon="-2.42324">
        <ele>70.400001525879</ele>
        <time>2020-07-30T07:50:49.000Z</time>
      </trkpt>
      <trkpt lat="47.26681" lon="-2.42296">
        <ele>70.400001525879</ele>
        <time>2020-07-30T07:50:56.000Z</time>
      </trkpt>
      <trkpt lat="47.26643" lon="-2.42255">
        <ele>70.400001525879</ele>
        <time>2020-07-30T07:51:03.000Z</time>
      </trkpt>
      <trkpt lat="47.26632" lon="-2.42242">
        <ele>70.400001525879</ele>
        <time>2020-07-30T07:51:05.000Z</time>
      </trkpt>
      <trkpt lat="47.26614" lon="-2.42216">
        <ele>70.400001525879</ele>
        <time>2020-07-30T07:51:09.000Z</time>
      </trkpt>
      <trkpt lat="47.26609" lon="-2.42211">
        <ele>70.400001525879</ele>
        <time>2020-07-30T07:51:10.000Z</time>
      </trkpt>
      <trkpt lat="47.26595" lon="-2.42198">
        <ele>69.800003051758</ele>
        <time>2020-07-30T07:51:13.000Z</time>
      </trkpt>
      <trkpt lat="47.2659" lon="-2.42198">
        <ele>69</ele>
        <time>2020-07-30T07:51:14.000Z</time>
      </trkpt>
      <trkpt lat="47.26586" lon="-2.42198">
        <ele>68.599998474121</ele>
        <time>2020-07-30T07:51:15.000Z</time>
      </trkpt>
      <trkpt lat="47.26583" lon="-2.42194">
        <ele>68.199996948242</ele>
        <time>2020-07-30T07:51:16.000Z</time>
      </trkpt>
      <trkpt lat="47.26579" lon="-2.42184">
        <ele>68.199996948242</ele>
        <time>2020-07-30T07:51:18.000Z</time>
      </trkpt>
      <trkpt lat="47.26577" lon="-2.42178">
        <ele>68.199996948242</ele>
        <time>2020-07-30T07:51:19.000Z</time>
      </trkpt>
      <trkpt lat="47.26564" lon="-2.42166">
        <ele>68.199996948242</ele>
        <time>2020-07-30T07:51:22.000Z</time>
      </trkpt>
      <trkpt lat="47.26536" lon="-2.42145">
        <ele>68.199996948242</ele>
        <time>2020-07-30T07:51:27.000Z</time>
      </trkpt>
      <trkpt lat="47.26503" lon="-2.42111">
        <ele>68.199996948242</ele>
        <time>2020-07-30T07:51:34.000Z</time>
      </trkpt>
      <trkpt lat="47.26471" lon="-2.42081">
        <ele>68.199996948242</ele>
        <time>2020-07-30T07:51:40.000Z</time>
      </trkpt>
      <trkpt lat="47.26455" lon="-2.42065">
        <ele>68.599998474121</ele>
        <time>2020-07-30T07:51:43.000Z</time>
      </trkpt>
      <trkpt lat="47.26451" lon="-2.4206">
        <ele>69</ele>
        <time>2020-07-30T07:51:44.000Z</time>
      </trkpt>
      <trkpt lat="47.26446" lon="-2.42054">
        <ele>69.400001525879</ele>
        <time>2020-07-30T07:51:45.000Z</time>
      </trkpt>
      <trkpt lat="47.26441" lon="-2.42049">
        <ele>69.800003051758</ele>
        <time>2020-07-30T07:51:46.000Z</time>
      </trkpt>
      <trkpt lat="47.26436" lon="-2.42044">
        <ele>70.199996948242</ele>
        <time>2020-07-30T07:51:47.000Z</time>
      </trkpt>
      <trkpt lat="47.26431" lon="-2.42039">
        <ele>70.199996948242</ele>
        <time>2020-07-30T07:51:48.000Z</time>
      </trkpt>
      <trkpt lat="47.26394" lon="-2.42005">
        <ele>70.199996948242</ele>
        <time>2020-07-30T07:51:55.000Z</time>
      </trkpt>
      <trkpt lat="47.26363" lon="-2.41981">
        <ele>70.199996948242</ele>
        <time>2020-07-30T07:52:01.000Z</time>
      </trkpt>
      <trkpt lat="47.26328" lon="-2.41961">
        <ele>70.199996948242</ele>
        <time>2020-07-30T07:52:07.000Z</time>
      </trkpt>
      <trkpt lat="47.26291" lon="-2.4194">
        <ele>70.199996948242</ele>
        <time>2020-07-30T07:52:14.000Z</time>
      </trkpt>
      <trkpt lat="47.26254" lon="-2.41917">
        <ele>70.199996948242</ele>
        <time>2020-07-30T07:52:21.000Z</time>
      </trkpt>
      <trkpt lat="47.26222" lon="-2.41896">
        <ele>70.199996948242</ele>
        <time>2020-07-30T07:52:27.000Z</time>
      </trkpt>
      <trkpt lat="47.26213" lon="-2.41888">
        <ele>70.599998474121</ele>
        <time>2020-07-30T07:52:29.000Z</time>
      </trkpt>
      <trkpt lat="47.26208" lon="-2.41884">
        <ele>71</ele>
        <time>2020-07-30T07:52:30.000Z</time>
      </trkpt>
      <trkpt lat="47.26204" lon="-2.41879">
        <ele>71.400001525879</ele>
        <time>2020-07-30T07:52:31.000Z</time>
      </trkpt>
      <trkpt lat="47.262" lon="-2.41875">
        <ele>71.800003051758</ele>
        <time>2020-07-30T07:52:32.000Z</time>
      </trkpt>
      <trkpt lat="47.26195" lon="-2.4187">
        <ele>72.400001525879</ele>
        <time>2020-07-30T07:52:33.000Z</time>
      </trkpt>
      <trkpt lat="47.26191" lon="-2.41866">
        <ele>72.400001525879</ele>
        <time>2020-07-30T07:52:34.000Z</time>
      </trkpt>
      <trkpt lat="47.26169" lon="-2.41841">
        <ele>72.400001525879</ele>
        <time>2020-07-30T07:52:39.000Z</time>
      </trkpt>
      <trkpt lat="47.26156" lon="-2.41827">
        <ele>72.400001525879</ele>
        <time>2020-07-30T07:52:42.000Z</time>
      </trkpt>
      <trkpt lat="47.26146" lon="-2.41819">
        <ele>72.400001525879</ele>
        <time>2020-07-30T07:52:44.000Z</time>
      </trkpt>
      <trkpt lat="47.26127" lon="-2.41808">
        <ele>72.400001525879</ele>
        <time>2020-07-30T07:52:48.000Z</time>
      </trkpt>
      <trkpt lat="47.26123" lon="-2.41807">
        <ele>72.400001525879</ele>
        <time>2020-07-30T07:52:49.000Z</time>
      </trkpt>
      <trkpt lat="47.26114" lon="-2.41813">
        <ele>72.400001525879</ele>
        <time>2020-07-30T07:52:52.000Z</time>
      </trkpt>
      <trkpt lat="47.26112" lon="-2.41818">
        <ele>72.400001525879</ele>
        <time>2020-07-30T07:52:53.000Z</time>
      </trkpt>
      <trkpt lat="47.26099" lon="-2.41841">
        <ele>72.400001525879</ele>
        <time>2020-07-30T07:52:58.000Z</time>
      </trkpt>
      <trkpt lat="47.26078" lon="-2.41871">
        <ele>72.800003051758</ele>
        <time>2020-07-30T07:53:04.000Z</time>
      </trkpt>
      <trkpt lat="47.26075" lon="-2.41876">
        <ele>73.199996948242</ele>
        <time>2020-07-30T07:53:05.000Z</time>
      </trkpt>
      <trkpt lat="47.26072" lon="-2.41881">
        <ele>73.599998474121</ele>
        <time>2020-07-30T07:53:06.000Z</time>
      </trkpt>
      <trkpt lat="47.26068" lon="-2.41885">
        <ele>74</ele>
        <time>2020-07-30T07:53:07.000Z</time>
      </trkpt>
      <trkpt lat="47.26065" lon="-2.4189">
        <ele>74.400001525879</ele>
        <time>2020-07-30T07:53:08.000Z</time>
      </trkpt>
      <trkpt lat="47.26048" lon="-2.41917">
        <ele>74.400001525879</ele>
        <time>2020-07-30T07:53:14.000Z</time>
      </trkpt>
      <trkpt lat="47.26038" lon="-2.41927">
        <ele>74.400001525879</ele>
        <time>2020-07-30T07:53:17.000Z</time>
      </trkpt>
      <trkpt lat="47.26035" lon="-2.4193">
        <ele>74.800003051758</ele>
        <time>2020-07-30T07:53:18.000Z</time>
      </trkpt>
      <trkpt lat="47.26032" lon="-2.41934">
        <ele>75.199996948242</ele>
        <time>2020-07-30T07:53:19.000Z</time>
      </trkpt>
      <trkpt lat="47.26029" lon="-2.41939">
        <ele>75.599998474121</ele>
        <time>2020-07-30T07:53:20.000Z</time>
      </trkpt>
      <trkpt lat="47.26026" lon="-2.41943">
        <ele>76</ele>
        <time>2020-07-30T07:53:21.000Z</time>
      </trkpt>
      <trkpt lat="47.26023" lon="-2.41947">
        <ele>76.400001525879</ele>
        <time>2020-07-30T07:53:22.000Z</time>
      </trkpt>
      <trkpt lat="47.26014" lon="-2.41963">
        <ele>76.400001525879</ele>
        <time>2020-07-30T07:53:26.000Z</time>
      </trkpt>
      <trkpt lat="47.26002" lon="-2.41987">
        <ele>76.400001525879</ele>
        <time>2020-07-30T07:53:32.000Z</time>
      </trkpt>
      <trkpt lat="47.25996" lon="-2.42012">
        <ele>76.400001525879</ele>
        <time>2020-07-30T07:53:37.000Z</time>
      </trkpt>
      <trkpt lat="47.25998" lon="-2.42023">
        <ele>76.400001525879</ele>
        <time>2020-07-30T07:53:39.000Z</time>
      </trkpt>
      <trkpt lat="47.26004" lon="-2.42034">
        <ele>76.400001525879</ele>
        <time>2020-07-30T07:53:41.000Z</time>
      </trkpt>
      <trkpt lat="47.26009" lon="-2.42047">
        <ele>76.400001525879</ele>
        <time>2020-07-30T07:53:43.000Z</time>
      </trkpt>
      <trkpt lat="47.26017" lon="-2.42069">
        <ele>76.400001525879</ele>
        <time>2020-07-30T07:53:46.000Z</time>
      </trkpt>
      <trkpt lat="47.26035" lon="-2.42123">
        <ele>76.400001525879</ele>
        <time>2020-07-30T07:53:53.000Z</time>
      </trkpt>
      <trkpt lat="47.26054" lon="-2.42181">
        <ele>76.400001525879</ele>
        <time>2020-07-30T07:54:00.000Z</time>
      </trkpt>
      <trkpt lat="47.26077" lon="-2.42244">
        <ele>76.400001525879</ele>
        <time>2020-07-30T07:54:08.000Z</time>
      </trkpt>
      <trkpt lat="47.26098" lon="-2.42309">
        <ele>76.400001525879</ele>
        <time>2020-07-30T07:54:17.000Z</time>
      </trkpt>
      <trkpt lat="47.26104" lon="-2.42327">
        <ele>76.400001525879</ele>
        <time>2020-07-30T07:54:20.000Z</time>
      </trkpt>
      <trkpt lat="47.26108" lon="-2.42346">
        <ele>76.400001525879</ele>
        <time>2020-07-30T07:54:23.000Z</time>
      </trkpt>
      <trkpt lat="47.26113" lon="-2.42372">
        <ele>76.400001525879</ele>
        <time>2020-07-30T07:54:27.000Z</time>
      </trkpt>
      <trkpt lat="47.26117" lon="-2.42392">
        <ele>76.400001525879</ele>
        <time>2020-07-30T07:54:30.000Z</time>
      </trkpt>
      <trkpt lat="47.26118" lon="-2.424">
        <ele>76.400001525879</ele>
        <time>2020-07-30T07:54:31.000Z</time>
      </trkpt>
      <trkpt lat="47.26123" lon="-2.42436">
        <ele>76.400001525879</ele>
        <time>2020-07-30T07:54:36.000Z</time>
      </trkpt>
      <trkpt lat="47.26133" lon="-2.42503">
        <ele>76.400001525879</ele>
        <time>2020-07-30T07:54:45.000Z</time>
      </trkpt>
      <trkpt lat="47.2614" lon="-2.42555">
        <ele>76.400001525879</ele>
        <time>2020-07-30T07:54:52.000Z</time>
      </trkpt>
      <trkpt lat="47.26148" lon="-2.42607">
        <ele>76.400001525879</ele>
        <time>2020-07-30T07:54:59.000Z</time>
      </trkpt>
      <trkpt lat="47.26157" lon="-2.42672">
        <ele>76.400001525879</ele>
        <time>2020-07-30T07:55:07.000Z</time>
      </trkpt>
      <trkpt lat="47.26163" lon="-2.4271">
        <ele>76.400001525879</ele>
        <time>2020-07-30T07:55:12.000Z</time>
      </trkpt>
      <trkpt lat="47.26164" lon="-2.42715">
        <ele>76</ele>
        <time>2020-07-30T07:55:13.000Z</time>
      </trkpt>
      <trkpt lat="47.26166" lon="-2.4272">
        <ele>75.599998474121</ele>
        <time>2020-07-30T07:55:14.000Z</time>
      </trkpt>
      <trkpt lat="47.26167" lon="-2.42725">
        <ele>75.199996948242</ele>
        <time>2020-07-30T07:55:15.000Z</time>
      </trkpt>
      <trkpt lat="47.26169" lon="-2.42731">
        <ele>74.800003051758</ele>
        <time>2020-07-30T07:55:16.000Z</time>
      </trkpt>
      <trkpt lat="47.2617" lon="-2.42737">
        <ele>74.400001525879</ele>
        <time>2020-07-30T07:55:17.000Z</time>
      </trkpt>
      <trkpt lat="47.26175" lon="-2.42757">
        <ele>74.400001525879</ele>
        <time>2020-07-30T07:55:20.000Z</time>
      </trkpt>
      <trkpt lat="47.26195" lon="-2.42827">
        <ele>74.400001525879</ele>
        <time>2020-07-30T07:55:29.000Z</time>
      </trkpt>
      <trkpt lat="47.26212" lon="-2.42891">
        <ele>74.400001525879</ele>
        <time>2020-07-30T07:55:37.000Z</time>
      </trkpt>
      <trkpt lat="47.26229" lon="-2.42952">
        <ele>74.400001525879</ele>
        <time>2020-07-30T07:55:45.000Z</time>
      </trkpt>
      <trkpt lat="47.26244" lon="-2.42995">
        <ele>74.400001525879</ele>
        <time>2020-07-30T07:55:51.000Z</time>
      </trkpt>
      <trkpt lat="47.26251" lon="-2.43008">
        <ele>74.400001525879</ele>
        <time>2020-07-30T07:55:53.000Z</time>
      </trkpt>
      <trkpt lat="47.26263" lon="-2.43026">
        <ele>74.800003051758</ele>
        <time>2020-07-30T07:55:56.000Z</time>
      </trkpt>
      <trkpt lat="47.26267" lon="-2.43031">
        <ele>75.199996948242</ele>
        <time>2020-07-30T07:55:57.000Z</time>
      </trkpt>
      <trkpt lat="47.26272" lon="-2.43036">
        <ele>75.599998474121</ele>
        <time>2020-07-30T07:55:58.000Z</time>
      </trkpt>
      <trkpt lat="47.26277" lon="-2.4304">
        <ele>76.199996948242</ele>
        <time>2020-07-30T07:55:59.000Z</time>
      </trkpt>
      <trkpt lat="47.26282" lon="-2.43045">
        <ele>76.599998474121</ele>
        <time>2020-07-30T07:56:00.000Z</time>
      </trkpt>
      <trkpt lat="47.26309" lon="-2.43074">
        <ele>76.599998474121</ele>
        <time>2020-07-30T07:56:06.000Z</time>
      </trkpt>
      <trkpt lat="47.26335" lon="-2.43119">
        <ele>76.599998474121</ele>
        <time>2020-07-30T07:56:13.000Z</time>
      </trkpt>
      <trkpt lat="47.26364" lon="-2.43171">
        <ele>76.599998474121</ele>
        <time>2020-07-30T07:56:22.000Z</time>
      </trkpt>
      <trkpt lat="47.26384" lon="-2.43205">
        <ele>76.599998474121</ele>
        <time>2020-07-30T07:56:29.000Z</time>
      </trkpt>
      <trkpt lat="47.26398" lon="-2.4323">
        <ele>76.599998474121</ele>
        <time>2020-07-30T07:56:35.000Z</time>
      </trkpt>
      <trkpt lat="47.26406" lon="-2.43238">
        <ele>76.599998474121</ele>
        <time>2020-07-30T07:56:41.000Z</time>
      </trkpt>
      <trkpt lat="47.26419" lon="-2.43249">
        <ele>76.599998474121</ele>
        <time>2020-07-30T07:56:46.000Z</time>
      </trkpt>
      <trkpt lat="47.26423" lon="-2.43265">
        <ele>76.599998474121</ele>
        <time>2020-07-30T07:56:50.000Z</time>
      </trkpt>
      <trkpt lat="47.26433" lon="-2.43279">
        <ele>76.599998474121</ele>
        <time>2020-07-30T07:56:54.000Z</time>
      </trkpt>
      <trkpt lat="47.26452" lon="-2.43303">
        <ele>77</ele>
        <time>2020-07-30T07:56:59.000Z</time>
      </trkpt>
      <trkpt lat="47.26456" lon="-2.43308">
        <ele>77.800003051758</ele>
        <time>2020-07-30T07:57:00.000Z</time>
      </trkpt>
      <trkpt lat="47.2646" lon="-2.43314">
        <ele>78.199996948242</ele>
        <time>2020-07-30T07:57:01.000Z</time>
      </trkpt>
      <trkpt lat="47.26464" lon="-2.4332">
        <ele>78.599998474121</ele>
        <time>2020-07-30T07:57:02.000Z</time>
      </trkpt>
      <trkpt lat="47.26472" lon="-2.43331">
        <ele>78.599998474121</ele>
        <time>2020-07-30T07:57:04.000Z</time>
      </trkpt>
      <trkpt lat="47.26477" lon="-2.43338">
        <ele>78.599998474121</ele>
        <time>2020-07-30T07:57:05.000Z</time>
      </trkpt>
      <trkpt lat="47.26508" lon="-2.43388">
        <ele>78.599998474121</ele>
        <time>2020-07-30T07:57:12.000Z</time>
      </trkpt>
      <trkpt lat="47.2654" lon="-2.4344">
        <ele>78.599998474121</ele>
        <time>2020-07-30T07:57:19.000Z</time>
      </trkpt>
      <trkpt lat="47.26551" lon="-2.43464">
        <ele>78.599998474121</ele>
        <time>2020-07-30T07:57:22.000Z</time>
      </trkpt>
      <trkpt lat="47.26559" lon="-2.43491">
        <ele>78.599998474121</ele>
        <time>2020-07-30T07:57:25.000Z</time>
      </trkpt>
      <trkpt lat="47.26573" lon="-2.43562">
        <ele>78.599998474121</ele>
        <time>2020-07-30T07:57:33.000Z</time>
      </trkpt>
      <trkpt lat="47.26584" lon="-2.43624">
        <ele>78.599998474121</ele>
        <time>2020-07-30T07:57:40.000Z</time>
      </trkpt>
      <trkpt lat="47.26602" lon="-2.43678">
        <ele>78.599998474121</ele>
        <time>2020-07-30T07:57:47.000Z</time>
      </trkpt>
      <trkpt lat="47.2662" lon="-2.43711">
        <ele>78.599998474121</ele>
        <time>2020-07-30T07:57:52.000Z</time>
      </trkpt>
      <trkpt lat="47.26624" lon="-2.43717">
        <ele>78.599998474121</ele>
        <time>2020-07-30T07:57:53.000Z</time>
      </trkpt>
      <trkpt lat="47.26635" lon="-2.43736">
        <ele>78.599998474121</ele>
        <time>2020-07-30T07:57:56.000Z</time>
      </trkpt>
      <trkpt lat="47.26646" lon="-2.43753">
        <ele>78.599998474121</ele>
        <time>2020-07-30T07:57:59.000Z</time>
      </trkpt>
      <trkpt lat="47.2667" lon="-2.43793">
        <ele>78.599998474121</ele>
        <time>2020-07-30T07:58:06.000Z</time>
      </trkpt>
      <trkpt lat="47.26697" lon="-2.43837">
        <ele>78.599998474121</ele>
        <time>2020-07-30T07:58:15.000Z</time>
      </trkpt>
      <trkpt lat="47.26711" lon="-2.43854">
        <ele>78.599998474121</ele>
        <time>2020-07-30T07:58:19.000Z</time>
      </trkpt>
      <trkpt lat="47.26715" lon="-2.43867">
        <ele>78.599998474121</ele>
        <time>2020-07-30T07:58:21.000Z</time>
      </trkpt>
      <trkpt lat="47.26716" lon="-2.43874">
        <ele>79</ele>
        <time>2020-07-30T07:58:22.000Z</time>
      </trkpt>
      <trkpt lat="47.26718" lon="-2.43881">
        <ele>79.400001525879</ele>
        <time>2020-07-30T07:58:23.000Z</time>
      </trkpt>
      <trkpt lat="47.2672" lon="-2.4389">
        <ele>80</ele>
        <time>2020-07-30T07:58:24.000Z</time>
      </trkpt>
      <trkpt lat="47.26722" lon="-2.43898">
        <ele>80.400001525879</ele>
        <time>2020-07-30T07:58:25.000Z</time>
      </trkpt>
      <trkpt lat="47.26724" lon="-2.43905">
        <ele>80.800003051758</ele>
        <time>2020-07-30T07:58:26.000Z</time>
      </trkpt>
      <trkpt lat="47.26746" lon="-2.43966">
        <ele>80.800003051758</ele>
        <time>2020-07-30T07:58:34.000Z</time>
      </trkpt>
      <trkpt lat="47.26768" lon="-2.4403">
        <ele>80.800003051758</ele>
        <time>2020-07-30T07:58:42.000Z</time>
      </trkpt>
      <trkpt lat="47.26785" lon="-2.44065">
        <ele>80.800003051758</ele>
        <time>2020-07-30T07:58:47.000Z</time>
      </trkpt>
      <trkpt lat="47.26788" lon="-2.4407">
        <ele>80.800003051758</ele>
        <time>2020-07-30T07:58:48.000Z</time>
      </trkpt>
      <trkpt lat="47.26802" lon="-2.44085">
        <ele>80.800003051758</ele>
        <time>2020-07-30T07:58:52.000Z</time>
      </trkpt>
      <trkpt lat="47.26805" lon="-2.44095">
        <ele>80.800003051758</ele>
        <time>2020-07-30T07:58:55.000Z</time>
      </trkpt>
      <trkpt lat="47.26805" lon="-2.44097">
        <ele>80.800003051758</ele>
        <time>2020-07-30T07:58:56.000Z</time>
      </trkpt>
      <trkpt lat="47.26808" lon="-2.44109">
        <ele>80.800003051758</ele>
        <time>2020-07-30T07:59:01.000Z</time>
      </trkpt>
      <trkpt lat="47.26812" lon="-2.44127">
        <ele>80.800003051758</ele>
        <time>2020-07-30T07:59:06.000Z</time>
      </trkpt>
      <trkpt lat="47.26819" lon="-2.44142">
        <ele>80.800003051758</ele>
        <time>2020-07-30T07:59:11.000Z</time>
      </trkpt>
      <trkpt lat="47.26827" lon="-2.44163">
        <ele>80.800003051758</ele>
        <time>2020-07-30T07:59:15.000Z</time>
      </trkpt>
      <trkpt lat="47.2683" lon="-2.44178">
        <ele>80.800003051758</ele>
        <time>2020-07-30T07:59:19.000Z</time>
      </trkpt>
      <trkpt lat="47.26834" lon="-2.44184">
        <ele>80.800003051758</ele>
        <time>2020-07-30T07:59:22.000Z</time>
      </trkpt>
      <trkpt lat="47.26838" lon="-2.44183">
        <ele>80.800003051758</ele>
        <time>2020-07-30T07:59:23.000Z</time>
      </trkpt>
      <trkpt lat="47.26859" lon="-2.44176">
        <ele>80.800003051758</ele>
        <time>2020-07-30T07:59:27.000Z</time>
      </trkpt>
      <trkpt lat="47.26866" lon="-2.44173">
        <ele>80.800003051758</ele>
        <time>2020-07-30T07:59:28.000Z</time>
      </trkpt>
      <trkpt lat="47.26898" lon="-2.4416">
        <ele>80.800003051758</ele>
        <time>2020-07-30T07:59:33.000Z</time>
      </trkpt>
      <trkpt lat="47.26903" lon="-2.44159">
        <ele>80.400001525879</ele>
        <time>2020-07-30T07:59:34.000Z</time>
      </trkpt>
      <trkpt lat="47.26907" lon="-2.4416">
        <ele>80</ele>
        <time>2020-07-30T07:59:35.000Z</time>
      </trkpt>
      <trkpt lat="47.2691" lon="-2.44165">
        <ele>79.599998474121</ele>
        <time>2020-07-30T07:59:36.000Z</time>
      </trkpt>
      <trkpt lat="47.26912" lon="-2.4417">
        <ele>79.199996948242</ele>
        <time>2020-07-30T07:59:37.000Z</time>
      </trkpt>
      <trkpt lat="47.26914" lon="-2.44176">
        <ele>78.599998474121</ele>
        <time>2020-07-30T07:59:38.000Z</time>
      </trkpt>
      <trkpt lat="47.26924" lon="-2.44194">
        <ele>78.599998474121</ele>
        <time>2020-07-30T07:59:41.000Z</time>
      </trkpt>
      <trkpt lat="47.26932" lon="-2.44214">
        <ele>78.599998474121</ele>
        <time>2020-07-30T07:59:44.000Z</time>
      </trkpt>
      <trkpt lat="47.26934" lon="-2.44232">
        <ele>78.599998474121</ele>
        <time>2020-07-30T07:59:46.000Z</time>
      </trkpt>
      <trkpt lat="47.26941" lon="-2.44268">
        <ele>78.599998474121</ele>
        <time>2020-07-30T07:59:50.000Z</time>
      </trkpt>
      <trkpt lat="47.26957" lon="-2.44336">
        <ele>78.599998474121</ele>
        <time>2020-07-30T07:59:58.000Z</time>
      </trkpt>
      <trkpt lat="47.26973" lon="-2.44392">
        <ele>78.599998474121</ele>
        <time>2020-07-30T08:00:05.000Z</time>
      </trkpt>
      <trkpt lat="47.26974" lon="-2.44399">
        <ele>78.599998474121</ele>
        <time>2020-07-30T08:00:06.000Z</time>
      </trkpt>
      <trkpt lat="47.26976" lon="-2.44405">
        <ele>78.599998474121</ele>
        <time>2020-07-30T08:00:07.000Z</time>
      </trkpt>
      <trkpt lat="47.26982" lon="-2.4442">
        <ele>78.599998474121</ele>
        <time>2020-07-30T08:00:10.000Z</time>
      </trkpt>
      <trkpt lat="47.26989" lon="-2.44437">
        <ele>78.599998474121</ele>
        <time>2020-07-30T08:00:13.000Z</time>
      </trkpt>
      <trkpt lat="47.27003" lon="-2.44497">
        <ele>78.599998474121</ele>
        <time>2020-07-30T08:00:21.000Z</time>
      </trkpt>
      <trkpt lat="47.27015" lon="-2.44555">
        <ele>78.599998474121</ele>
        <time>2020-07-30T08:00:28.000Z</time>
      </trkpt>
      <trkpt lat="47.27026" lon="-2.44618">
        <ele>78.599998474121</ele>
        <time>2020-07-30T08:00:35.000Z</time>
      </trkpt>
      <trkpt lat="47.27039" lon="-2.4469">
        <ele>78.599998474121</ele>
        <time>2020-07-30T08:00:43.000Z</time>
      </trkpt>
      <trkpt lat="47.2705" lon="-2.44751">
        <ele>78.599998474121</ele>
        <time>2020-07-30T08:00:50.000Z</time>
      </trkpt>
      <trkpt lat="47.27057" lon="-2.44809">
        <ele>78.599998474121</ele>
        <time>2020-07-30T08:00:56.000Z</time>
      </trkpt>
      <trkpt lat="47.27059" lon="-2.44841">
        <ele>78.599998474121</ele>
        <time>2020-07-30T08:00:59.000Z</time>
      </trkpt>
      <trkpt lat="47.27058" lon="-2.4487">
        <ele>78.599998474121</ele>
        <time>2020-07-30T08:01:02.000Z</time>
      </trkpt>
      <trkpt lat="47.27059" lon="-2.44898">
        <ele>78.599998474121</ele>
        <time>2020-07-30T08:01:05.000Z</time>
      </trkpt>
      <trkpt lat="47.27061" lon="-2.44923">
        <ele>78.599998474121</ele>
        <time>2020-07-30T08:01:08.000Z</time>
      </trkpt>
      <trkpt lat="47.27064" lon="-2.44974">
        <ele>78.599998474121</ele>
        <time>2020-07-30T08:01:15.000Z</time>
      </trkpt>
      <trkpt lat="47.27067" lon="-2.44993">
        <ele>78.599998474121</ele>
        <time>2020-07-30T08:01:19.000Z</time>
      </trkpt>
      <trkpt lat="47.2707" lon="-2.44995">
        <ele>78.599998474121</ele>
        <time>2020-07-30T08:01:20.000Z</time>
      </trkpt>
      <trkpt lat="47.27077" lon="-2.44996">
        <ele>78.599998474121</ele>
        <time>2020-07-30T08:01:22.000Z</time>
      </trkpt>
      <trkpt lat="47.27098" lon="-2.44999">
        <ele>78.599998474121</ele>
        <time>2020-07-30T08:01:26.000Z</time>
      </trkpt>
      <trkpt lat="47.27131" lon="-2.45">
        <ele>78.599998474121</ele>
        <time>2020-07-30T08:01:31.000Z</time>
      </trkpt>
      <trkpt lat="47.27179" lon="-2.44994">
        <ele>78.599998474121</ele>
        <time>2020-07-30T08:01:38.000Z</time>
      </trkpt>
      <trkpt lat="47.27221" lon="-2.44985">
        <ele>78.599998474121</ele>
        <time>2020-07-30T08:01:45.000Z</time>
      </trkpt>
      <trkpt lat="47.27238" lon="-2.4498">
        <ele>78.199996948242</ele>
        <time>2020-07-30T08:01:48.000Z</time>
      </trkpt>
      <trkpt lat="47.27244" lon="-2.44977">
        <ele>77.800003051758</ele>
        <time>2020-07-30T08:01:49.000Z</time>
      </trkpt>
      <trkpt lat="47.2725" lon="-2.44974">
        <ele>77.400001525879</ele>
        <time>2020-07-30T08:01:50.000Z</time>
      </trkpt>
      <trkpt lat="47.27256" lon="-2.44971">
        <ele>77</ele>
        <time>2020-07-30T08:01:51.000Z</time>
      </trkpt>
      <trkpt lat="47.27262" lon="-2.44968">
        <ele>76.599998474121</ele>
        <time>2020-07-30T08:01:52.000Z</time>
      </trkpt>
      <trkpt lat="47.27285" lon="-2.44963">
        <ele>76.599998474121</ele>
        <time>2020-07-30T08:01:56.000Z</time>
      </trkpt>
      <trkpt lat="47.27292" lon="-2.44963">
        <ele>76.599998474121</ele>
        <time>2020-07-30T08:01:57.000Z</time>
      </trkpt>
      <trkpt lat="47.27332" lon="-2.44957">
        <ele>76.599998474121</ele>
        <time>2020-07-30T08:02:04.000Z</time>
      </trkpt>
      <trkpt lat="47.27365" lon="-2.4494">
        <ele>76.599998474121</ele>
        <time>2020-07-30T08:02:10.000Z</time>
      </trkpt>
      <trkpt lat="47.27401" lon="-2.4492">
        <ele>76.599998474121</ele>
        <time>2020-07-30T08:02:16.000Z</time>
      </trkpt>
      <trkpt lat="47.27422" lon="-2.44905">
        <ele>76.599998474121</ele>
        <time>2020-07-30T08:02:20.000Z</time>
      </trkpt>
      <trkpt lat="47.27432" lon="-2.44894">
        <ele>76.599998474121</ele>
        <time>2020-07-30T08:02:22.000Z</time>
      </trkpt>
      <trkpt lat="47.27457" lon="-2.4486">
        <ele>76.199996948242</ele>
        <time>2020-07-30T08:02:28.000Z</time>
      </trkpt>
      <trkpt lat="47.27461" lon="-2.44856">
        <ele>75.599998474121</ele>
        <time>2020-07-30T08:02:29.000Z</time>
      </trkpt>
      <trkpt lat="47.27466" lon="-2.44854">
        <ele>75.199996948242</ele>
        <time>2020-07-30T08:02:30.000Z</time>
      </trkpt>
      <trkpt lat="47.27472" lon="-2.44854">
        <ele>74.800003051758</ele>
        <time>2020-07-30T08:02:31.000Z</time>
      </trkpt>
      <trkpt lat="47.27478" lon="-2.44854">
        <ele>74.400001525879</ele>
        <time>2020-07-30T08:02:32.000Z</time>
      </trkpt>
      <trkpt lat="47.27494" lon="-2.44854">
        <ele>74.400001525879</ele>
        <time>2020-07-30T08:02:35.000Z</time>
      </trkpt>
      <trkpt lat="47.27499" lon="-2.44857">
        <ele>74.400001525879</ele>
        <time>2020-07-30T08:02:36.000Z</time>
      </trkpt>
      <trkpt lat="47.27507" lon="-2.44874">
        <ele>74.400001525879</ele>
        <time>2020-07-30T08:02:39.000Z</time>
      </trkpt>
      <trkpt lat="47.2751" lon="-2.4489">
        <ele>74.400001525879</ele>
        <time>2020-07-30T08:02:41.000Z</time>
      </trkpt>
      <trkpt lat="47.27515" lon="-2.44914">
        <ele>74.400001525879</ele>
        <time>2020-07-30T08:02:44.000Z</time>
      </trkpt>
      <trkpt lat="47.27525" lon="-2.44955">
        <ele>74.400001525879</ele>
        <time>2020-07-30T08:02:49.000Z</time>
      </trkpt>
      <trkpt lat="47.27531" lon="-2.44972">
        <ele>74.400001525879</ele>
        <time>2020-07-30T08:02:51.000Z</time>
      </trkpt>
      <trkpt lat="47.27552" lon="-2.45033">
        <ele>74.400001525879</ele>
        <time>2020-07-30T08:02:59.000Z</time>
      </trkpt>
      <trkpt lat="47.27577" lon="-2.45085">
        <ele>74</ele>
        <time>2020-07-30T08:03:07.000Z</time>
      </trkpt>
      <trkpt lat="47.27581" lon="-2.45092">
        <ele>73.599998474121</ele>
        <time>2020-07-30T08:03:08.000Z</time>
      </trkpt>
      <trkpt lat="47.27584" lon="-2.45099">
        <ele>73.199996948242</ele>
        <time>2020-07-30T08:03:09.000Z</time>
      </trkpt>
      <trkpt lat="47.27587" lon="-2.45106">
        <ele>72.199996948242</ele>
        <time>2020-07-30T08:03:10.000Z</time>
      </trkpt>
      <trkpt lat="47.27589" lon="-2.45114">
        <ele>72.199996948242</ele>
        <time>2020-07-30T08:03:11.000Z</time>
      </trkpt>
      <trkpt lat="47.27591" lon="-2.45122">
        <ele>72.199996948242</ele>
        <time>2020-07-30T08:03:12.000Z</time>
      </trkpt>
      <trkpt lat="47.276" lon="-2.45181">
        <ele>72.199996948242</ele>
        <time>2020-07-30T08:03:19.000Z</time>
      </trkpt>
      <trkpt lat="47.27607" lon="-2.45226">
        <ele>72.199996948242</ele>
        <time>2020-07-30T08:03:25.000Z</time>
      </trkpt>
      <trkpt lat="47.27612" lon="-2.45295">
        <ele>72.199996948242</ele>
        <time>2020-07-30T08:03:34.000Z</time>
      </trkpt>
      <trkpt lat="47.27613" lon="-2.45303">
        <ele>73.199996948242</ele>
        <time>2020-07-30T08:03:35.000Z</time>
      </trkpt>
      <trkpt lat="47.27614" lon="-2.45311">
        <ele>73.599998474121</ele>
        <time>2020-07-30T08:03:36.000Z</time>
      </trkpt>
      <trkpt lat="47.27615" lon="-2.45319">
        <ele>74</ele>
        <time>2020-07-30T08:03:37.000Z</time>
      </trkpt>
      <trkpt lat="47.27616" lon="-2.45327">
        <ele>74.599998474121</ele>
        <time>2020-07-30T08:03:38.000Z</time>
      </trkpt>
      <trkpt lat="47.27618" lon="-2.45348">
        <ele>74.599998474121</ele>
        <time>2020-07-30T08:03:41.000Z</time>
      </trkpt>
      <trkpt lat="47.27618" lon="-2.45357">
        <ele>74.599998474121</ele>
        <time>2020-07-30T08:03:43.000Z</time>
      </trkpt>
      <trkpt lat="47.27613" lon="-2.45363">
        <ele>74.599998474121</ele>
        <time>2020-07-30T08:03:45.000Z</time>
      </trkpt>
      <trkpt lat="47.276" lon="-2.45366">
        <ele>74.599998474121</ele>
        <time>2020-07-30T08:03:48.000Z</time>
      </trkpt>
      <trkpt lat="47.27595" lon="-2.45367">
        <ele>74.599998474121</ele>
        <time>2020-07-30T08:03:49.000Z</time>
      </trkpt>
      <trkpt lat="47.27572" lon="-2.45373">
        <ele>75</ele>
        <time>2020-07-30T08:03:53.000Z</time>
      </trkpt>
      <trkpt lat="47.27567" lon="-2.45375">
        <ele>75.400001525879</ele>
        <time>2020-07-30T08:03:54.000Z</time>
      </trkpt>
      <trkpt lat="47.27561" lon="-2.45377">
        <ele>75.800003051758</ele>
        <time>2020-07-30T08:03:55.000Z</time>
      </trkpt>
      <trkpt lat="47.27555" lon="-2.45379">
        <ele>76.199996948242</ele>
        <time>2020-07-30T08:03:56.000Z</time>
      </trkpt>
      <trkpt lat="47.27549" lon="-2.45381">
        <ele>76.599998474121</ele>
        <time>2020-07-30T08:03:57.000Z</time>
      </trkpt>
      <trkpt lat="47.27522" lon="-2.45394">
        <ele>76.599998474121</ele>
        <time>2020-07-30T08:04:02.000Z</time>
      </trkpt>
      <trkpt lat="47.27506" lon="-2.45399">
        <ele>76.599998474121</ele>
        <time>2020-07-30T08:04:05.000Z</time>
      </trkpt>
      <trkpt lat="47.27488" lon="-2.45405">
        <ele>76.599998474121</ele>
        <time>2020-07-30T08:04:09.000Z</time>
      </trkpt>
      <trkpt lat="47.27486" lon="-2.45421">
        <ele>76.599998474121</ele>
        <time>2020-07-30T08:04:12.000Z</time>
      </trkpt>
      <trkpt lat="47.27489" lon="-2.4544">
        <ele>76.599998474121</ele>
        <time>2020-07-30T08:04:15.000Z</time>
      </trkpt>
      <trkpt lat="47.27492" lon="-2.4546">
        <ele>76.599998474121</ele>
        <time>2020-07-30T08:04:18.000Z</time>
      </trkpt>
      <trkpt lat="47.27493" lon="-2.45472">
        <ele>76.599998474121</ele>
        <time>2020-07-30T08:04:20.000Z</time>
      </trkpt>
      <trkpt lat="47.27487" lon="-2.45483">
        <ele>76.599998474121</ele>
        <time>2020-07-30T08:04:22.000Z</time>
      </trkpt>
      <trkpt lat="47.27478" lon="-2.45491">
        <ele>76.599998474121</ele>
        <time>2020-07-30T08:04:24.000Z</time>
      </trkpt>
      <trkpt lat="47.27469" lon="-2.45498">
        <ele>76.599998474121</ele>
        <time>2020-07-30T08:04:26.000Z</time>
      </trkpt>
      <trkpt lat="47.2745" lon="-2.45508">
        <ele>76.599998474121</ele>
        <time>2020-07-30T08:04:30.000Z</time>
      </trkpt>
      <trkpt lat="47.27441" lon="-2.45513">
        <ele>76.599998474121</ele>
        <time>2020-07-30T08:04:32.000Z</time>
      </trkpt>
      <trkpt lat="47.27438" lon="-2.45516">
        <ele>76.599998474121</ele>
        <time>2020-07-30T08:04:33.000Z</time>
      </trkpt>
      <trkpt lat="47.27435" lon="-2.45528">
        <ele>76.599998474121</ele>
        <time>2020-07-30T08:04:35.000Z</time>
      </trkpt>
      <trkpt lat="47.27434" lon="-2.45542">
        <ele>76.599998474121</ele>
        <time>2020-07-30T08:04:37.000Z</time>
      </trkpt>
      <trkpt lat="47.27432" lon="-2.45548">
        <ele>76.599998474121</ele>
        <time>2020-07-30T08:04:38.000Z</time>
      </trkpt>
      <trkpt lat="47.27429" lon="-2.45553">
        <ele>76.599998474121</ele>
        <time>2020-07-30T08:04:39.000Z</time>
      </trkpt>
      <trkpt lat="47.27416" lon="-2.45563">
        <ele>76.599998474121</ele>
        <time>2020-07-30T08:04:42.000Z</time>
      </trkpt>
      <trkpt lat="47.27411" lon="-2.45566">
        <ele>76.599998474121</ele>
        <time>2020-07-30T08:04:43.000Z</time>
      </trkpt>
      <trkpt lat="47.274" lon="-2.45569">
        <ele>76.599998474121</ele>
        <time>2020-07-30T08:04:45.000Z</time>
      </trkpt>
      <trkpt lat="47.27379" lon="-2.45574">
        <ele>76.599998474121</ele>
        <time>2020-07-30T08:04:49.000Z</time>
      </trkpt>
      <trkpt lat="47.27347" lon="-2.45591">
        <ele>76.599998474121</ele>
        <time>2020-07-30T08:04:55.000Z</time>
      </trkpt>
      <trkpt lat="47.27333" lon="-2.456">
        <ele>76.599998474121</ele>
        <time>2020-07-30T08:04:58.000Z</time>
      </trkpt>
      <trkpt lat="47.27328" lon="-2.45604">
        <ele>76.599998474121</ele>
        <time>2020-07-30T08:04:59.000Z</time>
      </trkpt>
      <trkpt lat="47.27323" lon="-2.45616">
        <ele>76.599998474121</ele>
        <time>2020-07-30T08:05:01.000Z</time>
      </trkpt>
      <trkpt lat="47.27325" lon="-2.45637">
        <ele>76.599998474121</ele>
        <time>2020-07-30T08:05:04.000Z</time>
      </trkpt>
      <trkpt lat="47.27339" lon="-2.45686">
        <ele>76.599998474121</ele>
        <time>2020-07-30T08:05:11.000Z</time>
      </trkpt>
      <trkpt lat="47.27358" lon="-2.45736">
        <ele>76.599998474121</ele>
        <time>2020-07-30T08:05:18.000Z</time>
      </trkpt>
      <trkpt lat="47.27369" lon="-2.45764">
        <ele>76.599998474121</ele>
        <time>2020-07-30T08:05:23.000Z</time>
      </trkpt>
      <trkpt lat="47.27374" lon="-2.45778">
        <ele>76.599998474121</ele>
        <time>2020-07-30T08:05:28.000Z</time>
      </trkpt>
      <trkpt lat="47.27376" lon="-2.45778">
        <ele>76.599998474121</ele>
        <time>2020-07-30T08:05:29.000Z</time>
      </trkpt>
      <trkpt lat="47.27383" lon="-2.45776">
        <ele>76.599998474121</ele>
        <time>2020-07-30T08:05:31.000Z</time>
      </trkpt>
      <trkpt lat="47.27411" lon="-2.45771">
        <ele>76.599998474121</ele>
        <time>2020-07-30T08:05:37.000Z</time>
      </trkpt>
      <trkpt lat="47.27455" lon="-2.45762">
        <ele>77</ele>
        <time>2020-07-30T08:05:45.000Z</time>
      </trkpt>
      <trkpt lat="47.2746" lon="-2.4576">
        <ele>77.400001525879</ele>
        <time>2020-07-30T08:05:46.000Z</time>
      </trkpt>
      <trkpt lat="47.27466" lon="-2.45758">
        <ele>77.800003051758</ele>
        <time>2020-07-30T08:05:47.000Z</time>
      </trkpt>
      <trkpt lat="47.27471" lon="-2.45757">
        <ele>78.199996948242</ele>
        <time>2020-07-30T08:05:48.000Z</time>
      </trkpt>
      <trkpt lat="47.27477" lon="-2.45755">
        <ele>78.599998474121</ele>
        <time>2020-07-30T08:05:49.000Z</time>
      </trkpt>
      <trkpt lat="47.27498" lon="-2.45747">
        <ele>78.599998474121</ele>
        <time>2020-07-30T08:05:53.000Z</time>
      </trkpt>
      <trkpt lat="47.27538" lon="-2.45733">
        <ele>78.599998474121</ele>
        <time>2020-07-30T08:06:01.000Z</time>
      </trkpt>
      <trkpt lat="47.27582" lon="-2.45718">
        <ele>78.599998474121</ele>
        <time>2020-07-30T08:06:09.000Z</time>
      </trkpt>
      <trkpt lat="47.27611" lon="-2.45709">
        <ele>78.599998474121</ele>
        <time>2020-07-30T08:06:15.000Z</time>
      </trkpt>
      <trkpt lat="47.27625" lon="-2.45707">
        <ele>78.599998474121</ele>
        <time>2020-07-30T08:06:19.000Z</time>
      </trkpt>
      <trkpt lat="47.27628" lon="-2.4571">
        <ele>78.599998474121</ele>
        <time>2020-07-30T08:06:20.000Z</time>
      </trkpt>
      <trkpt lat="47.27637" lon="-2.45737">
        <ele>78.599998474121</ele>
        <time>2020-07-30T08:06:25.000Z</time>
      </trkpt>
      <trkpt lat="47.27639" lon="-2.45752">
        <ele>78.599998474121</ele>
        <time>2020-07-30T08:06:27.000Z</time>
      </trkpt>
      <trkpt lat="47.27642" lon="-2.45769">
        <ele>78.599998474121</ele>
        <time>2020-07-30T08:06:29.000Z</time>
      </trkpt>
      <trkpt lat="47.27645" lon="-2.45844">
        <ele>78.599998474121</ele>
        <time>2020-07-30T08:06:37.000Z</time>
      </trkpt>
      <trkpt lat="47.27643" lon="-2.4588">
        <ele>78.199996948242</ele>
        <time>2020-07-30T08:06:41.000Z</time>
      </trkpt>
      <trkpt lat="47.27642" lon="-2.45888">
        <ele>77.800003051758</ele>
        <time>2020-07-30T08:06:42.000Z</time>
      </trkpt>
      <trkpt lat="47.27641" lon="-2.45897">
        <ele>77.400001525879</ele>
        <time>2020-07-30T08:06:43.000Z</time>
      </trkpt>
      <trkpt lat="47.2764" lon="-2.45906">
        <ele>76.800003051758</ele>
        <time>2020-07-30T08:06:44.000Z</time>
      </trkpt>
      <trkpt lat="47.2764" lon="-2.45916">
        <ele>76.400001525879</ele>
        <time>2020-07-30T08:06:45.000Z</time>
      </trkpt>
      <trkpt lat="47.27639" lon="-2.45962">
        <ele>76.400001525879</ele>
        <time>2020-07-30T08:06:50.000Z</time>
      </trkpt>
      <trkpt lat="47.2764" lon="-2.45981">
        <ele>76.400001525879</ele>
        <time>2020-07-30T08:06:52.000Z</time>
      </trkpt>
      <trkpt lat="47.27643" lon="-2.46018">
        <ele>76.400001525879</ele>
        <time>2020-07-30T08:06:56.000Z</time>
      </trkpt>
      <trkpt lat="47.27655" lon="-2.46079">
        <ele>76.400001525879</ele>
        <time>2020-07-30T08:07:03.000Z</time>
      </trkpt>
      <trkpt lat="47.27662" lon="-2.46124">
        <ele>76.400001525879</ele>
        <time>2020-07-30T08:07:09.000Z</time>
      </trkpt>
      <trkpt lat="47.27669" lon="-2.46165">
        <ele>76.400001525879</ele>
        <time>2020-07-30T08:07:16.000Z</time>
      </trkpt>
      <trkpt lat="47.27669" lon="-2.46178">
        <ele>76.400001525879</ele>
        <time>2020-07-30T08:07:18.000Z</time>
      </trkpt>
      <trkpt lat="47.27669" lon="-2.46193">
        <ele>76.800003051758</ele>
        <time>2020-07-30T08:07:20.000Z</time>
      </trkpt>
      <trkpt lat="47.27669" lon="-2.46201">
        <ele>77.199996948242</ele>
        <time>2020-07-30T08:07:21.000Z</time>
      </trkpt>
      <trkpt lat="47.2767" lon="-2.4621">
        <ele>77.599998474121</ele>
        <time>2020-07-30T08:07:22.000Z</time>
      </trkpt>
      <trkpt lat="47.27671" lon="-2.46218">
        <ele>78</ele>
        <time>2020-07-30T08:07:23.000Z</time>
      </trkpt>
      <trkpt lat="47.27672" lon="-2.46226">
        <ele>78.400001525879</ele>
        <time>2020-07-30T08:07:24.000Z</time>
      </trkpt>
      <trkpt lat="47.27674" lon="-2.46249">
        <ele>78.400001525879</ele>
        <time>2020-07-30T08:07:27.000Z</time>
      </trkpt>
      <trkpt lat="47.27673" lon="-2.46257">
        <ele>78.400001525879</ele>
        <time>2020-07-30T08:07:28.000Z</time>
      </trkpt>
      <trkpt lat="47.27668" lon="-2.4627">
        <ele>78.400001525879</ele>
        <time>2020-07-30T08:07:30.000Z</time>
      </trkpt>
      <trkpt lat="47.27659" lon="-2.46292">
        <ele>78.400001525879</ele>
        <time>2020-07-30T08:07:34.000Z</time>
      </trkpt>
      <trkpt lat="47.27668" lon="-2.46308">
        <ele>78.400001525879</ele>
        <time>2020-07-30T08:07:37.000Z</time>
      </trkpt>
      <trkpt lat="47.2767" lon="-2.46314">
        <ele>78.400001525879</ele>
        <time>2020-07-30T08:07:38.000Z</time>
      </trkpt>
      <trkpt lat="47.27676" lon="-2.46335">
        <ele>78.400001525879</ele>
        <time>2020-07-30T08:07:41.000Z</time>
      </trkpt>
      <trkpt lat="47.27677" lon="-2.46343">
        <ele>78.400001525879</ele>
        <time>2020-07-30T08:07:42.000Z</time>
      </trkpt>
      <trkpt lat="47.2768" lon="-2.46359">
        <ele>78.400001525879</ele>
        <time>2020-07-30T08:07:44.000Z</time>
      </trkpt>
      <trkpt lat="47.27687" lon="-2.46383">
        <ele>78.400001525879</ele>
        <time>2020-07-30T08:07:47.000Z</time>
      </trkpt>
      <trkpt lat="47.2771" lon="-2.46441">
        <ele>78.400001525879</ele>
        <time>2020-07-30T08:07:55.000Z</time>
      </trkpt>
      <trkpt lat="47.27714" lon="-2.46447">
        <ele>78.400001525879</ele>
        <time>2020-07-30T08:07:56.000Z</time>
      </trkpt>
      <trkpt lat="47.27717" lon="-2.46453">
        <ele>78.400001525879</ele>
        <time>2020-07-30T08:07:57.000Z</time>
      </trkpt>
      <trkpt lat="47.27727" lon="-2.46481">
        <ele>78.400001525879</ele>
        <time>2020-07-30T08:08:01.000Z</time>
      </trkpt>
      <trkpt lat="47.27736" lon="-2.46523">
        <ele>78.400001525879</ele>
        <time>2020-07-30T08:08:07.000Z</time>
      </trkpt>
      <trkpt lat="47.27739" lon="-2.46536">
        <ele>78.400001525879</ele>
        <time>2020-07-30T08:08:09.000Z</time>
      </trkpt>
      <trkpt lat="47.27751" lon="-2.46578">
        <ele>78.400001525879</ele>
        <time>2020-07-30T08:08:16.000Z</time>
      </trkpt>
      <trkpt lat="47.27762" lon="-2.46595">
        <ele>78.400001525879</ele>
        <time>2020-07-30T08:08:21.000Z</time>
      </trkpt>
      <trkpt lat="47.27763" lon="-2.46598">
        <ele>78.400001525879</ele>
        <time>2020-07-30T08:08:22.000Z</time>
      </trkpt>
      <trkpt lat="47.27764" lon="-2.46607">
        <ele>78.400001525879</ele>
        <time>2020-07-30T08:08:25.000Z</time>
      </trkpt>
      <trkpt lat="47.27761" lon="-2.46622">
        <ele>78.400001525879</ele>
        <time>2020-07-30T08:08:29.000Z</time>
      </trkpt>
      <trkpt lat="47.2776" lon="-2.46632">
        <ele>78.400001525879</ele>
        <time>2020-07-30T08:08:31.000Z</time>
      </trkpt>
      <trkpt lat="47.27762" lon="-2.46637">
        <ele>78.400001525879</ele>
        <time>2020-07-30T08:08:32.000Z</time>
      </trkpt>
      <trkpt lat="47.27763" lon="-2.46664">
        <ele>78.400001525879</ele>
        <time>2020-07-30T08:08:37.000Z</time>
      </trkpt>
      <trkpt lat="47.27763" lon="-2.46671">
        <ele>78.400001525879</ele>
        <time>2020-07-30T08:08:38.000Z</time>
      </trkpt>
      <trkpt lat="47.27763" lon="-2.46694">
        <ele>78.400001525879</ele>
        <time>2020-07-30T08:08:41.000Z</time>
      </trkpt>
      <trkpt lat="47.27758" lon="-2.46715">
        <ele>78.400001525879</ele>
        <time>2020-07-30T08:08:44.000Z</time>
      </trkpt>
      <trkpt lat="47.27759" lon="-2.46721">
        <ele>78</ele>
        <time>2020-07-30T08:08:45.000Z</time>
      </trkpt>
      <trkpt lat="47.27759" lon="-2.46727">
        <ele>77.599998474121</ele>
        <time>2020-07-30T08:08:46.000Z</time>
      </trkpt>
      <trkpt lat="47.2776" lon="-2.46732">
        <ele>77.199996948242</ele>
        <time>2020-07-30T08:08:47.000Z</time>
      </trkpt>
      <trkpt lat="47.27761" lon="-2.46737">
        <ele>76.800003051758</ele>
        <time>2020-07-30T08:08:48.000Z</time>
      </trkpt>
      <trkpt lat="47.27762" lon="-2.46743">
        <ele>76.400001525879</ele>
        <time>2020-07-30T08:08:49.000Z</time>
      </trkpt>
      <trkpt lat="47.27765" lon="-2.46755">
        <ele>76.400001525879</ele>
        <time>2020-07-30T08:08:51.000Z</time>
      </trkpt>
      <trkpt lat="47.27772" lon="-2.46784">
        <ele>76.400001525879</ele>
        <time>2020-07-30T08:08:55.000Z</time>
      </trkpt>
      <trkpt lat="47.27773" lon="-2.46792">
        <ele>76.400001525879</ele>
        <time>2020-07-30T08:08:56.000Z</time>
      </trkpt>
      <trkpt lat="47.27782" lon="-2.46827">
        <ele>76.400001525879</ele>
        <time>2020-07-30T08:09:02.000Z</time>
      </trkpt>
      <trkpt lat="47.27786" lon="-2.46849">
        <ele>76.400001525879</ele>
        <time>2020-07-30T08:09:07.000Z</time>
      </trkpt>
      <trkpt lat="47.27785" lon="-2.46869">
        <ele>76.400001525879</ele>
        <time>2020-07-30T08:09:12.000Z</time>
      </trkpt>
      <trkpt lat="47.27784" lon="-2.46879">
        <ele>76.400001525879</ele>
        <time>2020-07-30T08:09:16.000Z</time>
      </trkpt>
      <trkpt lat="47.27785" lon="-2.46882">
        <ele>76.400001525879</ele>
        <time>2020-07-30T08:09:17.000Z</time>
      </trkpt>
      <trkpt lat="47.27791" lon="-2.46885">
        <ele>76.400001525879</ele>
        <time>2020-07-30T08:09:20.000Z</time>
      </trkpt>
      <trkpt lat="47.27797" lon="-2.46897">
        <ele>76.400001525879</ele>
        <time>2020-07-30T08:09:23.000Z</time>
      </trkpt>
      <trkpt lat="47.27809" lon="-2.46923">
        <ele>76.400001525879</ele>
        <time>2020-07-30T08:09:28.000Z</time>
      </trkpt>
      <trkpt lat="47.27812" lon="-2.46928">
        <ele>76.400001525879</ele>
        <time>2020-07-30T08:09:29.000Z</time>
      </trkpt>
      <trkpt lat="47.27825" lon="-2.46941">
        <ele>76.400001525879</ele>
        <time>2020-07-30T08:09:32.000Z</time>
      </trkpt>
      <trkpt lat="47.27831" lon="-2.46945">
        <ele>76.400001525879</ele>
        <time>2020-07-30T08:09:33.000Z</time>
      </trkpt>
      <trkpt lat="47.2786" lon="-2.46965">
        <ele>76.400001525879</ele>
        <time>2020-07-30T08:09:38.000Z</time>
      </trkpt>
      <trkpt lat="47.27892" lon="-2.46995">
        <ele>76.400001525879</ele>
        <time>2020-07-30T08:09:44.000Z</time>
      </trkpt>
      <trkpt lat="47.27928" lon="-2.47038">
        <ele>76.400001525879</ele>
        <time>2020-07-30T08:09:52.000Z</time>
      </trkpt>
      <trkpt lat="47.27943" lon="-2.47063">
        <ele>76.400001525879</ele>
        <time>2020-07-30T08:09:56.000Z</time>
      </trkpt>
      <trkpt lat="47.27949" lon="-2.47075">
        <ele>76.400001525879</ele>
        <time>2020-07-30T08:09:58.000Z</time>
      </trkpt>
      <trkpt lat="47.27962" lon="-2.47119">
        <ele>76.400001525879</ele>
        <time>2020-07-30T08:10:04.000Z</time>
      </trkpt>
      <trkpt lat="47.27976" lon="-2.47187">
        <ele>76.400001525879</ele>
        <time>2020-07-30T08:10:12.000Z</time>
      </trkpt>
      <trkpt lat="47.27988" lon="-2.47253">
        <ele>76.400001525879</ele>
        <time>2020-07-30T08:10:20.000Z</time>
      </trkpt>
      <trkpt lat="47.27992" lon="-2.47274">
        <ele>76.400001525879</ele>
        <time>2020-07-30T08:10:23.000Z</time>
      </trkpt>
      <trkpt lat="47.27996" lon="-2.47294">
        <ele>76.400001525879</ele>
        <time>2020-07-30T08:10:26.000Z</time>
      </trkpt>
      <trkpt lat="47.28005" lon="-2.4733">
        <ele>76.400001525879</ele>
        <time>2020-07-30T08:10:32.000Z</time>
      </trkpt>
      <trkpt lat="47.28007" lon="-2.47335">
        <ele>76.400001525879</ele>
        <time>2020-07-30T08:10:33.000Z</time>
      </trkpt>
      <trkpt lat="47.2802" lon="-2.47336">
        <ele>76.400001525879</ele>
        <time>2020-07-30T08:10:36.000Z</time>
      </trkpt>
      <trkpt lat="47.28025" lon="-2.47334">
        <ele>76.400001525879</ele>
        <time>2020-07-30T08:10:37.000Z</time>
      </trkpt>
      <trkpt lat="47.28057" lon="-2.47324">
        <ele>76.400001525879</ele>
        <time>2020-07-30T08:10:43.000Z</time>
      </trkpt>
      <trkpt lat="47.28093" lon="-2.47314">
        <ele>76.400001525879</ele>
        <time>2020-07-30T08:10:50.000Z</time>
      </trkpt>
      <trkpt lat="47.28109" lon="-2.47311">
        <ele>76.400001525879</ele>
        <time>2020-07-30T08:10:53.000Z</time>
      </trkpt>
      <trkpt lat="47.2812" lon="-2.47317">
        <ele>76.400001525879</ele>
        <time>2020-07-30T08:10:55.000Z</time>
      </trkpt>
      <trkpt lat="47.28126" lon="-2.47339">
        <ele>76.400001525879</ele>
        <time>2020-07-30T08:10:58.000Z</time>
      </trkpt>
      <trkpt lat="47.28122" lon="-2.47366">
        <ele>76.400001525879</ele>
        <time>2020-07-30T08:11:01.000Z</time>
      </trkpt>
      <trkpt lat="47.2812" lon="-2.47375">
        <ele>76.400001525879</ele>
        <time>2020-07-30T08:11:02.000Z</time>
      </trkpt>
      <trkpt lat="47.28106" lon="-2.47445">
        <ele>76.400001525879</ele>
        <time>2020-07-30T08:11:10.000Z</time>
      </trkpt>
      <trkpt lat="47.28095" lon="-2.47499">
        <ele>76.400001525879</ele>
        <time>2020-07-30T08:11:17.000Z</time>
      </trkpt>
      <trkpt lat="47.28086" lon="-2.47546">
        <ele>76.400001525879</ele>
        <time>2020-07-30T08:11:23.000Z</time>
      </trkpt>
      <trkpt lat="47.2808" lon="-2.47605">
        <ele>76.400001525879</ele>
        <time>2020-07-30T08:11:30.000Z</time>
      </trkpt>
      <trkpt lat="47.28081" lon="-2.47656">
        <ele>76.400001525879</ele>
        <time>2020-07-30T08:11:36.000Z</time>
      </trkpt>
      <trkpt lat="47.28086" lon="-2.47713">
        <ele>76.400001525879</ele>
        <time>2020-07-30T08:11:42.000Z</time>
      </trkpt>
      <trkpt lat="47.28095" lon="-2.47772">
        <ele>76.400001525879</ele>
        <time>2020-07-30T08:11:49.000Z</time>
      </trkpt>
      <trkpt lat="47.28106" lon="-2.4785">
        <ele>76.400001525879</ele>
        <time>2020-07-30T08:11:59.000Z</time>
      </trkpt>
      <trkpt lat="47.28107" lon="-2.47858">
        <ele>76.400001525879</ele>
        <time>2020-07-30T08:12:00.000Z</time>
      </trkpt>
      <trkpt lat="47.28109" lon="-2.47865">
        <ele>76.400001525879</ele>
        <time>2020-07-30T08:12:01.000Z</time>
      </trkpt>
      <trkpt lat="47.28112" lon="-2.47887">
        <ele>76.400001525879</ele>
        <time>2020-07-30T08:12:04.000Z</time>
      </trkpt>
      <trkpt lat="47.28112" lon="-2.47894">
        <ele>76.400001525879</ele>
        <time>2020-07-30T08:12:05.000Z</time>
      </trkpt>
      <trkpt lat="47.28113" lon="-2.47902">
        <ele>76.400001525879</ele>
        <time>2020-07-30T08:12:06.000Z</time>
      </trkpt>
      <trkpt lat="47.28119" lon="-2.47926">
        <ele>76.400001525879</ele>
        <time>2020-07-30T08:12:09.000Z</time>
      </trkpt>
      <trkpt lat="47.28138" lon="-2.47946">
        <ele>76.400001525879</ele>
        <time>2020-07-30T08:12:13.000Z</time>
      </trkpt>
      <trkpt lat="47.28154" lon="-2.47966">
        <ele>76.400001525879</ele>
        <time>2020-07-30T08:12:17.000Z</time>
      </trkpt>
      <trkpt lat="47.28153" lon="-2.47983">
        <ele>76.400001525879</ele>
        <time>2020-07-30T08:12:19.000Z</time>
      </trkpt>
      <trkpt lat="47.28153" lon="-2.47991">
        <ele>76.400001525879</ele>
        <time>2020-07-30T08:12:20.000Z</time>
      </trkpt>
      <trkpt lat="47.28159" lon="-2.48033">
        <ele>76.400001525879</ele>
        <time>2020-07-30T08:12:25.000Z</time>
      </trkpt>
      <trkpt lat="47.2817" lon="-2.48117">
        <ele>76.400001525879</ele>
        <time>2020-07-30T08:12:35.000Z</time>
      </trkpt>
      <trkpt lat="47.28179" lon="-2.48174">
        <ele>76.400001525879</ele>
        <time>2020-07-30T08:12:42.000Z</time>
      </trkpt>
      <trkpt lat="47.28191" lon="-2.48225">
        <ele>76.400001525879</ele>
        <time>2020-07-30T08:12:49.000Z</time>
      </trkpt>
      <trkpt lat="47.28194" lon="-2.48231">
        <ele>76.400001525879</ele>
        <time>2020-07-30T08:12:50.000Z</time>
      </trkpt>
      <trkpt lat="47.28203" lon="-2.48255">
        <ele>76.400001525879</ele>
        <time>2020-07-30T08:12:54.000Z</time>
      </trkpt>
      <trkpt lat="47.282" lon="-2.48277">
        <ele>76.400001525879</ele>
        <time>2020-07-30T08:12:57.000Z</time>
      </trkpt>
      <trkpt lat="47.28196" lon="-2.48299">
        <ele>76.400001525879</ele>
        <time>2020-07-30T08:13:00.000Z</time>
      </trkpt>
      <trkpt lat="47.28192" lon="-2.4832">
        <ele>77.199996948242</ele>
        <time>2020-07-30T08:13:03.000Z</time>
      </trkpt>
      <trkpt lat="47.28192" lon="-2.48327">
        <ele>77.599998474121</ele>
        <time>2020-07-30T08:13:04.000Z</time>
      </trkpt>
      <trkpt lat="47.28193" lon="-2.48333">
        <ele>78</ele>
        <time>2020-07-30T08:13:05.000Z</time>
      </trkpt>
      <trkpt lat="47.28193" lon="-2.48339">
        <ele>78.400001525879</ele>
        <time>2020-07-30T08:13:06.000Z</time>
      </trkpt>
      <trkpt lat="47.28201" lon="-2.48352">
        <ele>78.400001525879</ele>
        <time>2020-07-30T08:13:09.000Z</time>
      </trkpt>
      <trkpt lat="47.28217" lon="-2.48347">
        <ele>78.400001525879</ele>
        <time>2020-07-30T08:13:12.000Z</time>
      </trkpt>
      <trkpt lat="47.28228" lon="-2.48343">
        <ele>78.400001525879</ele>
        <time>2020-07-30T08:13:14.000Z</time>
      </trkpt>
      <trkpt lat="47.28244" lon="-2.48346">
        <ele>78.400001525879</ele>
        <time>2020-07-30T08:13:17.000Z</time>
      </trkpt>
      <trkpt lat="47.28256" lon="-2.48363">
        <ele>78.400001525879</ele>
        <time>2020-07-30T08:13:20.000Z</time>
      </trkpt>
      <trkpt lat="47.28271" lon="-2.48372">
        <ele>78.400001525879</ele>
        <time>2020-07-30T08:13:23.000Z</time>
      </trkpt>
      <trkpt lat="47.28287" lon="-2.48366">
        <ele>78.400001525879</ele>
        <time>2020-07-30T08:13:26.000Z</time>
      </trkpt>
      <trkpt lat="47.28291" lon="-2.48366">
        <ele>78</ele>
        <time>2020-07-30T08:13:27.000Z</time>
      </trkpt>
      <trkpt lat="47.28295" lon="-2.48368">
        <ele>77.199996948242</ele>
        <time>2020-07-30T08:13:28.000Z</time>
      </trkpt>
      <trkpt lat="47.28297" lon="-2.48373">
        <ele>76.800003051758</ele>
        <time>2020-07-30T08:13:29.000Z</time>
      </trkpt>
      <trkpt lat="47.28299" lon="-2.48378">
        <ele>76.400001525879</ele>
        <time>2020-07-30T08:13:30.000Z</time>
      </trkpt>
      <trkpt lat="47.28309" lon="-2.48385">
        <ele>76.400001525879</ele>
        <time>2020-07-30T08:13:33.000Z</time>
      </trkpt>
      <trkpt lat="47.28322" lon="-2.48378">
        <ele>76.400001525879</ele>
        <time>2020-07-30T08:13:36.000Z</time>
      </trkpt>
      <trkpt lat="47.28345" lon="-2.48358">
        <ele>76.400001525879</ele>
        <time>2020-07-30T08:13:41.000Z</time>
      </trkpt>
      <trkpt lat="47.28351" lon="-2.48357">
        <ele>76.400001525879</ele>
        <time>2020-07-30T08:13:42.000Z</time>
      </trkpt>
      <trkpt lat="47.28366" lon="-2.48355">
        <ele>76.400001525879</ele>
        <time>2020-07-30T08:13:45.000Z</time>
      </trkpt>
      <trkpt lat="47.28375" lon="-2.48353">
        <ele>76.400001525879</ele>
        <time>2020-07-30T08:13:47.000Z</time>
      </trkpt>
      <trkpt lat="47.28389" lon="-2.48351">
        <ele>76.400001525879</ele>
        <time>2020-07-30T08:13:50.000Z</time>
      </trkpt>
      <trkpt lat="47.28402" lon="-2.48357">
        <ele>76.400001525879</ele>
        <time>2020-07-30T08:13:53.000Z</time>
      </trkpt>
      <trkpt lat="47.28418" lon="-2.48369">
        <ele>76.400001525879</ele>
        <time>2020-07-30T08:13:57.000Z</time>
      </trkpt>
      <trkpt lat="47.28422" lon="-2.48372">
        <ele>76.400001525879</ele>
        <time>2020-07-30T08:13:58.000Z</time>
      </trkpt>
      <trkpt lat="47.2844" lon="-2.48392">
        <ele>76.400001525879</ele>
        <time>2020-07-30T08:14:03.000Z</time>
      </trkpt>
      <trkpt lat="47.28443" lon="-2.48394">
        <ele>76.400001525879</ele>
        <time>2020-07-30T08:14:04.000Z</time>
      </trkpt>
      <trkpt lat="47.28449" lon="-2.48409">
        <ele>76.400001525879</ele>
        <time>2020-07-30T08:14:07.000Z</time>
      </trkpt>
      <trkpt lat="47.28446" lon="-2.48435">
        <ele>76.400001525879</ele>
        <time>2020-07-30T08:14:11.000Z</time>
      </trkpt>
      <trkpt lat="47.28442" lon="-2.48497">
        <ele>76.400001525879</ele>
        <time>2020-07-30T08:14:19.000Z</time>
      </trkpt>
      <trkpt lat="47.2844" lon="-2.48511">
        <ele>76.400001525879</ele>
        <time>2020-07-30T08:14:21.000Z</time>
      </trkpt>
      <trkpt lat="47.28436" lon="-2.48523">
        <ele>76.400001525879</ele>
        <time>2020-07-30T08:14:23.000Z</time>
      </trkpt>
      <trkpt lat="47.28433" lon="-2.48535">
        <ele>76.400001525879</ele>
        <time>2020-07-30T08:14:25.000Z</time>
      </trkpt>
      <trkpt lat="47.28439" lon="-2.48546">
        <ele>76.400001525879</ele>
        <time>2020-07-30T08:14:27.000Z</time>
      </trkpt>
      <trkpt lat="47.28454" lon="-2.48555">
        <ele>76.400001525879</ele>
        <time>2020-07-30T08:14:30.000Z</time>
      </trkpt>
      <trkpt lat="47.28459" lon="-2.48558">
        <ele>76.400001525879</ele>
        <time>2020-07-30T08:14:31.000Z</time>
      </trkpt>
      <trkpt lat="47.28472" lon="-2.4857">
        <ele>76.400001525879</ele>
        <time>2020-07-30T08:14:34.000Z</time>
      </trkpt>
      <trkpt lat="47.28474" lon="-2.48578">
        <ele>76.400001525879</ele>
        <time>2020-07-30T08:14:35.000Z</time>
      </trkpt>
      <trkpt lat="47.28482" lon="-2.48612">
        <ele>76.400001525879</ele>
        <time>2020-07-30T08:14:40.000Z</time>
      </trkpt>
      <trkpt lat="47.28476" lon="-2.48641">
        <ele>76.400001525879</ele>
        <time>2020-07-30T08:14:44.000Z</time>
      </trkpt>
      <trkpt lat="47.28471" lon="-2.48669">
        <ele>76.400001525879</ele>
        <time>2020-07-30T08:14:48.000Z</time>
      </trkpt>
      <trkpt lat="47.28474" lon="-2.48685">
        <ele>76.400001525879</ele>
        <time>2020-07-30T08:14:50.000Z</time>
      </trkpt>
      <trkpt lat="47.28482" lon="-2.48696">
        <ele>76.400001525879</ele>
        <time>2020-07-30T08:14:52.000Z</time>
      </trkpt>
      <trkpt lat="47.28486" lon="-2.48701">
        <ele>76.400001525879</ele>
        <time>2020-07-30T08:14:53.000Z</time>
      </trkpt>
      <trkpt lat="47.28514" lon="-2.48736">
        <ele>76.400001525879</ele>
        <time>2020-07-30T08:15:00.000Z</time>
      </trkpt>
      <trkpt lat="47.28517" lon="-2.48741">
        <ele>76.400001525879</ele>
        <time>2020-07-30T08:15:01.000Z</time>
      </trkpt>
      <trkpt lat="47.28533" lon="-2.48769">
        <ele>76.400001525879</ele>
        <time>2020-07-30T08:15:06.000Z</time>
      </trkpt>
      <trkpt lat="47.28551" lon="-2.48803">
        <ele>76.400001525879</ele>
        <time>2020-07-30T08:15:12.000Z</time>
      </trkpt>
      <trkpt lat="47.28554" lon="-2.48809">
        <ele>76.400001525879</ele>
        <time>2020-07-30T08:15:13.000Z</time>
      </trkpt>
      <trkpt lat="47.28563" lon="-2.48826">
        <ele>76.400001525879</ele>
        <time>2020-07-30T08:15:16.000Z</time>
      </trkpt>
      <trkpt lat="47.28571" lon="-2.48834">
        <ele>76.400001525879</ele>
        <time>2020-07-30T08:15:18.000Z</time>
      </trkpt>
      <trkpt lat="47.28574" lon="-2.48839">
        <ele>76.400001525879</ele>
        <time>2020-07-30T08:15:19.000Z</time>
      </trkpt>
      <trkpt lat="47.28578" lon="-2.48853">
        <ele>76.400001525879</ele>
        <time>2020-07-30T08:15:21.000Z</time>
      </trkpt>
      <trkpt lat="47.28579" lon="-2.48881">
        <ele>76.400001525879</ele>
        <time>2020-07-30T08:15:25.000Z</time>
      </trkpt>
      <trkpt lat="47.28576" lon="-2.48899">
        <ele>76.400001525879</ele>
        <time>2020-07-30T08:15:28.000Z</time>
      </trkpt>
      <trkpt lat="47.2857" lon="-2.48909">
        <ele>76.400001525879</ele>
        <time>2020-07-30T08:15:30.000Z</time>
      </trkpt>
      <trkpt lat="47.28556" lon="-2.48916">
        <ele>76.400001525879</ele>
        <time>2020-07-30T08:15:33.000Z</time>
      </trkpt>
      <trkpt lat="47.28552" lon="-2.48918">
        <ele>76.400001525879</ele>
        <time>2020-07-30T08:15:34.000Z</time>
      </trkpt>
      <trkpt lat="47.28522" lon="-2.48928">
        <ele>76.400001525879</ele>
        <time>2020-07-30T08:15:40.000Z</time>
      </trkpt>
      <trkpt lat="47.28516" lon="-2.48928">
        <ele>76.400001525879</ele>
        <time>2020-07-30T08:15:41.000Z</time>
      </trkpt>
      <trkpt lat="47.28496" lon="-2.48925">
        <ele>76.400001525879</ele>
        <time>2020-07-30T08:15:45.000Z</time>
      </trkpt>
      <trkpt lat="47.28477" lon="-2.48923">
        <ele>76.400001525879</ele>
        <time>2020-07-30T08:15:49.000Z</time>
      </trkpt>
      <trkpt lat="47.28473" lon="-2.48927">
        <ele>76.400001525879</ele>
        <time>2020-07-30T08:15:50.000Z</time>
      </trkpt>
      <trkpt lat="47.28466" lon="-2.48944">
        <ele>76.400001525879</ele>
        <time>2020-07-30T08:15:53.000Z</time>
      </trkpt>
      <trkpt lat="47.28462" lon="-2.48962">
        <ele>76.400001525879</ele>
        <time>2020-07-30T08:15:57.000Z</time>
      </trkpt>
      <trkpt lat="47.28462" lon="-2.48963">
        <ele>76.400001525879</ele>
        <time>2020-07-30T08:15:59.000Z</time>
      </trkpt>
      <trkpt lat="47.28465" lon="-2.48965">
        <ele>76.400001525879</ele>
        <time>2020-07-30T08:17:24.000Z</time>
      </trkpt>
      <trkpt lat="47.28466" lon="-2.48965">
        <ele>76.400001525879</ele>
        <time>2020-07-30T08:17:25.000Z</time>
      </trkpt>
      <trkpt lat="47.28476" lon="-2.48972">
        <ele>76.400001525879</ele>
        <time>2020-07-30T08:17:32.000Z</time>
      </trkpt>
      <trkpt lat="47.2849" lon="-2.4898">
        <ele>76.400001525879</ele>
        <time>2020-07-30T08:17:37.000Z</time>
      </trkpt>
      <trkpt lat="47.28496" lon="-2.48981">
        <ele>76.400001525879</ele>
        <time>2020-07-30T08:17:40.000Z</time>
      </trkpt>
      <trkpt lat="47.28499" lon="-2.4898">
        <ele>76.400001525879</ele>
        <time>2020-07-30T08:17:41.000Z</time>
      </trkpt>
      <trkpt lat="47.28515" lon="-2.48974">
        <ele>76.400001525879</ele>
        <time>2020-07-30T08:17:47.000Z</time>
      </trkpt>
      <trkpt lat="47.28521" lon="-2.48972">
        <ele>76.400001525879</ele>
        <time>2020-07-30T08:17:49.000Z</time>
      </trkpt>
      <trkpt lat="47.28537" lon="-2.4897">
        <ele>76.400001525879</ele>
        <time>2020-07-30T08:17:54.000Z</time>
      </trkpt>
      <trkpt lat="47.28563" lon="-2.48969">
        <ele>76.400001525879</ele>
        <time>2020-07-30T08:18:01.000Z</time>
      </trkpt>
      <trkpt lat="47.2858" lon="-2.48979">
        <ele>76.400001525879</ele>
        <time>2020-07-30T08:18:06.000Z</time>
      </trkpt>
      <trkpt lat="47.2859" lon="-2.49003">
        <ele>76.400001525879</ele>
        <time>2020-07-30T08:18:11.000Z</time>
      </trkpt>
      <trkpt lat="47.28597" lon="-2.49039">
        <ele>76.400001525879</ele>
        <time>2020-07-30T08:18:18.000Z</time>
      </trkpt>
      <trkpt lat="47.28596" lon="-2.4907">
        <ele>76.400001525879</ele>
        <time>2020-07-30T08:18:23.000Z</time>
      </trkpt>
      <trkpt lat="47.28596" lon="-2.49099">
        <ele>76.400001525879</ele>
        <time>2020-07-30T08:18:27.000Z</time>
      </trkpt>
      <trkpt lat="47.28599" lon="-2.49111">
        <ele>76.400001525879</ele>
        <time>2020-07-30T08:18:29.000Z</time>
      </trkpt>
      <trkpt lat="47.28605" lon="-2.49143">
        <ele>76.400001525879</ele>
        <time>2020-07-30T08:18:35.000Z</time>
      </trkpt>
      <trkpt lat="47.2861" lon="-2.49182">
        <ele>76.400001525879</ele>
        <time>2020-07-30T08:18:42.000Z</time>
      </trkpt>
      <trkpt lat="47.2861" lon="-2.49189">
        <ele>76.400001525879</ele>
        <time>2020-07-30T08:18:43.000Z</time>
      </trkpt>
      <trkpt lat="47.28613" lon="-2.49212">
        <ele>76.400001525879</ele>
        <time>2020-07-30T08:18:47.000Z</time>
      </trkpt>
      <trkpt lat="47.2862" lon="-2.49246">
        <ele>76.400001525879</ele>
        <time>2020-07-30T08:18:53.000Z</time>
      </trkpt>
      <trkpt lat="47.28629" lon="-2.49292">
        <ele>76.400001525879</ele>
        <time>2020-07-30T08:19:01.000Z</time>
      </trkpt>
      <trkpt lat="47.28635" lon="-2.49325">
        <ele>76.400001525879</ele>
        <time>2020-07-30T08:19:07.000Z</time>
      </trkpt>
      <trkpt lat="47.28633" lon="-2.49337">
        <ele>76.400001525879</ele>
        <time>2020-07-30T08:19:09.000Z</time>
      </trkpt>
      <trkpt lat="47.28632" lon="-2.49355">
        <ele>76.400001525879</ele>
        <time>2020-07-30T08:19:12.000Z</time>
      </trkpt>
      <trkpt lat="47.28631" lon="-2.49375">
        <ele>76.400001525879</ele>
        <time>2020-07-30T08:19:15.000Z</time>
      </trkpt>
      <trkpt lat="47.28632" lon="-2.49396">
        <ele>76.400001525879</ele>
        <time>2020-07-30T08:19:18.000Z</time>
      </trkpt>
      <trkpt lat="47.28634" lon="-2.49436">
        <ele>76.400001525879</ele>
        <time>2020-07-30T08:19:25.000Z</time>
      </trkpt>
      <trkpt lat="47.28635" lon="-2.49484">
        <ele>76.400001525879</ele>
        <time>2020-07-30T08:19:33.000Z</time>
      </trkpt>
      <trkpt lat="47.28634" lon="-2.49524">
        <ele>76.400001525879</ele>
        <time>2020-07-30T08:19:39.000Z</time>
      </trkpt>
      <trkpt lat="47.28635" lon="-2.49537">
        <ele>76.400001525879</ele>
        <time>2020-07-30T08:19:41.000Z</time>
      </trkpt>
      <trkpt lat="47.28637" lon="-2.49576">
        <ele>76.400001525879</ele>
        <time>2020-07-30T08:19:47.000Z</time>
      </trkpt>
      <trkpt lat="47.28639" lon="-2.49599">
        <ele>76.400001525879</ele>
        <time>2020-07-30T08:19:50.000Z</time>
      </trkpt>
      <trkpt lat="47.2864" lon="-2.49622">
        <ele>76.400001525879</ele>
        <time>2020-07-30T08:19:53.000Z</time>
      </trkpt>
      <trkpt lat="47.28638" lon="-2.4963">
        <ele>76.400001525879</ele>
        <time>2020-07-30T08:19:54.000Z</time>
      </trkpt>
      <trkpt lat="47.28631" lon="-2.4964">
        <ele>76.400001525879</ele>
        <time>2020-07-30T08:19:56.000Z</time>
      </trkpt>
      <trkpt lat="47.28613" lon="-2.49648">
        <ele>76.400001525879</ele>
        <time>2020-07-30T08:20:00.000Z</time>
      </trkpt>
      <trkpt lat="47.28608" lon="-2.49649">
        <ele>76.400001525879</ele>
        <time>2020-07-30T08:20:01.000Z</time>
      </trkpt>
      <trkpt lat="47.28576" lon="-2.49657">
        <ele>76.400001525879</ele>
        <time>2020-07-30T08:20:08.000Z</time>
      </trkpt>
      <trkpt lat="47.28564" lon="-2.49662">
        <ele>76.400001525879</ele>
        <time>2020-07-30T08:20:11.000Z</time>
      </trkpt>
      <trkpt lat="47.28552" lon="-2.49664">
        <ele>76.400001525879</ele>
        <time>2020-07-30T08:20:14.000Z</time>
      </trkpt>
      <trkpt lat="47.28528" lon="-2.4968">
        <ele>76.400001525879</ele>
        <time>2020-07-30T08:20:20.000Z</time>
      </trkpt>
      <trkpt lat="47.28518" lon="-2.49693">
        <ele>76.400001525879</ele>
        <time>2020-07-30T08:20:23.000Z</time>
      </trkpt>
      <trkpt lat="47.28519" lon="-2.49706">
        <ele>76.400001525879</ele>
        <time>2020-07-30T08:20:25.000Z</time>
      </trkpt>
      <trkpt lat="47.28516" lon="-2.49721">
        <ele>76.400001525879</ele>
        <time>2020-07-30T08:20:28.000Z</time>
      </trkpt>
      <trkpt lat="47.28504" lon="-2.49723">
        <ele>76.400001525879</ele>
        <time>2020-07-30T08:20:31.000Z</time>
      </trkpt>
      <trkpt lat="47.28467" lon="-2.4973">
        <ele>76.400001525879</ele>
        <time>2020-07-30T08:20:39.000Z</time>
      </trkpt>
      <trkpt lat="47.28425" lon="-2.49735">
        <ele>76.400001525879</ele>
        <time>2020-07-30T08:20:48.000Z</time>
      </trkpt>
      <trkpt lat="47.2842" lon="-2.49734">
        <ele>76.400001525879</ele>
        <time>2020-07-30T08:20:49.000Z</time>
      </trkpt>
      <trkpt lat="47.28407" lon="-2.49732">
        <ele>76.400001525879</ele>
        <time>2020-07-30T08:20:52.000Z</time>
      </trkpt>
      <trkpt lat="47.284" lon="-2.49739">
        <ele>76.400001525879</ele>
        <time>2020-07-30T08:20:54.000Z</time>
      </trkpt>
      <trkpt lat="47.28392" lon="-2.49744">
        <ele>76.800003051758</ele>
        <time>2020-07-30T08:20:56.000Z</time>
      </trkpt>
      <trkpt lat="47.28388" lon="-2.49748">
        <ele>77.199996948242</ele>
        <time>2020-07-30T08:20:57.000Z</time>
      </trkpt>
      <trkpt lat="47.28385" lon="-2.49751">
        <ele>77.599998474121</ele>
        <time>2020-07-30T08:20:58.000Z</time>
      </trkpt>
      <trkpt lat="47.28381" lon="-2.49753">
        <ele>78</ele>
        <time>2020-07-30T08:20:59.000Z</time>
      </trkpt>
      <trkpt lat="47.28377" lon="-2.49756">
        <ele>78.400001525879</ele>
        <time>2020-07-30T08:21:00.000Z</time>
      </trkpt>
      <trkpt lat="47.28365" lon="-2.49763">
        <ele>78.400001525879</ele>
        <time>2020-07-30T08:21:03.000Z</time>
      </trkpt>
      <trkpt lat="47.28345" lon="-2.49775">
        <ele>78.400001525879</ele>
        <time>2020-07-30T08:21:09.000Z</time>
      </trkpt>
      <trkpt lat="47.28341" lon="-2.49782">
        <ele>78.400001525879</ele>
        <time>2020-07-30T08:21:13.000Z</time>
      </trkpt>
      <trkpt lat="47.2834" lon="-2.49782">
        <ele>78.400001525879</ele>
        <time>2020-07-30T08:21:14.000Z</time>
      </trkpt>
      <trkpt lat="47.2834" lon="-2.49782">
        <ele>78.400001525879</ele>
        <time>2020-07-30T08:21:15.000Z</time>
      </trkpt>
      <trkpt lat="47.28341" lon="-2.49784">
        <ele>78.400001525879</ele>
        <time>2020-07-30T08:21:18.000Z</time>
      </trkpt>
      <trkpt lat="47.28341" lon="-2.49787">
        <ele>78.400001525879</ele>
        <time>2020-07-30T08:21:19.000Z</time>
      </trkpt>
      <trkpt lat="47.2834" lon="-2.49808">
        <ele>78.400001525879</ele>
        <time>2020-07-30T08:21:25.000Z</time>
      </trkpt>
      <trkpt lat="47.28344" lon="-2.49822">
        <ele>78.400001525879</ele>
        <time>2020-07-30T08:21:29.000Z</time>
      </trkpt>
      <trkpt lat="47.28346" lon="-2.49825">
        <ele>78.400001525879</ele>
        <time>2020-07-30T08:21:30.000Z</time>
      </trkpt>
      <trkpt lat="47.28359" lon="-2.4983">
        <ele>78.400001525879</ele>
        <time>2020-07-30T08:21:34.000Z</time>
      </trkpt>
      <trkpt lat="47.28377" lon="-2.49836">
        <ele>78.400001525879</ele>
        <time>2020-07-30T08:21:40.000Z</time>
      </trkpt>
      <trkpt lat="47.28387" lon="-2.49845">
        <ele>78.400001525879</ele>
        <time>2020-07-30T08:21:43.000Z</time>
      </trkpt>
      <trkpt lat="47.28392" lon="-2.49856">
        <ele>78.400001525879</ele>
        <time>2020-07-30T08:21:45.000Z</time>
      </trkpt>
      <trkpt lat="47.28398" lon="-2.49881">
        <ele>78.400001525879</ele>
        <time>2020-07-30T08:21:49.000Z</time>
      </trkpt>
      <trkpt lat="47.284" lon="-2.49888">
        <ele>78.400001525879</ele>
        <time>2020-07-30T08:21:50.000Z</time>
      </trkpt>
      <trkpt lat="47.28403" lon="-2.49894">
        <ele>78.400001525879</ele>
        <time>2020-07-30T08:21:51.000Z</time>
      </trkpt>
      <trkpt lat="47.28417" lon="-2.49912">
        <ele>78.400001525879</ele>
        <time>2020-07-30T08:21:55.000Z</time>
      </trkpt>
      <trkpt lat="47.2844" lon="-2.49916">
        <ele>78.400001525879</ele>
        <time>2020-07-30T08:22:00.000Z</time>
      </trkpt>
      <trkpt lat="47.28458" lon="-2.49903">
        <ele>78.400001525879</ele>
        <time>2020-07-30T08:22:04.000Z</time>
      </trkpt>
      <trkpt lat="47.28467" lon="-2.49898">
        <ele>78.400001525879</ele>
        <time>2020-07-30T08:22:06.000Z</time>
      </trkpt>
      <trkpt lat="47.2848" lon="-2.49895">
        <ele>78.400001525879</ele>
        <time>2020-07-30T08:22:09.000Z</time>
      </trkpt>
      <trkpt lat="47.28511" lon="-2.4989">
        <ele>78.400001525879</ele>
        <time>2020-07-30T08:22:15.000Z</time>
      </trkpt>
      <trkpt lat="47.2852" lon="-2.4989">
        <ele>78.400001525879</ele>
        <time>2020-07-30T08:22:17.000Z</time>
      </trkpt>
      <trkpt lat="47.28527" lon="-2.49899">
        <ele>78.400001525879</ele>
        <time>2020-07-30T08:22:19.000Z</time>
      </trkpt>
      <trkpt lat="47.28532" lon="-2.49924">
        <ele>78.400001525879</ele>
        <time>2020-07-30T08:22:23.000Z</time>
      </trkpt>
      <trkpt lat="47.28534" lon="-2.49952">
        <ele>78.400001525879</ele>
        <time>2020-07-30T08:22:27.000Z</time>
      </trkpt>
      <trkpt lat="47.28534" lon="-2.49959">
        <ele>78.400001525879</ele>
        <time>2020-07-30T08:22:28.000Z</time>
      </trkpt>
      <trkpt lat="47.2854" lon="-2.50018">
        <ele>78.400001525879</ele>
        <time>2020-07-30T08:22:36.000Z</time>
      </trkpt>
      <trkpt lat="47.28547" lon="-2.50026">
        <ele>78.400001525879</ele>
        <time>2020-07-30T08:22:39.000Z</time>
      </trkpt>
      <trkpt lat="47.2856" lon="-2.50024">
        <ele>78.400001525879</ele>
        <time>2020-07-30T08:22:42.000Z</time>
      </trkpt>
      <trkpt lat="47.2857" lon="-2.50022">
        <ele>78.400001525879</ele>
        <time>2020-07-30T08:22:44.000Z</time>
      </trkpt>
      <trkpt lat="47.28593" lon="-2.50015">
        <ele>78.400001525879</ele>
        <time>2020-07-30T08:22:49.000Z</time>
      </trkpt>
      <trkpt lat="47.28597" lon="-2.50013">
        <ele>78.400001525879</ele>
        <time>2020-07-30T08:22:50.000Z</time>
      </trkpt>
      <trkpt lat="47.2861" lon="-2.50012">
        <ele>78.400001525879</ele>
        <time>2020-07-30T08:22:53.000Z</time>
      </trkpt>
      <trkpt lat="47.28612" lon="-2.50016">
        <ele>78.400001525879</ele>
        <time>2020-07-30T08:22:54.000Z</time>
      </trkpt>
      <trkpt lat="47.28615" lon="-2.5003">
        <ele>78.400001525879</ele>
        <time>2020-07-30T08:22:57.000Z</time>
      </trkpt>
      <trkpt lat="47.28616" lon="-2.50033">
        <ele>78.400001525879</ele>
        <time>2020-07-30T08:22:58.000Z</time>
      </trkpt>
      <trkpt lat="47.28618" lon="-2.50056">
        <ele>78.400001525879</ele>
        <time>2020-07-30T08:23:03.000Z</time>
      </trkpt>
      <trkpt lat="47.28621" lon="-2.5009">
        <ele>78.400001525879</ele>
        <time>2020-07-30T08:23:09.000Z</time>
      </trkpt>
      <trkpt lat="47.28621" lon="-2.50097">
        <ele>78.400001525879</ele>
        <time>2020-07-30T08:23:10.000Z</time>
      </trkpt>
      <trkpt lat="47.28624" lon="-2.50109">
        <ele>78.400001525879</ele>
        <time>2020-07-30T08:23:12.000Z</time>
      </trkpt>
      <trkpt lat="47.28627" lon="-2.50128">
        <ele>78.400001525879</ele>
        <time>2020-07-30T08:23:15.000Z</time>
      </trkpt>
      <trkpt lat="47.28627" lon="-2.50147">
        <ele>78.400001525879</ele>
        <time>2020-07-30T08:23:18.000Z</time>
      </trkpt>
      <trkpt lat="47.28627" lon="-2.50165">
        <ele>78.400001525879</ele>
        <time>2020-07-30T08:23:21.000Z</time>
      </trkpt>
      <trkpt lat="47.28627" lon="-2.50184">
        <ele>78.400001525879</ele>
        <time>2020-07-30T08:23:24.000Z</time>
      </trkpt>
      <trkpt lat="47.28628" lon="-2.50202">
        <ele>78.400001525879</ele>
        <time>2020-07-30T08:23:27.000Z</time>
      </trkpt>
      <trkpt lat="47.2863" lon="-2.50244">
        <ele>78.400001525879</ele>
        <time>2020-07-30T08:23:34.000Z</time>
      </trkpt>
      <trkpt lat="47.28631" lon="-2.50268">
        <ele>78.400001525879</ele>
        <time>2020-07-30T08:23:40.000Z</time>
      </trkpt>
      <trkpt lat="47.28619" lon="-2.50273">
        <ele>78.400001525879</ele>
        <time>2020-07-30T08:23:44.000Z</time>
      </trkpt>
      <trkpt lat="47.28599" lon="-2.50277">
        <ele>78.400001525879</ele>
        <time>2020-07-30T08:23:50.000Z</time>
      </trkpt>
      <trkpt lat="47.28589" lon="-2.50279">
        <ele>78.400001525879</ele>
        <time>2020-07-30T08:23:54.000Z</time>
      </trkpt>
      <trkpt lat="47.28575" lon="-2.50281">
        <ele>78.400001525879</ele>
        <time>2020-07-30T08:23:59.000Z</time>
      </trkpt>
      <trkpt lat="47.28559" lon="-2.50274">
        <ele>78.400001525879</ele>
        <time>2020-07-30T08:24:04.000Z</time>
      </trkpt>
      <trkpt lat="47.28542" lon="-2.50262">
        <ele>78.400001525879</ele>
        <time>2020-07-30T08:24:10.000Z</time>
      </trkpt>
      <trkpt lat="47.28523" lon="-2.50245">
        <ele>78.400001525879</ele>
        <time>2020-07-30T08:24:18.000Z</time>
      </trkpt>
      <trkpt lat="47.28521" lon="-2.50238">
        <ele>78.400001525879</ele>
        <time>2020-07-30T08:24:20.000Z</time>
      </trkpt>
      <trkpt lat="47.2852" lon="-2.50231">
        <ele>78.400001525879</ele>
        <time>2020-07-30T08:24:22.000Z</time>
      </trkpt>
      <trkpt lat="47.28521" lon="-2.5021">
        <ele>78.400001525879</ele>
        <time>2020-07-30T08:24:27.000Z</time>
      </trkpt>
      <trkpt lat="47.28521" lon="-2.50176">
        <ele>78.400001525879</ele>
        <time>2020-07-30T08:24:36.000Z</time>
      </trkpt>
      <trkpt lat="47.2852" lon="-2.50169">
        <ele>78.400001525879</ele>
        <time>2020-07-30T08:24:40.000Z</time>
      </trkpt>
      <trkpt lat="47.28519" lon="-2.50168">
        <ele>78.400001525879</ele>
        <time>2020-07-30T08:24:54.000Z</time>
      </trkpt>
      <trkpt lat="47.28509" lon="-2.50161">
        <ele>78.400001525879</ele>
        <time>2020-07-30T08:24:59.000Z</time>
      </trkpt>
      <trkpt lat="47.28504" lon="-2.50161">
        <ele>78.400001525879</ele>
        <time>2020-07-30T08:25:03.000Z</time>
      </trkpt>
      <trkpt lat="47.285" lon="-2.50166">
        <ele>78.400001525879</ele>
        <time>2020-07-30T08:25:07.000Z</time>
      </trkpt>
      <trkpt lat="47.28499" lon="-2.50174">
        <ele>78.400001525879</ele>
        <time>2020-07-30T08:25:09.000Z</time>
      </trkpt>
      <trkpt lat="47.28498" lon="-2.50192">
        <ele>78.400001525879</ele>
        <time>2020-07-30T08:25:14.000Z</time>
      </trkpt>
      <trkpt lat="47.28497" lon="-2.50218">
        <ele>78.400001525879</ele>
        <time>2020-07-30T08:25:20.000Z</time>
      </trkpt>
      <trkpt lat="47.2849" lon="-2.50236">
        <ele>78.400001525879</ele>
        <time>2020-07-30T08:25:26.000Z</time>
      </trkpt>
      <trkpt lat="47.28484" lon="-2.50248">
        <ele>78.400001525879</ele>
        <time>2020-07-30T08:25:31.000Z</time>
      </trkpt>
      <trkpt lat="47.28483" lon="-2.50251">
        <ele>78.400001525879</ele>
        <time>2020-07-30T08:25:32.000Z</time>
      </trkpt>
      <trkpt lat="47.28485" lon="-2.50257">
        <ele>78.400001525879</ele>
        <time>2020-07-30T08:25:34.000Z</time>
      </trkpt>
      <trkpt lat="47.28487" lon="-2.50262">
        <ele>78.400001525879</ele>
        <time>2020-07-30T08:25:36.000Z</time>
      </trkpt>
      <trkpt lat="47.28496" lon="-2.50273">
        <ele>78.400001525879</ele>
        <time>2020-07-30T08:25:42.000Z</time>
      </trkpt>
      <trkpt lat="47.28497" lon="-2.50274">
        <ele>78.400001525879</ele>
        <time>2020-07-30T08:25:44.000Z</time>
      </trkpt>
      <trkpt lat="47.285" lon="-2.50276">
        <ele>78.400001525879</ele>
        <time>2020-07-30T08:27:00.000Z</time>
      </trkpt>
      <trkpt lat="47.28502" lon="-2.50277">
        <ele>78.400001525879</ele>
        <time>2020-07-30T08:27:01.000Z</time>
      </trkpt>
      <trkpt lat="47.28518" lon="-2.50282">
        <ele>78.400001525879</ele>
        <time>2020-07-30T08:27:07.000Z</time>
      </trkpt>
      <trkpt lat="47.28534" lon="-2.50292">
        <ele>78.400001525879</ele>
        <time>2020-07-30T08:27:13.000Z</time>
      </trkpt>
      <trkpt lat="47.28547" lon="-2.50302">
        <ele>78.400001525879</ele>
        <time>2020-07-30T08:27:19.000Z</time>
      </trkpt>
      <trkpt lat="47.28569" lon="-2.5032">
        <ele>78.400001525879</ele>
        <time>2020-07-30T08:27:27.000Z</time>
      </trkpt>
      <trkpt lat="47.28592" lon="-2.50326">
        <ele>78.400001525879</ele>
        <time>2020-07-30T08:27:33.000Z</time>
      </trkpt>
      <trkpt lat="47.28618" lon="-2.50331">
        <ele>78.400001525879</ele>
        <time>2020-07-30T08:27:40.000Z</time>
      </trkpt>
      <trkpt lat="47.28641" lon="-2.50346">
        <ele>78.400001525879</ele>
        <time>2020-07-30T08:27:47.000Z</time>
      </trkpt>
      <trkpt lat="47.28657" lon="-2.50358">
        <ele>78.400001525879</ele>
        <time>2020-07-30T08:27:52.000Z</time>
      </trkpt>
      <trkpt lat="47.28674" lon="-2.50369">
        <ele>78.400001525879</ele>
        <time>2020-07-30T08:27:58.000Z</time>
      </trkpt>
      <trkpt lat="47.28698" lon="-2.50385">
        <ele>78.400001525879</ele>
        <time>2020-07-30T08:28:06.000Z</time>
      </trkpt>
      <trkpt lat="47.2871" lon="-2.50375">
        <ele>78.400001525879</ele>
        <time>2020-07-30T08:28:10.000Z</time>
      </trkpt>
      <trkpt lat="47.28716" lon="-2.50361">
        <ele>78.800003051758</ele>
        <time>2020-07-30T08:28:13.000Z</time>
      </trkpt>
      <trkpt lat="47.28718" lon="-2.50356">
        <ele>79.800003051758</ele>
        <time>2020-07-30T08:28:14.000Z</time>
      </trkpt>
      <trkpt lat="47.28719" lon="-2.5035">
        <ele>80.199996948242</ele>
        <time>2020-07-30T08:28:15.000Z</time>
      </trkpt>
      <trkpt lat="47.2872" lon="-2.50344">
        <ele>80.599998474121</ele>
        <time>2020-07-30T08:28:16.000Z</time>
      </trkpt>
      <trkpt lat="47.28722" lon="-2.50339">
        <ele>80.599998474121</ele>
        <time>2020-07-30T08:28:17.000Z</time>
      </trkpt>
      <trkpt lat="47.28731" lon="-2.50314">
        <ele>80.599998474121</ele>
        <time>2020-07-30T08:28:22.000Z</time>
      </trkpt>
      <trkpt lat="47.28744" lon="-2.50307">
        <ele>80.599998474121</ele>
        <time>2020-07-30T08:28:26.000Z</time>
      </trkpt>
      <trkpt lat="47.28759" lon="-2.50313">
        <ele>80.599998474121</ele>
        <time>2020-07-30T08:28:31.000Z</time>
      </trkpt>
      <trkpt lat="47.28774" lon="-2.50325">
        <ele>80.599998474121</ele>
        <time>2020-07-30T08:28:38.000Z</time>
      </trkpt>
      <trkpt lat="47.28789" lon="-2.50336">
        <ele>80.599998474121</ele>
        <time>2020-07-30T08:28:44.000Z</time>
      </trkpt>
      <trkpt lat="47.28814" lon="-2.50355">
        <ele>80.599998474121</ele>
        <time>2020-07-30T08:28:52.000Z</time>
      </trkpt>
      <trkpt lat="47.28842" lon="-2.50376">
        <ele>80.599998474121</ele>
        <time>2020-07-30T08:29:01.000Z</time>
      </trkpt>
      <trkpt lat="47.28861" lon="-2.50387">
        <ele>80.599998474121</ele>
        <time>2020-07-30T08:29:07.000Z</time>
      </trkpt>
      <trkpt lat="47.28876" lon="-2.50398">
        <ele>80.599998474121</ele>
        <time>2020-07-30T08:29:12.000Z</time>
      </trkpt>
      <trkpt lat="47.2888" lon="-2.50399">
        <ele>80.599998474121</ele>
        <time>2020-07-30T08:29:13.000Z</time>
      </trkpt>
      <trkpt lat="47.28888" lon="-2.50395">
        <ele>80.599998474121</ele>
        <time>2020-07-30T08:29:15.000Z</time>
      </trkpt>
      <trkpt lat="47.28899" lon="-2.50377">
        <ele>80.599998474121</ele>
        <time>2020-07-30T08:29:19.000Z</time>
      </trkpt>
      <trkpt lat="47.28902" lon="-2.50366">
        <ele>80.599998474121</ele>
        <time>2020-07-30T08:29:21.000Z</time>
      </trkpt>
      <trkpt lat="47.28907" lon="-2.50348">
        <ele>80.599998474121</ele>
        <time>2020-07-30T08:29:25.000Z</time>
      </trkpt>
      <trkpt lat="47.28917" lon="-2.5032">
        <ele>80.599998474121</ele>
        <time>2020-07-30T08:29:33.000Z</time>
      </trkpt>
      <trkpt lat="47.28918" lon="-2.50304">
        <ele>80.599998474121</ele>
        <time>2020-07-30T08:29:37.000Z</time>
      </trkpt>
      <trkpt lat="47.28911" lon="-2.50277">
        <ele>80.599998474121</ele>
        <time>2020-07-30T08:29:43.000Z</time>
      </trkpt>
      <trkpt lat="47.28899" lon="-2.5025">
        <ele>80.599998474121</ele>
        <time>2020-07-30T08:29:50.000Z</time>
      </trkpt>
      <trkpt lat="47.2889" lon="-2.50219">
        <ele>80.599998474121</ele>
        <time>2020-07-30T08:29:57.000Z</time>
      </trkpt>
      <trkpt lat="47.28879" lon="-2.50193">
        <ele>80.599998474121</ele>
        <time>2020-07-30T08:30:03.000Z</time>
      </trkpt>
      <trkpt lat="47.28876" lon="-2.50174">
        <ele>80.599998474121</ele>
        <time>2020-07-30T08:30:08.000Z</time>
      </trkpt>
      <trkpt lat="47.28882" lon="-2.5016">
        <ele>80.599998474121</ele>
        <time>2020-07-30T08:30:12.000Z</time>
      </trkpt>
      <trkpt lat="47.2889" lon="-2.50148">
        <ele>80.599998474121</ele>
        <time>2020-07-30T08:30:16.000Z</time>
      </trkpt>
      <trkpt lat="47.28892" lon="-2.50146">
        <ele>80.199996948242</ele>
        <time>2020-07-30T08:30:17.000Z</time>
      </trkpt>
      <trkpt lat="47.28895" lon="-2.50145">
        <ele>79.400001525879</ele>
        <time>2020-07-30T08:30:18.000Z</time>
      </trkpt>
      <trkpt lat="47.28897" lon="-2.50145">
        <ele>79</ele>
        <time>2020-07-30T08:30:19.000Z</time>
      </trkpt>
      <trkpt lat="47.28899" lon="-2.50145">
        <ele>78.599998474121</ele>
        <time>2020-07-30T08:30:20.000Z</time>
      </trkpt>
      <trkpt lat="47.2891" lon="-2.50147">
        <ele>78.599998474121</ele>
        <time>2020-07-30T08:30:26.000Z</time>
      </trkpt>
      <trkpt lat="47.28921" lon="-2.50163">
        <ele>78.599998474121</ele>
        <time>2020-07-30T08:30:32.000Z</time>
      </trkpt>
      <trkpt lat="47.28936" lon="-2.50176">
        <ele>78.599998474121</ele>
        <time>2020-07-30T08:30:39.000Z</time>
      </trkpt>
      <trkpt lat="47.28939" lon="-2.50175">
        <ele>78.599998474121</ele>
        <time>2020-07-30T08:30:40.000Z</time>
      </trkpt>
      <trkpt lat="47.28946" lon="-2.50169">
        <ele>78.599998474121</ele>
        <time>2020-07-30T08:30:43.000Z</time>
      </trkpt>
      <trkpt lat="47.28954" lon="-2.50171">
        <ele>78.599998474121</ele>
        <time>2020-07-30T08:30:46.000Z</time>
      </trkpt>
      <trkpt lat="47.28956" lon="-2.50174">
        <ele>78.199996948242</ele>
        <time>2020-07-30T08:30:47.000Z</time>
      </trkpt>
      <trkpt lat="47.28958" lon="-2.50178">
        <ele>77.800003051758</ele>
        <time>2020-07-30T08:30:48.000Z</time>
      </trkpt>
      <trkpt lat="47.2896" lon="-2.50182">
        <ele>77.400001525879</ele>
        <time>2020-07-30T08:30:49.000Z</time>
      </trkpt>
      <trkpt lat="47.28961" lon="-2.50186">
        <ele>76.800003051758</ele>
        <time>2020-07-30T08:30:50.000Z</time>
      </trkpt>
      <trkpt lat="47.28963" lon="-2.50189">
        <ele>76.400001525879</ele>
        <time>2020-07-30T08:30:51.000Z</time>
      </trkpt>
      <trkpt lat="47.2897" lon="-2.50207">
        <ele>76.400001525879</ele>
        <time>2020-07-30T08:30:55.000Z</time>
      </trkpt>
      <trkpt lat="47.2898" lon="-2.50239">
        <ele>76.400001525879</ele>
        <time>2020-07-30T08:31:02.000Z</time>
      </trkpt>
      <trkpt lat="47.28985" lon="-2.50254">
        <ele>76.400001525879</ele>
        <time>2020-07-30T08:31:07.000Z</time>
      </trkpt>
      <trkpt lat="47.28994" lon="-2.50266">
        <ele>76.400001525879</ele>
        <time>2020-07-30T08:31:13.000Z</time>
      </trkpt>
      <trkpt lat="47.29002" lon="-2.5028">
        <ele>76.400001525879</ele>
        <time>2020-07-30T08:31:20.000Z</time>
      </trkpt>
      <trkpt lat="47.29007" lon="-2.50288">
        <ele>76.400001525879</ele>
        <time>2020-07-30T08:31:25.000Z</time>
      </trkpt>
      <trkpt lat="47.2901" lon="-2.503">
        <ele>76.400001525879</ele>
        <time>2020-07-30T08:31:30.000Z</time>
      </trkpt>
      <trkpt lat="47.29017" lon="-2.50322">
        <ele>76.400001525879</ele>
        <time>2020-07-30T08:31:36.000Z</time>
      </trkpt>
      <trkpt lat="47.29024" lon="-2.50353">
        <ele>76.400001525879</ele>
        <time>2020-07-30T08:31:44.000Z</time>
      </trkpt>
      <trkpt lat="47.29032" lon="-2.5038">
        <ele>76.400001525879</ele>
        <time>2020-07-30T08:31:50.000Z</time>
      </trkpt>
      <trkpt lat="47.29042" lon="-2.5041">
        <ele>76.400001525879</ele>
        <time>2020-07-30T08:31:57.000Z</time>
      </trkpt>
      <trkpt lat="47.29045" lon="-2.50414">
        <ele>76.400001525879</ele>
        <time>2020-07-30T08:31:59.000Z</time>
      </trkpt>
      <trkpt lat="47.29049" lon="-2.50415">
        <ele>76.400001525879</ele>
        <time>2020-07-30T08:32:01.000Z</time>
      </trkpt>
      <trkpt lat="47.29064" lon="-2.50422">
        <ele>76.400001525879</ele>
        <time>2020-07-30T08:32:08.000Z</time>
      </trkpt>
      <trkpt lat="47.29075" lon="-2.50431">
        <ele>76.400001525879</ele>
        <time>2020-07-30T08:32:14.000Z</time>
      </trkpt>
      <trkpt lat="47.29092" lon="-2.5044">
        <ele>76.400001525879</ele>
        <time>2020-07-30T08:32:20.000Z</time>
      </trkpt>
      <trkpt lat="47.29107" lon="-2.50435">
        <ele>76.400001525879</ele>
        <time>2020-07-30T08:32:25.000Z</time>
      </trkpt>
      <trkpt lat="47.29118" lon="-2.50416">
        <ele>76.400001525879</ele>
        <time>2020-07-30T08:32:30.000Z</time>
      </trkpt>
      <trkpt lat="47.2912" lon="-2.50414">
        <ele>76.400001525879</ele>
        <time>2020-07-30T08:32:31.000Z</time>
      </trkpt>
      <trkpt lat="47.29124" lon="-2.50418">
        <ele>76.400001525879</ele>
        <time>2020-07-30T08:32:33.000Z</time>
      </trkpt>
      <trkpt lat="47.2913" lon="-2.50426">
        <ele>76.400001525879</ele>
        <time>2020-07-30T08:32:37.000Z</time>
      </trkpt>
      <trkpt lat="47.29136" lon="-2.50425">
        <ele>76.400001525879</ele>
        <time>2020-07-30T08:32:40.000Z</time>
      </trkpt>
      <trkpt lat="47.29141" lon="-2.50424">
        <ele>76.400001525879</ele>
        <time>2020-07-30T08:32:43.000Z</time>
      </trkpt>
      <trkpt lat="47.29153" lon="-2.50431">
        <ele>76.400001525879</ele>
        <time>2020-07-30T08:32:48.000Z</time>
      </trkpt>
      <trkpt lat="47.29168" lon="-2.5045">
        <ele>76.400001525879</ele>
        <time>2020-07-30T08:32:55.000Z</time>
      </trkpt>
      <trkpt lat="47.29182" lon="-2.5046">
        <ele>76.400001525879</ele>
        <time>2020-07-30T08:33:00.000Z</time>
      </trkpt>
      <trkpt lat="47.29204" lon="-2.50482">
        <ele>76.400001525879</ele>
        <time>2020-07-30T08:33:09.000Z</time>
      </trkpt>
      <trkpt lat="47.29225" lon="-2.50503">
        <ele>76.400001525879</ele>
        <time>2020-07-30T08:33:18.000Z</time>
      </trkpt>
      <trkpt lat="47.29237" lon="-2.50514">
        <ele>76.400001525879</ele>
        <time>2020-07-30T08:33:23.000Z</time>
      </trkpt>
      <trkpt lat="47.29255" lon="-2.5053">
        <ele>76.400001525879</ele>
        <time>2020-07-30T08:33:30.000Z</time>
      </trkpt>
      <trkpt lat="47.29271" lon="-2.50548">
        <ele>76.400001525879</ele>
        <time>2020-07-30T08:33:38.000Z</time>
      </trkpt>
      <trkpt lat="47.29285" lon="-2.50564">
        <ele>76.400001525879</ele>
        <time>2020-07-30T08:33:45.000Z</time>
      </trkpt>
      <trkpt lat="47.29298" lon="-2.50589">
        <ele>76.400001525879</ele>
        <time>2020-07-30T08:33:53.000Z</time>
      </trkpt>
      <trkpt lat="47.29302" lon="-2.50606">
        <ele>76.400001525879</ele>
        <time>2020-07-30T08:33:59.000Z</time>
      </trkpt>
      <trkpt lat="47.29306" lon="-2.50619">
        <ele>76.400001525879</ele>
        <time>2020-07-30T08:34:04.000Z</time>
      </trkpt>
      <trkpt lat="47.29306" lon="-2.50621">
        <ele>76.400001525879</ele>
        <time>2020-07-30T08:34:05.000Z</time>
      </trkpt>
      <trkpt lat="47.29306" lon="-2.50625">
        <ele>76.400001525879</ele>
        <time>2020-07-30T08:34:08.000Z</time>
      </trkpt>
      <trkpt lat="47.29309" lon="-2.50634">
        <ele>76.400001525879</ele>
        <time>2020-07-30T08:34:16.000Z</time>
      </trkpt>
      <trkpt lat="47.29312" lon="-2.50644">
        <ele>76.400001525879</ele>
        <time>2020-07-30T08:34:22.000Z</time>
      </trkpt>
      <trkpt lat="47.29312" lon="-2.50646">
        <ele>76.400001525879</ele>
        <time>2020-07-30T08:34:23.000Z</time>
      </trkpt>
      <trkpt lat="47.29312" lon="-2.50656">
        <ele>76.400001525879</ele>
        <time>2020-07-30T08:34:29.000Z</time>
      </trkpt>
      <trkpt lat="47.29311" lon="-2.50658">
        <ele>76.400001525879</ele>
        <time>2020-07-30T08:34:31.000Z</time>
      </trkpt>
      <trkpt lat="47.29311" lon="-2.50663">
        <ele>76.400001525879</ele>
        <time>2020-07-30T08:34:34.000Z</time>
      </trkpt>
      <trkpt lat="47.2931" lon="-2.50664">
        <ele>76.800003051758</ele>
        <time>2020-07-30T08:34:35.000Z</time>
      </trkpt>
      <trkpt lat="47.29309" lon="-2.50664">
        <ele>77.199996948242</ele>
        <time>2020-07-30T08:34:36.000Z</time>
      </trkpt>
      <trkpt lat="47.29309" lon="-2.50665">
        <ele>77.599998474121</ele>
        <time>2020-07-30T08:34:37.000Z</time>
      </trkpt>
      <trkpt lat="47.29308" lon="-2.50666">
        <ele>78</ele>
        <time>2020-07-30T08:34:38.000Z</time>
      </trkpt>
      <trkpt lat="47.29308" lon="-2.50666">
        <ele>78.400001525879</ele>
        <time>2020-07-30T08:34:39.000Z</time>
      </trkpt>
      <trkpt lat="47.29308" lon="-2.50667">
        <ele>78.400001525879</ele>
        <time>2020-07-30T08:34:41.000Z</time>
      </trkpt>
      <trkpt lat="47.29307" lon="-2.50668">
        <ele>78.400001525879</ele>
        <time>2020-07-30T08:34:42.000Z</time>
      </trkpt>
      <trkpt lat="47.29307" lon="-2.50668">
        <ele>78.400001525879</ele>
        <time>2020-07-30T08:34:43.000Z</time>
      </trkpt>
      <trkpt lat="47.29312" lon="-2.50671">
        <ele>78.400001525879</ele>
        <time>2020-07-30T08:35:05.000Z</time>
      </trkpt>
      <trkpt lat="47.29314" lon="-2.50671">
        <ele>78.400001525879</ele>
        <time>2020-07-30T08:35:06.000Z</time>
      </trkpt>
      <trkpt lat="47.29326" lon="-2.50677">
        <ele>78.400001525879</ele>
        <time>2020-07-30T08:35:11.000Z</time>
      </trkpt>
      <trkpt lat="47.29343" lon="-2.50692">
        <ele>78.400001525879</ele>
        <time>2020-07-30T08:35:19.000Z</time>
      </trkpt>
      <trkpt lat="47.29349" lon="-2.50703">
        <ele>78.400001525879</ele>
        <time>2020-07-30T08:35:24.000Z</time>
      </trkpt>
      <trkpt lat="47.29351" lon="-2.50715">
        <ele>78.400001525879</ele>
        <time>2020-07-30T08:35:29.000Z</time>
      </trkpt>
      <trkpt lat="47.29352" lon="-2.50715">
        <ele>78.400001525879</ele>
        <time>2020-07-30T08:35:30.000Z</time>
      </trkpt>
      <trkpt lat="47.29354" lon="-2.50716">
        <ele>78.400001525879</ele>
        <time>2020-07-30T08:35:33.000Z</time>
      </trkpt>
      <trkpt lat="47.29353" lon="-2.50716">
        <ele>78.400001525879</ele>
        <time>2020-07-30T08:36:14.000Z</time>
      </trkpt>
      <trkpt lat="47.29354" lon="-2.50719">
        <ele>78.400001525879</ele>
        <time>2020-07-30T08:36:15.000Z</time>
      </trkpt>
      <trkpt lat="47.29352" lon="-2.50733">
        <ele>78.400001525879</ele>
        <time>2020-07-30T08:36:20.000Z</time>
      </trkpt>
      <trkpt lat="47.2935" lon="-2.50751">
        <ele>78.400001525879</ele>
        <time>2020-07-30T08:36:25.000Z</time>
      </trkpt>
      <trkpt lat="47.29351" lon="-2.50758">
        <ele>78.400001525879</ele>
        <time>2020-07-30T08:36:27.000Z</time>
      </trkpt>
      <trkpt lat="47.29353" lon="-2.50765">
        <ele>78.400001525879</ele>
        <time>2020-07-30T08:36:29.000Z</time>
      </trkpt>
      <trkpt lat="47.29347" lon="-2.50777">
        <ele>78.400001525879</ele>
        <time>2020-07-30T08:36:33.000Z</time>
      </trkpt>
      <trkpt lat="47.29337" lon="-2.50791">
        <ele>78.400001525879</ele>
        <time>2020-07-30T08:36:38.000Z</time>
      </trkpt>
      <trkpt lat="47.29335" lon="-2.50794">
        <ele>78.400001525879</ele>
        <time>2020-07-30T08:36:42.000Z</time>
      </trkpt>
      <trkpt lat="47.2933" lon="-2.50795">
        <ele>78.400001525879</ele>
        <time>2020-07-30T08:36:48.000Z</time>
      </trkpt>
      <trkpt lat="47.29328" lon="-2.50795">
        <ele>78.400001525879</ele>
        <time>2020-07-30T08:36:49.000Z</time>
      </trkpt>
      <trkpt lat="47.29326" lon="-2.50793">
        <ele>78.400001525879</ele>
        <time>2020-07-30T08:36:50.000Z</time>
      </trkpt>
      <trkpt lat="47.29313" lon="-2.50774">
        <ele>78.400001525879</ele>
        <time>2020-07-30T08:36:56.000Z</time>
      </trkpt>
      <trkpt lat="47.293" lon="-2.50754">
        <ele>79</ele>
        <time>2020-07-30T08:37:01.000Z</time>
      </trkpt>
      <trkpt lat="47.29298" lon="-2.50751">
        <ele>79.400001525879</ele>
        <time>2020-07-30T08:37:02.000Z</time>
      </trkpt>
      <trkpt lat="47.29295" lon="-2.50746">
        <ele>79.800003051758</ele>
        <time>2020-07-30T08:37:03.000Z</time>
      </trkpt>
      <trkpt lat="47.29292" lon="-2.50742">
        <ele>80.199996948242</ele>
        <time>2020-07-30T08:37:04.000Z</time>
      </trkpt>
      <trkpt lat="47.29289" lon="-2.50738">
        <ele>80.599998474121</ele>
        <time>2020-07-30T08:37:05.000Z</time>
      </trkpt>
      <trkpt lat="47.2928" lon="-2.50722">
        <ele>80.599998474121</ele>
        <time>2020-07-30T08:37:09.000Z</time>
      </trkpt>
      <trkpt lat="47.29264" lon="-2.50702">
        <ele>80.599998474121</ele>
        <time>2020-07-30T08:37:14.000Z</time>
      </trkpt>
      <trkpt lat="47.29259" lon="-2.50701">
        <ele>80.599998474121</ele>
        <time>2020-07-30T08:37:15.000Z</time>
      </trkpt>
      <trkpt lat="47.29243" lon="-2.507">
        <ele>80.599998474121</ele>
        <time>2020-07-30T08:37:19.000Z</time>
      </trkpt>
      <trkpt lat="47.29235" lon="-2.507">
        <ele>80.599998474121</ele>
        <time>2020-07-30T08:37:21.000Z</time>
      </trkpt>
      <trkpt lat="47.29216" lon="-2.50714">
        <ele>80.599998474121</ele>
        <time>2020-07-30T08:37:27.000Z</time>
      </trkpt>
      <trkpt lat="47.29206" lon="-2.50739">
        <ele>80.599998474121</ele>
        <time>2020-07-30T08:37:32.000Z</time>
      </trkpt>
      <trkpt lat="47.29201" lon="-2.50767">
        <ele>80.599998474121</ele>
        <time>2020-07-30T08:37:37.000Z</time>
      </trkpt>
      <trkpt lat="47.29206" lon="-2.50793">
        <ele>80.599998474121</ele>
        <time>2020-07-30T08:37:42.000Z</time>
      </trkpt>
      <trkpt lat="47.29224" lon="-2.50819">
        <ele>80.599998474121</ele>
        <time>2020-07-30T08:37:48.000Z</time>
      </trkpt>
      <trkpt lat="47.29241" lon="-2.50853">
        <ele>80.599998474121</ele>
        <time>2020-07-30T08:37:55.000Z</time>
      </trkpt>
      <trkpt lat="47.29254" lon="-2.50873">
        <ele>80.599998474121</ele>
        <time>2020-07-30T08:38:01.000Z</time>
      </trkpt>
      <trkpt lat="47.29264" lon="-2.50882">
        <ele>80.599998474121</ele>
        <time>2020-07-30T08:38:07.000Z</time>
      </trkpt>
      <trkpt lat="47.29272" lon="-2.5089">
        <ele>80.599998474121</ele>
        <time>2020-07-30T08:38:13.000Z</time>
      </trkpt>
      <trkpt lat="47.29286" lon="-2.50898">
        <ele>80.599998474121</ele>
        <time>2020-07-30T08:38:18.000Z</time>
      </trkpt>
      <trkpt lat="47.29304" lon="-2.50899">
        <ele>80.599998474121</ele>
        <time>2020-07-30T08:38:23.000Z</time>
      </trkpt>
      <trkpt lat="47.29318" lon="-2.50906">
        <ele>80.599998474121</ele>
        <time>2020-07-30T08:38:28.000Z</time>
      </trkpt>
      <trkpt lat="47.29337" lon="-2.50921">
        <ele>80.599998474121</ele>
        <time>2020-07-30T08:38:34.000Z</time>
      </trkpt>
      <trkpt lat="47.2936" lon="-2.5093">
        <ele>80.599998474121</ele>
        <time>2020-07-30T08:38:40.000Z</time>
      </trkpt>
      <trkpt lat="47.29373" lon="-2.50936">
        <ele>80.599998474121</ele>
        <time>2020-07-30T08:38:44.000Z</time>
      </trkpt>
      <trkpt lat="47.29388" lon="-2.50961">
        <ele>80.599998474121</ele>
        <time>2020-07-30T08:38:50.000Z</time>
      </trkpt>
      <trkpt lat="47.29391" lon="-2.50978">
        <ele>80.599998474121</ele>
        <time>2020-07-30T08:38:54.000Z</time>
      </trkpt>
      <trkpt lat="47.29391" lon="-2.51">
        <ele>80.599998474121</ele>
        <time>2020-07-30T08:38:59.000Z</time>
      </trkpt>
      <trkpt lat="47.29394" lon="-2.51013">
        <ele>80.599998474121</ele>
        <time>2020-07-30T08:39:02.000Z</time>
      </trkpt>
      <trkpt lat="47.29397" lon="-2.51017">
        <ele>80.599998474121</ele>
        <time>2020-07-30T08:39:03.000Z</time>
      </trkpt>
      <trkpt lat="47.29405" lon="-2.51028">
        <ele>80.599998474121</ele>
        <time>2020-07-30T08:39:06.000Z</time>
      </trkpt>
      <trkpt lat="47.2941" lon="-2.51035">
        <ele>80.599998474121</ele>
        <time>2020-07-30T08:39:08.000Z</time>
      </trkpt>
      <trkpt lat="47.29428" lon="-2.51057">
        <ele>80.599998474121</ele>
        <time>2020-07-30T08:39:14.000Z</time>
      </trkpt>
      <trkpt lat="47.29442" lon="-2.51072">
        <ele>80.599998474121</ele>
        <time>2020-07-30T08:39:19.000Z</time>
      </trkpt>
      <trkpt lat="47.29463" lon="-2.511">
        <ele>80.599998474121</ele>
        <time>2020-07-30T08:39:25.000Z</time>
      </trkpt>
      <trkpt lat="47.2948" lon="-2.51125">
        <ele>80.599998474121</ele>
        <time>2020-07-30T08:39:30.000Z</time>
      </trkpt>
      <trkpt lat="47.29487" lon="-2.51134">
        <ele>80.599998474121</ele>
        <time>2020-07-30T08:39:32.000Z</time>
      </trkpt>
      <trkpt lat="47.295" lon="-2.51158">
        <ele>80.599998474121</ele>
        <time>2020-07-30T08:39:37.000Z</time>
      </trkpt>
      <trkpt lat="47.29502" lon="-2.51164">
        <ele>80.599998474121</ele>
        <time>2020-07-30T08:39:38.000Z</time>
      </trkpt>
      <trkpt lat="47.29508" lon="-2.51188">
        <ele>80.599998474121</ele>
        <time>2020-07-30T08:39:42.000Z</time>
      </trkpt>
      <trkpt lat="47.29509" lon="-2.51195">
        <ele>80.599998474121</ele>
        <time>2020-07-30T08:39:43.000Z</time>
      </trkpt>
      <trkpt lat="47.29511" lon="-2.51207">
        <ele>80.599998474121</ele>
        <time>2020-07-30T08:39:45.000Z</time>
      </trkpt>
      <trkpt lat="47.29518" lon="-2.51226">
        <ele>80.599998474121</ele>
        <time>2020-07-30T08:39:49.000Z</time>
      </trkpt>
      <trkpt lat="47.29526" lon="-2.51247">
        <ele>80.599998474121</ele>
        <time>2020-07-30T08:39:54.000Z</time>
      </trkpt>
      <trkpt lat="47.2953" lon="-2.51276">
        <ele>80.599998474121</ele>
        <time>2020-07-30T08:39:59.000Z</time>
      </trkpt>
      <trkpt lat="47.29541" lon="-2.51311">
        <ele>80.599998474121</ele>
        <time>2020-07-30T08:40:05.000Z</time>
      </trkpt>
      <trkpt lat="47.29544" lon="-2.51315">
        <ele>80.599998474121</ele>
        <time>2020-07-30T08:40:06.000Z</time>
      </trkpt>
      <trkpt lat="47.29561" lon="-2.51327">
        <ele>80.599998474121</ele>
        <time>2020-07-30T08:40:10.000Z</time>
      </trkpt>
      <trkpt lat="47.29597" lon="-2.51347">
        <ele>80.599998474121</ele>
        <time>2020-07-30T08:40:17.000Z</time>
      </trkpt>
      <trkpt lat="47.29632" lon="-2.51375">
        <ele>80.599998474121</ele>
        <time>2020-07-30T08:40:24.000Z</time>
      </trkpt>
      <trkpt lat="47.29668" lon="-2.51404">
        <ele>80.599998474121</ele>
        <time>2020-07-30T08:40:31.000Z</time>
      </trkpt>
      <trkpt lat="47.29705" lon="-2.51432">
        <ele>80.599998474121</ele>
        <time>2020-07-30T08:40:38.000Z</time>
      </trkpt>
      <trkpt lat="47.29745" lon="-2.51458">
        <ele>80.599998474121</ele>
        <time>2020-07-30T08:40:46.000Z</time>
      </trkpt>
      <trkpt lat="47.29784" lon="-2.51481">
        <ele>80.599998474121</ele>
        <time>2020-07-30T08:40:54.000Z</time>
      </trkpt>
      <trkpt lat="47.29789" lon="-2.51482">
        <ele>80.599998474121</ele>
        <time>2020-07-30T08:40:55.000Z</time>
      </trkpt>
      <trkpt lat="47.29815" lon="-2.51487">
        <ele>80.599998474121</ele>
        <time>2020-07-30T08:41:00.000Z</time>
      </trkpt>
      <trkpt lat="47.2982" lon="-2.51486">
        <ele>80.599998474121</ele>
        <time>2020-07-30T08:41:01.000Z</time>
      </trkpt>
      <trkpt lat="47.2983" lon="-2.51485">
        <ele>80.599998474121</ele>
        <time>2020-07-30T08:41:03.000Z</time>
      </trkpt>
      <trkpt lat="47.29836" lon="-2.51493">
        <ele>80.599998474121</ele>
        <time>2020-07-30T08:41:05.000Z</time>
      </trkpt>
      <trkpt lat="47.29848" lon="-2.51511">
        <ele>80.599998474121</ele>
        <time>2020-07-30T08:41:09.000Z</time>
      </trkpt>
      <trkpt lat="47.29852" lon="-2.51511">
        <ele>80.599998474121</ele>
        <time>2020-07-30T08:41:10.000Z</time>
      </trkpt>
      <trkpt lat="47.29863" lon="-2.51507">
        <ele>80.599998474121</ele>
        <time>2020-07-30T08:41:13.000Z</time>
      </trkpt>
      <trkpt lat="47.29867" lon="-2.51509">
        <ele>80.599998474121</ele>
        <time>2020-07-30T08:41:14.000Z</time>
      </trkpt>
      <trkpt lat="47.29872" lon="-2.51526">
        <ele>80.599998474121</ele>
        <time>2020-07-30T08:41:17.000Z</time>
      </trkpt>
      <trkpt lat="47.29878" lon="-2.51551">
        <ele>80.599998474121</ele>
        <time>2020-07-30T08:41:21.000Z</time>
      </trkpt>
      <trkpt lat="47.2988" lon="-2.51557">
        <ele>80.599998474121</ele>
        <time>2020-07-30T08:41:22.000Z</time>
      </trkpt>
      <trkpt lat="47.2989" lon="-2.51599">
        <ele>80.599998474121</ele>
        <time>2020-07-30T08:41:29.000Z</time>
      </trkpt>
      <trkpt lat="47.29902" lon="-2.51641">
        <ele>80.599998474121</ele>
        <time>2020-07-30T08:41:37.000Z</time>
      </trkpt>
      <trkpt lat="47.29914" lon="-2.51676">
        <ele>80.599998474121</ele>
        <time>2020-07-30T08:41:45.000Z</time>
      </trkpt>
      <trkpt lat="47.29924" lon="-2.51704">
        <ele>80.599998474121</ele>
        <time>2020-07-30T08:41:53.000Z</time>
      </trkpt>
      <trkpt lat="47.29925" lon="-2.51705">
        <ele>80.599998474121</ele>
        <time>2020-07-30T08:41:55.000Z</time>
      </trkpt>
      <trkpt lat="47.29924" lon="-2.51708">
        <ele>80.599998474121</ele>
        <time>2020-07-30T08:51:52.000Z</time>
      </trkpt>
      <trkpt lat="47.29925" lon="-2.5171">
        <ele>80.599998474121</ele>
        <time>2020-07-30T08:51:53.000Z</time>
      </trkpt>
      <trkpt lat="47.29934" lon="-2.51727">
        <ele>80.599998474121</ele>
        <time>2020-07-30T08:52:00.000Z</time>
      </trkpt>
      <trkpt lat="47.29945" lon="-2.51751">
        <ele>80.599998474121</ele>
        <time>2020-07-30T08:52:08.000Z</time>
      </trkpt>
      <trkpt lat="47.29958" lon="-2.51776">
        <ele>80.599998474121</ele>
        <time>2020-07-30T08:52:15.000Z</time>
      </trkpt>
      <trkpt lat="47.2997" lon="-2.51802">
        <ele>80.599998474121</ele>
        <time>2020-07-30T08:52:23.000Z</time>
      </trkpt>
      <trkpt lat="47.29981" lon="-2.51827">
        <ele>80.599998474121</ele>
        <time>2020-07-30T08:52:31.000Z</time>
      </trkpt>
      <trkpt lat="47.2999" lon="-2.51855">
        <ele>80.599998474121</ele>
        <time>2020-07-30T08:52:38.000Z</time>
      </trkpt>
      <trkpt lat="47.29989" lon="-2.51879">
        <ele>80.599998474121</ele>
        <time>2020-07-30T08:52:43.000Z</time>
      </trkpt>
      <trkpt lat="47.29998" lon="-2.51892">
        <ele>80.599998474121</ele>
        <time>2020-07-30T08:52:47.000Z</time>
      </trkpt>
      <trkpt lat="47.30015" lon="-2.51921">
        <ele>80.599998474121</ele>
        <time>2020-07-30T08:52:55.000Z</time>
      </trkpt>
      <trkpt lat="47.30031" lon="-2.51951">
        <ele>80.599998474121</ele>
        <time>2020-07-30T08:53:03.000Z</time>
      </trkpt>
      <trkpt lat="47.30044" lon="-2.51964">
        <ele>80.599998474121</ele>
        <time>2020-07-30T08:53:07.000Z</time>
      </trkpt>
      <trkpt lat="47.30062" lon="-2.51996">
        <ele>80.599998474121</ele>
        <time>2020-07-30T08:53:14.000Z</time>
      </trkpt>
      <trkpt lat="47.30064" lon="-2.52001">
        <ele>80.599998474121</ele>
        <time>2020-07-30T08:53:15.000Z</time>
      </trkpt>
      <trkpt lat="47.30067" lon="-2.52021">
        <ele>80.599998474121</ele>
        <time>2020-07-30T08:53:19.000Z</time>
      </trkpt>
      <trkpt lat="47.30069" lon="-2.52029">
        <ele>81</ele>
        <time>2020-07-30T08:53:21.000Z</time>
      </trkpt>
      <trkpt lat="47.3007" lon="-2.52033">
        <ele>81.800003051758</ele>
        <time>2020-07-30T08:53:22.000Z</time>
      </trkpt>
      <trkpt lat="47.30072" lon="-2.52037">
        <ele>82.199996948242</ele>
        <time>2020-07-30T08:53:23.000Z</time>
      </trkpt>
      <trkpt lat="47.30073" lon="-2.5204">
        <ele>82.599998474121</ele>
        <time>2020-07-30T08:53:24.000Z</time>
      </trkpt>
      <trkpt lat="47.30075" lon="-2.52044">
        <ele>82.599998474121</ele>
        <time>2020-07-30T08:53:25.000Z</time>
      </trkpt>
      <trkpt lat="47.30079" lon="-2.52068">
        <ele>82.599998474121</ele>
        <time>2020-07-30T08:53:30.000Z</time>
      </trkpt>
      <trkpt lat="47.30074" lon="-2.52076">
        <ele>82.599998474121</ele>
        <time>2020-07-30T08:53:32.000Z</time>
      </trkpt>
      <trkpt lat="47.3007" lon="-2.52078">
        <ele>82.599998474121</ele>
        <time>2020-07-30T08:53:33.000Z</time>
      </trkpt>
      <trkpt lat="47.30058" lon="-2.52079">
        <ele>82.599998474121</ele>
        <time>2020-07-30T08:53:36.000Z</time>
      </trkpt>
      <trkpt lat="47.3005" lon="-2.5208">
        <ele>82.599998474121</ele>
        <time>2020-07-30T08:53:38.000Z</time>
      </trkpt>
      <trkpt lat="47.30032" lon="-2.52084">
        <ele>82.599998474121</ele>
        <time>2020-07-30T08:53:44.000Z</time>
      </trkpt>
      <trkpt lat="47.3003" lon="-2.52089">
        <ele>82.599998474121</ele>
        <time>2020-07-30T08:53:45.000Z</time>
      </trkpt>
      <trkpt lat="47.3003" lon="-2.52099">
        <ele>82.599998474121</ele>
        <time>2020-07-30T08:53:47.000Z</time>
      </trkpt>
      <trkpt lat="47.30032" lon="-2.52115">
        <ele>82.599998474121</ele>
        <time>2020-07-30T08:53:50.000Z</time>
      </trkpt>
      <trkpt lat="47.30034" lon="-2.52128">
        <ele>82.599998474121</ele>
        <time>2020-07-30T08:53:52.000Z</time>
      </trkpt>
      <trkpt lat="47.30038" lon="-2.52175">
        <ele>82.599998474121</ele>
        <time>2020-07-30T08:53:58.000Z</time>
      </trkpt>
      <trkpt lat="47.30043" lon="-2.52226">
        <ele>82.599998474121</ele>
        <time>2020-07-30T08:54:04.000Z</time>
      </trkpt>
      <trkpt lat="47.30046" lon="-2.52262">
        <ele>82.599998474121</ele>
        <time>2020-07-30T08:54:08.000Z</time>
      </trkpt>
      <trkpt lat="47.30048" lon="-2.52277">
        <ele>82.599998474121</ele>
        <time>2020-07-30T08:54:10.000Z</time>
      </trkpt>
      <trkpt lat="47.30048" lon="-2.52286">
        <ele>82.599998474121</ele>
        <time>2020-07-30T08:54:11.000Z</time>
      </trkpt>
      <trkpt lat="47.30048" lon="-2.52312">
        <ele>82.599998474121</ele>
        <time>2020-07-30T08:54:14.000Z</time>
      </trkpt>
      <trkpt lat="47.30055" lon="-2.52347">
        <ele>82.599998474121</ele>
        <time>2020-07-30T08:54:18.000Z</time>
      </trkpt>
      <trkpt lat="47.30061" lon="-2.52402">
        <ele>82.599998474121</ele>
        <time>2020-07-30T08:54:24.000Z</time>
      </trkpt>
      <trkpt lat="47.3007" lon="-2.52484">
        <ele>82.599998474121</ele>
        <time>2020-07-30T08:54:33.000Z</time>
      </trkpt>
      <trkpt lat="47.30079" lon="-2.52567">
        <ele>82.599998474121</ele>
        <time>2020-07-30T08:54:42.000Z</time>
      </trkpt>
      <trkpt lat="47.30086" lon="-2.52631">
        <ele>82.599998474121</ele>
        <time>2020-07-30T08:54:49.000Z</time>
      </trkpt>
      <trkpt lat="47.30093" lon="-2.52696">
        <ele>82.599998474121</ele>
        <time>2020-07-30T08:54:56.000Z</time>
      </trkpt>
      <trkpt lat="47.30088" lon="-2.52752">
        <ele>82.599998474121</ele>
        <time>2020-07-30T08:55:02.000Z</time>
      </trkpt>
      <trkpt lat="47.30086" lon="-2.52779">
        <ele>82.599998474121</ele>
        <time>2020-07-30T08:55:05.000Z</time>
      </trkpt>
      <trkpt lat="47.30079" lon="-2.52823">
        <ele>82.599998474121</ele>
        <time>2020-07-30T08:55:10.000Z</time>
      </trkpt>
      <trkpt lat="47.3007" lon="-2.52895">
        <ele>82.599998474121</ele>
        <time>2020-07-30T08:55:18.000Z</time>
      </trkpt>
      <trkpt lat="47.30058" lon="-2.52945">
        <ele>82.599998474121</ele>
        <time>2020-07-30T08:55:24.000Z</time>
      </trkpt>
      <trkpt lat="47.30041" lon="-2.53008">
        <ele>82.599998474121</ele>
        <time>2020-07-30T08:55:32.000Z</time>
      </trkpt>
      <trkpt lat="47.30037" lon="-2.53058">
        <ele>82.599998474121</ele>
        <time>2020-07-30T08:55:38.000Z</time>
      </trkpt>
      <trkpt lat="47.3004" lon="-2.53118">
        <ele>82.599998474121</ele>
        <time>2020-07-30T08:55:45.000Z</time>
      </trkpt>
      <trkpt lat="47.30045" lon="-2.53194">
        <ele>82.599998474121</ele>
        <time>2020-07-30T08:55:53.000Z</time>
      </trkpt>
      <trkpt lat="47.30047" lon="-2.53254">
        <ele>82.599998474121</ele>
        <time>2020-07-30T08:55:59.000Z</time>
      </trkpt>
      <trkpt lat="47.30047" lon="-2.5333">
        <ele>82.599998474121</ele>
        <time>2020-07-30T08:56:07.000Z</time>
      </trkpt>
      <trkpt lat="47.30038" lon="-2.53383">
        <ele>82.599998474121</ele>
        <time>2020-07-30T08:56:13.000Z</time>
      </trkpt>
      <trkpt lat="47.30034" lon="-2.534">
        <ele>82.599998474121</ele>
        <time>2020-07-30T08:56:15.000Z</time>
      </trkpt>
      <trkpt lat="47.30023" lon="-2.53425">
        <ele>82.599998474121</ele>
        <time>2020-07-30T08:56:18.000Z</time>
      </trkpt>
      <trkpt lat="47.29987" lon="-2.53488">
        <ele>82.599998474121</ele>
        <time>2020-07-30T08:56:26.000Z</time>
      </trkpt>
      <trkpt lat="47.29956" lon="-2.53539">
        <ele>82.599998474121</ele>
        <time>2020-07-30T08:56:33.000Z</time>
      </trkpt>
      <trkpt lat="47.29952" lon="-2.53546">
        <ele>83</ele>
        <time>2020-07-30T08:56:34.000Z</time>
      </trkpt>
      <trkpt lat="47.29948" lon="-2.53552">
        <ele>83.400001525879</ele>
        <time>2020-07-30T08:56:35.000Z</time>
      </trkpt>
      <trkpt lat="47.29945" lon="-2.53559">
        <ele>84</ele>
        <time>2020-07-30T08:56:36.000Z</time>
      </trkpt>
      <trkpt lat="47.29941" lon="-2.53566">
        <ele>84.400001525879</ele>
        <time>2020-07-30T08:56:37.000Z</time>
      </trkpt>
      <trkpt lat="47.29936" lon="-2.53573">
        <ele>84.800003051758</ele>
        <time>2020-07-30T08:56:38.000Z</time>
      </trkpt>
      <trkpt lat="47.29928" lon="-2.53588">
        <ele>84.800003051758</ele>
        <time>2020-07-30T08:56:40.000Z</time>
      </trkpt>
      <trkpt lat="47.29913" lon="-2.53633">
        <ele>84.800003051758</ele>
        <time>2020-07-30T08:56:45.000Z</time>
      </trkpt>
      <trkpt lat="47.29912" lon="-2.53643">
        <ele>84.800003051758</ele>
        <time>2020-07-30T08:56:46.000Z</time>
      </trkpt>
      <trkpt lat="47.29908" lon="-2.53686">
        <ele>84.800003051758</ele>
        <time>2020-07-30T08:56:50.000Z</time>
      </trkpt>
      <trkpt lat="47.29908" lon="-2.53697">
        <ele>84.800003051758</ele>
        <time>2020-07-30T08:56:51.000Z</time>
      </trkpt>
      <trkpt lat="47.29912" lon="-2.53728">
        <ele>84.800003051758</ele>
        <time>2020-07-30T08:56:54.000Z</time>
      </trkpt>
      <trkpt lat="47.29914" lon="-2.53738">
        <ele>84.800003051758</ele>
        <time>2020-07-30T08:56:55.000Z</time>
      </trkpt>
      <trkpt lat="47.29929" lon="-2.53825">
        <ele>84.800003051758</ele>
        <time>2020-07-30T08:57:04.000Z</time>
      </trkpt>
      <trkpt lat="47.29938" lon="-2.53903">
        <ele>84.800003051758</ele>
        <time>2020-07-30T08:57:12.000Z</time>
      </trkpt>
      <trkpt lat="47.29935" lon="-2.53952">
        <ele>84.800003051758</ele>
        <time>2020-07-30T08:57:17.000Z</time>
      </trkpt>
      <trkpt lat="47.29923" lon="-2.54019">
        <ele>84.800003051758</ele>
        <time>2020-07-30T08:57:24.000Z</time>
      </trkpt>
      <trkpt lat="47.29902" lon="-2.54081">
        <ele>84.800003051758</ele>
        <time>2020-07-30T08:57:31.000Z</time>
      </trkpt>
      <trkpt lat="47.29881" lon="-2.54161">
        <ele>84.800003051758</ele>
        <time>2020-07-30T08:57:40.000Z</time>
      </trkpt>
      <trkpt lat="47.29876" lon="-2.54218">
        <ele>84.800003051758</ele>
        <time>2020-07-30T08:57:46.000Z</time>
      </trkpt>
      <trkpt lat="47.29868" lon="-2.54299">
        <ele>84.800003051758</ele>
        <time>2020-07-30T08:57:54.000Z</time>
      </trkpt>
      <trkpt lat="47.29854" lon="-2.54333">
        <ele>84.800003051758</ele>
        <time>2020-07-30T08:57:58.000Z</time>
      </trkpt>
      <trkpt lat="47.29849" lon="-2.5434">
        <ele>84.800003051758</ele>
        <time>2020-07-30T08:57:59.000Z</time>
      </trkpt>
      <trkpt lat="47.29816" lon="-2.54402">
        <ele>84.800003051758</ele>
        <time>2020-07-30T08:58:07.000Z</time>
      </trkpt>
      <trkpt lat="47.2979" lon="-2.54453">
        <ele>84.800003051758</ele>
        <time>2020-07-30T08:58:14.000Z</time>
      </trkpt>
      <trkpt lat="47.29786" lon="-2.54458">
        <ele>84.800003051758</ele>
        <time>2020-07-30T08:58:15.000Z</time>
      </trkpt>
      <trkpt lat="47.29769" lon="-2.54476">
        <ele>84.800003051758</ele>
        <time>2020-07-30T08:58:19.000Z</time>
      </trkpt>
      <trkpt lat="47.29737" lon="-2.54505">
        <ele>84.800003051758</ele>
        <time>2020-07-30T08:58:26.000Z</time>
      </trkpt>
      <trkpt lat="47.2971" lon="-2.54531">
        <ele>84.800003051758</ele>
        <time>2020-07-30T08:58:33.000Z</time>
      </trkpt>
      <trkpt lat="47.29685" lon="-2.54552">
        <ele>84.800003051758</ele>
        <time>2020-07-30T08:58:38.000Z</time>
      </trkpt>
      <trkpt lat="47.29654" lon="-2.54578">
        <ele>84.800003051758</ele>
        <time>2020-07-30T08:58:44.000Z</time>
      </trkpt>
      <trkpt lat="47.29615" lon="-2.54598">
        <ele>84.800003051758</ele>
        <time>2020-07-30T08:58:51.000Z</time>
      </trkpt>
      <trkpt lat="47.29578" lon="-2.54607">
        <ele>84.800003051758</ele>
        <time>2020-07-30T08:58:58.000Z</time>
      </trkpt>
      <trkpt lat="47.29533" lon="-2.54619">
        <ele>84.800003051758</ele>
        <time>2020-07-30T08:59:06.000Z</time>
      </trkpt>
      <trkpt lat="47.2952" lon="-2.54626">
        <ele>84.800003051758</ele>
        <time>2020-07-30T08:59:08.000Z</time>
      </trkpt>
      <trkpt lat="47.29505" lon="-2.54641">
        <ele>84.800003051758</ele>
        <time>2020-07-30T08:59:11.000Z</time>
      </trkpt>
      <trkpt lat="47.295" lon="-2.54647">
        <ele>84.800003051758</ele>
        <time>2020-07-30T08:59:12.000Z</time>
      </trkpt>
      <trkpt lat="47.29469" lon="-2.54676">
        <ele>84.800003051758</ele>
        <time>2020-07-30T08:59:18.000Z</time>
      </trkpt>
      <trkpt lat="47.29445" lon="-2.54681">
        <ele>84.800003051758</ele>
        <time>2020-07-30T08:59:22.000Z</time>
      </trkpt>
      <trkpt lat="47.29396" lon="-2.54684">
        <ele>84.800003051758</ele>
        <time>2020-07-30T08:59:30.000Z</time>
      </trkpt>
      <trkpt lat="47.29347" lon="-2.54686">
        <ele>84.800003051758</ele>
        <time>2020-07-30T08:59:38.000Z</time>
      </trkpt>
      <trkpt lat="47.29341" lon="-2.54687">
        <ele>85.199996948242</ele>
        <time>2020-07-30T08:59:39.000Z</time>
      </trkpt>
      <trkpt lat="47.29334" lon="-2.54687">
        <ele>85.599998474121</ele>
        <time>2020-07-30T08:59:40.000Z</time>
      </trkpt>
      <trkpt lat="47.29328" lon="-2.54687">
        <ele>86</ele>
        <time>2020-07-30T08:59:41.000Z</time>
      </trkpt>
      <trkpt lat="47.29321" lon="-2.54687">
        <ele>86.400001525879</ele>
        <time>2020-07-30T08:59:42.000Z</time>
      </trkpt>
      <trkpt lat="47.29315" lon="-2.54688">
        <ele>86.800003051758</ele>
        <time>2020-07-30T08:59:43.000Z</time>
      </trkpt>
      <trkpt lat="47.29302" lon="-2.54688">
        <ele>86.800003051758</ele>
        <time>2020-07-30T08:59:45.000Z</time>
      </trkpt>
      <trkpt lat="47.29277" lon="-2.54688">
        <ele>86.800003051758</ele>
        <time>2020-07-30T08:59:49.000Z</time>
      </trkpt>
      <trkpt lat="47.29258" lon="-2.54681">
        <ele>86.800003051758</ele>
        <time>2020-07-30T08:59:52.000Z</time>
      </trkpt>
      <trkpt lat="47.29238" lon="-2.54664">
        <ele>86.800003051758</ele>
        <time>2020-07-30T08:59:56.000Z</time>
      </trkpt>
      <trkpt lat="47.29228" lon="-2.54654">
        <ele>86.800003051758</ele>
        <time>2020-07-30T08:59:58.000Z</time>
      </trkpt>
      <trkpt lat="47.2921" lon="-2.54631">
        <ele>86.800003051758</ele>
        <time>2020-07-30T09:00:02.000Z</time>
      </trkpt>
      <trkpt lat="47.29171" lon="-2.54586">
        <ele>86.800003051758</ele>
        <time>2020-07-30T09:00:10.000Z</time>
      </trkpt>
      <trkpt lat="47.29133" lon="-2.54558">
        <ele>86.800003051758</ele>
        <time>2020-07-30T09:00:17.000Z</time>
      </trkpt>
      <trkpt lat="47.2911" lon="-2.54544">
        <ele>86.800003051758</ele>
        <time>2020-07-30T09:00:21.000Z</time>
      </trkpt>
      <trkpt lat="47.29101" lon="-2.54534">
        <ele>86.800003051758</ele>
        <time>2020-07-30T09:00:23.000Z</time>
      </trkpt>
      <trkpt lat="47.29093" lon="-2.54523">
        <ele>86.800003051758</ele>
        <time>2020-07-30T09:00:25.000Z</time>
      </trkpt>
      <trkpt lat="47.29085" lon="-2.54504">
        <ele>86.800003051758</ele>
        <time>2020-07-30T09:00:28.000Z</time>
      </trkpt>
      <trkpt lat="47.29083" lon="-2.54497">
        <ele>86.800003051758</ele>
        <time>2020-07-30T09:00:29.000Z</time>
      </trkpt>
      <trkpt lat="47.29078" lon="-2.54468">
        <ele>86.800003051758</ele>
        <time>2020-07-30T09:00:33.000Z</time>
      </trkpt>
      <trkpt lat="47.29073" lon="-2.544">
        <ele>86.800003051758</ele>
        <time>2020-07-30T09:00:42.000Z</time>
      </trkpt>
      <trkpt lat="47.2907" lon="-2.5437">
        <ele>86.800003051758</ele>
        <time>2020-07-30T09:00:47.000Z</time>
      </trkpt>
      <trkpt lat="47.29064" lon="-2.54321">
        <ele>86.800003051758</ele>
        <time>2020-07-30T09:00:55.000Z</time>
      </trkpt>
      <trkpt lat="47.29051" lon="-2.54279">
        <ele>86.800003051758</ele>
        <time>2020-07-30T09:01:03.000Z</time>
      </trkpt>
      <trkpt lat="47.29041" lon="-2.54243">
        <ele>86.800003051758</ele>
        <time>2020-07-30T09:01:11.000Z</time>
      </trkpt>
      <trkpt lat="47.29041" lon="-2.54229">
        <ele>86.800003051758</ele>
        <time>2020-07-30T09:01:14.000Z</time>
      </trkpt>
      <trkpt lat="47.29043" lon="-2.54224">
        <ele>86.800003051758</ele>
        <time>2020-07-30T09:01:15.000Z</time>
      </trkpt>
      <trkpt lat="47.29054" lon="-2.54201">
        <ele>86.800003051758</ele>
        <time>2020-07-30T09:01:20.000Z</time>
      </trkpt>
      <trkpt lat="47.29056" lon="-2.54195">
        <ele>86.800003051758</ele>
        <time>2020-07-30T09:01:21.000Z</time>
      </trkpt>
      <trkpt lat="47.29067" lon="-2.54161">
        <ele>86.800003051758</ele>
        <time>2020-07-30T09:01:28.000Z</time>
      </trkpt>
      <trkpt lat="47.2907" lon="-2.54133">
        <ele>86.800003051758</ele>
        <time>2020-07-30T09:01:34.000Z</time>
      </trkpt>
      <trkpt lat="47.29068" lon="-2.54104">
        <ele>86.800003051758</ele>
        <time>2020-07-30T09:01:40.000Z</time>
      </trkpt>
      <trkpt lat="47.29071" lon="-2.54093">
        <ele>86.800003051758</ele>
        <time>2020-07-30T09:01:42.000Z</time>
      </trkpt>
      <trkpt lat="47.29075" lon="-2.54081">
        <ele>86.800003051758</ele>
        <time>2020-07-30T09:01:44.000Z</time>
      </trkpt>
      <trkpt lat="47.29093" lon="-2.54036">
        <ele>86.800003051758</ele>
        <time>2020-07-30T09:01:52.000Z</time>
      </trkpt>
      <trkpt lat="47.29107" lon="-2.53997">
        <ele>86.800003051758</ele>
        <time>2020-07-30T09:01:59.000Z</time>
      </trkpt>
      <trkpt lat="47.29118" lon="-2.53957">
        <ele>86.800003051758</ele>
        <time>2020-07-30T09:02:06.000Z</time>
      </trkpt>
      <trkpt lat="47.29119" lon="-2.53945">
        <ele>86.800003051758</ele>
        <time>2020-07-30T09:02:08.000Z</time>
      </trkpt>
      <trkpt lat="47.29117" lon="-2.53927">
        <ele>87.199996948242</ele>
        <time>2020-07-30T09:02:11.000Z</time>
      </trkpt>
      <trkpt lat="47.29116" lon="-2.53921">
        <ele>87.800003051758</ele>
        <time>2020-07-30T09:02:12.000Z</time>
      </trkpt>
      <trkpt lat="47.29116" lon="-2.53914">
        <ele>88.199996948242</ele>
        <time>2020-07-30T09:02:13.000Z</time>
      </trkpt>
      <trkpt lat="47.29115" lon="-2.53908">
        <ele>88.599998474121</ele>
        <time>2020-07-30T09:02:14.000Z</time>
      </trkpt>
      <trkpt lat="47.29114" lon="-2.53902">
        <ele>89</ele>
        <time>2020-07-30T09:02:15.000Z</time>
      </trkpt>
      <trkpt lat="47.29111" lon="-2.53885">
        <ele>89</ele>
        <time>2020-07-30T09:02:18.000Z</time>
      </trkpt>
      <trkpt lat="47.29102" lon="-2.53845">
        <ele>89</ele>
        <time>2020-07-30T09:02:26.000Z</time>
      </trkpt>
      <trkpt lat="47.29098" lon="-2.53814">
        <ele>89</ele>
        <time>2020-07-30T09:02:31.000Z</time>
      </trkpt>
      <trkpt lat="47.29096" lon="-2.53807">
        <ele>89.400001525879</ele>
        <time>2020-07-30T09:02:32.000Z</time>
      </trkpt>
      <trkpt lat="47.29095" lon="-2.53801">
        <ele>89.800003051758</ele>
        <time>2020-07-30T09:02:33.000Z</time>
      </trkpt>
      <trkpt lat="47.29095" lon="-2.53794">
        <ele>90.199996948242</ele>
        <time>2020-07-30T09:02:34.000Z</time>
      </trkpt>
      <trkpt lat="47.29094" lon="-2.53788">
        <ele>90.599998474121</ele>
        <time>2020-07-30T09:02:35.000Z</time>
      </trkpt>
      <trkpt lat="47.29094" lon="-2.53781">
        <ele>91</ele>
        <time>2020-07-30T09:02:36.000Z</time>
      </trkpt>
      <trkpt lat="47.29093" lon="-2.53775">
        <ele>91</ele>
        <time>2020-07-30T09:02:37.000Z</time>
      </trkpt>
      <trkpt lat="47.29093" lon="-2.53755">
        <ele>91</ele>
        <time>2020-07-30T09:02:40.000Z</time>
      </trkpt>
      <trkpt lat="47.29095" lon="-2.5374">
        <ele>91</ele>
        <time>2020-07-30T09:02:42.000Z</time>
      </trkpt>
      <trkpt lat="47.29098" lon="-2.53709">
        <ele>91</ele>
        <time>2020-07-30T09:02:46.000Z</time>
      </trkpt>
      <trkpt lat="47.29098" lon="-2.53687">
        <ele>91</ele>
        <time>2020-07-30T09:02:49.000Z</time>
      </trkpt>
      <trkpt lat="47.291" lon="-2.53643">
        <ele>91</ele>
        <time>2020-07-30T09:02:55.000Z</time>
      </trkpt>
      <trkpt lat="47.29101" lon="-2.53636">
        <ele>91</ele>
        <time>2020-07-30T09:02:56.000Z</time>
      </trkpt>
      <trkpt lat="47.29103" lon="-2.53604">
        <ele>91</ele>
        <time>2020-07-30T09:03:01.000Z</time>
      </trkpt>
      <trkpt lat="47.29103" lon="-2.53591">
        <ele>91</ele>
        <time>2020-07-30T09:03:03.000Z</time>
      </trkpt>
      <trkpt lat="47.29102" lon="-2.53572">
        <ele>91</ele>
        <time>2020-07-30T09:03:06.000Z</time>
      </trkpt>
      <trkpt lat="47.29102" lon="-2.53555">
        <ele>91</ele>
        <time>2020-07-30T09:03:09.000Z</time>
      </trkpt>
      <trkpt lat="47.29104" lon="-2.53553">
        <ele>91</ele>
        <time>2020-07-30T09:03:10.000Z</time>
      </trkpt>
      <trkpt lat="47.29109" lon="-2.53547">
        <ele>91</ele>
        <time>2020-07-30T09:03:12.000Z</time>
      </trkpt>
      <trkpt lat="47.2912" lon="-2.53534">
        <ele>91</ele>
        <time>2020-07-30T09:03:17.000Z</time>
      </trkpt>
      <trkpt lat="47.2913" lon="-2.53526">
        <ele>90.199996948242</ele>
        <time>2020-07-30T09:03:21.000Z</time>
      </trkpt>
      <trkpt lat="47.29133" lon="-2.53524">
        <ele>89.800003051758</ele>
        <time>2020-07-30T09:03:22.000Z</time>
      </trkpt>
      <trkpt lat="47.29136" lon="-2.53523">
        <ele>89.400001525879</ele>
        <time>2020-07-30T09:03:23.000Z</time>
      </trkpt>
      <trkpt lat="47.29138" lon="-2.53521">
        <ele>89</ele>
        <time>2020-07-30T09:03:24.000Z</time>
      </trkpt>
      <trkpt lat="47.29143" lon="-2.53513">
        <ele>89</ele>
        <time>2020-07-30T09:03:28.000Z</time>
      </trkpt>
      <trkpt lat="47.29142" lon="-2.53492">
        <ele>89</ele>
        <time>2020-07-30T09:03:32.000Z</time>
      </trkpt>
      <trkpt lat="47.29138" lon="-2.53447">
        <ele>89</ele>
        <time>2020-07-30T09:03:39.000Z</time>
      </trkpt>
      <trkpt lat="47.29137" lon="-2.53427">
        <ele>89</ele>
        <time>2020-07-30T09:03:42.000Z</time>
      </trkpt>
      <trkpt lat="47.29132" lon="-2.53373">
        <ele>89</ele>
        <time>2020-07-30T09:03:50.000Z</time>
      </trkpt>
      <trkpt lat="47.29132" lon="-2.53361">
        <ele>89.599998474121</ele>
        <time>2020-07-30T09:03:52.000Z</time>
      </trkpt>
      <trkpt lat="47.29132" lon="-2.53354">
        <ele>90</ele>
        <time>2020-07-30T09:03:53.000Z</time>
      </trkpt>
      <trkpt lat="47.29131" lon="-2.53347">
        <ele>90.599998474121</ele>
        <time>2020-07-30T09:03:54.000Z</time>
      </trkpt>
      <trkpt lat="47.29131" lon="-2.53341">
        <ele>91</ele>
        <time>2020-07-30T09:03:55.000Z</time>
      </trkpt>
      <trkpt lat="47.29131" lon="-2.53334">
        <ele>91.599998474121</ele>
        <time>2020-07-30T09:03:56.000Z</time>
      </trkpt>
      <trkpt lat="47.2913" lon="-2.53328">
        <ele>91.599998474121</ele>
        <time>2020-07-30T09:03:57.000Z</time>
      </trkpt>
      <trkpt lat="47.29128" lon="-2.53289">
        <ele>91.599998474121</ele>
        <time>2020-07-30T09:04:04.000Z</time>
      </trkpt>
      <trkpt lat="47.29126" lon="-2.53278">
        <ele>92</ele>
        <time>2020-07-30T09:04:06.000Z</time>
      </trkpt>
      <trkpt lat="47.29125" lon="-2.53272">
        <ele>92.400001525879</ele>
        <time>2020-07-30T09:04:07.000Z</time>
      </trkpt>
      <trkpt lat="47.29123" lon="-2.53267">
        <ele>92.800003051758</ele>
        <time>2020-07-30T09:04:08.000Z</time>
      </trkpt>
      <trkpt lat="47.29121" lon="-2.53262">
        <ele>93.199996948242</ele>
        <time>2020-07-30T09:04:09.000Z</time>
      </trkpt>
      <trkpt lat="47.29119" lon="-2.53257">
        <ele>93.599998474121</ele>
        <time>2020-07-30T09:04:10.000Z</time>
      </trkpt>
      <trkpt lat="47.29117" lon="-2.53251">
        <ele>93.599998474121</ele>
        <time>2020-07-30T09:04:11.000Z</time>
      </trkpt>
      <trkpt lat="47.29114" lon="-2.53229">
        <ele>93.599998474121</ele>
        <time>2020-07-30T09:04:14.000Z</time>
      </trkpt>
      <trkpt lat="47.29104" lon="-2.53184">
        <ele>93.599998474121</ele>
        <time>2020-07-30T09:04:21.000Z</time>
      </trkpt>
      <trkpt lat="47.29091" lon="-2.53141">
        <ele>93.599998474121</ele>
        <time>2020-07-30T09:04:28.000Z</time>
      </trkpt>
      <trkpt lat="47.29086" lon="-2.5313">
        <ele>93.599998474121</ele>
        <time>2020-07-30T09:04:30.000Z</time>
      </trkpt>
      <trkpt lat="47.29075" lon="-2.53105">
        <ele>93.599998474121</ele>
        <time>2020-07-30T09:04:35.000Z</time>
      </trkpt>
      <trkpt lat="47.29057" lon="-2.53063">
        <ele>93.599998474121</ele>
        <time>2020-07-30T09:04:43.000Z</time>
      </trkpt>
      <trkpt lat="47.29049" lon="-2.53042">
        <ele>93.599998474121</ele>
        <time>2020-07-30T09:04:49.000Z</time>
      </trkpt>
      <trkpt lat="47.29045" lon="-2.53031">
        <ele>93.599998474121</ele>
        <time>2020-07-30T09:04:55.000Z</time>
      </trkpt>
      <trkpt lat="47.29033" lon="-2.53011">
        <ele>93.599998474121</ele>
        <time>2020-07-30T09:05:02.000Z</time>
      </trkpt>
      <trkpt lat="47.29019" lon="-2.52984">
        <ele>93.599998474121</ele>
        <time>2020-07-30T09:05:08.000Z</time>
      </trkpt>
      <trkpt lat="47.29012" lon="-2.52967">
        <ele>93.599998474121</ele>
        <time>2020-07-30T09:05:11.000Z</time>
      </trkpt>
      <trkpt lat="47.29005" lon="-2.52943">
        <ele>93.599998474121</ele>
        <time>2020-07-30T09:05:15.000Z</time>
      </trkpt>
      <trkpt lat="47.29001" lon="-2.52931">
        <ele>94</ele>
        <time>2020-07-30T09:05:17.000Z</time>
      </trkpt>
      <trkpt lat="47.28999" lon="-2.52925">
        <ele>94.400001525879</ele>
        <time>2020-07-30T09:05:18.000Z</time>
      </trkpt>
      <trkpt lat="47.28997" lon="-2.52918">
        <ele>94.800003051758</ele>
        <time>2020-07-30T09:05:19.000Z</time>
      </trkpt>
      <trkpt lat="47.28995" lon="-2.52912">
        <ele>95.199996948242</ele>
        <time>2020-07-30T09:05:20.000Z</time>
      </trkpt>
      <trkpt lat="47.28993" lon="-2.52906">
        <ele>95.599998474121</ele>
        <time>2020-07-30T09:05:21.000Z</time>
      </trkpt>
      <trkpt lat="47.28987" lon="-2.52888">
        <ele>95.599998474121</ele>
        <time>2020-07-30T09:05:24.000Z</time>
      </trkpt>
      <trkpt lat="47.28983" lon="-2.52871">
        <ele>95.599998474121</ele>
        <time>2020-07-30T09:05:27.000Z</time>
      </trkpt>
      <trkpt lat="47.28981" lon="-2.52861">
        <ele>95.599998474121</ele>
        <time>2020-07-30T09:05:29.000Z</time>
      </trkpt>
      <trkpt lat="47.28973" lon="-2.52843">
        <ele>95.599998474121</ele>
        <time>2020-07-30T09:05:33.000Z</time>
      </trkpt>
      <trkpt lat="47.2896" lon="-2.52808">
        <ele>95.599998474121</ele>
        <time>2020-07-30T09:05:39.000Z</time>
      </trkpt>
      <trkpt lat="47.28952" lon="-2.52782">
        <ele>95.599998474121</ele>
        <time>2020-07-30T09:05:43.000Z</time>
      </trkpt>
      <trkpt lat="47.28949" lon="-2.52767">
        <ele>95.599998474121</ele>
        <time>2020-07-30T09:05:45.000Z</time>
      </trkpt>
      <trkpt lat="47.28946" lon="-2.52713">
        <ele>95.599998474121</ele>
        <time>2020-07-30T09:05:52.000Z</time>
      </trkpt>
      <trkpt lat="47.28944" lon="-2.52653">
        <ele>95.599998474121</ele>
        <time>2020-07-30T09:05:59.000Z</time>
      </trkpt>
      <trkpt lat="47.2894" lon="-2.52576">
        <ele>95.599998474121</ele>
        <time>2020-07-30T09:06:08.000Z</time>
      </trkpt>
      <trkpt lat="47.28936" lon="-2.52518">
        <ele>95.599998474121</ele>
        <time>2020-07-30T09:06:15.000Z</time>
      </trkpt>
      <trkpt lat="47.28934" lon="-2.5251">
        <ele>95.599998474121</ele>
        <time>2020-07-30T09:06:16.000Z</time>
      </trkpt>
      <trkpt lat="47.28927" lon="-2.52493">
        <ele>95.199996948242</ele>
        <time>2020-07-30T09:06:19.000Z</time>
      </trkpt>
      <trkpt lat="47.28924" lon="-2.52488">
        <ele>94.800003051758</ele>
        <time>2020-07-30T09:06:20.000Z</time>
      </trkpt>
      <trkpt lat="47.28922" lon="-2.52483">
        <ele>94.400001525879</ele>
        <time>2020-07-30T09:06:21.000Z</time>
      </trkpt>
      <trkpt lat="47.2892" lon="-2.52478">
        <ele>94</ele>
        <time>2020-07-30T09:06:22.000Z</time>
      </trkpt>
      <trkpt lat="47.2892" lon="-2.52472">
        <ele>93.599998474121</ele>
        <time>2020-07-30T09:06:23.000Z</time>
      </trkpt>
      <trkpt lat="47.2892" lon="-2.52466">
        <ele>93.599998474121</ele>
        <time>2020-07-30T09:06:24.000Z</time>
      </trkpt>
      <trkpt lat="47.2892" lon="-2.52453">
        <ele>93.599998474121</ele>
        <time>2020-07-30T09:06:26.000Z</time>
      </trkpt>
      <trkpt lat="47.28918" lon="-2.52441">
        <ele>93.599998474121</ele>
        <time>2020-07-30T09:06:28.000Z</time>
      </trkpt>
      <trkpt lat="47.28909" lon="-2.52391">
        <ele>93.599998474121</ele>
        <time>2020-07-30T09:06:35.000Z</time>
      </trkpt>
      <trkpt lat="47.28907" lon="-2.52338">
        <ele>93.599998474121</ele>
        <time>2020-07-30T09:06:42.000Z</time>
      </trkpt>
      <trkpt lat="47.28907" lon="-2.52323">
        <ele>93.599998474121</ele>
        <time>2020-07-30T09:06:44.000Z</time>
      </trkpt>
      <trkpt lat="47.28906" lon="-2.52285">
        <ele>93.599998474121</ele>
        <time>2020-07-30T09:06:49.000Z</time>
      </trkpt>
      <trkpt lat="47.28906" lon="-2.52241">
        <ele>93.599998474121</ele>
        <time>2020-07-30T09:06:55.000Z</time>
      </trkpt>
      <trkpt lat="47.28905" lon="-2.52236">
        <ele>93.599998474121</ele>
        <time>2020-07-30T09:06:56.000Z</time>
      </trkpt>
      <trkpt lat="47.28899" lon="-2.52219">
        <ele>93.599998474121</ele>
        <time>2020-07-30T09:07:00.000Z</time>
      </trkpt>
      <trkpt lat="47.28898" lon="-2.52216">
        <ele>93.599998474121</ele>
        <time>2020-07-30T09:07:01.000Z</time>
      </trkpt>
      <trkpt lat="47.28896" lon="-2.52207">
        <ele>93.599998474121</ele>
        <time>2020-07-30T09:07:04.000Z</time>
      </trkpt>
      <trkpt lat="47.289" lon="-2.52209">
        <ele>93.599998474121</ele>
        <time>2020-07-30T09:07:06.000Z</time>
      </trkpt>
      <trkpt lat="47.28902" lon="-2.52212">
        <ele>93.599998474121</ele>
        <time>2020-07-30T09:07:08.000Z</time>
      </trkpt>
      <trkpt lat="47.28904" lon="-2.52214">
        <ele>93.199996948242</ele>
        <time>2020-07-30T09:07:09.000Z</time>
      </trkpt>
      <trkpt lat="47.28906" lon="-2.52216">
        <ele>92.800003051758</ele>
        <time>2020-07-30T09:07:10.000Z</time>
      </trkpt>
      <trkpt lat="47.28908" lon="-2.52218">
        <ele>92.400001525879</ele>
        <time>2020-07-30T09:07:11.000Z</time>
      </trkpt>
      <trkpt lat="47.28911" lon="-2.52217">
        <ele>92</ele>
        <time>2020-07-30T09:07:12.000Z</time>
      </trkpt>
      <trkpt lat="47.28914" lon="-2.52217">
        <ele>91.599998474121</ele>
        <time>2020-07-30T09:07:13.000Z</time>
      </trkpt>
      <trkpt lat="47.28919" lon="-2.52213">
        <ele>91.599998474121</ele>
        <time>2020-07-30T09:07:15.000Z</time>
      </trkpt>
      <trkpt lat="47.28929" lon="-2.52199">
        <ele>91.599998474121</ele>
        <time>2020-07-30T09:07:19.000Z</time>
      </trkpt>
      <trkpt lat="47.28931" lon="-2.52194">
        <ele>91.599998474121</ele>
        <time>2020-07-30T09:07:20.000Z</time>
      </trkpt>
      <trkpt lat="47.28942" lon="-2.5217">
        <ele>91.599998474121</ele>
        <time>2020-07-30T09:07:26.000Z</time>
      </trkpt>
      <trkpt lat="47.28955" lon="-2.52147">
        <ele>91.599998474121</ele>
        <time>2020-07-30T09:07:31.000Z</time>
      </trkpt>
      <trkpt lat="47.28961" lon="-2.52138">
        <ele>91.599998474121</ele>
        <time>2020-07-30T09:07:33.000Z</time>
      </trkpt>
      <trkpt lat="47.28977" lon="-2.52107">
        <ele>91.599998474121</ele>
        <time>2020-07-30T09:07:40.000Z</time>
      </trkpt>
      <trkpt lat="47.28977" lon="-2.52087">
        <ele>91.599998474121</ele>
        <time>2020-07-30T09:07:44.000Z</time>
      </trkpt>
      <trkpt lat="47.2897" lon="-2.52069">
        <ele>91.599998474121</ele>
        <time>2020-07-30T09:07:48.000Z</time>
      </trkpt>
      <trkpt lat="47.28963" lon="-2.52046">
        <ele>91.599998474121</ele>
        <time>2020-07-30T09:07:53.000Z</time>
      </trkpt>
      <trkpt lat="47.28959" lon="-2.52009">
        <ele>91.599998474121</ele>
        <time>2020-07-30T09:07:59.000Z</time>
      </trkpt>
      <trkpt lat="47.28953" lon="-2.51966">
        <ele>91.599998474121</ele>
        <time>2020-07-30T09:08:06.000Z</time>
      </trkpt>
      <trkpt lat="47.28952" lon="-2.5196">
        <ele>91.599998474121</ele>
        <time>2020-07-30T09:08:07.000Z</time>
      </trkpt>
      <trkpt lat="47.28951" lon="-2.51947">
        <ele>91.599998474121</ele>
        <time>2020-07-30T09:08:09.000Z</time>
      </trkpt>
      <trkpt lat="47.28946" lon="-2.51914">
        <ele>91.599998474121</ele>
        <time>2020-07-30T09:08:14.000Z</time>
      </trkpt>
      <trkpt lat="47.28941" lon="-2.51879">
        <ele>91.599998474121</ele>
        <time>2020-07-30T09:08:21.000Z</time>
      </trkpt>
      <trkpt lat="47.28941" lon="-2.51873">
        <ele>91.599998474121</ele>
        <time>2020-07-30T09:08:26.000Z</time>
      </trkpt>
      <trkpt lat="47.2894" lon="-2.51871">
        <ele>91.599998474121</ele>
        <time>2020-07-30T09:08:27.000Z</time>
      </trkpt>
      <trkpt lat="47.28937" lon="-2.51858">
        <ele>91.599998474121</ele>
        <time>2020-07-30T09:08:30.000Z</time>
      </trkpt>
      <trkpt lat="47.28937" lon="-2.51852">
        <ele>91.599998474121</ele>
        <time>2020-07-30T09:08:31.000Z</time>
      </trkpt>
      <trkpt lat="47.28942" lon="-2.51836">
        <ele>91.599998474121</ele>
        <time>2020-07-30T09:08:34.000Z</time>
      </trkpt>
      <trkpt lat="47.28941" lon="-2.5183">
        <ele>91.599998474121</ele>
        <time>2020-07-30T09:08:35.000Z</time>
      </trkpt>
      <trkpt lat="47.28939" lon="-2.51807">
        <ele>91.599998474121</ele>
        <time>2020-07-30T09:08:40.000Z</time>
      </trkpt>
      <trkpt lat="47.28937" lon="-2.51783">
        <ele>91.599998474121</ele>
        <time>2020-07-30T09:08:47.000Z</time>
      </trkpt>
      <trkpt lat="47.28937" lon="-2.5176">
        <ele>91.599998474121</ele>
        <time>2020-07-30T09:08:54.000Z</time>
      </trkpt>
      <trkpt lat="47.28938" lon="-2.51753">
        <ele>91.599998474121</ele>
        <time>2020-07-30T09:08:57.000Z</time>
      </trkpt>
      <trkpt lat="47.2894" lon="-2.51751">
        <ele>91.599998474121</ele>
        <time>2020-07-30T09:08:59.000Z</time>
      </trkpt>
      <trkpt lat="47.28945" lon="-2.51747">
        <ele>91.599998474121</ele>
        <time>2020-07-30T09:09:03.000Z</time>
      </trkpt>
      <trkpt lat="47.28947" lon="-2.51748">
        <ele>91.599998474121</ele>
        <time>2020-07-30T09:09:05.000Z</time>
      </trkpt>
      <trkpt lat="47.28947" lon="-2.51747">
        <ele>91.599998474121</ele>
        <time>2020-07-30T09:09:06.000Z</time>
      </trkpt>
      <trkpt lat="47.28948" lon="-2.51748">
        <ele>91.599998474121</ele>
        <time>2020-07-30T09:09:14.000Z</time>
      </trkpt>
      <trkpt lat="47.28949" lon="-2.51751">
        <ele>91.599998474121</ele>
        <time>2020-07-30T09:09:16.000Z</time>
      </trkpt>
      <trkpt lat="47.2895" lon="-2.51757">
        <ele>91.599998474121</ele>
        <time>2020-07-30T09:09:19.000Z</time>
      </trkpt>
      <trkpt lat="47.28948" lon="-2.51762">
        <ele>91.599998474121</ele>
        <time>2020-07-30T09:09:21.000Z</time>
      </trkpt>
      <trkpt lat="47.2894" lon="-2.51781">
        <ele>91.599998474121</ele>
        <time>2020-07-30T09:09:27.000Z</time>
      </trkpt>
      <trkpt lat="47.2894" lon="-2.51795">
        <ele>91.599998474121</ele>
        <time>2020-07-30T09:09:31.000Z</time>
      </trkpt>
      <trkpt lat="47.28938" lon="-2.51809">
        <ele>91.599998474121</ele>
        <time>2020-07-30T09:09:37.000Z</time>
      </trkpt>
      <trkpt lat="47.28936" lon="-2.51815">
        <ele>91.599998474121</ele>
        <time>2020-07-30T09:09:42.000Z</time>
      </trkpt>
      <trkpt lat="47.28932" lon="-2.51818">
        <ele>91.599998474121</ele>
        <time>2020-07-30T09:09:46.000Z</time>
      </trkpt>
      <trkpt lat="47.28925" lon="-2.51832">
        <ele>91.599998474121</ele>
        <time>2020-07-30T09:09:50.000Z</time>
      </trkpt>
      <trkpt lat="47.28913" lon="-2.51836">
        <ele>91.599998474121</ele>
        <time>2020-07-30T09:09:54.000Z</time>
      </trkpt>
      <trkpt lat="47.28895" lon="-2.51828">
        <ele>91.599998474121</ele>
        <time>2020-07-30T09:09:59.000Z</time>
      </trkpt>
      <trkpt lat="47.28871" lon="-2.51819">
        <ele>91.599998474121</ele>
        <time>2020-07-30T09:10:06.000Z</time>
      </trkpt>
      <trkpt lat="47.28854" lon="-2.51812">
        <ele>91.599998474121</ele>
        <time>2020-07-30T09:10:11.000Z</time>
      </trkpt>
      <trkpt lat="47.2884" lon="-2.51811">
        <ele>91.599998474121</ele>
        <time>2020-07-30T09:10:16.000Z</time>
      </trkpt>
      <trkpt lat="47.28818" lon="-2.51812">
        <ele>91.599998474121</ele>
        <time>2020-07-30T09:10:21.000Z</time>
      </trkpt>
      <trkpt lat="47.28784" lon="-2.51817">
        <ele>91.599998474121</ele>
        <time>2020-07-30T09:10:27.000Z</time>
      </trkpt>
      <trkpt lat="47.28745" lon="-2.51832">
        <ele>91.599998474121</ele>
        <time>2020-07-30T09:10:34.000Z</time>
      </trkpt>
      <trkpt lat="47.28727" lon="-2.51838">
        <ele>91.599998474121</ele>
        <time>2020-07-30T09:10:37.000Z</time>
      </trkpt>
      <trkpt lat="47.28712" lon="-2.51838">
        <ele>91.599998474121</ele>
        <time>2020-07-30T09:10:40.000Z</time>
      </trkpt>
      <trkpt lat="47.28693" lon="-2.5183">
        <ele>91.599998474121</ele>
        <time>2020-07-30T09:10:44.000Z</time>
      </trkpt>
      <trkpt lat="47.28688" lon="-2.51828">
        <ele>91.599998474121</ele>
        <time>2020-07-30T09:10:45.000Z</time>
      </trkpt>
      <trkpt lat="47.2867" lon="-2.51814">
        <ele>91.599998474121</ele>
        <time>2020-07-30T09:10:50.000Z</time>
      </trkpt>
      <trkpt lat="47.28666" lon="-2.51811">
        <ele>91.199996948242</ele>
        <time>2020-07-30T09:10:51.000Z</time>
      </trkpt>
      <trkpt lat="47.28663" lon="-2.51808">
        <ele>90.800003051758</ele>
        <time>2020-07-30T09:10:52.000Z</time>
      </trkpt>
      <trkpt lat="47.28661" lon="-2.51805">
        <ele>90.400001525879</ele>
        <time>2020-07-30T09:10:53.000Z</time>
      </trkpt>
      <trkpt lat="47.28658" lon="-2.51803">
        <ele>90</ele>
        <time>2020-07-30T09:10:54.000Z</time>
      </trkpt>
      <trkpt lat="47.28656" lon="-2.51801">
        <ele>89.599998474121</ele>
        <time>2020-07-30T09:10:55.000Z</time>
      </trkpt>
      <trkpt lat="47.28654" lon="-2.51798">
        <ele>89.599998474121</ele>
        <time>2020-07-30T09:10:56.000Z</time>
      </trkpt>
      <trkpt lat="47.28637" lon="-2.51783">
        <ele>89.599998474121</ele>
        <time>2020-07-30T09:11:02.000Z</time>
      </trkpt>
      <trkpt lat="47.28618" lon="-2.51766">
        <ele>89.599998474121</ele>
        <time>2020-07-30T09:11:09.000Z</time>
      </trkpt>
      <trkpt lat="47.28601" lon="-2.51744">
        <ele>89.599998474121</ele>
        <time>2020-07-30T09:11:15.000Z</time>
      </trkpt>
      <trkpt lat="47.28597" lon="-2.51719">
        <ele>89.599998474121</ele>
        <time>2020-07-30T09:11:19.000Z</time>
      </trkpt>
      <trkpt lat="47.28596" lon="-2.51705">
        <ele>89.599998474121</ele>
        <time>2020-07-30T09:11:21.000Z</time>
      </trkpt>
      <trkpt lat="47.28591" lon="-2.51679">
        <ele>89.599998474121</ele>
        <time>2020-07-30T09:11:25.000Z</time>
      </trkpt>
      <trkpt lat="47.28584" lon="-2.51657">
        <ele>89.599998474121</ele>
        <time>2020-07-30T09:11:28.000Z</time>
      </trkpt>
      <trkpt lat="47.28579" lon="-2.51645">
        <ele>89.599998474121</ele>
        <time>2020-07-30T09:11:30.000Z</time>
      </trkpt>
      <trkpt lat="47.28565" lon="-2.51616">
        <ele>89.199996948242</ele>
        <time>2020-07-30T09:11:35.000Z</time>
      </trkpt>
      <trkpt lat="47.28564" lon="-2.51609">
        <ele>88.800003051758</ele>
        <time>2020-07-30T09:11:36.000Z</time>
      </trkpt>
      <trkpt lat="47.28563" lon="-2.51604">
        <ele>88.400001525879</ele>
        <time>2020-07-30T09:11:37.000Z</time>
      </trkpt>
      <trkpt lat="47.28562" lon="-2.51598">
        <ele>88</ele>
        <time>2020-07-30T09:11:38.000Z</time>
      </trkpt>
      <trkpt lat="47.28562" lon="-2.51592">
        <ele>87.599998474121</ele>
        <time>2020-07-30T09:11:39.000Z</time>
      </trkpt>
      <trkpt lat="47.28562" lon="-2.51585">
        <ele>87.599998474121</ele>
        <time>2020-07-30T09:11:40.000Z</time>
      </trkpt>
      <trkpt lat="47.28563" lon="-2.51579">
        <ele>87.599998474121</ele>
        <time>2020-07-30T09:11:41.000Z</time>
      </trkpt>
      <trkpt lat="47.28562" lon="-2.51535">
        <ele>87.599998474121</ele>
        <time>2020-07-30T09:11:48.000Z</time>
      </trkpt>
      <trkpt lat="47.28557" lon="-2.51529">
        <ele>87.599998474121</ele>
        <time>2020-07-30T09:11:50.000Z</time>
      </trkpt>
      <trkpt lat="47.28553" lon="-2.51528">
        <ele>87.599998474121</ele>
        <time>2020-07-30T09:11:51.000Z</time>
      </trkpt>
      <trkpt lat="47.28533" lon="-2.51514">
        <ele>87.599998474121</ele>
        <time>2020-07-30T09:11:58.000Z</time>
      </trkpt>
      <trkpt lat="47.28522" lon="-2.51503">
        <ele>87.599998474121</ele>
        <time>2020-07-30T09:12:04.000Z</time>
      </trkpt>
      <trkpt lat="47.28515" lon="-2.51493">
        <ele>87.599998474121</ele>
        <time>2020-07-30T09:12:06.000Z</time>
      </trkpt>
      <trkpt lat="47.28512" lon="-2.51488">
        <ele>87.599998474121</ele>
        <time>2020-07-30T09:12:07.000Z</time>
      </trkpt>
      <trkpt lat="47.28489" lon="-2.51462">
        <ele>87.599998474121</ele>
        <time>2020-07-30T09:12:14.000Z</time>
      </trkpt>
      <trkpt lat="47.28464" lon="-2.51437">
        <ele>87.599998474121</ele>
        <time>2020-07-30T09:12:22.000Z</time>
      </trkpt>
      <trkpt lat="47.28451" lon="-2.51412">
        <ele>87.599998474121</ele>
        <time>2020-07-30T09:12:28.000Z</time>
      </trkpt>
      <trkpt lat="47.28447" lon="-2.51401">
        <ele>87.599998474121</ele>
        <time>2020-07-30T09:12:30.000Z</time>
      </trkpt>
      <trkpt lat="47.28444" lon="-2.51381">
        <ele>87.599998474121</ele>
        <time>2020-07-30T09:12:33.000Z</time>
      </trkpt>
      <trkpt lat="47.28443" lon="-2.51368">
        <ele>87.599998474121</ele>
        <time>2020-07-30T09:12:35.000Z</time>
      </trkpt>
      <trkpt lat="47.28442" lon="-2.51362">
        <ele>87.599998474121</ele>
        <time>2020-07-30T09:12:36.000Z</time>
      </trkpt>
      <trkpt lat="47.28441" lon="-2.5135">
        <ele>87.599998474121</ele>
        <time>2020-07-30T09:12:38.000Z</time>
      </trkpt>
      <trkpt lat="47.28439" lon="-2.51338">
        <ele>87.599998474121</ele>
        <time>2020-07-30T09:12:40.000Z</time>
      </trkpt>
      <trkpt lat="47.28433" lon="-2.51317">
        <ele>87.599998474121</ele>
        <time>2020-07-30T09:12:44.000Z</time>
      </trkpt>
      <trkpt lat="47.28428" lon="-2.51307">
        <ele>87.599998474121</ele>
        <time>2020-07-30T09:12:46.000Z</time>
      </trkpt>
      <trkpt lat="47.28414" lon="-2.51283">
        <ele>87.599998474121</ele>
        <time>2020-07-30T09:12:51.000Z</time>
      </trkpt>
      <trkpt lat="47.28407" lon="-2.51275">
        <ele>87.599998474121</ele>
        <time>2020-07-30T09:12:53.000Z</time>
      </trkpt>
      <trkpt lat="47.28372" lon="-2.51248">
        <ele>87.599998474121</ele>
        <time>2020-07-30T09:13:01.000Z</time>
      </trkpt>
      <trkpt lat="47.28335" lon="-2.51223">
        <ele>87.599998474121</ele>
        <time>2020-07-30T09:13:09.000Z</time>
      </trkpt>
      <trkpt lat="47.28313" lon="-2.51207">
        <ele>87.599998474121</ele>
        <time>2020-07-30T09:13:14.000Z</time>
      </trkpt>
      <trkpt lat="47.2831" lon="-2.51202">
        <ele>87.599998474121</ele>
        <time>2020-07-30T09:13:15.000Z</time>
      </trkpt>
      <trkpt lat="47.28295" lon="-2.5117">
        <ele>87.599998474121</ele>
        <time>2020-07-30T09:13:20.000Z</time>
      </trkpt>
      <trkpt lat="47.28274" lon="-2.51106">
        <ele>87.599998474121</ele>
        <time>2020-07-30T09:13:29.000Z</time>
      </trkpt>
      <trkpt lat="47.28257" lon="-2.51061">
        <ele>87.599998474121</ele>
        <time>2020-07-30T09:13:36.000Z</time>
      </trkpt>
      <trkpt lat="47.28245" lon="-2.51012">
        <ele>87.599998474121</ele>
        <time>2020-07-30T09:13:43.000Z</time>
      </trkpt>
      <trkpt lat="47.28239" lon="-2.50965">
        <ele>87.599998474121</ele>
        <time>2020-07-30T09:13:50.000Z</time>
      </trkpt>
      <trkpt lat="47.28232" lon="-2.50914">
        <ele>87.599998474121</ele>
        <time>2020-07-30T09:13:58.000Z</time>
      </trkpt>
      <trkpt lat="47.28222" lon="-2.50861">
        <ele>87.599998474121</ele>
        <time>2020-07-30T09:14:06.000Z</time>
      </trkpt>
      <trkpt lat="47.28217" lon="-2.50841">
        <ele>87.599998474121</ele>
        <time>2020-07-30T09:14:09.000Z</time>
      </trkpt>
      <trkpt lat="47.28214" lon="-2.50829">
        <ele>87.599998474121</ele>
        <time>2020-07-30T09:14:11.000Z</time>
      </trkpt>
      <trkpt lat="47.28212" lon="-2.50823">
        <ele>87.599998474121</ele>
        <time>2020-07-30T09:14:12.000Z</time>
      </trkpt>
      <trkpt lat="47.28208" lon="-2.50781">
        <ele>87.599998474121</ele>
        <time>2020-07-30T09:14:19.000Z</time>
      </trkpt>
      <trkpt lat="47.28202" lon="-2.50732">
        <ele>87.599998474121</ele>
        <time>2020-07-30T09:14:28.000Z</time>
      </trkpt>
      <trkpt lat="47.28202" lon="-2.50726">
        <ele>87.599998474121</ele>
        <time>2020-07-30T09:14:29.000Z</time>
      </trkpt>
      <trkpt lat="47.28207" lon="-2.50709">
        <ele>87.599998474121</ele>
        <time>2020-07-30T09:14:32.000Z</time>
      </trkpt>
      <trkpt lat="47.28212" lon="-2.50683">
        <ele>87.599998474121</ele>
        <time>2020-07-30T09:14:36.000Z</time>
      </trkpt>
      <trkpt lat="47.28213" lon="-2.50676">
        <ele>87.599998474121</ele>
        <time>2020-07-30T09:14:37.000Z</time>
      </trkpt>
      <trkpt lat="47.28226" lon="-2.50621">
        <ele>87.599998474121</ele>
        <time>2020-07-30T09:14:45.000Z</time>
      </trkpt>
      <trkpt lat="47.28239" lon="-2.50571">
        <ele>87.599998474121</ele>
        <time>2020-07-30T09:14:52.000Z</time>
      </trkpt>
      <trkpt lat="47.28252" lon="-2.50514">
        <ele>87.599998474121</ele>
        <time>2020-07-30T09:15:00.000Z</time>
      </trkpt>
      <trkpt lat="47.28269" lon="-2.5045">
        <ele>87.599998474121</ele>
        <time>2020-07-30T09:15:09.000Z</time>
      </trkpt>
      <trkpt lat="47.28279" lon="-2.50392">
        <ele>87.599998474121</ele>
        <time>2020-07-30T09:15:17.000Z</time>
      </trkpt>
      <trkpt lat="47.28279" lon="-2.50362">
        <ele>87.599998474121</ele>
        <time>2020-07-30T09:15:21.000Z</time>
      </trkpt>
      <trkpt lat="47.28279" lon="-2.50354">
        <ele>87.599998474121</ele>
        <time>2020-07-30T09:15:22.000Z</time>
      </trkpt>
      <trkpt lat="47.28273" lon="-2.5031">
        <ele>87.599998474121</ele>
        <time>2020-07-30T09:15:28.000Z</time>
      </trkpt>
      <trkpt lat="47.28264" lon="-2.50284">
        <ele>87.199996948242</ele>
        <time>2020-07-30T09:15:33.000Z</time>
      </trkpt>
      <trkpt lat="47.28262" lon="-2.5028">
        <ele>86.800003051758</ele>
        <time>2020-07-30T09:15:34.000Z</time>
      </trkpt>
      <trkpt lat="47.2826" lon="-2.50275">
        <ele>86.400001525879</ele>
        <time>2020-07-30T09:15:35.000Z</time>
      </trkpt>
      <trkpt lat="47.28258" lon="-2.50271">
        <ele>85.800003051758</ele>
        <time>2020-07-30T09:15:36.000Z</time>
      </trkpt>
      <trkpt lat="47.28255" lon="-2.50266">
        <ele>85.400001525879</ele>
        <time>2020-07-30T09:15:37.000Z</time>
      </trkpt>
      <trkpt lat="47.28249" lon="-2.50257">
        <ele>85.400001525879</ele>
        <time>2020-07-30T09:15:39.000Z</time>
      </trkpt>
      <trkpt lat="47.28235" lon="-2.50239">
        <ele>85.400001525879</ele>
        <time>2020-07-30T09:15:44.000Z</time>
      </trkpt>
      <trkpt lat="47.28223" lon="-2.50218">
        <ele>85.400001525879</ele>
        <time>2020-07-30T09:15:50.000Z</time>
      </trkpt>
      <trkpt lat="47.28221" lon="-2.50213">
        <ele>85.400001525879</ele>
        <time>2020-07-30T09:15:51.000Z</time>
      </trkpt>
      <trkpt lat="47.28212" lon="-2.5019">
        <ele>85.400001525879</ele>
        <time>2020-07-30T09:15:55.000Z</time>
      </trkpt>
      <trkpt lat="47.28202" lon="-2.50153">
        <ele>85.400001525879</ele>
        <time>2020-07-30T09:16:02.000Z</time>
      </trkpt>
      <trkpt lat="47.28196" lon="-2.50113">
        <ele>85.400001525879</ele>
        <time>2020-07-30T09:16:09.000Z</time>
      </trkpt>
      <trkpt lat="47.28188" lon="-2.50076">
        <ele>85.400001525879</ele>
        <time>2020-07-30T09:16:15.000Z</time>
      </trkpt>
      <trkpt lat="47.28181" lon="-2.50041">
        <ele>85.400001525879</ele>
        <time>2020-07-30T09:16:21.000Z</time>
      </trkpt>
      <trkpt lat="47.2818" lon="-2.50036">
        <ele>85.400001525879</ele>
        <time>2020-07-30T09:16:22.000Z</time>
      </trkpt>
      <trkpt lat="47.28174" lon="-2.50007">
        <ele>85.400001525879</ele>
        <time>2020-07-30T09:16:27.000Z</time>
      </trkpt>
      <trkpt lat="47.28172" lon="-2.49995">
        <ele>85.400001525879</ele>
        <time>2020-07-30T09:16:29.000Z</time>
      </trkpt>
      <trkpt lat="47.28167" lon="-2.49963">
        <ele>85.400001525879</ele>
        <time>2020-07-30T09:16:34.000Z</time>
      </trkpt>
      <trkpt lat="47.28166" lon="-2.49957">
        <ele>85.400001525879</ele>
        <time>2020-07-30T09:16:35.000Z</time>
      </trkpt>
      <trkpt lat="47.2816" lon="-2.49934">
        <ele>85.400001525879</ele>
        <time>2020-07-30T09:16:39.000Z</time>
      </trkpt>
      <trkpt lat="47.28157" lon="-2.49901">
        <ele>85.400001525879</ele>
        <time>2020-07-30T09:16:45.000Z</time>
      </trkpt>
      <trkpt lat="47.28154" lon="-2.49869">
        <ele>85.400001525879</ele>
        <time>2020-07-30T09:16:50.000Z</time>
      </trkpt>
      <trkpt lat="47.28149" lon="-2.49842">
        <ele>85.400001525879</ele>
        <time>2020-07-30T09:16:56.000Z</time>
      </trkpt>
      <trkpt lat="47.28147" lon="-2.49822">
        <ele>85.400001525879</ele>
        <time>2020-07-30T09:17:02.000Z</time>
      </trkpt>
      <trkpt lat="47.28144" lon="-2.49793">
        <ele>85.400001525879</ele>
        <time>2020-07-30T09:17:07.000Z</time>
      </trkpt>
      <trkpt lat="47.28143" lon="-2.49786">
        <ele>85.400001525879</ele>
        <time>2020-07-30T09:17:08.000Z</time>
      </trkpt>
      <trkpt lat="47.28138" lon="-2.49756">
        <ele>86</ele>
        <time>2020-07-30T09:17:12.000Z</time>
      </trkpt>
      <trkpt lat="47.28138" lon="-2.49749">
        <ele>86.400001525879</ele>
        <time>2020-07-30T09:17:13.000Z</time>
      </trkpt>
      <trkpt lat="47.28137" lon="-2.49741">
        <ele>87</ele>
        <time>2020-07-30T09:17:14.000Z</time>
      </trkpt>
      <trkpt lat="47.28136" lon="-2.49734">
        <ele>87.400001525879</ele>
        <time>2020-07-30T09:17:15.000Z</time>
      </trkpt>
      <trkpt lat="47.28135" lon="-2.49727">
        <ele>88</ele>
        <time>2020-07-30T09:17:16.000Z</time>
      </trkpt>
      <trkpt lat="47.2813" lon="-2.4969">
        <ele>88</ele>
        <time>2020-07-30T09:17:21.000Z</time>
      </trkpt>
      <trkpt lat="47.28122" lon="-2.49651">
        <ele>88</ele>
        <time>2020-07-30T09:17:27.000Z</time>
      </trkpt>
      <trkpt lat="47.28107" lon="-2.49626">
        <ele>88</ele>
        <time>2020-07-30T09:17:32.000Z</time>
      </trkpt>
      <trkpt lat="47.28086" lon="-2.49594">
        <ele>88</ele>
        <time>2020-07-30T09:17:39.000Z</time>
      </trkpt>
      <trkpt lat="47.28064" lon="-2.49562">
        <ele>88</ele>
        <time>2020-07-30T09:17:45.000Z</time>
      </trkpt>
      <trkpt lat="47.28045" lon="-2.49538">
        <ele>88</ele>
        <time>2020-07-30T09:17:52.000Z</time>
      </trkpt>
      <trkpt lat="47.28033" lon="-2.49524">
        <ele>88</ele>
        <time>2020-07-30T09:17:58.000Z</time>
      </trkpt>
      <trkpt lat="47.28027" lon="-2.49514">
        <ele>88</ele>
        <time>2020-07-30T09:18:03.000Z</time>
      </trkpt>
      <trkpt lat="47.28027" lon="-2.49507">
        <ele>88</ele>
        <time>2020-07-30T09:18:06.000Z</time>
      </trkpt>
      <trkpt lat="47.28028" lon="-2.49501">
        <ele>88</ele>
        <time>2020-07-30T09:18:25.000Z</time>
      </trkpt>
      <trkpt lat="47.28029" lon="-2.49497">
        <ele>88</ele>
        <time>2020-07-30T09:18:28.000Z</time>
      </trkpt>
      <trkpt lat="47.28029" lon="-2.49495">
        <ele>88</ele>
        <time>2020-07-30T09:18:30.000Z</time>
      </trkpt>
      <trkpt lat="47.28029" lon="-2.49493">
        <ele>88</ele>
        <time>2020-07-30T09:18:33.000Z</time>
      </trkpt>
      <trkpt lat="47.28029" lon="-2.49487">
        <ele>88</ele>
        <time>2020-07-30T09:18:41.000Z</time>
      </trkpt>
      <trkpt lat="47.28029" lon="-2.4948">
        <ele>88</ele>
        <time>2020-07-30T09:18:43.000Z</time>
      </trkpt>
      <trkpt lat="47.28028" lon="-2.49462">
        <ele>88</ele>
        <time>2020-07-30T09:18:47.000Z</time>
      </trkpt>
      <trkpt lat="47.28021" lon="-2.49439">
        <ele>88</ele>
        <time>2020-07-30T09:18:52.000Z</time>
      </trkpt>
      <trkpt lat="47.28016" lon="-2.49425">
        <ele>88.400001525879</ele>
        <time>2020-07-30T09:18:55.000Z</time>
      </trkpt>
      <trkpt lat="47.28015" lon="-2.49419">
        <ele>89</ele>
        <time>2020-07-30T09:18:56.000Z</time>
      </trkpt>
      <trkpt lat="47.28015" lon="-2.49412">
        <ele>89.400001525879</ele>
        <time>2020-07-30T09:18:57.000Z</time>
      </trkpt>
      <trkpt lat="47.28014" lon="-2.49406">
        <ele>90</ele>
        <time>2020-07-30T09:18:58.000Z</time>
      </trkpt>
      <trkpt lat="47.28013" lon="-2.49399">
        <ele>90.400001525879</ele>
        <time>2020-07-30T09:18:59.000Z</time>
      </trkpt>
      <trkpt lat="47.28011" lon="-2.4937">
        <ele>90.400001525879</ele>
        <time>2020-07-30T09:19:03.000Z</time>
      </trkpt>
      <trkpt lat="47.2801" lon="-2.49363">
        <ele>90.400001525879</ele>
        <time>2020-07-30T09:19:04.000Z</time>
      </trkpt>
      <trkpt lat="47.27999" lon="-2.4933">
        <ele>90.400001525879</ele>
        <time>2020-07-30T09:19:09.000Z</time>
      </trkpt>
      <trkpt lat="47.27997" lon="-2.49316">
        <ele>90</ele>
        <time>2020-07-30T09:19:11.000Z</time>
      </trkpt>
      <trkpt lat="47.27995" lon="-2.49309">
        <ele>89.599998474121</ele>
        <time>2020-07-30T09:19:12.000Z</time>
      </trkpt>
      <trkpt lat="47.27993" lon="-2.49303">
        <ele>89</ele>
        <time>2020-07-30T09:19:13.000Z</time>
      </trkpt>
      <trkpt lat="47.27991" lon="-2.49296">
        <ele>88.599998474121</ele>
        <time>2020-07-30T09:19:14.000Z</time>
      </trkpt>
      <trkpt lat="47.2799" lon="-2.4929">
        <ele>88.199996948242</ele>
        <time>2020-07-30T09:19:15.000Z</time>
      </trkpt>
      <trkpt lat="47.27989" lon="-2.49283">
        <ele>88.199996948242</ele>
        <time>2020-07-30T09:19:16.000Z</time>
      </trkpt>
      <trkpt lat="47.27983" lon="-2.4924">
        <ele>88.199996948242</ele>
        <time>2020-07-30T09:19:22.000Z</time>
      </trkpt>
      <trkpt lat="47.27976" lon="-2.49208">
        <ele>88.199996948242</ele>
        <time>2020-07-30T09:19:27.000Z</time>
      </trkpt>
      <trkpt lat="47.27972" lon="-2.49185">
        <ele>88.199996948242</ele>
        <time>2020-07-30T09:19:31.000Z</time>
      </trkpt>
      <trkpt lat="47.27969" lon="-2.49174">
        <ele>88.199996948242</ele>
        <time>2020-07-30T09:19:33.000Z</time>
      </trkpt>
      <trkpt lat="47.27967" lon="-2.49168">
        <ele>88.199996948242</ele>
        <time>2020-07-30T09:19:34.000Z</time>
      </trkpt>
      <trkpt lat="47.27965" lon="-2.49162">
        <ele>88.199996948242</ele>
        <time>2020-07-30T09:19:35.000Z</time>
      </trkpt>
      <trkpt lat="47.27965" lon="-2.49136">
        <ele>88.199996948242</ele>
        <time>2020-07-30T09:19:39.000Z</time>
      </trkpt>
      <trkpt lat="47.27966" lon="-2.49123">
        <ele>88.199996948242</ele>
        <time>2020-07-30T09:19:41.000Z</time>
      </trkpt>
      <trkpt lat="47.27968" lon="-2.49106">
        <ele>88.199996948242</ele>
        <time>2020-07-30T09:19:44.000Z</time>
      </trkpt>
      <trkpt lat="47.27979" lon="-2.49081">
        <ele>88.199996948242</ele>
        <time>2020-07-30T09:19:50.000Z</time>
      </trkpt>
      <trkpt lat="47.27992" lon="-2.49068">
        <ele>87.800003051758</ele>
        <time>2020-07-30T09:19:55.000Z</time>
      </trkpt>
      <trkpt lat="47.27996" lon="-2.49067">
        <ele>87.199996948242</ele>
        <time>2020-07-30T09:19:56.000Z</time>
      </trkpt>
      <trkpt lat="47.27999" lon="-2.49065">
        <ele>86.800003051758</ele>
        <time>2020-07-30T09:19:57.000Z</time>
      </trkpt>
      <trkpt lat="47.28002" lon="-2.49063">
        <ele>86.400001525879</ele>
        <time>2020-07-30T09:19:58.000Z</time>
      </trkpt>
      <trkpt lat="47.28005" lon="-2.49062">
        <ele>86</ele>
        <time>2020-07-30T09:19:59.000Z</time>
      </trkpt>
      <trkpt lat="47.28007" lon="-2.49059">
        <ele>86</ele>
        <time>2020-07-30T09:20:00.000Z</time>
      </trkpt>
      <trkpt lat="47.28008" lon="-2.49054">
        <ele>86</ele>
        <time>2020-07-30T09:20:01.000Z</time>
      </trkpt>
      <trkpt lat="47.28007" lon="-2.49036">
        <ele>86</ele>
        <time>2020-07-30T09:20:05.000Z</time>
      </trkpt>
      <trkpt lat="47.28006" lon="-2.49031">
        <ele>86</ele>
        <time>2020-07-30T09:20:06.000Z</time>
      </trkpt>
      <trkpt lat="47.27996" lon="-2.4899">
        <ele>86</ele>
        <time>2020-07-30T09:20:14.000Z</time>
      </trkpt>
      <trkpt lat="47.27991" lon="-2.4895">
        <ele>86</ele>
        <time>2020-07-30T09:20:21.000Z</time>
      </trkpt>
      <trkpt lat="47.27988" lon="-2.48919">
        <ele>86</ele>
        <time>2020-07-30T09:20:27.000Z</time>
      </trkpt>
      <trkpt lat="47.27987" lon="-2.48911">
        <ele>86</ele>
        <time>2020-07-30T09:20:31.000Z</time>
      </trkpt>
      <trkpt lat="47.27986" lon="-2.48905">
        <ele>86</ele>
        <time>2020-07-30T09:20:37.000Z</time>
      </trkpt>
      <trkpt lat="47.27986" lon="-2.48897">
        <ele>86</ele>
        <time>2020-07-30T09:20:44.000Z</time>
      </trkpt>
      <trkpt lat="47.27986" lon="-2.48893">
        <ele>86</ele>
        <time>2020-07-30T09:20:47.000Z</time>
      </trkpt>
      <trkpt lat="47.27985" lon="-2.48887">
        <ele>86</ele>
        <time>2020-07-30T09:20:51.000Z</time>
      </trkpt>
      <trkpt lat="47.27985" lon="-2.48875">
        <ele>86</ele>
        <time>2020-07-30T09:20:56.000Z</time>
      </trkpt>
      <trkpt lat="47.27986" lon="-2.48854">
        <ele>87</ele>
        <time>2020-07-30T09:21:02.000Z</time>
      </trkpt>
      <trkpt lat="47.27985" lon="-2.48851">
        <ele>87.400001525879</ele>
        <time>2020-07-30T09:21:03.000Z</time>
      </trkpt>
      <trkpt lat="47.27985" lon="-2.4885">
        <ele>87.800003051758</ele>
        <time>2020-07-30T09:21:04.000Z</time>
      </trkpt>
      <trkpt lat="47.27984" lon="-2.48848">
        <ele>88.199996948242</ele>
        <time>2020-07-30T09:21:05.000Z</time>
      </trkpt>
      <trkpt lat="47.27983" lon="-2.48847">
        <ele>88.199996948242</ele>
        <time>2020-07-30T09:21:06.000Z</time>
      </trkpt>
      <trkpt lat="47.27981" lon="-2.48846">
        <ele>88.199996948242</ele>
        <time>2020-07-30T09:21:09.000Z</time>
      </trkpt>
      <trkpt lat="47.27979" lon="-2.48847">
        <ele>88.199996948242</ele>
        <time>2020-07-30T09:21:17.000Z</time>
      </trkpt>
      <trkpt lat="47.27977" lon="-2.48849">
        <ele>88.199996948242</ele>
        <time>2020-07-30T09:21:18.000Z</time>
      </trkpt>
      <trkpt lat="47.2797" lon="-2.48863">
        <ele>88.199996948242</ele>
        <time>2020-07-30T09:21:22.000Z</time>
      </trkpt>
      <trkpt lat="47.27961" lon="-2.48885">
        <ele>88.199996948242</ele>
        <time>2020-07-30T09:21:27.000Z</time>
      </trkpt>
      <trkpt lat="47.2796" lon="-2.48891">
        <ele>88.199996948242</ele>
        <time>2020-07-30T09:21:28.000Z</time>
      </trkpt>
      <trkpt lat="47.27958" lon="-2.48907">
        <ele>88.199996948242</ele>
        <time>2020-07-30T09:21:31.000Z</time>
      </trkpt>
      <trkpt lat="47.27954" lon="-2.48923">
        <ele>88.199996948242</ele>
        <time>2020-07-30T09:21:34.000Z</time>
      </trkpt>
      <trkpt lat="47.27951" lon="-2.48933">
        <ele>88.199996948242</ele>
        <time>2020-07-30T09:21:36.000Z</time>
      </trkpt>
      <trkpt lat="47.2794" lon="-2.48954">
        <ele>88.199996948242</ele>
        <time>2020-07-30T09:21:40.000Z</time>
      </trkpt>
      <trkpt lat="47.2793" lon="-2.48992">
        <ele>88.199996948242</ele>
        <time>2020-07-30T09:21:46.000Z</time>
      </trkpt>
      <trkpt lat="47.27921" lon="-2.49028">
        <ele>88.199996948242</ele>
        <time>2020-07-30T09:21:52.000Z</time>
      </trkpt>
      <trkpt lat="47.2791" lon="-2.49056">
        <ele>88.199996948242</ele>
        <time>2020-07-30T09:21:57.000Z</time>
      </trkpt>
      <trkpt lat="47.27908" lon="-2.49062">
        <ele>88.199996948242</ele>
        <time>2020-07-30T09:21:58.000Z</time>
      </trkpt>
      <trkpt lat="47.27899" lon="-2.49103">
        <ele>88.199996948242</ele>
        <time>2020-07-30T09:22:04.000Z</time>
      </trkpt>
      <trkpt lat="47.27884" lon="-2.49144">
        <ele>88.199996948242</ele>
        <time>2020-07-30T09:22:11.000Z</time>
      </trkpt>
      <trkpt lat="47.27875" lon="-2.49164">
        <ele>88.199996948242</ele>
        <time>2020-07-30T09:22:15.000Z</time>
      </trkpt>
      <trkpt lat="47.27861" lon="-2.49209">
        <ele>88.199996948242</ele>
        <time>2020-07-30T09:22:22.000Z</time>
      </trkpt>
      <trkpt lat="47.27847" lon="-2.49263">
        <ele>88.199996948242</ele>
        <time>2020-07-30T09:22:30.000Z</time>
      </trkpt>
      <trkpt lat="47.27844" lon="-2.49275">
        <ele>88.199996948242</ele>
        <time>2020-07-30T09:22:34.000Z</time>
      </trkpt>
      <trkpt lat="47.27843" lon="-2.4928">
        <ele>88.199996948242</ele>
        <time>2020-07-30T09:22:36.000Z</time>
      </trkpt>
      <trkpt lat="47.27834" lon="-2.49281">
        <ele>88.199996948242</ele>
        <time>2020-07-30T09:22:39.000Z</time>
      </trkpt>
      <trkpt lat="47.27827" lon="-2.49277">
        <ele>88.199996948242</ele>
        <time>2020-07-30T09:22:41.000Z</time>
      </trkpt>
      <trkpt lat="47.2781" lon="-2.49269">
        <ele>88.199996948242</ele>
        <time>2020-07-30T09:22:45.000Z</time>
      </trkpt>
      <trkpt lat="47.27777" lon="-2.49263">
        <ele>88.199996948242</ele>
        <time>2020-07-30T09:22:51.000Z</time>
      </trkpt>
      <trkpt lat="47.2772" lon="-2.4926">
        <ele>88.599998474121</ele>
        <time>2020-07-30T09:23:00.000Z</time>
      </trkpt>
      <trkpt lat="47.27714" lon="-2.4926">
        <ele>89</ele>
        <time>2020-07-30T09:23:01.000Z</time>
      </trkpt>
      <trkpt lat="47.27708" lon="-2.49259">
        <ele>89.400001525879</ele>
        <time>2020-07-30T09:23:02.000Z</time>
      </trkpt>
      <trkpt lat="47.27702" lon="-2.49259">
        <ele>89.800003051758</ele>
        <time>2020-07-30T09:23:03.000Z</time>
      </trkpt>
      <trkpt lat="47.27697" lon="-2.49258">
        <ele>90.199996948242</ele>
        <time>2020-07-30T09:23:04.000Z</time>
      </trkpt>
      <trkpt lat="47.2768" lon="-2.49255">
        <ele>90.199996948242</ele>
        <time>2020-07-30T09:23:07.000Z</time>
      </trkpt>
      <trkpt lat="47.27665" lon="-2.49248">
        <ele>90.199996948242</ele>
        <time>2020-07-30T09:23:10.000Z</time>
      </trkpt>
      <trkpt lat="47.27656" lon="-2.49243">
        <ele>90.199996948242</ele>
        <time>2020-07-30T09:23:12.000Z</time>
      </trkpt>
      <trkpt lat="47.27639" lon="-2.49242">
        <ele>90.199996948242</ele>
        <time>2020-07-30T09:23:16.000Z</time>
      </trkpt>
      <trkpt lat="47.27637" lon="-2.4924">
        <ele>90.199996948242</ele>
        <time>2020-07-30T09:23:17.000Z</time>
      </trkpt>
      <trkpt lat="47.27632" lon="-2.49232">
        <ele>90.199996948242</ele>
        <time>2020-07-30T09:23:19.000Z</time>
      </trkpt>
      <trkpt lat="47.27618" lon="-2.49206">
        <ele>90.199996948242</ele>
        <time>2020-07-30T09:23:24.000Z</time>
      </trkpt>
      <trkpt lat="47.27611" lon="-2.49195">
        <ele>90.199996948242</ele>
        <time>2020-07-30T09:23:26.000Z</time>
      </trkpt>
      <trkpt lat="47.27598" lon="-2.49171">
        <ele>90.199996948242</ele>
        <time>2020-07-30T09:23:30.000Z</time>
      </trkpt>
      <trkpt lat="47.27593" lon="-2.49158">
        <ele>90.199996948242</ele>
        <time>2020-07-30T09:23:32.000Z</time>
      </trkpt>
      <trkpt lat="47.27586" lon="-2.4913">
        <ele>90.199996948242</ele>
        <time>2020-07-30T09:23:36.000Z</time>
      </trkpt>
      <trkpt lat="47.27585" lon="-2.49115">
        <ele>90.199996948242</ele>
        <time>2020-07-30T09:23:38.000Z</time>
      </trkpt>
      <trkpt lat="47.27584" lon="-2.49057">
        <ele>90.199996948242</ele>
        <time>2020-07-30T09:23:45.000Z</time>
      </trkpt>
      <trkpt lat="47.27587" lon="-2.49017">
        <ele>90.199996948242</ele>
        <time>2020-07-30T09:23:51.000Z</time>
      </trkpt>
      <trkpt lat="47.27588" lon="-2.49">
        <ele>90.199996948242</ele>
        <time>2020-07-30T09:23:56.000Z</time>
      </trkpt>
      <trkpt lat="47.27581" lon="-2.48995">
        <ele>90.199996948242</ele>
        <time>2020-07-30T09:23:59.000Z</time>
      </trkpt>
      <trkpt lat="47.27565" lon="-2.48998">
        <ele>90.199996948242</ele>
        <time>2020-07-30T09:24:04.000Z</time>
      </trkpt>
      <trkpt lat="47.27546" lon="-2.49006">
        <ele>90.199996948242</ele>
        <time>2020-07-30T09:24:11.000Z</time>
      </trkpt>
      <trkpt lat="47.27534" lon="-2.49007">
        <ele>90.199996948242</ele>
        <time>2020-07-30T09:24:20.000Z</time>
      </trkpt>
      <trkpt lat="47.27531" lon="-2.48994">
        <ele>90.199996948242</ele>
        <time>2020-07-30T09:24:24.000Z</time>
      </trkpt>
      <trkpt lat="47.27531" lon="-2.48992">
        <ele>89.800003051758</ele>
        <time>2020-07-30T09:24:25.000Z</time>
      </trkpt>
      <trkpt lat="47.27532" lon="-2.48989">
        <ele>89.400001525879</ele>
        <time>2020-07-30T09:24:26.000Z</time>
      </trkpt>
      <trkpt lat="47.27532" lon="-2.48986">
        <ele>89</ele>
        <time>2020-07-30T09:24:27.000Z</time>
      </trkpt>
      <trkpt lat="47.27532" lon="-2.48982">
        <ele>88.599998474121</ele>
        <time>2020-07-30T09:24:28.000Z</time>
      </trkpt>
      <trkpt lat="47.27531" lon="-2.48978">
        <ele>88.199996948242</ele>
        <time>2020-07-30T09:24:29.000Z</time>
      </trkpt>
      <trkpt lat="47.2753" lon="-2.48964">
        <ele>88.199996948242</ele>
        <time>2020-07-30T09:24:32.000Z</time>
      </trkpt>
      <trkpt lat="47.27528" lon="-2.4895">
        <ele>88.199996948242</ele>
        <time>2020-07-30T09:24:35.000Z</time>
      </trkpt>
      <trkpt lat="47.27522" lon="-2.48925">
        <ele>88.199996948242</ele>
        <time>2020-07-30T09:24:40.000Z</time>
      </trkpt>
      <trkpt lat="47.27518" lon="-2.48911">
        <ele>88.199996948242</ele>
        <time>2020-07-30T09:24:43.000Z</time>
      </trkpt>
      <trkpt lat="47.27518" lon="-2.48906">
        <ele>88.199996948242</ele>
        <time>2020-07-30T09:24:44.000Z</time>
      </trkpt>
      <trkpt lat="47.2752" lon="-2.48886">
        <ele>88.199996948242</ele>
        <time>2020-07-30T09:24:48.000Z</time>
      </trkpt>
      <trkpt lat="47.27525" lon="-2.4886">
        <ele>88.199996948242</ele>
        <time>2020-07-30T09:24:52.000Z</time>
      </trkpt>
      <trkpt lat="47.27534" lon="-2.48827">
        <ele>88.199996948242</ele>
        <time>2020-07-30T09:24:57.000Z</time>
      </trkpt>
      <trkpt lat="47.27535" lon="-2.48821">
        <ele>88.199996948242</ele>
        <time>2020-07-30T09:24:58.000Z</time>
      </trkpt>
      <trkpt lat="47.27536" lon="-2.48814">
        <ele>88.199996948242</ele>
        <time>2020-07-30T09:24:59.000Z</time>
      </trkpt>
      <trkpt lat="47.2754" lon="-2.4879">
        <ele>88.199996948242</ele>
        <time>2020-07-30T09:25:03.000Z</time>
      </trkpt>
      <trkpt lat="47.27542" lon="-2.48761">
        <ele>88.199996948242</ele>
        <time>2020-07-30T09:25:08.000Z</time>
      </trkpt>
      <trkpt lat="47.27536" lon="-2.48741">
        <ele>88.599998474121</ele>
        <time>2020-07-30T09:25:13.000Z</time>
      </trkpt>
      <trkpt lat="47.27535" lon="-2.48737">
        <ele>89</ele>
        <time>2020-07-30T09:25:14.000Z</time>
      </trkpt>
      <trkpt lat="47.27535" lon="-2.48732">
        <ele>89.400001525879</ele>
        <time>2020-07-30T09:25:15.000Z</time>
      </trkpt>
      <trkpt lat="47.27535" lon="-2.48727">
        <ele>89.800003051758</ele>
        <time>2020-07-30T09:25:16.000Z</time>
      </trkpt>
      <trkpt lat="47.27534" lon="-2.48722">
        <ele>90.199996948242</ele>
        <time>2020-07-30T09:25:17.000Z</time>
      </trkpt>
      <trkpt lat="47.27531" lon="-2.48714">
        <ele>90.199996948242</ele>
        <time>2020-07-30T09:25:19.000Z</time>
      </trkpt>
      <trkpt lat="47.27526" lon="-2.48702">
        <ele>90.199996948242</ele>
        <time>2020-07-30T09:25:23.000Z</time>
      </trkpt>
      <trkpt lat="47.27523" lon="-2.48693">
        <ele>90.199996948242</ele>
        <time>2020-07-30T09:25:29.000Z</time>
      </trkpt>
      <trkpt lat="47.2752" lon="-2.48674">
        <ele>90.199996948242</ele>
        <time>2020-07-30T09:25:33.000Z</time>
      </trkpt>
      <trkpt lat="47.27511" lon="-2.48646">
        <ele>90.199996948242</ele>
        <time>2020-07-30T09:25:39.000Z</time>
      </trkpt>
      <trkpt lat="47.27489" lon="-2.48616">
        <ele>90.199996948242</ele>
        <time>2020-07-30T09:25:46.000Z</time>
      </trkpt>
      <trkpt lat="47.27479" lon="-2.4859">
        <ele>90.199996948242</ele>
        <time>2020-07-30T09:25:52.000Z</time>
      </trkpt>
      <trkpt lat="47.27477" lon="-2.48569">
        <ele>90.199996948242</ele>
        <time>2020-07-30T09:25:57.000Z</time>
      </trkpt>
      <trkpt lat="47.27471" lon="-2.48552">
        <ele>90.199996948242</ele>
        <time>2020-07-30T09:26:02.000Z</time>
      </trkpt>
      <trkpt lat="47.27471" lon="-2.48527">
        <ele>90.199996948242</ele>
        <time>2020-07-30T09:26:07.000Z</time>
      </trkpt>
      <trkpt lat="47.2747" lon="-2.48509">
        <ele>89.800003051758</ele>
        <time>2020-07-30T09:26:11.000Z</time>
      </trkpt>
      <trkpt lat="47.2747" lon="-2.48504">
        <ele>89.400001525879</ele>
        <time>2020-07-30T09:26:12.000Z</time>
      </trkpt>
      <trkpt lat="47.27469" lon="-2.485">
        <ele>89</ele>
        <time>2020-07-30T09:26:13.000Z</time>
      </trkpt>
      <trkpt lat="47.27468" lon="-2.48495">
        <ele>88.400001525879</ele>
        <time>2020-07-30T09:26:14.000Z</time>
      </trkpt>
      <trkpt lat="47.27467" lon="-2.4849">
        <ele>88</ele>
        <time>2020-07-30T09:26:15.000Z</time>
      </trkpt>
      <trkpt lat="47.27465" lon="-2.48464">
        <ele>88</ele>
        <time>2020-07-30T09:26:20.000Z</time>
      </trkpt>
      <trkpt lat="47.27457" lon="-2.48429">
        <ele>88</ele>
        <time>2020-07-30T09:26:27.000Z</time>
      </trkpt>
      <trkpt lat="47.27447" lon="-2.48395">
        <ele>88</ele>
        <time>2020-07-30T09:26:35.000Z</time>
      </trkpt>
      <trkpt lat="47.27439" lon="-2.4837">
        <ele>88</ele>
        <time>2020-07-30T09:26:41.000Z</time>
      </trkpt>
      <trkpt lat="47.2743" lon="-2.48334">
        <ele>88</ele>
        <time>2020-07-30T09:26:48.000Z</time>
      </trkpt>
      <trkpt lat="47.27429" lon="-2.48328">
        <ele>88</ele>
        <time>2020-07-30T09:26:49.000Z</time>
      </trkpt>
      <trkpt lat="47.27422" lon="-2.48279">
        <ele>88</ele>
        <time>2020-07-30T09:26:57.000Z</time>
      </trkpt>
      <trkpt lat="47.27415" lon="-2.48233">
        <ele>88</ele>
        <time>2020-07-30T09:27:05.000Z</time>
      </trkpt>
      <trkpt lat="47.27413" lon="-2.48218">
        <ele>88.400001525879</ele>
        <time>2020-07-30T09:27:08.000Z</time>
      </trkpt>
      <trkpt lat="47.27413" lon="-2.48214">
        <ele>88.800003051758</ele>
        <time>2020-07-30T09:27:09.000Z</time>
      </trkpt>
      <trkpt lat="47.27412" lon="-2.48209">
        <ele>89.199996948242</ele>
        <time>2020-07-30T09:27:10.000Z</time>
      </trkpt>
      <trkpt lat="47.27411" lon="-2.48205">
        <ele>89.599998474121</ele>
        <time>2020-07-30T09:27:11.000Z</time>
      </trkpt>
      <trkpt lat="47.2741" lon="-2.482">
        <ele>90</ele>
        <time>2020-07-30T09:27:12.000Z</time>
      </trkpt>
      <trkpt lat="47.27405" lon="-2.48173">
        <ele>90</ele>
        <time>2020-07-30T09:27:19.000Z</time>
      </trkpt>
      <trkpt lat="47.27407" lon="-2.48139">
        <ele>90</ele>
        <time>2020-07-30T09:27:28.000Z</time>
      </trkpt>
      <trkpt lat="47.27416" lon="-2.48129">
        <ele>90</ele>
        <time>2020-07-30T09:27:32.000Z</time>
      </trkpt>
      <trkpt lat="47.27432" lon="-2.4813">
        <ele>90</ele>
        <time>2020-07-30T09:27:38.000Z</time>
      </trkpt>
      <trkpt lat="47.27457" lon="-2.48126">
        <ele>90</ele>
        <time>2020-07-30T09:27:46.000Z</time>
      </trkpt>
      <trkpt lat="47.27462" lon="-2.48123">
        <ele>90.599998474121</ele>
        <time>2020-07-30T09:27:48.000Z</time>
      </trkpt>
      <trkpt lat="47.27465" lon="-2.48121">
        <ele>91</ele>
        <time>2020-07-30T09:27:49.000Z</time>
      </trkpt>
      <trkpt lat="47.27467" lon="-2.48119">
        <ele>91.400001525879</ele>
        <time>2020-07-30T09:27:50.000Z</time>
      </trkpt>
      <trkpt lat="47.27469" lon="-2.48119">
        <ele>91.800003051758</ele>
        <time>2020-07-30T09:27:51.000Z</time>
      </trkpt>
      <trkpt lat="47.27471" lon="-2.48119">
        <ele>92.199996948242</ele>
        <time>2020-07-30T09:27:52.000Z</time>
      </trkpt>
      <trkpt lat="47.2748" lon="-2.48119">
        <ele>92.199996948242</ele>
        <time>2020-07-30T09:27:56.000Z</time>
      </trkpt>
      <trkpt lat="47.27485" lon="-2.48117">
        <ele>92.199996948242</ele>
        <time>2020-07-30T09:27:58.000Z</time>
      </trkpt>
      <trkpt lat="47.27492" lon="-2.48108">
        <ele>92.199996948242</ele>
        <time>2020-07-30T09:28:02.000Z</time>
      </trkpt>
      <trkpt lat="47.27488" lon="-2.48094">
        <ele>92.199996948242</ele>
        <time>2020-07-30T09:28:06.000Z</time>
      </trkpt>
      <trkpt lat="47.27481" lon="-2.48079">
        <ele>92.199996948242</ele>
        <time>2020-07-30T09:28:11.000Z</time>
      </trkpt>
      <trkpt lat="47.27469" lon="-2.48057">
        <ele>92.199996948242</ele>
        <time>2020-07-30T09:28:17.000Z</time>
      </trkpt>
      <trkpt lat="47.2746" lon="-2.48036">
        <ele>92.199996948242</ele>
        <time>2020-07-30T09:28:21.000Z</time>
      </trkpt>
      <trkpt lat="47.27456" lon="-2.48025">
        <ele>92.199996948242</ele>
        <time>2020-07-30T09:28:23.000Z</time>
      </trkpt>
      <trkpt lat="47.27436" lon="-2.47988">
        <ele>92.199996948242</ele>
        <time>2020-07-30T09:28:29.000Z</time>
      </trkpt>
      <trkpt lat="47.27405" lon="-2.47945">
        <ele>91.800003051758</ele>
        <time>2020-07-30T09:28:36.000Z</time>
      </trkpt>
      <trkpt lat="47.274" lon="-2.4794">
        <ele>91.400001525879</ele>
        <time>2020-07-30T09:28:37.000Z</time>
      </trkpt>
      <trkpt lat="47.27394" lon="-2.47935">
        <ele>90.800003051758</ele>
        <time>2020-07-30T09:28:38.000Z</time>
      </trkpt>
      <trkpt lat="47.27389" lon="-2.4793">
        <ele>90.400001525879</ele>
        <time>2020-07-30T09:28:39.000Z</time>
      </trkpt>
      <trkpt lat="47.27383" lon="-2.47925">
        <ele>90</ele>
        <time>2020-07-30T09:28:40.000Z</time>
      </trkpt>
      <trkpt lat="47.2737" lon="-2.47916">
        <ele>90</ele>
        <time>2020-07-30T09:28:42.000Z</time>
      </trkpt>
      <trkpt lat="47.27322" lon="-2.47878">
        <ele>90</ele>
        <time>2020-07-30T09:28:50.000Z</time>
      </trkpt>
      <trkpt lat="47.2731" lon="-2.47868">
        <ele>90</ele>
        <time>2020-07-30T09:28:52.000Z</time>
      </trkpt>
      <trkpt lat="47.27264" lon="-2.47825">
        <ele>90</ele>
        <time>2020-07-30T09:29:00.000Z</time>
      </trkpt>
      <trkpt lat="47.27238" lon="-2.47785">
        <ele>90</ele>
        <time>2020-07-30T09:29:06.000Z</time>
      </trkpt>
      <trkpt lat="47.27215" lon="-2.47733">
        <ele>90</ele>
        <time>2020-07-30T09:29:13.000Z</time>
      </trkpt>
      <trkpt lat="47.27204" lon="-2.47677">
        <ele>90</ele>
        <time>2020-07-30T09:29:20.000Z</time>
      </trkpt>
      <trkpt lat="47.272" lon="-2.47653">
        <ele>90</ele>
        <time>2020-07-30T09:29:24.000Z</time>
      </trkpt>
      <trkpt lat="47.27198" lon="-2.47629">
        <ele>90</ele>
        <time>2020-07-30T09:29:31.000Z</time>
      </trkpt>
      <trkpt lat="47.27199" lon="-2.47626">
        <ele>90</ele>
        <time>2020-07-30T09:29:33.000Z</time>
      </trkpt>
      <trkpt lat="47.27201" lon="-2.47627">
        <ele>90</ele>
        <time>2020-07-30T09:29:34.000Z</time>
      </trkpt>
      <trkpt lat="47.27212" lon="-2.47637">
        <ele>90</ele>
        <time>2020-07-30T09:29:38.000Z</time>
      </trkpt>
      <trkpt lat="47.27226" lon="-2.47632">
        <ele>90</ele>
        <time>2020-07-30T09:29:42.000Z</time>
      </trkpt>
      <trkpt lat="47.2723" lon="-2.4763">
        <ele>90</ele>
        <time>2020-07-30T09:29:43.000Z</time>
      </trkpt>
      <trkpt lat="47.27254" lon="-2.47612">
        <ele>90</ele>
        <time>2020-07-30T09:29:50.000Z</time>
      </trkpt>
      <trkpt lat="47.27266" lon="-2.47605">
        <ele>90.400001525879</ele>
        <time>2020-07-30T09:29:53.000Z</time>
      </trkpt>
      <trkpt lat="47.27269" lon="-2.47603">
        <ele>90.800003051758</ele>
        <time>2020-07-30T09:29:54.000Z</time>
      </trkpt>
      <trkpt lat="47.27272" lon="-2.47601">
        <ele>91.199996948242</ele>
        <time>2020-07-30T09:29:55.000Z</time>
      </trkpt>
      <trkpt lat="47.27276" lon="-2.47598">
        <ele>91.599998474121</ele>
        <time>2020-07-30T09:29:56.000Z</time>
      </trkpt>
      <trkpt lat="47.2728" lon="-2.47596">
        <ele>92</ele>
        <time>2020-07-30T09:29:57.000Z</time>
      </trkpt>
      <trkpt lat="47.27303" lon="-2.47583">
        <ele>92</ele>
        <time>2020-07-30T09:30:04.000Z</time>
      </trkpt>
      <trkpt lat="47.27311" lon="-2.47576">
        <ele>92</ele>
        <time>2020-07-30T09:30:10.000Z</time>
      </trkpt>
      <trkpt lat="47.27311" lon="-2.4757">
        <ele>92.400001525879</ele>
        <time>2020-07-30T09:30:13.000Z</time>
      </trkpt>
      <trkpt lat="47.2731" lon="-2.47568">
        <ele>92.800003051758</ele>
        <time>2020-07-30T09:30:14.000Z</time>
      </trkpt>
      <trkpt lat="47.27309" lon="-2.47565">
        <ele>93.199996948242</ele>
        <time>2020-07-30T09:30:15.000Z</time>
      </trkpt>
      <trkpt lat="47.27307" lon="-2.47562">
        <ele>93.599998474121</ele>
        <time>2020-07-30T09:30:16.000Z</time>
      </trkpt>
      <trkpt lat="47.27305" lon="-2.47558">
        <ele>94.199996948242</ele>
        <time>2020-07-30T09:30:17.000Z</time>
      </trkpt>
      <trkpt lat="47.273" lon="-2.47549">
        <ele>94.199996948242</ele>
        <time>2020-07-30T09:30:19.000Z</time>
      </trkpt>
      <trkpt lat="47.27296" lon="-2.47537">
        <ele>94.199996948242</ele>
        <time>2020-07-30T09:30:21.000Z</time>
      </trkpt>
      <trkpt lat="47.27289" lon="-2.47517">
        <ele>94.199996948242</ele>
        <time>2020-07-30T09:30:24.000Z</time>
      </trkpt>
      <trkpt lat="47.27287" lon="-2.47509">
        <ele>94.199996948242</ele>
        <time>2020-07-30T09:30:25.000Z</time>
      </trkpt>
      <trkpt lat="47.27279" lon="-2.47483">
        <ele>94.199996948242</ele>
        <time>2020-07-30T09:30:29.000Z</time>
      </trkpt>
      <trkpt lat="47.2727" lon="-2.47438">
        <ele>94.199996948242</ele>
        <time>2020-07-30T09:30:36.000Z</time>
      </trkpt>
      <trkpt lat="47.27276" lon="-2.47409">
        <ele>94.199996948242</ele>
        <time>2020-07-30T09:30:41.000Z</time>
      </trkpt>
      <trkpt lat="47.27293" lon="-2.47382">
        <ele>94.199996948242</ele>
        <time>2020-07-30T09:30:47.000Z</time>
      </trkpt>
      <trkpt lat="47.27295" lon="-2.47376">
        <ele>94.199996948242</ele>
        <time>2020-07-30T09:30:48.000Z</time>
      </trkpt>
      <trkpt lat="47.27295" lon="-2.47344">
        <ele>94.199996948242</ele>
        <time>2020-07-30T09:30:53.000Z</time>
      </trkpt>
      <trkpt lat="47.273" lon="-2.47324">
        <ele>94.199996948242</ele>
        <time>2020-07-30T09:30:57.000Z</time>
      </trkpt>
      <trkpt lat="47.27307" lon="-2.47319">
        <ele>94.199996948242</ele>
        <time>2020-07-30T09:30:59.000Z</time>
      </trkpt>
      <trkpt lat="47.27315" lon="-2.47314">
        <ele>94.199996948242</ele>
        <time>2020-07-30T09:31:01.000Z</time>
      </trkpt>
      <trkpt lat="47.27319" lon="-2.47311">
        <ele>94.199996948242</ele>
        <time>2020-07-30T09:31:02.000Z</time>
      </trkpt>
      <trkpt lat="47.27332" lon="-2.47303">
        <ele>94.199996948242</ele>
        <time>2020-07-30T09:31:05.000Z</time>
      </trkpt>
      <trkpt lat="47.27337" lon="-2.47301">
        <ele>94.199996948242</ele>
        <time>2020-07-30T09:31:06.000Z</time>
      </trkpt>
      <trkpt lat="47.27342" lon="-2.473">
        <ele>94.199996948242</ele>
        <time>2020-07-30T09:31:07.000Z</time>
      </trkpt>
      <trkpt lat="47.27357" lon="-2.47293">
        <ele>94.199996948242</ele>
        <time>2020-07-30T09:31:10.000Z</time>
      </trkpt>
      <trkpt lat="47.27377" lon="-2.47276">
        <ele>93.599998474121</ele>
        <time>2020-07-30T09:31:14.000Z</time>
      </trkpt>
      <trkpt lat="47.27382" lon="-2.4727">
        <ele>93.199996948242</ele>
        <time>2020-07-30T09:31:15.000Z</time>
      </trkpt>
      <trkpt lat="47.27388" lon="-2.47265">
        <ele>92.800003051758</ele>
        <time>2020-07-30T09:31:16.000Z</time>
      </trkpt>
      <trkpt lat="47.27393" lon="-2.47261">
        <ele>92.199996948242</ele>
        <time>2020-07-30T09:31:17.000Z</time>
      </trkpt>
      <trkpt lat="47.27399" lon="-2.47257">
        <ele>91.800003051758</ele>
        <time>2020-07-30T09:31:18.000Z</time>
      </trkpt>
      <trkpt lat="47.27416" lon="-2.47246">
        <ele>91.800003051758</ele>
        <time>2020-07-30T09:31:21.000Z</time>
      </trkpt>
      <trkpt lat="47.27449" lon="-2.47225">
        <ele>91.800003051758</ele>
        <time>2020-07-30T09:31:27.000Z</time>
      </trkpt>
      <trkpt lat="47.27466" lon="-2.47213">
        <ele>91.400001525879</ele>
        <time>2020-07-30T09:31:30.000Z</time>
      </trkpt>
      <trkpt lat="47.27472" lon="-2.4721">
        <ele>91</ele>
        <time>2020-07-30T09:31:31.000Z</time>
      </trkpt>
      <trkpt lat="47.27477" lon="-2.47206">
        <ele>90.599998474121</ele>
        <time>2020-07-30T09:31:32.000Z</time>
      </trkpt>
      <trkpt lat="47.27483" lon="-2.47202">
        <ele>90.199996948242</ele>
        <time>2020-07-30T09:31:33.000Z</time>
      </trkpt>
      <trkpt lat="47.27488" lon="-2.47199">
        <ele>89.800003051758</ele>
        <time>2020-07-30T09:31:34.000Z</time>
      </trkpt>
      <trkpt lat="47.27502" lon="-2.4719">
        <ele>89.800003051758</ele>
        <time>2020-07-30T09:31:37.000Z</time>
      </trkpt>
      <trkpt lat="47.27505" lon="-2.47185">
        <ele>89.800003051758</ele>
        <time>2020-07-30T09:31:38.000Z</time>
      </trkpt>
      <trkpt lat="47.27503" lon="-2.47173">
        <ele>89.800003051758</ele>
        <time>2020-07-30T09:31:40.000Z</time>
      </trkpt>
      <trkpt lat="47.27496" lon="-2.47155">
        <ele>89.800003051758</ele>
        <time>2020-07-30T09:31:43.000Z</time>
      </trkpt>
      <trkpt lat="47.2749" lon="-2.47143">
        <ele>89.800003051758</ele>
        <time>2020-07-30T09:31:45.000Z</time>
      </trkpt>
      <trkpt lat="47.27484" lon="-2.47123">
        <ele>89.800003051758</ele>
        <time>2020-07-30T09:31:48.000Z</time>
      </trkpt>
      <trkpt lat="47.27479" lon="-2.47104">
        <ele>89.800003051758</ele>
        <time>2020-07-30T09:31:51.000Z</time>
      </trkpt>
      <trkpt lat="47.27476" lon="-2.47092">
        <ele>89.800003051758</ele>
        <time>2020-07-30T09:31:53.000Z</time>
      </trkpt>
      <trkpt lat="47.27479" lon="-2.4708">
        <ele>89.800003051758</ele>
        <time>2020-07-30T09:31:55.000Z</time>
      </trkpt>
      <trkpt lat="47.2749" lon="-2.47068">
        <ele>89.800003051758</ele>
        <time>2020-07-30T09:31:58.000Z</time>
      </trkpt>
      <trkpt lat="47.27498" lon="-2.47058">
        <ele>89.800003051758</ele>
        <time>2020-07-30T09:32:01.000Z</time>
      </trkpt>
      <trkpt lat="47.27503" lon="-2.47052">
        <ele>89.800003051758</ele>
        <time>2020-07-30T09:32:03.000Z</time>
      </trkpt>
      <trkpt lat="47.27524" lon="-2.47028">
        <ele>89.800003051758</ele>
        <time>2020-07-30T09:32:11.000Z</time>
      </trkpt>
      <trkpt lat="47.27527" lon="-2.47026">
        <ele>89.800003051758</ele>
        <time>2020-07-30T09:32:15.000Z</time>
      </trkpt>
      <trkpt lat="47.27529" lon="-2.47022">
        <ele>89.800003051758</ele>
        <time>2020-07-30T09:32:33.000Z</time>
      </trkpt>
      <trkpt lat="47.27533" lon="-2.47017">
        <ele>89.800003051758</ele>
        <time>2020-07-30T09:32:36.000Z</time>
      </trkpt>
      <trkpt lat="47.2754" lon="-2.47004">
        <ele>89.800003051758</ele>
        <time>2020-07-30T09:32:42.000Z</time>
      </trkpt>
      <trkpt lat="47.27549" lon="-2.46986">
        <ele>89.800003051758</ele>
        <time>2020-07-30T09:32:46.000Z</time>
      </trkpt>
      <trkpt lat="47.27556" lon="-2.46978">
        <ele>89.800003051758</ele>
        <time>2020-07-30T09:32:49.000Z</time>
      </trkpt>
      <trkpt lat="47.27558" lon="-2.46978">
        <ele>89.800003051758</ele>
        <time>2020-07-30T09:32:50.000Z</time>
      </trkpt>
      <trkpt lat="47.27573" lon="-2.46984">
        <ele>89.800003051758</ele>
        <time>2020-07-30T09:32:55.000Z</time>
      </trkpt>
      <trkpt lat="47.27595" lon="-2.46996">
        <ele>89.800003051758</ele>
        <time>2020-07-30T09:33:01.000Z</time>
      </trkpt>
      <trkpt lat="47.27613" lon="-2.46995">
        <ele>89.800003051758</ele>
        <time>2020-07-30T09:33:06.000Z</time>
      </trkpt>
      <trkpt lat="47.2763" lon="-2.46991">
        <ele>89.800003051758</ele>
        <time>2020-07-30T09:33:11.000Z</time>
      </trkpt>
      <trkpt lat="47.27634" lon="-2.46992">
        <ele>89.800003051758</ele>
        <time>2020-07-30T09:33:12.000Z</time>
      </trkpt>
      <trkpt lat="47.27653" lon="-2.46995">
        <ele>89.400001525879</ele>
        <time>2020-07-30T09:33:16.000Z</time>
      </trkpt>
      <trkpt lat="47.27658" lon="-2.46995">
        <ele>88.800003051758</ele>
        <time>2020-07-30T09:33:17.000Z</time>
      </trkpt>
      <trkpt lat="47.27661" lon="-2.46993">
        <ele>88.400001525879</ele>
        <time>2020-07-30T09:33:18.000Z</time>
      </trkpt>
      <trkpt lat="47.27663" lon="-2.46989">
        <ele>88</ele>
        <time>2020-07-30T09:33:19.000Z</time>
      </trkpt>
      <trkpt lat="47.27664" lon="-2.46984">
        <ele>87.599998474121</ele>
        <time>2020-07-30T09:33:20.000Z</time>
      </trkpt>
      <trkpt lat="47.27665" lon="-2.46966">
        <ele>87.599998474121</ele>
        <time>2020-07-30T09:33:23.000Z</time>
      </trkpt>
      <trkpt lat="47.27665" lon="-2.46959">
        <ele>87.599998474121</ele>
        <time>2020-07-30T09:33:24.000Z</time>
      </trkpt>
      <trkpt lat="47.27671" lon="-2.46933">
        <ele>87.599998474121</ele>
        <time>2020-07-30T09:33:29.000Z</time>
      </trkpt>
      <trkpt lat="47.27683" lon="-2.46933">
        <ele>87.599998474121</ele>
        <time>2020-07-30T09:33:32.000Z</time>
      </trkpt>
      <trkpt lat="47.27696" lon="-2.46939">
        <ele>87.599998474121</ele>
        <time>2020-07-30T09:33:35.000Z</time>
      </trkpt>
      <trkpt lat="47.27709" lon="-2.46942">
        <ele>87.599998474121</ele>
        <time>2020-07-30T09:33:38.000Z</time>
      </trkpt>
      <trkpt lat="47.27729" lon="-2.46941">
        <ele>87.599998474121</ele>
        <time>2020-07-30T09:33:42.000Z</time>
      </trkpt>
      <trkpt lat="47.27735" lon="-2.4694">
        <ele>87.599998474121</ele>
        <time>2020-07-30T09:33:43.000Z</time>
      </trkpt>
      <trkpt lat="47.27761" lon="-2.46938">
        <ele>87.599998474121</ele>
        <time>2020-07-30T09:33:48.000Z</time>
      </trkpt>
      <trkpt lat="47.27767" lon="-2.46936">
        <ele>87.199996948242</ele>
        <time>2020-07-30T09:33:50.000Z</time>
      </trkpt>
      <trkpt lat="47.27769" lon="-2.46933">
        <ele>86.800003051758</ele>
        <time>2020-07-30T09:33:51.000Z</time>
      </trkpt>
      <trkpt lat="47.27772" lon="-2.4693">
        <ele>86.400001525879</ele>
        <time>2020-07-30T09:33:52.000Z</time>
      </trkpt>
      <trkpt lat="47.27772" lon="-2.46925">
        <ele>85.800003051758</ele>
        <time>2020-07-30T09:33:53.000Z</time>
      </trkpt>
      <trkpt lat="47.27773" lon="-2.4692">
        <ele>85.400001525879</ele>
        <time>2020-07-30T09:33:54.000Z</time>
      </trkpt>
      <trkpt lat="47.27773" lon="-2.46914">
        <ele>85.400001525879</ele>
        <time>2020-07-30T09:33:55.000Z</time>
      </trkpt>
      <trkpt lat="47.27777" lon="-2.46903">
        <ele>85.400001525879</ele>
        <time>2020-07-30T09:33:57.000Z</time>
      </trkpt>
      <trkpt lat="47.27782" lon="-2.46889">
        <ele>85.400001525879</ele>
        <time>2020-07-30T09:33:59.000Z</time>
      </trkpt>
      <trkpt lat="47.27783" lon="-2.46866">
        <ele>85.400001525879</ele>
        <time>2020-07-30T09:34:02.000Z</time>
      </trkpt>
      <trkpt lat="47.27783" lon="-2.46836">
        <ele>85.400001525879</ele>
        <time>2020-07-30T09:34:06.000Z</time>
      </trkpt>
      <trkpt lat="47.27779" lon="-2.46821">
        <ele>85.400001525879</ele>
        <time>2020-07-30T09:34:08.000Z</time>
      </trkpt>
      <trkpt lat="47.27771" lon="-2.46787">
        <ele>85.400001525879</ele>
        <time>2020-07-30T09:34:12.000Z</time>
      </trkpt>
      <trkpt lat="47.27759" lon="-2.4674">
        <ele>85.400001525879</ele>
        <time>2020-07-30T09:34:18.000Z</time>
      </trkpt>
      <trkpt lat="47.27757" lon="-2.46726">
        <ele>85.400001525879</ele>
        <time>2020-07-30T09:34:22.000Z</time>
      </trkpt>
      <trkpt lat="47.27757" lon="-2.46712">
        <ele>85.400001525879</ele>
        <time>2020-07-30T09:34:25.000Z</time>
      </trkpt>
      <trkpt lat="47.27759" lon="-2.46707">
        <ele>85.400001525879</ele>
        <time>2020-07-30T09:34:26.000Z</time>
      </trkpt>
      <trkpt lat="47.27761" lon="-2.46681">
        <ele>85.400001525879</ele>
        <time>2020-07-30T09:34:30.000Z</time>
      </trkpt>
      <trkpt lat="47.27761" lon="-2.46668">
        <ele>85.400001525879</ele>
        <time>2020-07-30T09:34:32.000Z</time>
      </trkpt>
      <trkpt lat="47.27763" lon="-2.46649">
        <ele>85.400001525879</ele>
        <time>2020-07-30T09:34:35.000Z</time>
      </trkpt>
      <trkpt lat="47.27759" lon="-2.46624">
        <ele>85.400001525879</ele>
        <time>2020-07-30T09:34:39.000Z</time>
      </trkpt>
      <trkpt lat="47.27763" lon="-2.46611">
        <ele>85.400001525879</ele>
        <time>2020-07-30T09:34:42.000Z</time>
      </trkpt>
      <trkpt lat="47.27761" lon="-2.46594">
        <ele>85.400001525879</ele>
        <time>2020-07-30T09:34:45.000Z</time>
      </trkpt>
      <trkpt lat="47.27749" lon="-2.46576">
        <ele>85.400001525879</ele>
        <time>2020-07-30T09:34:49.000Z</time>
      </trkpt>
      <trkpt lat="47.27747" lon="-2.4657">
        <ele>85.400001525879</ele>
        <time>2020-07-30T09:34:50.000Z</time>
      </trkpt>
      <trkpt lat="47.27742" lon="-2.46558">
        <ele>85.800003051758</ele>
        <time>2020-07-30T09:34:52.000Z</time>
      </trkpt>
      <trkpt lat="47.2774" lon="-2.46552">
        <ele>86.199996948242</ele>
        <time>2020-07-30T09:34:53.000Z</time>
      </trkpt>
      <trkpt lat="47.27738" lon="-2.46545">
        <ele>86.599998474121</ele>
        <time>2020-07-30T09:34:54.000Z</time>
      </trkpt>
      <trkpt lat="47.27736" lon="-2.46538">
        <ele>87</ele>
        <time>2020-07-30T09:34:55.000Z</time>
      </trkpt>
      <trkpt lat="47.27735" lon="-2.46531">
        <ele>87.400001525879</ele>
        <time>2020-07-30T09:34:56.000Z</time>
      </trkpt>
      <trkpt lat="47.27729" lon="-2.46501">
        <ele>87.400001525879</ele>
        <time>2020-07-30T09:35:00.000Z</time>
      </trkpt>
      <trkpt lat="47.27715" lon="-2.46453">
        <ele>87.400001525879</ele>
        <time>2020-07-30T09:35:06.000Z</time>
      </trkpt>
      <trkpt lat="47.27711" lon="-2.46446">
        <ele>87.400001525879</ele>
        <time>2020-07-30T09:35:07.000Z</time>
      </trkpt>
      <trkpt lat="47.27696" lon="-2.46412">
        <ele>87.400001525879</ele>
        <time>2020-07-30T09:35:12.000Z</time>
      </trkpt>
      <trkpt lat="47.27684" lon="-2.46376">
        <ele>87.400001525879</ele>
        <time>2020-07-30T09:35:18.000Z</time>
      </trkpt>
      <trkpt lat="47.27675" lon="-2.46353">
        <ele>87.400001525879</ele>
        <time>2020-07-30T09:35:24.000Z</time>
      </trkpt>
      <trkpt lat="47.27676" lon="-2.46351">
        <ele>87.400001525879</ele>
        <time>2020-07-30T09:35:26.000Z</time>
      </trkpt>
      <trkpt lat="47.27675" lon="-2.46348">
        <ele>85.400001525879</ele>
        <time>2020-07-30T09:35:43.000Z</time>
      </trkpt>
      <trkpt lat="47.27675" lon="-2.46345">
        <ele>85.400001525879</ele>
        <time>2020-07-30T09:35:44.000Z</time>
      </trkpt>
      <trkpt lat="47.27673" lon="-2.46322">
        <ele>85.400001525879</ele>
        <time>2020-07-30T09:35:50.000Z</time>
      </trkpt>
      <trkpt lat="47.27666" lon="-2.46303">
        <ele>85.400001525879</ele>
        <time>2020-07-30T09:35:55.000Z</time>
      </trkpt>
      <trkpt lat="47.27659" lon="-2.46283">
        <ele>85.400001525879</ele>
        <time>2020-07-30T09:36:01.000Z</time>
      </trkpt>
      <trkpt lat="47.2766" lon="-2.46279">
        <ele>85.400001525879</ele>
        <time>2020-07-30T09:36:02.000Z</time>
      </trkpt>
      <trkpt lat="47.27672" lon="-2.46258">
        <ele>85.400001525879</ele>
        <time>2020-07-30T09:36:07.000Z</time>
      </trkpt>
      <trkpt lat="47.27672" lon="-2.46241">
        <ele>85.400001525879</ele>
        <time>2020-07-30T09:36:10.000Z</time>
      </trkpt>
      <trkpt lat="47.27671" lon="-2.46235">
        <ele>85.400001525879</ele>
        <time>2020-07-30T09:36:11.000Z</time>
      </trkpt>
      <trkpt lat="47.27666" lon="-2.46193">
        <ele>85.400001525879</ele>
        <time>2020-07-30T09:36:17.000Z</time>
      </trkpt>
      <trkpt lat="47.27666" lon="-2.46148">
        <ele>85.400001525879</ele>
        <time>2020-07-30T09:36:23.000Z</time>
      </trkpt>
      <trkpt lat="47.27659" lon="-2.46114">
        <ele>85.400001525879</ele>
        <time>2020-07-30T09:36:27.000Z</time>
      </trkpt>
      <trkpt lat="47.27653" lon="-2.4608">
        <ele>85.400001525879</ele>
        <time>2020-07-30T09:36:31.000Z</time>
      </trkpt>
      <trkpt lat="47.27651" lon="-2.46064">
        <ele>85.400001525879</ele>
        <time>2020-07-30T09:36:33.000Z</time>
      </trkpt>
      <trkpt lat="47.2764" lon="-2.45999">
        <ele>85.400001525879</ele>
        <time>2020-07-30T09:36:41.000Z</time>
      </trkpt>
      <trkpt lat="47.27639" lon="-2.45989">
        <ele>85.400001525879</ele>
        <time>2020-07-30T09:36:42.000Z</time>
      </trkpt>
      <trkpt lat="47.27638" lon="-2.4595">
        <ele>85.400001525879</ele>
        <time>2020-07-30T09:36:46.000Z</time>
      </trkpt>
      <trkpt lat="47.27639" lon="-2.4589">
        <ele>85.400001525879</ele>
        <time>2020-07-30T09:36:52.000Z</time>
      </trkpt>
      <trkpt lat="47.27642" lon="-2.45839">
        <ele>85.400001525879</ele>
        <time>2020-07-30T09:36:58.000Z</time>
      </trkpt>
      <trkpt lat="47.27642" lon="-2.45787">
        <ele>85.400001525879</ele>
        <time>2020-07-30T09:37:05.000Z</time>
      </trkpt>
      <trkpt lat="47.27637" lon="-2.45731">
        <ele>85.400001525879</ele>
        <time>2020-07-30T09:37:13.000Z</time>
      </trkpt>
      <trkpt lat="47.27633" lon="-2.45715">
        <ele>86</ele>
        <time>2020-07-30T09:37:16.000Z</time>
      </trkpt>
      <trkpt lat="47.27631" lon="-2.4571">
        <ele>86.400001525879</ele>
        <time>2020-07-30T09:37:17.000Z</time>
      </trkpt>
      <trkpt lat="47.2763" lon="-2.45706">
        <ele>86.800003051758</ele>
        <time>2020-07-30T09:37:18.000Z</time>
      </trkpt>
      <trkpt lat="47.27627" lon="-2.45702">
        <ele>87.400001525879</ele>
        <time>2020-07-30T09:37:19.000Z</time>
      </trkpt>
      <trkpt lat="47.27625" lon="-2.45701">
        <ele>87.800003051758</ele>
        <time>2020-07-30T09:37:20.000Z</time>
      </trkpt>
      <trkpt lat="47.27621" lon="-2.45702">
        <ele>87.800003051758</ele>
        <time>2020-07-30T09:37:21.000Z</time>
      </trkpt>
      <trkpt lat="47.27612" lon="-2.45707">
        <ele>87.800003051758</ele>
        <time>2020-07-30T09:37:24.000Z</time>
      </trkpt>
      <trkpt lat="47.27602" lon="-2.45711">
        <ele>87.800003051758</ele>
        <time>2020-07-30T09:37:26.000Z</time>
      </trkpt>
      <trkpt lat="47.27567" lon="-2.45724">
        <ele>87.800003051758</ele>
        <time>2020-07-30T09:37:34.000Z</time>
      </trkpt>
      <trkpt lat="47.27535" lon="-2.45735">
        <ele>87.800003051758</ele>
        <time>2020-07-30T09:37:42.000Z</time>
      </trkpt>
      <trkpt lat="47.275" lon="-2.45748">
        <ele>87.800003051758</ele>
        <time>2020-07-30T09:37:50.000Z</time>
      </trkpt>
      <trkpt lat="47.27462" lon="-2.45762">
        <ele>87.800003051758</ele>
        <time>2020-07-30T09:37:58.000Z</time>
      </trkpt>
      <trkpt lat="47.27425" lon="-2.4577">
        <ele>87.800003051758</ele>
        <time>2020-07-30T09:38:06.000Z</time>
      </trkpt>
      <trkpt lat="47.2742" lon="-2.45771">
        <ele>87.800003051758</ele>
        <time>2020-07-30T09:38:07.000Z</time>
      </trkpt>
      <trkpt lat="47.27395" lon="-2.45773">
        <ele>87.400001525879</ele>
        <time>2020-07-30T09:38:12.000Z</time>
      </trkpt>
      <trkpt lat="47.27391" lon="-2.45773">
        <ele>87</ele>
        <time>2020-07-30T09:38:13.000Z</time>
      </trkpt>
      <trkpt lat="47.27386" lon="-2.45775">
        <ele>86.599998474121</ele>
        <time>2020-07-30T09:38:14.000Z</time>
      </trkpt>
      <trkpt lat="47.27381" lon="-2.45776">
        <ele>86.199996948242</ele>
        <time>2020-07-30T09:38:15.000Z</time>
      </trkpt>
      <trkpt lat="47.27376" lon="-2.45775">
        <ele>85.800003051758</ele>
        <time>2020-07-30T09:38:16.000Z</time>
      </trkpt>
      <trkpt lat="47.27372" lon="-2.45772">
        <ele>85.800003051758</ele>
        <time>2020-07-30T09:38:17.000Z</time>
      </trkpt>
      <trkpt lat="47.27366" lon="-2.45754">
        <ele>85.800003051758</ele>
        <time>2020-07-30T09:38:20.000Z</time>
      </trkpt>
      <trkpt lat="47.27359" lon="-2.45732">
        <ele>85.800003051758</ele>
        <time>2020-07-30T09:38:23.000Z</time>
      </trkpt>
      <trkpt lat="47.27354" lon="-2.45717">
        <ele>85.800003051758</ele>
        <time>2020-07-30T09:38:25.000Z</time>
      </trkpt>
      <trkpt lat="47.27346" lon="-2.45694">
        <ele>85.800003051758</ele>
        <time>2020-07-30T09:38:28.000Z</time>
      </trkpt>
      <trkpt lat="47.27337" lon="-2.45671">
        <ele>85.800003051758</ele>
        <time>2020-07-30T09:38:31.000Z</time>
      </trkpt>
      <trkpt lat="47.27328" lon="-2.4564">
        <ele>86.199996948242</ele>
        <time>2020-07-30T09:38:35.000Z</time>
      </trkpt>
      <trkpt lat="47.27325" lon="-2.45631">
        <ele>86.599998474121</ele>
        <time>2020-07-30T09:38:36.000Z</time>
      </trkpt>
      <trkpt lat="47.27323" lon="-2.45622">
        <ele>87</ele>
        <time>2020-07-30T09:38:37.000Z</time>
      </trkpt>
      <trkpt lat="47.2732" lon="-2.45615">
        <ele>87.400001525879</ele>
        <time>2020-07-30T09:38:38.000Z</time>
      </trkpt>
      <trkpt lat="47.27317" lon="-2.45606">
        <ele>88</ele>
        <time>2020-07-30T09:38:39.000Z</time>
      </trkpt>
      <trkpt lat="47.27309" lon="-2.45588">
        <ele>88</ele>
        <time>2020-07-30T09:38:42.000Z</time>
      </trkpt>
      <trkpt lat="47.27303" lon="-2.45578">
        <ele>87</ele>
        <time>2020-07-30T09:38:46.000Z</time>
      </trkpt>
      <trkpt lat="47.27302" lon="-2.45576">
        <ele>86.599998474121</ele>
        <time>2020-07-30T09:38:47.000Z</time>
      </trkpt>
      <trkpt lat="47.27301" lon="-2.45574">
        <ele>86.199996948242</ele>
        <time>2020-07-30T09:38:48.000Z</time>
      </trkpt>
      <trkpt lat="47.27299" lon="-2.45572">
        <ele>85.800003051758</ele>
        <time>2020-07-30T09:38:49.000Z</time>
      </trkpt>
      <trkpt lat="47.27292" lon="-2.45556">
        <ele>85.800003051758</ele>
        <time>2020-07-30T09:38:53.000Z</time>
      </trkpt>
      <trkpt lat="47.27274" lon="-2.45514">
        <ele>85.800003051758</ele>
        <time>2020-07-30T09:39:01.000Z</time>
      </trkpt>
      <trkpt lat="47.27266" lon="-2.45498">
        <ele>85.800003051758</ele>
        <time>2020-07-30T09:39:04.000Z</time>
      </trkpt>
      <trkpt lat="47.2726" lon="-2.45489">
        <ele>85.800003051758</ele>
        <time>2020-07-30T09:39:06.000Z</time>
      </trkpt>
      <trkpt lat="47.27249" lon="-2.45473">
        <ele>85.800003051758</ele>
        <time>2020-07-30T09:39:10.000Z</time>
      </trkpt>
      <trkpt lat="47.27247" lon="-2.4547">
        <ele>85.800003051758</ele>
        <time>2020-07-30T09:39:11.000Z</time>
      </trkpt>
      <trkpt lat="47.27241" lon="-2.45459">
        <ele>85.800003051758</ele>
        <time>2020-07-30T09:39:16.000Z</time>
      </trkpt>
      <trkpt lat="47.27229" lon="-2.45448">
        <ele>85.800003051758</ele>
        <time>2020-07-30T09:39:22.000Z</time>
      </trkpt>
      <trkpt lat="47.27213" lon="-2.45433">
        <ele>85.800003051758</ele>
        <time>2020-07-30T09:39:28.000Z</time>
      </trkpt>
      <trkpt lat="47.27194" lon="-2.45416">
        <ele>85.800003051758</ele>
        <time>2020-07-30T09:39:36.000Z</time>
      </trkpt>
      <trkpt lat="47.27174" lon="-2.45399">
        <ele>85.800003051758</ele>
        <time>2020-07-30T09:39:45.000Z</time>
      </trkpt>
      <trkpt lat="47.27163" lon="-2.45391">
        <ele>85.800003051758</ele>
        <time>2020-07-30T09:39:50.000Z</time>
      </trkpt>
      <trkpt lat="47.27147" lon="-2.45375">
        <ele>85.800003051758</ele>
        <time>2020-07-30T09:39:57.000Z</time>
      </trkpt>
      <trkpt lat="47.27132" lon="-2.4536">
        <ele>85.800003051758</ele>
        <time>2020-07-30T09:40:04.000Z</time>
      </trkpt>
      <trkpt lat="47.27123" lon="-2.45345">
        <ele>85.800003051758</ele>
        <time>2020-07-30T09:40:10.000Z</time>
      </trkpt>
      <trkpt lat="47.27111" lon="-2.45325">
        <ele>85.800003051758</ele>
        <time>2020-07-30T09:40:17.000Z</time>
      </trkpt>
      <trkpt lat="47.27101" lon="-2.45311">
        <ele>85.800003051758</ele>
        <time>2020-07-30T09:40:23.000Z</time>
      </trkpt>
      <trkpt lat="47.27094" lon="-2.45299">
        <ele>85.800003051758</ele>
        <time>2020-07-30T09:40:28.000Z</time>
      </trkpt>
      <trkpt lat="47.27087" lon="-2.45289">
        <ele>85.800003051758</ele>
        <time>2020-07-30T09:40:34.000Z</time>
      </trkpt>
      <trkpt lat="47.27086" lon="-2.45288">
        <ele>85.800003051758</ele>
        <time>2020-07-30T09:40:35.000Z</time>
      </trkpt>
      <trkpt lat="47.27082" lon="-2.45282">
        <ele>85.800003051758</ele>
        <time>2020-07-30T09:40:39.000Z</time>
      </trkpt>
      <trkpt lat="47.27082" lon="-2.45276">
        <ele>85.800003051758</ele>
        <time>2020-07-30T09:40:41.000Z</time>
      </trkpt>
      <trkpt lat="47.27085" lon="-2.45273">
        <ele>85.800003051758</ele>
        <time>2020-07-30T09:40:43.000Z</time>
      </trkpt>
      <trkpt lat="47.27091" lon="-2.45271">
        <ele>85.800003051758</ele>
        <time>2020-07-30T09:40:45.000Z</time>
      </trkpt>
      <trkpt lat="47.27103" lon="-2.45266">
        <ele>85.800003051758</ele>
        <time>2020-07-30T09:40:48.000Z</time>
      </trkpt>
      <trkpt lat="47.27126" lon="-2.45262">
        <ele>85.800003051758</ele>
        <time>2020-07-30T09:40:54.000Z</time>
      </trkpt>
      <trkpt lat="47.27158" lon="-2.45261">
        <ele>85.800003051758</ele>
        <time>2020-07-30T09:41:01.000Z</time>
      </trkpt>
      <trkpt lat="47.27162" lon="-2.45263">
        <ele>85.800003051758</ele>
        <time>2020-07-30T09:41:02.000Z</time>
      </trkpt>
      <trkpt lat="47.27177" lon="-2.45267">
        <ele>85.800003051758</ele>
        <time>2020-07-30T09:41:05.000Z</time>
      </trkpt>
      <trkpt lat="47.272" lon="-2.45273">
        <ele>85.800003051758</ele>
        <time>2020-07-30T09:41:11.000Z</time>
      </trkpt>
      <trkpt lat="47.27206" lon="-2.45279">
        <ele>85.800003051758</ele>
        <time>2020-07-30T09:41:16.000Z</time>
      </trkpt>
      <trkpt lat="47.2722" lon="-2.45278">
        <ele>85.800003051758</ele>
        <time>2020-07-30T09:41:20.000Z</time>
      </trkpt>
      <trkpt lat="47.2724" lon="-2.45279">
        <ele>85.800003051758</ele>
        <time>2020-07-30T09:41:26.000Z</time>
      </trkpt>
      <trkpt lat="47.27261" lon="-2.45278">
        <ele>85.800003051758</ele>
        <time>2020-07-30T09:41:31.000Z</time>
      </trkpt>
      <trkpt lat="47.27289" lon="-2.45275">
        <ele>85.800003051758</ele>
        <time>2020-07-30T09:41:37.000Z</time>
      </trkpt>
      <trkpt lat="47.27321" lon="-2.45265">
        <ele>85.800003051758</ele>
        <time>2020-07-30T09:41:44.000Z</time>
      </trkpt>
      <trkpt lat="47.27326" lon="-2.45263">
        <ele>85.800003051758</ele>
        <time>2020-07-30T09:41:45.000Z</time>
      </trkpt>
      <trkpt lat="47.27344" lon="-2.45255">
        <ele>85.800003051758</ele>
        <time>2020-07-30T09:41:49.000Z</time>
      </trkpt>
      <trkpt lat="47.27361" lon="-2.45235">
        <ele>85.800003051758</ele>
        <time>2020-07-30T09:41:53.000Z</time>
      </trkpt>
      <trkpt lat="47.27365" lon="-2.4523">
        <ele>85.800003051758</ele>
        <time>2020-07-30T09:41:54.000Z</time>
      </trkpt>
      <trkpt lat="47.27368" lon="-2.45226">
        <ele>85.199996948242</ele>
        <time>2020-07-30T09:41:55.000Z</time>
      </trkpt>
      <trkpt lat="47.27373" lon="-2.45221">
        <ele>84.800003051758</ele>
        <time>2020-07-30T09:41:56.000Z</time>
      </trkpt>
      <trkpt lat="47.27377" lon="-2.45218">
        <ele>84.400001525879</ele>
        <time>2020-07-30T09:41:57.000Z</time>
      </trkpt>
      <trkpt lat="47.27382" lon="-2.45217">
        <ele>84</ele>
        <time>2020-07-30T09:41:58.000Z</time>
      </trkpt>
      <trkpt lat="47.27386" lon="-2.45215">
        <ele>83.599998474121</ele>
        <time>2020-07-30T09:41:59.000Z</time>
      </trkpt>
      <trkpt lat="47.274" lon="-2.45215">
        <ele>83.599998474121</ele>
        <time>2020-07-30T09:42:02.000Z</time>
      </trkpt>
      <trkpt lat="47.27404" lon="-2.45216">
        <ele>83.599998474121</ele>
        <time>2020-07-30T09:42:03.000Z</time>
      </trkpt>
      <trkpt lat="47.27426" lon="-2.45217">
        <ele>83.599998474121</ele>
        <time>2020-07-30T09:42:08.000Z</time>
      </trkpt>
      <trkpt lat="47.27435" lon="-2.45216">
        <ele>83.599998474121</ele>
        <time>2020-07-30T09:42:10.000Z</time>
      </trkpt>
      <trkpt lat="47.27444" lon="-2.45216">
        <ele>83.599998474121</ele>
        <time>2020-07-30T09:42:12.000Z</time>
      </trkpt>
      <trkpt lat="47.27456" lon="-2.45211">
        <ele>83.599998474121</ele>
        <time>2020-07-30T09:42:15.000Z</time>
      </trkpt>
      <trkpt lat="47.27465" lon="-2.45207">
        <ele>83.599998474121</ele>
        <time>2020-07-30T09:42:17.000Z</time>
      </trkpt>
      <trkpt lat="47.27485" lon="-2.45193">
        <ele>83.599998474121</ele>
        <time>2020-07-30T09:42:22.000Z</time>
      </trkpt>
      <trkpt lat="47.27489" lon="-2.45189">
        <ele>83.599998474121</ele>
        <time>2020-07-30T09:42:23.000Z</time>
      </trkpt>
      <trkpt lat="47.27502" lon="-2.45178">
        <ele>83.599998474121</ele>
        <time>2020-07-30T09:42:26.000Z</time>
      </trkpt>
      <trkpt lat="47.27531" lon="-2.45149">
        <ele>83.599998474121</ele>
        <time>2020-07-30T09:42:33.000Z</time>
      </trkpt>
      <trkpt lat="47.27559" lon="-2.45112">
        <ele>83.599998474121</ele>
        <time>2020-07-30T09:42:41.000Z</time>
      </trkpt>
      <trkpt lat="47.27579" lon="-2.45093">
        <ele>83.199996948242</ele>
        <time>2020-07-30T09:42:47.000Z</time>
      </trkpt>
      <trkpt lat="47.2758" lon="-2.45088">
        <ele>82.800003051758</ele>
        <time>2020-07-30T09:42:48.000Z</time>
      </trkpt>
      <trkpt lat="47.2758" lon="-2.45083">
        <ele>82.400001525879</ele>
        <time>2020-07-30T09:42:49.000Z</time>
      </trkpt>
      <trkpt lat="47.27579" lon="-2.45078">
        <ele>82</ele>
        <time>2020-07-30T09:42:50.000Z</time>
      </trkpt>
      <trkpt lat="47.27577" lon="-2.45073">
        <ele>81.599998474121</ele>
        <time>2020-07-30T09:42:51.000Z</time>
      </trkpt>
      <trkpt lat="47.27568" lon="-2.45061">
        <ele>81.599998474121</ele>
        <time>2020-07-30T09:42:54.000Z</time>
      </trkpt>
      <trkpt lat="47.27566" lon="-2.45057">
        <ele>81.599998474121</ele>
        <time>2020-07-30T09:42:55.000Z</time>
      </trkpt>
      <trkpt lat="47.27553" lon="-2.45032">
        <ele>81.599998474121</ele>
        <time>2020-07-30T09:43:00.000Z</time>
      </trkpt>
      <trkpt lat="47.27544" lon="-2.45014">
        <ele>81.599998474121</ele>
        <time>2020-07-30T09:43:05.000Z</time>
      </trkpt>
      <trkpt lat="47.27533" lon="-2.44982">
        <ele>81.599998474121</ele>
        <time>2020-07-30T09:43:12.000Z</time>
      </trkpt>
      <trkpt lat="47.27531" lon="-2.44976">
        <ele>81.599998474121</ele>
        <time>2020-07-30T09:43:13.000Z</time>
      </trkpt>
      <trkpt lat="47.27521" lon="-2.44944">
        <ele>81.599998474121</ele>
        <time>2020-07-30T09:43:18.000Z</time>
      </trkpt>
      <trkpt lat="47.27516" lon="-2.44924">
        <ele>82</ele>
        <time>2020-07-30T09:43:21.000Z</time>
      </trkpt>
      <trkpt lat="47.27514" lon="-2.44918">
        <ele>82.400001525879</ele>
        <time>2020-07-30T09:43:22.000Z</time>
      </trkpt>
      <trkpt lat="47.27512" lon="-2.44912">
        <ele>82.800003051758</ele>
        <time>2020-07-30T09:43:23.000Z</time>
      </trkpt>
      <trkpt lat="47.2751" lon="-2.44906">
        <ele>83.199996948242</ele>
        <time>2020-07-30T09:43:24.000Z</time>
      </trkpt>
      <trkpt lat="47.27509" lon="-2.44899">
        <ele>83.599998474121</ele>
        <time>2020-07-30T09:43:25.000Z</time>
      </trkpt>
      <trkpt lat="47.27501" lon="-2.44859">
        <ele>83.599998474121</ele>
        <time>2020-07-30T09:43:32.000Z</time>
      </trkpt>
      <trkpt lat="47.27504" lon="-2.44845">
        <ele>83.599998474121</ele>
        <time>2020-07-30T09:43:36.000Z</time>
      </trkpt>
      <trkpt lat="47.27514" lon="-2.44837">
        <ele>83.599998474121</ele>
        <time>2020-07-30T09:43:41.000Z</time>
      </trkpt>
      <trkpt lat="47.2753" lon="-2.44822">
        <ele>83.599998474121</ele>
        <time>2020-07-30T09:43:48.000Z</time>
      </trkpt>
      <trkpt lat="47.27537" lon="-2.44812">
        <ele>83.599998474121</ele>
        <time>2020-07-30T09:43:53.000Z</time>
      </trkpt>
      <trkpt lat="47.27537" lon="-2.44812">
        <ele>83.599998474121</ele>
        <time>2020-07-30T09:43:55.000Z</time>
      </trkpt>
      <trkpt lat="47.27536" lon="-2.44808">
        <ele>81.599998474121</ele>
        <time>2020-07-30T09:44:15.000Z</time>
      </trkpt>
      <trkpt lat="47.27536" lon="-2.44805">
        <ele>81.599998474121</ele>
        <time>2020-07-30T09:44:16.000Z</time>
      </trkpt>
      <trkpt lat="47.2753" lon="-2.44784">
        <ele>81.599998474121</ele>
        <time>2020-07-30T09:44:21.000Z</time>
      </trkpt>
      <trkpt lat="47.27523" lon="-2.44748">
        <ele>81.599998474121</ele>
        <time>2020-07-30T09:44:27.000Z</time>
      </trkpt>
      <trkpt lat="47.27513" lon="-2.44705">
        <ele>81.599998474121</ele>
        <time>2020-07-30T09:44:33.000Z</time>
      </trkpt>
      <trkpt lat="47.27507" lon="-2.44692">
        <ele>81.599998474121</ele>
        <time>2020-07-30T09:44:35.000Z</time>
      </trkpt>
      <trkpt lat="47.27496" lon="-2.44675">
        <ele>81.599998474121</ele>
        <time>2020-07-30T09:44:38.000Z</time>
      </trkpt>
      <trkpt lat="47.27465" lon="-2.44624">
        <ele>81.599998474121</ele>
        <time>2020-07-30T09:44:47.000Z</time>
      </trkpt>
      <trkpt lat="47.27452" lon="-2.44595">
        <ele>81.599998474121</ele>
        <time>2020-07-30T09:44:52.000Z</time>
      </trkpt>
      <trkpt lat="47.2745" lon="-2.44589">
        <ele>81.599998474121</ele>
        <time>2020-07-30T09:44:53.000Z</time>
      </trkpt>
      <trkpt lat="47.27449" lon="-2.4457">
        <ele>81.599998474121</ele>
        <time>2020-07-30T09:44:56.000Z</time>
      </trkpt>
      <trkpt lat="47.27449" lon="-2.44556">
        <ele>81.599998474121</ele>
        <time>2020-07-30T09:44:58.000Z</time>
      </trkpt>
      <trkpt lat="47.27446" lon="-2.44522">
        <ele>81.599998474121</ele>
        <time>2020-07-30T09:45:03.000Z</time>
      </trkpt>
      <trkpt lat="47.27442" lon="-2.44511">
        <ele>81.599998474121</ele>
        <time>2020-07-30T09:45:05.000Z</time>
      </trkpt>
      <trkpt lat="47.2744" lon="-2.44505">
        <ele>81.599998474121</ele>
        <time>2020-07-30T09:45:06.000Z</time>
      </trkpt>
      <trkpt lat="47.27436" lon="-2.44488">
        <ele>81.599998474121</ele>
        <time>2020-07-30T09:45:09.000Z</time>
      </trkpt>
      <trkpt lat="47.27435" lon="-2.44482">
        <ele>81.599998474121</ele>
        <time>2020-07-30T09:45:10.000Z</time>
      </trkpt>
      <trkpt lat="47.27433" lon="-2.44433">
        <ele>81.599998474121</ele>
        <time>2020-07-30T09:45:18.000Z</time>
      </trkpt>
      <trkpt lat="47.27432" lon="-2.44418">
        <ele>81.599998474121</ele>
        <time>2020-07-30T09:45:23.000Z</time>
      </trkpt>
      <trkpt lat="47.27437" lon="-2.44401">
        <ele>81.599998474121</ele>
        <time>2020-07-30T09:45:29.000Z</time>
      </trkpt>
      <trkpt lat="47.27435" lon="-2.44377">
        <ele>81.599998474121</ele>
        <time>2020-07-30T09:45:34.000Z</time>
      </trkpt>
      <trkpt lat="47.2743" lon="-2.44346">
        <ele>81.599998474121</ele>
        <time>2020-07-30T09:45:41.000Z</time>
      </trkpt>
      <trkpt lat="47.27427" lon="-2.4431">
        <ele>81.599998474121</ele>
        <time>2020-07-30T09:45:48.000Z</time>
      </trkpt>
      <trkpt lat="47.27423" lon="-2.44273">
        <ele>81.599998474121</ele>
        <time>2020-07-30T09:45:56.000Z</time>
      </trkpt>
      <trkpt lat="47.27419" lon="-2.4423">
        <ele>81.599998474121</ele>
        <time>2020-07-30T09:46:05.000Z</time>
      </trkpt>
      <trkpt lat="47.27417" lon="-2.44212">
        <ele>82</ele>
        <time>2020-07-30T09:46:09.000Z</time>
      </trkpt>
      <trkpt lat="47.27416" lon="-2.44208">
        <ele>82.400001525879</ele>
        <time>2020-07-30T09:46:10.000Z</time>
      </trkpt>
      <trkpt lat="47.27415" lon="-2.44203">
        <ele>83.199996948242</ele>
        <time>2020-07-30T09:46:11.000Z</time>
      </trkpt>
      <trkpt lat="47.27415" lon="-2.44199">
        <ele>83.599998474121</ele>
        <time>2020-07-30T09:46:12.000Z</time>
      </trkpt>
      <trkpt lat="47.27414" lon="-2.4419">
        <ele>83.599998474121</ele>
        <time>2020-07-30T09:46:14.000Z</time>
      </trkpt>
      <trkpt lat="47.27409" lon="-2.44167">
        <ele>83.599998474121</ele>
        <time>2020-07-30T09:46:21.000Z</time>
      </trkpt>
      <trkpt lat="47.27409" lon="-2.44159">
        <ele>83.599998474121</ele>
        <time>2020-07-30T09:46:27.000Z</time>
      </trkpt>
      <trkpt lat="47.27408" lon="-2.44153">
        <ele>83.599998474121</ele>
        <time>2020-07-30T09:46:30.000Z</time>
      </trkpt>
      <trkpt lat="47.27411" lon="-2.44149">
        <ele>83.599998474121</ele>
        <time>2020-07-30T09:46:32.000Z</time>
      </trkpt>
      <trkpt lat="47.27416" lon="-2.44144">
        <ele>83.599998474121</ele>
        <time>2020-07-30T09:46:34.000Z</time>
      </trkpt>
      <trkpt lat="47.27436" lon="-2.44129">
        <ele>83.599998474121</ele>
        <time>2020-07-30T09:46:40.000Z</time>
      </trkpt>
      <trkpt lat="47.27467" lon="-2.4411">
        <ele>83.599998474121</ele>
        <time>2020-07-30T09:46:49.000Z</time>
      </trkpt>
      <trkpt lat="47.27496" lon="-2.4409">
        <ele>83.599998474121</ele>
        <time>2020-07-30T09:46:57.000Z</time>
      </trkpt>
      <trkpt lat="47.27526" lon="-2.4407">
        <ele>83.599998474121</ele>
        <time>2020-07-30T09:47:05.000Z</time>
      </trkpt>
      <trkpt lat="47.27559" lon="-2.44056">
        <ele>83.599998474121</ele>
        <time>2020-07-30T09:47:13.000Z</time>
      </trkpt>
      <trkpt lat="47.27587" lon="-2.44055">
        <ele>83.599998474121</ele>
        <time>2020-07-30T09:47:19.000Z</time>
      </trkpt>
      <trkpt lat="47.2762" lon="-2.44054">
        <ele>83.599998474121</ele>
        <time>2020-07-30T09:47:27.000Z</time>
      </trkpt>
      <trkpt lat="47.2765" lon="-2.44048">
        <ele>83.199996948242</ele>
        <time>2020-07-30T09:47:34.000Z</time>
      </trkpt>
      <trkpt lat="47.27653" lon="-2.44049">
        <ele>82.800003051758</ele>
        <time>2020-07-30T09:47:35.000Z</time>
      </trkpt>
      <trkpt lat="47.27657" lon="-2.44049">
        <ele>82.400001525879</ele>
        <time>2020-07-30T09:47:36.000Z</time>
      </trkpt>
      <trkpt lat="47.27661" lon="-2.4405">
        <ele>82</ele>
        <time>2020-07-30T09:47:37.000Z</time>
      </trkpt>
      <trkpt lat="47.27665" lon="-2.4405">
        <ele>81.599998474121</ele>
        <time>2020-07-30T09:47:38.000Z</time>
      </trkpt>
      <trkpt lat="47.27676" lon="-2.44048">
        <ele>81.599998474121</ele>
        <time>2020-07-30T09:47:41.000Z</time>
      </trkpt>
      <trkpt lat="47.27683" lon="-2.44045">
        <ele>81.599998474121</ele>
        <time>2020-07-30T09:47:43.000Z</time>
      </trkpt>
      <trkpt lat="47.27696" lon="-2.44042">
        <ele>81.599998474121</ele>
        <time>2020-07-30T09:47:47.000Z</time>
      </trkpt>
      <trkpt lat="47.27697" lon="-2.4404">
        <ele>81.599998474121</ele>
        <time>2020-07-30T09:47:48.000Z</time>
      </trkpt>
      <trkpt lat="47.27702" lon="-2.44038">
        <ele>81.599998474121</ele>
        <time>2020-07-30T09:47:50.000Z</time>
      </trkpt>
      <trkpt lat="47.27708" lon="-2.44039">
        <ele>81.599998474121</ele>
        <time>2020-07-30T09:47:53.000Z</time>
      </trkpt>
      <trkpt lat="47.27713" lon="-2.44035">
        <ele>81.599998474121</ele>
        <time>2020-07-30T09:47:55.000Z</time>
      </trkpt>
      <trkpt lat="47.27724" lon="-2.44011">
        <ele>81.599998474121</ele>
        <time>2020-07-30T09:48:00.000Z</time>
      </trkpt>
      <trkpt lat="47.27739" lon="-2.43963">
        <ele>81.599998474121</ele>
        <time>2020-07-30T09:48:08.000Z</time>
      </trkpt>
      <trkpt lat="47.27752" lon="-2.43915">
        <ele>81.599998474121</ele>
        <time>2020-07-30T09:48:16.000Z</time>
      </trkpt>
      <trkpt lat="47.27756" lon="-2.43898">
        <ele>81.599998474121</ele>
        <time>2020-07-30T09:48:19.000Z</time>
      </trkpt>
      <trkpt lat="47.27758" lon="-2.43887">
        <ele>81.599998474121</ele>
        <time>2020-07-30T09:48:21.000Z</time>
      </trkpt>
      <trkpt lat="47.27759" lon="-2.43881">
        <ele>81.599998474121</ele>
        <time>2020-07-30T09:48:22.000Z</time>
      </trkpt>
      <trkpt lat="47.27767" lon="-2.43855">
        <ele>81.599998474121</ele>
        <time>2020-07-30T09:48:28.000Z</time>
      </trkpt>
      <trkpt lat="47.27763" lon="-2.43832">
        <ele>81.599998474121</ele>
        <time>2020-07-30T09:48:32.000Z</time>
      </trkpt>
      <trkpt lat="47.27765" lon="-2.43813">
        <ele>82</ele>
        <time>2020-07-30T09:48:35.000Z</time>
      </trkpt>
      <trkpt lat="47.27768" lon="-2.43808">
        <ele>82.599998474121</ele>
        <time>2020-07-30T09:48:36.000Z</time>
      </trkpt>
      <trkpt lat="47.27772" lon="-2.43802">
        <ele>83</ele>
        <time>2020-07-30T09:48:37.000Z</time>
      </trkpt>
      <trkpt lat="47.27776" lon="-2.43797">
        <ele>83.400001525879</ele>
        <time>2020-07-30T09:48:38.000Z</time>
      </trkpt>
      <trkpt lat="47.2778" lon="-2.43791">
        <ele>84</ele>
        <time>2020-07-30T09:48:39.000Z</time>
      </trkpt>
      <trkpt lat="47.27784" lon="-2.43785">
        <ele>84</ele>
        <time>2020-07-30T09:48:40.000Z</time>
      </trkpt>
      <trkpt lat="47.27786" lon="-2.43779">
        <ele>84</ele>
        <time>2020-07-30T09:48:41.000Z</time>
      </trkpt>
      <trkpt lat="47.27791" lon="-2.43766">
        <ele>84</ele>
        <time>2020-07-30T09:48:43.000Z</time>
      </trkpt>
      <trkpt lat="47.27797" lon="-2.43748">
        <ele>84</ele>
        <time>2020-07-30T09:48:46.000Z</time>
      </trkpt>
      <trkpt lat="47.27803" lon="-2.43724">
        <ele>84</ele>
        <time>2020-07-30T09:48:51.000Z</time>
      </trkpt>
      <trkpt lat="47.27808" lon="-2.43707">
        <ele>83.599998474121</ele>
        <time>2020-07-30T09:48:56.000Z</time>
      </trkpt>
      <trkpt lat="47.27809" lon="-2.43702">
        <ele>83.199996948242</ele>
        <time>2020-07-30T09:48:57.000Z</time>
      </trkpt>
      <trkpt lat="47.2781" lon="-2.43697">
        <ele>82.599998474121</ele>
        <time>2020-07-30T09:48:58.000Z</time>
      </trkpt>
      <trkpt lat="47.27811" lon="-2.43691">
        <ele>82.199996948242</ele>
        <time>2020-07-30T09:48:59.000Z</time>
      </trkpt>
      <trkpt lat="47.27813" lon="-2.43686">
        <ele>81.800003051758</ele>
        <time>2020-07-30T09:49:00.000Z</time>
      </trkpt>
      <trkpt lat="47.27818" lon="-2.43663">
        <ele>81.800003051758</ele>
        <time>2020-07-30T09:49:04.000Z</time>
      </trkpt>
      <trkpt lat="47.27832" lon="-2.43613">
        <ele>81.800003051758</ele>
        <time>2020-07-30T09:49:13.000Z</time>
      </trkpt>
      <trkpt lat="47.27844" lon="-2.43566">
        <ele>81.800003051758</ele>
        <time>2020-07-30T09:49:22.000Z</time>
      </trkpt>
      <trkpt lat="47.27851" lon="-2.43516">
        <ele>81.800003051758</ele>
        <time>2020-07-30T09:49:30.000Z</time>
      </trkpt>
      <trkpt lat="47.27857" lon="-2.43458">
        <ele>81.800003051758</ele>
        <time>2020-07-30T09:49:39.000Z</time>
      </trkpt>
      <trkpt lat="47.27861" lon="-2.43407">
        <ele>81.800003051758</ele>
        <time>2020-07-30T09:49:47.000Z</time>
      </trkpt>
      <trkpt lat="47.27861" lon="-2.434">
        <ele>81.800003051758</ele>
        <time>2020-07-30T09:49:48.000Z</time>
      </trkpt>
      <trkpt lat="47.27856" lon="-2.43376">
        <ele>81.800003051758</ele>
        <time>2020-07-30T09:49:52.000Z</time>
      </trkpt>
      <trkpt lat="47.27858" lon="-2.43359">
        <ele>81.800003051758</ele>
        <time>2020-07-30T09:49:55.000Z</time>
      </trkpt>
      <trkpt lat="47.27868" lon="-2.43337">
        <ele>81.800003051758</ele>
        <time>2020-07-30T09:49:59.000Z</time>
      </trkpt>
      <trkpt lat="47.27869" lon="-2.43314">
        <ele>81.800003051758</ele>
        <time>2020-07-30T09:50:03.000Z</time>
      </trkpt>
      <trkpt lat="47.27867" lon="-2.43284">
        <ele>81.800003051758</ele>
        <time>2020-07-30T09:50:09.000Z</time>
      </trkpt>
      <trkpt lat="47.27866" lon="-2.43262">
        <ele>81.800003051758</ele>
        <time>2020-07-30T09:50:13.000Z</time>
      </trkpt>
      <trkpt lat="47.27865" lon="-2.43255">
        <ele>81.800003051758</ele>
        <time>2020-07-30T09:50:14.000Z</time>
      </trkpt>
      <trkpt lat="47.27862" lon="-2.43199">
        <ele>81.800003051758</ele>
        <time>2020-07-30T09:50:23.000Z</time>
      </trkpt>
      <trkpt lat="47.2786" lon="-2.43181">
        <ele>81.800003051758</ele>
        <time>2020-07-30T09:50:27.000Z</time>
      </trkpt>
      <trkpt lat="47.27857" lon="-2.43158">
        <ele>81.800003051758</ele>
        <time>2020-07-30T09:50:32.000Z</time>
      </trkpt>
      <trkpt lat="47.27856" lon="-2.43144">
        <ele>81.800003051758</ele>
        <time>2020-07-30T09:50:34.000Z</time>
      </trkpt>
      <trkpt lat="47.27855" lon="-2.43108">
        <ele>81.800003051758</ele>
        <time>2020-07-30T09:50:39.000Z</time>
      </trkpt>
      <trkpt lat="47.27853" lon="-2.43061">
        <ele>81.800003051758</ele>
        <time>2020-07-30T09:50:46.000Z</time>
      </trkpt>
      <trkpt lat="47.27853" lon="-2.43056">
        <ele>81.800003051758</ele>
        <time>2020-07-30T09:50:47.000Z</time>
      </trkpt>
      <trkpt lat="47.27859" lon="-2.43053">
        <ele>81.800003051758</ele>
        <time>2020-07-30T09:50:49.000Z</time>
      </trkpt>
      <trkpt lat="47.27872" lon="-2.43055">
        <ele>81.800003051758</ele>
        <time>2020-07-30T09:50:52.000Z</time>
      </trkpt>
      <trkpt lat="47.27881" lon="-2.43057">
        <ele>81.800003051758</ele>
        <time>2020-07-30T09:50:54.000Z</time>
      </trkpt>
      <trkpt lat="47.27902" lon="-2.43064">
        <ele>81.800003051758</ele>
        <time>2020-07-30T09:50:59.000Z</time>
      </trkpt>
      <trkpt lat="47.27907" lon="-2.43064">
        <ele>81.800003051758</ele>
        <time>2020-07-30T09:51:00.000Z</time>
      </trkpt>
      <trkpt lat="47.27916" lon="-2.43065">
        <ele>81.800003051758</ele>
        <time>2020-07-30T09:51:02.000Z</time>
      </trkpt>
      <trkpt lat="47.27934" lon="-2.43068">
        <ele>81.800003051758</ele>
        <time>2020-07-30T09:51:06.000Z</time>
      </trkpt>
      <trkpt lat="47.2795" lon="-2.43069">
        <ele>81.800003051758</ele>
        <time>2020-07-30T09:51:10.000Z</time>
      </trkpt>
      <trkpt lat="47.27953" lon="-2.43065">
        <ele>81.800003051758</ele>
        <time>2020-07-30T09:51:11.000Z</time>
      </trkpt>
      <trkpt lat="47.27959" lon="-2.43042">
        <ele>81.800003051758</ele>
        <time>2020-07-30T09:51:14.000Z</time>
      </trkpt>
      <trkpt lat="47.27961" lon="-2.43033">
        <ele>81.800003051758</ele>
        <time>2020-07-30T09:51:15.000Z</time>
      </trkpt>
      <trkpt lat="47.27961" lon="-2.43025">
        <ele>81.800003051758</ele>
        <time>2020-07-30T09:51:16.000Z</time>
      </trkpt>
      <trkpt lat="47.2796" lon="-2.42993">
        <ele>81.800003051758</ele>
        <time>2020-07-30T09:51:20.000Z</time>
      </trkpt>
      <trkpt lat="47.27956" lon="-2.4295">
        <ele>81.800003051758</ele>
        <time>2020-07-30T09:51:26.000Z</time>
      </trkpt>
      <trkpt lat="47.27949" lon="-2.42895">
        <ele>81.800003051758</ele>
        <time>2020-07-30T09:51:34.000Z</time>
      </trkpt>
      <trkpt lat="47.27944" lon="-2.42871">
        <ele>81.800003051758</ele>
        <time>2020-07-30T09:51:39.000Z</time>
      </trkpt>
      <trkpt lat="47.2793" lon="-2.42865">
        <ele>81.800003051758</ele>
        <time>2020-07-30T09:51:43.000Z</time>
      </trkpt>
      <trkpt lat="47.27901" lon="-2.42853">
        <ele>81.800003051758</ele>
        <time>2020-07-30T09:51:50.000Z</time>
      </trkpt>
      <trkpt lat="47.2788" lon="-2.42848">
        <ele>81.800003051758</ele>
        <time>2020-07-30T09:51:55.000Z</time>
      </trkpt>
      <trkpt lat="47.27863" lon="-2.42841">
        <ele>81.800003051758</ele>
        <time>2020-07-30T09:52:00.000Z</time>
      </trkpt>
      <trkpt lat="47.27854" lon="-2.42832">
        <ele>81.800003051758</ele>
        <time>2020-07-30T09:52:05.000Z</time>
      </trkpt>
      <trkpt lat="47.2785" lon="-2.42829">
        <ele>81.800003051758</ele>
        <time>2020-07-30T09:52:07.000Z</time>
      </trkpt>
      <trkpt lat="47.27847" lon="-2.42829">
        <ele>81.800003051758</ele>
        <time>2020-07-30T09:52:09.000Z</time>
      </trkpt>
      <trkpt lat="47.27841" lon="-2.42828">
        <ele>81.800003051758</ele>
        <time>2020-07-30T09:52:14.000Z</time>
      </trkpt>
      <trkpt lat="47.27837" lon="-2.42828">
        <ele>81.800003051758</ele>
        <time>2020-07-30T09:52:16.000Z</time>
      </trkpt>
      <trkpt lat="47.27832" lon="-2.42827">
        <ele>81.800003051758</ele>
        <time>2020-07-30T09:52:18.000Z</time>
      </trkpt>
      <trkpt lat="47.27829" lon="-2.42818">
        <ele>82.400001525879</ele>
        <time>2020-07-30T09:52:20.000Z</time>
      </trkpt>
      <trkpt lat="47.27829" lon="-2.42812">
        <ele>82.800003051758</ele>
        <time>2020-07-30T09:52:21.000Z</time>
      </trkpt>
      <trkpt lat="47.27829" lon="-2.42806">
        <ele>83.199996948242</ele>
        <time>2020-07-30T09:52:22.000Z</time>
      </trkpt>
      <trkpt lat="47.27828" lon="-2.42801">
        <ele>83.599998474121</ele>
        <time>2020-07-30T09:52:23.000Z</time>
      </trkpt>
      <trkpt lat="47.27828" lon="-2.42795">
        <ele>84</ele>
        <time>2020-07-30T09:52:24.000Z</time>
      </trkpt>
      <trkpt lat="47.27829" lon="-2.4277">
        <ele>84</ele>
        <time>2020-07-30T09:52:28.000Z</time>
      </trkpt>
      <trkpt lat="47.27827" lon="-2.42733">
        <ele>84</ele>
        <time>2020-07-30T09:52:34.000Z</time>
      </trkpt>
      <trkpt lat="47.27829" lon="-2.42727">
        <ele>84</ele>
        <time>2020-07-30T09:52:35.000Z</time>
      </trkpt>
      <trkpt lat="47.2784" lon="-2.42717">
        <ele>84</ele>
        <time>2020-07-30T09:52:38.000Z</time>
      </trkpt>
      <trkpt lat="47.27845" lon="-2.42716">
        <ele>84</ele>
        <time>2020-07-30T09:52:39.000Z</time>
      </trkpt>
      <trkpt lat="47.27862" lon="-2.42712">
        <ele>84</ele>
        <time>2020-07-30T09:52:42.000Z</time>
      </trkpt>
      <trkpt lat="47.27867" lon="-2.42709">
        <ele>84</ele>
        <time>2020-07-30T09:52:43.000Z</time>
      </trkpt>
      <trkpt lat="47.27897" lon="-2.42692">
        <ele>84</ele>
        <time>2020-07-30T09:52:49.000Z</time>
      </trkpt>
      <trkpt lat="47.27901" lon="-2.42688">
        <ele>84</ele>
        <time>2020-07-30T09:52:50.000Z</time>
      </trkpt>
      <trkpt lat="47.27913" lon="-2.4268">
        <ele>83.599998474121</ele>
        <time>2020-07-30T09:52:54.000Z</time>
      </trkpt>
      <trkpt lat="47.27916" lon="-2.4268">
        <ele>83.199996948242</ele>
        <time>2020-07-30T09:52:55.000Z</time>
      </trkpt>
      <trkpt lat="47.27919" lon="-2.42678">
        <ele>82.800003051758</ele>
        <time>2020-07-30T09:52:56.000Z</time>
      </trkpt>
      <trkpt lat="47.27922" lon="-2.42676">
        <ele>82.400001525879</ele>
        <time>2020-07-30T09:52:57.000Z</time>
      </trkpt>
      <trkpt lat="47.27925" lon="-2.42674">
        <ele>82</ele>
        <time>2020-07-30T09:52:58.000Z</time>
      </trkpt>
      <trkpt lat="47.27934" lon="-2.42667">
        <ele>82</ele>
        <time>2020-07-30T09:53:01.000Z</time>
      </trkpt>
      <trkpt lat="47.27941" lon="-2.42662">
        <ele>82</ele>
        <time>2020-07-30T09:53:03.000Z</time>
      </trkpt>
      <trkpt lat="47.27953" lon="-2.42654">
        <ele>82</ele>
        <time>2020-07-30T09:53:06.000Z</time>
      </trkpt>
      <trkpt lat="47.27965" lon="-2.42647">
        <ele>82</ele>
        <time>2020-07-30T09:53:09.000Z</time>
      </trkpt>
      <trkpt lat="47.27969" lon="-2.42645">
        <ele>82</ele>
        <time>2020-07-30T09:53:10.000Z</time>
      </trkpt>
      <trkpt lat="47.27973" lon="-2.42644">
        <ele>82</ele>
        <time>2020-07-30T09:53:11.000Z</time>
      </trkpt>
      <trkpt lat="47.27991" lon="-2.42641">
        <ele>82</ele>
        <time>2020-07-30T09:53:15.000Z</time>
      </trkpt>
      <trkpt lat="47.27996" lon="-2.4264">
        <ele>82</ele>
        <time>2020-07-30T09:53:16.000Z</time>
      </trkpt>
      <trkpt lat="47.28004" lon="-2.42635">
        <ele>82</ele>
        <time>2020-07-30T09:53:18.000Z</time>
      </trkpt>
      <trkpt lat="47.28016" lon="-2.42626">
        <ele>82</ele>
        <time>2020-07-30T09:53:21.000Z</time>
      </trkpt>
      <trkpt lat="47.28042" lon="-2.42602">
        <ele>82</ele>
        <time>2020-07-30T09:53:28.000Z</time>
      </trkpt>
      <trkpt lat="47.28066" lon="-2.42588">
        <ele>82</ele>
        <time>2020-07-30T09:53:34.000Z</time>
      </trkpt>
      <trkpt lat="47.28077" lon="-2.42573">
        <ele>82</ele>
        <time>2020-07-30T09:53:38.000Z</time>
      </trkpt>
      <trkpt lat="47.28083" lon="-2.42562">
        <ele>82</ele>
        <time>2020-07-30T09:53:41.000Z</time>
      </trkpt>
      <trkpt lat="47.28084" lon="-2.4256">
        <ele>82</ele>
        <time>2020-07-30T09:53:42.000Z</time>
      </trkpt>
      <trkpt lat="47.28093" lon="-2.42548">
        <ele>82</ele>
        <time>2020-07-30T09:53:48.000Z</time>
      </trkpt>
      <trkpt lat="47.2811" lon="-2.4254">
        <ele>82</ele>
        <time>2020-07-30T09:53:53.000Z</time>
      </trkpt>
      <trkpt lat="47.28128" lon="-2.42535">
        <ele>82</ele>
        <time>2020-07-30T09:53:57.000Z</time>
      </trkpt>
      <trkpt lat="47.28136" lon="-2.42532">
        <ele>82</ele>
        <time>2020-07-30T09:53:59.000Z</time>
      </trkpt>
      <trkpt lat="47.28164" lon="-2.42527">
        <ele>82</ele>
        <time>2020-07-30T09:54:06.000Z</time>
      </trkpt>
      <trkpt lat="47.28184" lon="-2.42523">
        <ele>82</ele>
        <time>2020-07-30T09:54:12.000Z</time>
      </trkpt>
      <trkpt lat="47.28197" lon="-2.42525">
        <ele>82</ele>
        <time>2020-07-30T09:54:16.000Z</time>
      </trkpt>
      <trkpt lat="47.282" lon="-2.42523">
        <ele>82</ele>
        <time>2020-07-30T09:54:17.000Z</time>
      </trkpt>
      <trkpt lat="47.28217" lon="-2.42498">
        <ele>82</ele>
        <time>2020-07-30T09:54:23.000Z</time>
      </trkpt>
      <trkpt lat="47.2824" lon="-2.4246">
        <ele>82</ele>
        <time>2020-07-30T09:54:31.000Z</time>
      </trkpt>
      <trkpt lat="47.28242" lon="-2.42455">
        <ele>82</ele>
        <time>2020-07-30T09:54:32.000Z</time>
      </trkpt>
      <trkpt lat="47.28252" lon="-2.42429">
        <ele>82</ele>
        <time>2020-07-30T09:54:37.000Z</time>
      </trkpt>
      <trkpt lat="47.28262" lon="-2.42383">
        <ele>82</ele>
        <time>2020-07-30T09:54:44.000Z</time>
      </trkpt>
      <trkpt lat="47.28263" lon="-2.42376">
        <ele>82</ele>
        <time>2020-07-30T09:54:45.000Z</time>
      </trkpt>
      <trkpt lat="47.28266" lon="-2.42357">
        <ele>82</ele>
        <time>2020-07-30T09:54:48.000Z</time>
      </trkpt>
      <trkpt lat="47.28268" lon="-2.42344">
        <ele>82</ele>
        <time>2020-07-30T09:54:50.000Z</time>
      </trkpt>
      <trkpt lat="47.28269" lon="-2.42318">
        <ele>82</ele>
        <time>2020-07-30T09:54:55.000Z</time>
      </trkpt>
      <trkpt lat="47.2827" lon="-2.42293">
        <ele>82</ele>
        <time>2020-07-30T09:54:59.000Z</time>
      </trkpt>
      <trkpt lat="47.28272" lon="-2.4228">
        <ele>82</ele>
        <time>2020-07-30T09:55:01.000Z</time>
      </trkpt>
      <trkpt lat="47.2828" lon="-2.42237">
        <ele>82</ele>
        <time>2020-07-30T09:55:07.000Z</time>
      </trkpt>
      <trkpt lat="47.28283" lon="-2.42221">
        <ele>82.400001525879</ele>
        <time>2020-07-30T09:55:09.000Z</time>
      </trkpt>
      <trkpt lat="47.28285" lon="-2.42213">
        <ele>82.800003051758</ele>
        <time>2020-07-30T09:55:10.000Z</time>
      </trkpt>
      <trkpt lat="47.28286" lon="-2.42205">
        <ele>83.199996948242</ele>
        <time>2020-07-30T09:55:11.000Z</time>
      </trkpt>
      <trkpt lat="47.28287" lon="-2.42197">
        <ele>83.599998474121</ele>
        <time>2020-07-30T09:55:12.000Z</time>
      </trkpt>
      <trkpt lat="47.28287" lon="-2.42189">
        <ele>84</ele>
        <time>2020-07-30T09:55:13.000Z</time>
      </trkpt>
      <trkpt lat="47.28288" lon="-2.42181">
        <ele>84</ele>
        <time>2020-07-30T09:55:14.000Z</time>
      </trkpt>
      <trkpt lat="47.28297" lon="-2.42113">
        <ele>84</ele>
        <time>2020-07-30T09:55:22.000Z</time>
      </trkpt>
      <trkpt lat="47.28309" lon="-2.42047">
        <ele>84</ele>
        <time>2020-07-30T09:55:30.000Z</time>
      </trkpt>
      <trkpt lat="47.28318" lon="-2.4199">
        <ele>84</ele>
        <time>2020-07-30T09:55:37.000Z</time>
      </trkpt>
      <trkpt lat="47.28338" lon="-2.41915">
        <ele>84</ele>
        <time>2020-07-30T09:55:46.000Z</time>
      </trkpt>
      <trkpt lat="47.28353" lon="-2.41845">
        <ele>84</ele>
        <time>2020-07-30T09:55:54.000Z</time>
      </trkpt>
      <trkpt lat="47.28369" lon="-2.41773">
        <ele>84</ele>
        <time>2020-07-30T09:56:02.000Z</time>
      </trkpt>
      <trkpt lat="47.28392" lon="-2.4169">
        <ele>84</ele>
        <time>2020-07-30T09:56:11.000Z</time>
      </trkpt>
      <trkpt lat="47.28398" lon="-2.41661">
        <ele>84</ele>
        <time>2020-07-30T09:56:14.000Z</time>
      </trkpt>
      <trkpt lat="47.28401" lon="-2.41642">
        <ele>84</ele>
        <time>2020-07-30T09:56:16.000Z</time>
      </trkpt>
      <trkpt lat="47.28406" lon="-2.41585">
        <ele>84</ele>
        <time>2020-07-30T09:56:22.000Z</time>
      </trkpt>
      <trkpt lat="47.28412" lon="-2.4153">
        <ele>84</ele>
        <time>2020-07-30T09:56:28.000Z</time>
      </trkpt>
      <trkpt lat="47.28418" lon="-2.4145">
        <ele>84</ele>
        <time>2020-07-30T09:56:37.000Z</time>
      </trkpt>
      <trkpt lat="47.28429" lon="-2.414">
        <ele>84</ele>
        <time>2020-07-30T09:56:43.000Z</time>
      </trkpt>
      <trkpt lat="47.28447" lon="-2.41332">
        <ele>84</ele>
        <time>2020-07-30T09:56:51.000Z</time>
      </trkpt>
      <trkpt lat="47.28456" lon="-2.41287">
        <ele>84</ele>
        <time>2020-07-30T09:56:57.000Z</time>
      </trkpt>
      <trkpt lat="47.28455" lon="-2.41272">
        <ele>84</ele>
        <time>2020-07-30T09:56:59.000Z</time>
      </trkpt>
      <trkpt lat="47.28455" lon="-2.41261">
        <ele>84</ele>
        <time>2020-07-30T09:57:01.000Z</time>
      </trkpt>
      <trkpt lat="47.28464" lon="-2.41255">
        <ele>84</ele>
        <time>2020-07-30T09:57:04.000Z</time>
      </trkpt>
      <trkpt lat="47.2847" lon="-2.41256">
        <ele>84</ele>
        <time>2020-07-30T09:57:06.000Z</time>
      </trkpt>
      <trkpt lat="47.28485" lon="-2.41251">
        <ele>84</ele>
        <time>2020-07-30T09:57:10.000Z</time>
      </trkpt>
      <trkpt lat="47.28492" lon="-2.41235">
        <ele>84</ele>
        <time>2020-07-30T09:57:13.000Z</time>
      </trkpt>
      <trkpt lat="47.28495" lon="-2.41215">
        <ele>84</ele>
        <time>2020-07-30T09:57:17.000Z</time>
      </trkpt>
      <trkpt lat="47.2851" lon="-2.41201">
        <ele>84</ele>
        <time>2020-07-30T09:57:22.000Z</time>
      </trkpt>
      <trkpt lat="47.28518" lon="-2.41199">
        <ele>83.599998474121</ele>
        <time>2020-07-30T09:57:24.000Z</time>
      </trkpt>
      <trkpt lat="47.28522" lon="-2.412">
        <ele>83</ele>
        <time>2020-07-30T09:57:25.000Z</time>
      </trkpt>
      <trkpt lat="47.28527" lon="-2.412">
        <ele>82.599998474121</ele>
        <time>2020-07-30T09:57:26.000Z</time>
      </trkpt>
      <trkpt lat="47.28533" lon="-2.412">
        <ele>82.199996948242</ele>
        <time>2020-07-30T09:57:27.000Z</time>
      </trkpt>
      <trkpt lat="47.28538" lon="-2.412">
        <ele>81.800003051758</ele>
        <time>2020-07-30T09:57:28.000Z</time>
      </trkpt>
      <trkpt lat="47.28561" lon="-2.41204">
        <ele>81.800003051758</ele>
        <time>2020-07-30T09:57:32.000Z</time>
      </trkpt>
      <trkpt lat="47.28598" lon="-2.41211">
        <ele>81.800003051758</ele>
        <time>2020-07-30T09:57:37.000Z</time>
      </trkpt>
      <trkpt lat="47.28647" lon="-2.41224">
        <ele>81.800003051758</ele>
        <time>2020-07-30T09:57:45.000Z</time>
      </trkpt>
      <trkpt lat="47.28686" lon="-2.41232">
        <ele>81.800003051758</ele>
        <time>2020-07-30T09:57:52.000Z</time>
      </trkpt>
      <trkpt lat="47.28708" lon="-2.41238">
        <ele>81.800003051758</ele>
        <time>2020-07-30T09:57:57.000Z</time>
      </trkpt>
      <trkpt lat="47.28712" lon="-2.41238">
        <ele>81.800003051758</ele>
        <time>2020-07-30T09:57:58.000Z</time>
      </trkpt>
      <trkpt lat="47.28717" lon="-2.41242">
        <ele>81.800003051758</ele>
        <time>2020-07-30T09:58:00.000Z</time>
      </trkpt>
      <trkpt lat="47.28718" lon="-2.41245">
        <ele>81.800003051758</ele>
        <time>2020-07-30T09:58:01.000Z</time>
      </trkpt>
      <trkpt lat="47.28719" lon="-2.41263">
        <ele>81.800003051758</ele>
        <time>2020-07-30T09:58:06.000Z</time>
      </trkpt>
      <trkpt lat="47.28715" lon="-2.41276">
        <ele>81.800003051758</ele>
        <time>2020-07-30T09:58:11.000Z</time>
      </trkpt>
      <trkpt lat="47.28719" lon="-2.41281">
        <ele>81.800003051758</ele>
        <time>2020-07-30T09:58:14.000Z</time>
      </trkpt>
      <trkpt lat="47.28722" lon="-2.41284">
        <ele>81.800003051758</ele>
        <time>2020-07-30T09:58:16.000Z</time>
      </trkpt>
      <trkpt lat="47.28734" lon="-2.41291">
        <ele>81.800003051758</ele>
        <time>2020-07-30T09:58:23.000Z</time>
      </trkpt>
      <trkpt lat="47.28738" lon="-2.41296">
        <ele>81.800003051758</ele>
        <time>2020-07-30T09:58:26.000Z</time>
      </trkpt>
      <trkpt lat="47.28742" lon="-2.41298">
        <ele>81.800003051758</ele>
        <time>2020-07-30T09:58:28.000Z</time>
      </trkpt>
      <trkpt lat="47.28746" lon="-2.41297">
        <ele>81.800003051758</ele>
        <time>2020-07-30T09:58:30.000Z</time>
      </trkpt>
      <trkpt lat="47.28751" lon="-2.41299">
        <ele>81.800003051758</ele>
        <time>2020-07-30T09:58:32.000Z</time>
      </trkpt>
      <trkpt lat="47.28752" lon="-2.41302">
        <ele>81.800003051758</ele>
        <time>2020-07-30T09:58:33.000Z</time>
      </trkpt>
      <trkpt lat="47.28754" lon="-2.41318">
        <ele>81.800003051758</ele>
        <time>2020-07-30T09:58:37.000Z</time>
      </trkpt>
      <trkpt lat="47.28753" lon="-2.41322">
        <ele>81.800003051758</ele>
        <time>2020-07-30T09:58:38.000Z</time>
      </trkpt>
      <trkpt lat="47.28752" lon="-2.41331">
        <ele>81.800003051758</ele>
        <time>2020-07-30T09:58:42.000Z</time>
      </trkpt>
      <trkpt lat="47.28752" lon="-2.41331">
        <ele>81.800003051758</ele>
        <time>2020-07-30T09:58:43.000Z</time>
      </trkpt>
      <trkpt lat="47.28752" lon="-2.41331">
        <ele>81.800003051758</ele>
        <time>2020-07-30T10:02:42.000Z</time>
      </trkpt>
      <trkpt lat="47.28752" lon="-2.41334">
        <ele>81.800003051758</ele>
        <time>2020-07-30T10:02:43.000Z</time>
      </trkpt>
      <trkpt lat="47.28757" lon="-2.41346">
        <ele>81.800003051758</ele>
        <time>2020-07-30T10:02:48.000Z</time>
      </trkpt>
      <trkpt lat="47.28762" lon="-2.41343">
        <ele>81.800003051758</ele>
        <time>2020-07-30T10:02:51.000Z</time>
      </trkpt>
      <trkpt lat="47.28764" lon="-2.4134">
        <ele>81.800003051758</ele>
        <time>2020-07-30T10:02:52.000Z</time>
      </trkpt>
      <trkpt lat="47.28776" lon="-2.41323">
        <ele>81.800003051758</ele>
        <time>2020-07-30T10:02:57.000Z</time>
      </trkpt>
      <trkpt lat="47.28785" lon="-2.41301">
        <ele>81.800003051758</ele>
        <time>2020-07-30T10:03:02.000Z</time>
      </trkpt>
      <trkpt lat="47.28789" lon="-2.41294">
        <ele>81.800003051758</ele>
        <time>2020-07-30T10:03:04.000Z</time>
      </trkpt>
      <trkpt lat="47.28795" lon="-2.41295">
        <ele>81.800003051758</ele>
        <time>2020-07-30T10:03:06.000Z</time>
      </trkpt>
      <trkpt lat="47.28798" lon="-2.41289">
        <ele>81.800003051758</ele>
        <time>2020-07-30T10:03:10.000Z</time>
      </trkpt>
      <trkpt lat="47.288" lon="-2.41278">
        <ele>81.800003051758</ele>
        <time>2020-07-30T10:03:13.000Z</time>
      </trkpt>
      <trkpt lat="47.28802" lon="-2.41274">
        <ele>81.800003051758</ele>
        <time>2020-07-30T10:03:14.000Z</time>
      </trkpt>
      <trkpt lat="47.28809" lon="-2.4126">
        <ele>81.800003051758</ele>
        <time>2020-07-30T10:03:19.000Z</time>
      </trkpt>
      <trkpt lat="47.28814" lon="-2.41256">
        <ele>81.800003051758</ele>
        <time>2020-07-30T10:03:22.000Z</time>
      </trkpt>
      <trkpt lat="47.28819" lon="-2.41258">
        <ele>81.800003051758</ele>
        <time>2020-07-30T10:03:24.000Z</time>
      </trkpt>
      <trkpt lat="47.28823" lon="-2.41261">
        <ele>81.800003051758</ele>
        <time>2020-07-30T10:03:26.000Z</time>
      </trkpt>
      <trkpt lat="47.28832" lon="-2.41269">
        <ele>81.800003051758</ele>
        <time>2020-07-30T10:03:30.000Z</time>
      </trkpt>
      <trkpt lat="47.28845" lon="-2.41275">
        <ele>81.800003051758</ele>
        <time>2020-07-30T10:03:35.000Z</time>
      </trkpt>
      <trkpt lat="47.2886" lon="-2.41276">
        <ele>81.800003051758</ele>
        <time>2020-07-30T10:03:41.000Z</time>
      </trkpt>
      <trkpt lat="47.28865" lon="-2.41276">
        <ele>81.800003051758</ele>
        <time>2020-07-30T10:03:43.000Z</time>
      </trkpt>
      <trkpt lat="47.28867" lon="-2.41268">
        <ele>81.800003051758</ele>
        <time>2020-07-30T10:03:45.000Z</time>
      </trkpt>
      <trkpt lat="47.28867" lon="-2.41256">
        <ele>81.800003051758</ele>
        <time>2020-07-30T10:03:47.000Z</time>
      </trkpt>
      <trkpt lat="47.28865" lon="-2.41245">
        <ele>81.800003051758</ele>
        <time>2020-07-30T10:03:49.000Z</time>
      </trkpt>
      <trkpt lat="47.28866" lon="-2.41216">
        <ele>81.800003051758</ele>
        <time>2020-07-30T10:03:55.000Z</time>
      </trkpt>
      <trkpt lat="47.28877" lon="-2.41201">
        <ele>81.800003051758</ele>
        <time>2020-07-30T10:04:00.000Z</time>
      </trkpt>
      <trkpt lat="47.28899" lon="-2.41186">
        <ele>81.800003051758</ele>
        <time>2020-07-30T10:04:07.000Z</time>
      </trkpt>
      <trkpt lat="47.28902" lon="-2.41186">
        <ele>81.800003051758</ele>
        <time>2020-07-30T10:04:08.000Z</time>
      </trkpt>
      <trkpt lat="47.28909" lon="-2.41192">
        <ele>81.800003051758</ele>
        <time>2020-07-30T10:04:10.000Z</time>
      </trkpt>
      <trkpt lat="47.28919" lon="-2.41211">
        <ele>81.800003051758</ele>
        <time>2020-07-30T10:04:14.000Z</time>
      </trkpt>
      <trkpt lat="47.28932" lon="-2.4122">
        <ele>81.800003051758</ele>
        <time>2020-07-30T10:04:18.000Z</time>
      </trkpt>
      <trkpt lat="47.28943" lon="-2.41212">
        <ele>81.800003051758</ele>
        <time>2020-07-30T10:04:21.000Z</time>
      </trkpt>
      <trkpt lat="47.28957" lon="-2.412">
        <ele>81.800003051758</ele>
        <time>2020-07-30T10:04:25.000Z</time>
      </trkpt>
      <trkpt lat="47.28963" lon="-2.41192">
        <ele>81.800003051758</ele>
        <time>2020-07-30T10:04:27.000Z</time>
      </trkpt>
      <trkpt lat="47.28964" lon="-2.41174">
        <ele>81.800003051758</ele>
        <time>2020-07-30T10:04:30.000Z</time>
      </trkpt>
      <trkpt lat="47.28964" lon="-2.41149">
        <ele>81.800003051758</ele>
        <time>2020-07-30T10:04:34.000Z</time>
      </trkpt>
      <trkpt lat="47.28963" lon="-2.41143">
        <ele>81.800003051758</ele>
        <time>2020-07-30T10:04:35.000Z</time>
      </trkpt>
      <trkpt lat="47.28962" lon="-2.41137">
        <ele>81.800003051758</ele>
        <time>2020-07-30T10:04:36.000Z</time>
      </trkpt>
      <trkpt lat="47.28956" lon="-2.41095">
        <ele>81.800003051758</ele>
        <time>2020-07-30T10:04:43.000Z</time>
      </trkpt>
      <trkpt lat="47.28952" lon="-2.41062">
        <ele>81.800003051758</ele>
        <time>2020-07-30T10:04:49.000Z</time>
      </trkpt>
      <trkpt lat="47.2895" lon="-2.41023">
        <ele>81.800003051758</ele>
        <time>2020-07-30T10:04:56.000Z</time>
      </trkpt>
      <trkpt lat="47.28947" lon="-2.40997">
        <ele>81.800003051758</ele>
        <time>2020-07-30T10:05:00.000Z</time>
      </trkpt>
      <trkpt lat="47.28945" lon="-2.40991">
        <ele>81.800003051758</ele>
        <time>2020-07-30T10:05:01.000Z</time>
      </trkpt>
      <trkpt lat="47.28934" lon="-2.40969">
        <ele>81.800003051758</ele>
        <time>2020-07-30T10:05:05.000Z</time>
      </trkpt>
      <trkpt lat="47.28937" lon="-2.4095">
        <ele>81.800003051758</ele>
        <time>2020-07-30T10:05:08.000Z</time>
      </trkpt>
      <trkpt lat="47.28938" lon="-2.40943">
        <ele>81.800003051758</ele>
        <time>2020-07-30T10:05:09.000Z</time>
      </trkpt>
      <trkpt lat="47.28947" lon="-2.4091">
        <ele>81.800003051758</ele>
        <time>2020-07-30T10:05:14.000Z</time>
      </trkpt>
      <trkpt lat="47.28959" lon="-2.40909">
        <ele>81.800003051758</ele>
        <time>2020-07-30T10:05:17.000Z</time>
      </trkpt>
      <trkpt lat="47.28964" lon="-2.40909">
        <ele>81.800003051758</ele>
        <time>2020-07-30T10:05:18.000Z</time>
      </trkpt>
      <trkpt lat="47.28977" lon="-2.40908">
        <ele>81.800003051758</ele>
        <time>2020-07-30T10:05:21.000Z</time>
      </trkpt>
      <trkpt lat="47.28982" lon="-2.40906">
        <ele>81.800003051758</ele>
        <time>2020-07-30T10:05:22.000Z</time>
      </trkpt>
      <trkpt lat="47.28994" lon="-2.409">
        <ele>81.800003051758</ele>
        <time>2020-07-30T10:05:25.000Z</time>
      </trkpt>
      <trkpt lat="47.29005" lon="-2.40887">
        <ele>81.800003051758</ele>
        <time>2020-07-30T10:05:28.000Z</time>
      </trkpt>
      <trkpt lat="47.29013" lon="-2.40871">
        <ele>81.800003051758</ele>
        <time>2020-07-30T10:05:31.000Z</time>
      </trkpt>
      <trkpt lat="47.29018" lon="-2.40861">
        <ele>81.800003051758</ele>
        <time>2020-07-30T10:05:33.000Z</time>
      </trkpt>
      <trkpt lat="47.29041" lon="-2.40826">
        <ele>81.800003051758</ele>
        <time>2020-07-30T10:05:40.000Z</time>
      </trkpt>
      <trkpt lat="47.29042" lon="-2.40807">
        <ele>81.800003051758</ele>
        <time>2020-07-30T10:05:43.000Z</time>
      </trkpt>
      <trkpt lat="47.29033" lon="-2.40784">
        <ele>81.800003051758</ele>
        <time>2020-07-30T10:05:47.000Z</time>
      </trkpt>
      <trkpt lat="47.29018" lon="-2.40747">
        <ele>81.800003051758</ele>
        <time>2020-07-30T10:05:53.000Z</time>
      </trkpt>
      <trkpt lat="47.29025" lon="-2.40732">
        <ele>81.800003051758</ele>
        <time>2020-07-30T10:05:56.000Z</time>
      </trkpt>
      <trkpt lat="47.29028" lon="-2.40728">
        <ele>81.800003051758</ele>
        <time>2020-07-30T10:05:57.000Z</time>
      </trkpt>
      <trkpt lat="47.29052" lon="-2.40698">
        <ele>81.800003051758</ele>
        <time>2020-07-30T10:06:04.000Z</time>
      </trkpt>
      <trkpt lat="47.29056" lon="-2.40695">
        <ele>81.800003051758</ele>
        <time>2020-07-30T10:06:05.000Z</time>
      </trkpt>
      <trkpt lat="47.2907" lon="-2.40689">
        <ele>81.800003051758</ele>
        <time>2020-07-30T10:06:08.000Z</time>
      </trkpt>
      <trkpt lat="47.29074" lon="-2.40687">
        <ele>81.800003051758</ele>
        <time>2020-07-30T10:06:09.000Z</time>
      </trkpt>
      <trkpt lat="47.29103" lon="-2.40683">
        <ele>81.800003051758</ele>
        <time>2020-07-30T10:06:15.000Z</time>
      </trkpt>
      <trkpt lat="47.29122" lon="-2.40678">
        <ele>81.800003051758</ele>
        <time>2020-07-30T10:06:19.000Z</time>
      </trkpt>
      <trkpt lat="47.2913" lon="-2.40671">
        <ele>81.800003051758</ele>
        <time>2020-07-30T10:06:21.000Z</time>
      </trkpt>
      <trkpt lat="47.2914" lon="-2.40658">
        <ele>81.800003051758</ele>
        <time>2020-07-30T10:06:24.000Z</time>
      </trkpt>
      <trkpt lat="47.29143" lon="-2.40654">
        <ele>81.800003051758</ele>
        <time>2020-07-30T10:06:25.000Z</time>
      </trkpt>
      <trkpt lat="47.2915" lon="-2.40645">
        <ele>81.800003051758</ele>
        <time>2020-07-30T10:06:27.000Z</time>
      </trkpt>
      <trkpt lat="47.29174" lon="-2.40628">
        <ele>81.800003051758</ele>
        <time>2020-07-30T10:06:33.000Z</time>
      </trkpt>
      <trkpt lat="47.29199" lon="-2.40612">
        <ele>81.800003051758</ele>
        <time>2020-07-30T10:06:41.000Z</time>
      </trkpt>
      <trkpt lat="47.29198" lon="-2.40612">
        <ele>81.800003051758</ele>
        <time>2020-07-30T10:06:42.000Z</time>
      </trkpt>
      <trkpt lat="47.29196" lon="-2.40614">
        <ele>81.800003051758</ele>
        <time>2020-07-30T10:06:55.000Z</time>
      </trkpt>
      <trkpt lat="47.29195" lon="-2.40616">
        <ele>81.800003051758</ele>
        <time>2020-07-30T10:06:56.000Z</time>
      </trkpt>
      <trkpt lat="47.29191" lon="-2.40619">
        <ele>81.800003051758</ele>
        <time>2020-07-30T10:06:59.000Z</time>
      </trkpt>
      <trkpt lat="47.29183" lon="-2.40623">
        <ele>81.800003051758</ele>
        <time>2020-07-30T10:07:02.000Z</time>
      </trkpt>
      <trkpt lat="47.29163" lon="-2.40637">
        <ele>81.800003051758</ele>
        <time>2020-07-30T10:07:08.000Z</time>
      </trkpt>
      <trkpt lat="47.29151" lon="-2.40644">
        <ele>81.800003051758</ele>
        <time>2020-07-30T10:07:11.000Z</time>
      </trkpt>
      <trkpt lat="47.29144" lon="-2.40637">
        <ele>81.800003051758</ele>
        <time>2020-07-30T10:07:13.000Z</time>
      </trkpt>
      <trkpt lat="47.29143" lon="-2.40618">
        <ele>81.800003051758</ele>
        <time>2020-07-30T10:07:16.000Z</time>
      </trkpt>
      <trkpt lat="47.29142" lon="-2.40612">
        <ele>81.800003051758</ele>
        <time>2020-07-30T10:07:17.000Z</time>
      </trkpt>
      <trkpt lat="47.2914" lon="-2.40598">
        <ele>81.800003051758</ele>
        <time>2020-07-30T10:07:19.000Z</time>
      </trkpt>
      <trkpt lat="47.29134" lon="-2.40587">
        <ele>81.800003051758</ele>
        <time>2020-07-30T10:07:21.000Z</time>
      </trkpt>
      <trkpt lat="47.29115" lon="-2.40559">
        <ele>81.800003051758</ele>
        <time>2020-07-30T10:07:26.000Z</time>
      </trkpt>
      <trkpt lat="47.291" lon="-2.40539">
        <ele>81.800003051758</ele>
        <time>2020-07-30T10:07:30.000Z</time>
      </trkpt>
      <trkpt lat="47.29099" lon="-2.40532">
        <ele>81.800003051758</ele>
        <time>2020-07-30T10:07:31.000Z</time>
      </trkpt>
      <trkpt lat="47.29106" lon="-2.4051">
        <ele>81.800003051758</ele>
        <time>2020-07-30T10:07:34.000Z</time>
      </trkpt>
      <trkpt lat="47.29119" lon="-2.40499">
        <ele>81.800003051758</ele>
        <time>2020-07-30T10:07:37.000Z</time>
      </trkpt>
      <trkpt lat="47.29125" lon="-2.40496">
        <ele>81.800003051758</ele>
        <time>2020-07-30T10:07:38.000Z</time>
      </trkpt>
      <trkpt lat="47.29146" lon="-2.40486">
        <ele>81.800003051758</ele>
        <time>2020-07-30T10:07:42.000Z</time>
      </trkpt>
      <trkpt lat="47.29151" lon="-2.40486">
        <ele>81.800003051758</ele>
        <time>2020-07-30T10:07:43.000Z</time>
      </trkpt>
      <trkpt lat="47.29165" lon="-2.40498">
        <ele>81.800003051758</ele>
        <time>2020-07-30T10:07:46.000Z</time>
      </trkpt>
      <trkpt lat="47.29171" lon="-2.40511">
        <ele>81.800003051758</ele>
        <time>2020-07-30T10:07:48.000Z</time>
      </trkpt>
      <trkpt lat="47.29175" lon="-2.40517">
        <ele>81.800003051758</ele>
        <time>2020-07-30T10:07:49.000Z</time>
      </trkpt>
      <trkpt lat="47.29179" lon="-2.4052">
        <ele>81.800003051758</ele>
        <time>2020-07-30T10:07:50.000Z</time>
      </trkpt>
      <trkpt lat="47.2919" lon="-2.40517">
        <ele>81.800003051758</ele>
        <time>2020-07-30T10:07:52.000Z</time>
      </trkpt>
      <trkpt lat="47.292" lon="-2.40512">
        <ele>81.800003051758</ele>
        <time>2020-07-30T10:07:54.000Z</time>
      </trkpt>
      <trkpt lat="47.29225" lon="-2.40496">
        <ele>81.800003051758</ele>
        <time>2020-07-30T10:07:59.000Z</time>
      </trkpt>
      <trkpt lat="47.29244" lon="-2.40485">
        <ele>81.800003051758</ele>
        <time>2020-07-30T10:08:03.000Z</time>
      </trkpt>
      <trkpt lat="47.29253" lon="-2.40481">
        <ele>81.800003051758</ele>
        <time>2020-07-30T10:08:05.000Z</time>
      </trkpt>
      <trkpt lat="47.29258" lon="-2.40478">
        <ele>81.800003051758</ele>
        <time>2020-07-30T10:08:06.000Z</time>
      </trkpt>
      <trkpt lat="47.29283" lon="-2.40468">
        <ele>81.800003051758</ele>
        <time>2020-07-30T10:08:11.000Z</time>
      </trkpt>
      <trkpt lat="47.29296" lon="-2.40449">
        <ele>81.800003051758</ele>
        <time>2020-07-30T10:08:15.000Z</time>
      </trkpt>
      <trkpt lat="47.29298" lon="-2.40442">
        <ele>81.800003051758</ele>
        <time>2020-07-30T10:08:16.000Z</time>
      </trkpt>
      <trkpt lat="47.293" lon="-2.40436">
        <ele>82.199996948242</ele>
        <time>2020-07-30T10:08:17.000Z</time>
      </trkpt>
      <trkpt lat="47.29302" lon="-2.40429">
        <ele>83</ele>
        <time>2020-07-30T10:08:18.000Z</time>
      </trkpt>
      <trkpt lat="47.29304" lon="-2.40423">
        <ele>83.400001525879</ele>
        <time>2020-07-30T10:08:19.000Z</time>
      </trkpt>
      <trkpt lat="47.29307" lon="-2.40416">
        <ele>83.800003051758</ele>
        <time>2020-07-30T10:08:20.000Z</time>
      </trkpt>
      <trkpt lat="47.29308" lon="-2.40409">
        <ele>83.800003051758</ele>
        <time>2020-07-30T10:08:21.000Z</time>
      </trkpt>
      <trkpt lat="47.29308" lon="-2.40401">
        <ele>83.800003051758</ele>
        <time>2020-07-30T10:08:22.000Z</time>
      </trkpt>
      <trkpt lat="47.29298" lon="-2.40382">
        <ele>83.800003051758</ele>
        <time>2020-07-30T10:08:25.000Z</time>
      </trkpt>
      <trkpt lat="47.29288" lon="-2.40357">
        <ele>83.800003051758</ele>
        <time>2020-07-30T10:08:29.000Z</time>
      </trkpt>
      <trkpt lat="47.29287" lon="-2.40344">
        <ele>83.800003051758</ele>
        <time>2020-07-30T10:08:31.000Z</time>
      </trkpt>
      <trkpt lat="47.29296" lon="-2.4033">
        <ele>83.800003051758</ele>
        <time>2020-07-30T10:08:34.000Z</time>
      </trkpt>
      <trkpt lat="47.29304" lon="-2.40322">
        <ele>83.800003051758</ele>
        <time>2020-07-30T10:08:36.000Z</time>
      </trkpt>
      <trkpt lat="47.29313" lon="-2.40313">
        <ele>83.400001525879</ele>
        <time>2020-07-30T10:08:38.000Z</time>
      </trkpt>
      <trkpt lat="47.29317" lon="-2.40309">
        <ele>83</ele>
        <time>2020-07-30T10:08:39.000Z</time>
      </trkpt>
      <trkpt lat="47.29321" lon="-2.40304">
        <ele>82.599998474121</ele>
        <time>2020-07-30T10:08:40.000Z</time>
      </trkpt>
      <trkpt lat="47.29325" lon="-2.40299">
        <ele>82.199996948242</ele>
        <time>2020-07-30T10:08:41.000Z</time>
      </trkpt>
      <trkpt lat="47.29329" lon="-2.40294">
        <ele>81.800003051758</ele>
        <time>2020-07-30T10:08:42.000Z</time>
      </trkpt>
      <trkpt lat="47.29344" lon="-2.40278">
        <ele>81.800003051758</ele>
        <time>2020-07-30T10:08:46.000Z</time>
      </trkpt>
      <trkpt lat="47.29365" lon="-2.40259">
        <ele>81.800003051758</ele>
        <time>2020-07-30T10:08:51.000Z</time>
      </trkpt>
      <trkpt lat="47.29387" lon="-2.40241">
        <ele>81.800003051758</ele>
        <time>2020-07-30T10:08:57.000Z</time>
      </trkpt>
      <trkpt lat="47.29416" lon="-2.40223">
        <ele>81.800003051758</ele>
        <time>2020-07-30T10:09:04.000Z</time>
      </trkpt>
      <trkpt lat="47.29429" lon="-2.40218">
        <ele>81.800003051758</ele>
        <time>2020-07-30T10:09:07.000Z</time>
      </trkpt>
      <trkpt lat="47.29438" lon="-2.40219">
        <ele>81.800003051758</ele>
        <time>2020-07-30T10:09:09.000Z</time>
      </trkpt>
      <trkpt lat="47.29447" lon="-2.40207">
        <ele>81.800003051758</ele>
        <time>2020-07-30T10:09:12.000Z</time>
      </trkpt>
      <trkpt lat="47.29449" lon="-2.40193">
        <ele>81.800003051758</ele>
        <time>2020-07-30T10:09:14.000Z</time>
      </trkpt>
      <trkpt lat="47.29452" lon="-2.40179">
        <ele>81.800003051758</ele>
        <time>2020-07-30T10:09:16.000Z</time>
      </trkpt>
      <trkpt lat="47.29457" lon="-2.40131">
        <ele>81.800003051758</ele>
        <time>2020-07-30T10:09:23.000Z</time>
      </trkpt>
      <trkpt lat="47.29461" lon="-2.40088">
        <ele>81.800003051758</ele>
        <time>2020-07-30T10:09:30.000Z</time>
      </trkpt>
      <trkpt lat="47.29463" lon="-2.4007">
        <ele>81.800003051758</ele>
        <time>2020-07-30T10:09:33.000Z</time>
      </trkpt>
      <trkpt lat="47.29463" lon="-2.40053">
        <ele>81.800003051758</ele>
        <time>2020-07-30T10:09:36.000Z</time>
      </trkpt>
      <trkpt lat="47.29461" lon="-2.40023">
        <ele>81.800003051758</ele>
        <time>2020-07-30T10:09:42.000Z</time>
      </trkpt>
      <trkpt lat="47.29462" lon="-2.39991">
        <ele>81.800003051758</ele>
        <time>2020-07-30T10:09:48.000Z</time>
      </trkpt>
      <trkpt lat="47.29463" lon="-2.39985">
        <ele>81.800003051758</ele>
        <time>2020-07-30T10:09:49.000Z</time>
      </trkpt>
      <trkpt lat="47.2947" lon="-2.3996">
        <ele>81.800003051758</ele>
        <time>2020-07-30T10:09:54.000Z</time>
      </trkpt>
      <trkpt lat="47.2948" lon="-2.39937">
        <ele>81.800003051758</ele>
        <time>2020-07-30T10:10:00.000Z</time>
      </trkpt>
      <trkpt lat="47.29484" lon="-2.39925">
        <ele>81.800003051758</ele>
        <time>2020-07-30T10:10:05.000Z</time>
      </trkpt>
      <trkpt lat="47.29491" lon="-2.39908">
        <ele>81.800003051758</ele>
        <time>2020-07-30T10:10:11.000Z</time>
      </trkpt>
      <trkpt lat="47.29504" lon="-2.39895">
        <ele>81.800003051758</ele>
        <time>2020-07-30T10:10:16.000Z</time>
      </trkpt>
      <trkpt lat="47.29504" lon="-2.39895">
        <ele>81.800003051758</ele>
        <time>2020-07-30T10:10:18.000Z</time>
      </trkpt>
      <trkpt lat="47.29505" lon="-2.3989">
        <ele>81.800003051758</ele>
        <time>2020-07-30T10:10:30.000Z</time>
      </trkpt>
      <trkpt lat="47.29512" lon="-2.39876">
        <ele>81.800003051758</ele>
        <time>2020-07-30T10:10:34.000Z</time>
      </trkpt>
      <trkpt lat="47.29521" lon="-2.39859">
        <ele>81.800003051758</ele>
        <time>2020-07-30T10:10:37.000Z</time>
      </trkpt>
      <trkpt lat="47.29524" lon="-2.39852">
        <ele>81.800003051758</ele>
        <time>2020-07-30T10:10:38.000Z</time>
      </trkpt>
      <trkpt lat="47.29545" lon="-2.39808">
        <ele>81.800003051758</ele>
        <time>2020-07-30T10:10:44.000Z</time>
      </trkpt>
      <trkpt lat="47.29567" lon="-2.39761">
        <ele>81.800003051758</ele>
        <time>2020-07-30T10:10:50.000Z</time>
      </trkpt>
      <trkpt lat="47.29574" lon="-2.39746">
        <ele>81.800003051758</ele>
        <time>2020-07-30T10:10:52.000Z</time>
      </trkpt>
      <trkpt lat="47.29586" lon="-2.39726">
        <ele>82.199996948242</ele>
        <time>2020-07-30T10:10:55.000Z</time>
      </trkpt>
      <trkpt lat="47.2959" lon="-2.39719">
        <ele>82.599998474121</ele>
        <time>2020-07-30T10:10:56.000Z</time>
      </trkpt>
      <trkpt lat="47.29593" lon="-2.39712">
        <ele>83</ele>
        <time>2020-07-30T10:10:57.000Z</time>
      </trkpt>
      <trkpt lat="47.29597" lon="-2.39705">
        <ele>83.400001525879</ele>
        <time>2020-07-30T10:10:58.000Z</time>
      </trkpt>
      <trkpt lat="47.29601" lon="-2.39698">
        <ele>84</ele>
        <time>2020-07-30T10:10:59.000Z</time>
      </trkpt>
      <trkpt lat="47.29608" lon="-2.39684">
        <ele>84</ele>
        <time>2020-07-30T10:11:01.000Z</time>
      </trkpt>
      <trkpt lat="47.29625" lon="-2.39648">
        <ele>84</ele>
        <time>2020-07-30T10:11:06.000Z</time>
      </trkpt>
      <trkpt lat="47.29627" lon="-2.39639">
        <ele>84</ele>
        <time>2020-07-30T10:11:07.000Z</time>
      </trkpt>
      <trkpt lat="47.29629" lon="-2.39612">
        <ele>84</ele>
        <time>2020-07-30T10:11:10.000Z</time>
      </trkpt>
      <trkpt lat="47.2963" lon="-2.39597">
        <ele>84</ele>
        <time>2020-07-30T10:11:12.000Z</time>
      </trkpt>
      <trkpt lat="47.2963" lon="-2.39576">
        <ele>84</ele>
        <time>2020-07-30T10:11:15.000Z</time>
      </trkpt>
      <trkpt lat="47.29625" lon="-2.39571">
        <ele>84</ele>
        <time>2020-07-30T10:11:17.000Z</time>
      </trkpt>
      <trkpt lat="47.29612" lon="-2.39572">
        <ele>84</ele>
        <time>2020-07-30T10:11:21.000Z</time>
      </trkpt>
      <trkpt lat="47.29614" lon="-2.39566">
        <ele>84</ele>
        <time>2020-07-30T10:11:23.000Z</time>
      </trkpt>
      <trkpt lat="47.29625" lon="-2.39561">
        <ele>84</ele>
        <time>2020-07-30T10:11:27.000Z</time>
      </trkpt>
      <trkpt lat="47.29623" lon="-2.39554">
        <ele>84.400001525879</ele>
        <time>2020-07-30T10:11:29.000Z</time>
      </trkpt>
      <trkpt lat="47.29622" lon="-2.39552">
        <ele>84.800003051758</ele>
        <time>2020-07-30T10:11:30.000Z</time>
      </trkpt>
      <trkpt lat="47.29619" lon="-2.39552">
        <ele>85.199996948242</ele>
        <time>2020-07-30T10:11:31.000Z</time>
      </trkpt>
      <trkpt lat="47.29615" lon="-2.39552">
        <ele>85.599998474121</ele>
        <time>2020-07-30T10:11:32.000Z</time>
      </trkpt>
      <trkpt lat="47.29612" lon="-2.39552">
        <ele>86</ele>
        <time>2020-07-30T10:11:33.000Z</time>
      </trkpt>
      <trkpt lat="47.29609" lon="-2.39552">
        <ele>86</ele>
        <time>2020-07-30T10:11:34.000Z</time>
      </trkpt>
      <trkpt lat="47.29598" lon="-2.3955">
        <ele>86.599998474121</ele>
        <time>2020-07-30T10:11:38.000Z</time>
      </trkpt>
      <trkpt lat="47.29595" lon="-2.3955">
        <ele>87</ele>
        <time>2020-07-30T10:11:39.000Z</time>
      </trkpt>
      <trkpt lat="47.29593" lon="-2.3955">
        <ele>87.400001525879</ele>
        <time>2020-07-30T10:11:40.000Z</time>
      </trkpt>
      <trkpt lat="47.2959" lon="-2.3955">
        <ele>87.800003051758</ele>
        <time>2020-07-30T10:11:41.000Z</time>
      </trkpt>
      <trkpt lat="47.29587" lon="-2.3955">
        <ele>88.199996948242</ele>
        <time>2020-07-30T10:11:42.000Z</time>
      </trkpt>
      <trkpt lat="47.29572" lon="-2.39547">
        <ele>88.199996948242</ele>
        <time>2020-07-30T10:11:46.000Z</time>
      </trkpt>
      <trkpt lat="47.29547" lon="-2.3954">
        <ele>88.199996948242</ele>
        <time>2020-07-30T10:11:50.000Z</time>
      </trkpt>
      <trkpt lat="47.29507" lon="-2.39533">
        <ele>87.800003051758</ele>
        <time>2020-07-30T10:11:55.000Z</time>
      </trkpt>
      <trkpt lat="47.29498" lon="-2.39531">
        <ele>87.199996948242</ele>
        <time>2020-07-30T10:11:56.000Z</time>
      </trkpt>
      <trkpt lat="47.2949" lon="-2.3953">
        <ele>86.800003051758</ele>
        <time>2020-07-30T10:11:57.000Z</time>
      </trkpt>
      <trkpt lat="47.29483" lon="-2.39529">
        <ele>86.199996948242</ele>
        <time>2020-07-30T10:11:58.000Z</time>
      </trkpt>
      <trkpt lat="47.29475" lon="-2.39527">
        <ele>85.800003051758</ele>
        <time>2020-07-30T10:11:59.000Z</time>
      </trkpt>
      <trkpt lat="47.29461" lon="-2.39525">
        <ele>85.800003051758</ele>
        <time>2020-07-30T10:12:01.000Z</time>
      </trkpt>
      <trkpt lat="47.29414" lon="-2.39516">
        <ele>85.800003051758</ele>
        <time>2020-07-30T10:12:08.000Z</time>
      </trkpt>
      <trkpt lat="47.29408" lon="-2.39514">
        <ele>85.400001525879</ele>
        <time>2020-07-30T10:12:09.000Z</time>
      </trkpt>
      <trkpt lat="47.29401" lon="-2.39512">
        <ele>85</ele>
        <time>2020-07-30T10:12:10.000Z</time>
      </trkpt>
      <trkpt lat="47.29395" lon="-2.3951">
        <ele>84.400001525879</ele>
        <time>2020-07-30T10:12:11.000Z</time>
      </trkpt>
      <trkpt lat="47.29388" lon="-2.39509">
        <ele>84</ele>
        <time>2020-07-30T10:12:12.000Z</time>
      </trkpt>
      <trkpt lat="47.29382" lon="-2.39507">
        <ele>83.599998474121</ele>
        <time>2020-07-30T10:12:13.000Z</time>
      </trkpt>
      <trkpt lat="47.29369" lon="-2.39505">
        <ele>83.599998474121</ele>
        <time>2020-07-30T10:12:15.000Z</time>
      </trkpt>
      <trkpt lat="47.29313" lon="-2.39495">
        <ele>83.599998474121</ele>
        <time>2020-07-30T10:12:24.000Z</time>
      </trkpt>
      <trkpt lat="47.29275" lon="-2.39488">
        <ele>83.599998474121</ele>
        <time>2020-07-30T10:12:31.000Z</time>
      </trkpt>
      <trkpt lat="47.29255" lon="-2.39483">
        <ele>83.599998474121</ele>
        <time>2020-07-30T10:12:36.000Z</time>
      </trkpt>
      <trkpt lat="47.29233" lon="-2.3948">
        <ele>83.599998474121</ele>
        <time>2020-07-30T10:12:42.000Z</time>
      </trkpt>
      <trkpt lat="47.29197" lon="-2.39473">
        <ele>83.599998474121</ele>
        <time>2020-07-30T10:12:51.000Z</time>
      </trkpt>
      <trkpt lat="47.29171" lon="-2.39467">
        <ele>83.599998474121</ele>
        <time>2020-07-30T10:12:57.000Z</time>
      </trkpt>
      <trkpt lat="47.2915" lon="-2.39465">
        <ele>83.599998474121</ele>
        <time>2020-07-30T10:13:03.000Z</time>
      </trkpt>
      <trkpt lat="47.29148" lon="-2.39465">
        <ele>83.599998474121</ele>
        <time>2020-07-30T10:13:04.000Z</time>
      </trkpt>
      <trkpt lat="47.29139" lon="-2.39462">
        <ele>83.599998474121</ele>
        <time>2020-07-30T10:13:08.000Z</time>
      </trkpt>
      <trkpt lat="47.29139" lon="-2.3945">
        <ele>83.599998474121</ele>
        <time>2020-07-30T10:13:12.000Z</time>
      </trkpt>
      <trkpt lat="47.29137" lon="-2.39442">
        <ele>83.599998474121</ele>
        <time>2020-07-30T10:13:14.000Z</time>
      </trkpt>
      <trkpt lat="47.29134" lon="-2.39431">
        <ele>83.599998474121</ele>
        <time>2020-07-30T10:13:16.000Z</time>
      </trkpt>
      <trkpt lat="47.29133" lon="-2.39424">
        <ele>83.599998474121</ele>
        <time>2020-07-30T10:13:17.000Z</time>
      </trkpt>
      <trkpt lat="47.29133" lon="-2.39401">
        <ele>83.599998474121</ele>
        <time>2020-07-30T10:13:20.000Z</time>
      </trkpt>
      <trkpt lat="47.29132" lon="-2.39378">
        <ele>83.599998474121</ele>
        <time>2020-07-30T10:13:23.000Z</time>
      </trkpt>
      <trkpt lat="47.29124" lon="-2.39369">
        <ele>83.599998474121</ele>
        <time>2020-07-30T10:13:25.000Z</time>
      </trkpt>
      <trkpt lat="47.29112" lon="-2.39375">
        <ele>83.599998474121</ele>
        <time>2020-07-30T10:13:28.000Z</time>
      </trkpt>
      <trkpt lat="47.29109" lon="-2.39378">
        <ele>83.599998474121</ele>
        <time>2020-07-30T10:13:29.000Z</time>
      </trkpt>
      <trkpt lat="47.29095" lon="-2.39382">
        <ele>83.599998474121</ele>
        <time>2020-07-30T10:13:33.000Z</time>
      </trkpt>
      <trkpt lat="47.29083" lon="-2.39371">
        <ele>83.599998474121</ele>
        <time>2020-07-30T10:13:37.000Z</time>
      </trkpt>
      <trkpt lat="47.29064" lon="-2.39357">
        <ele>83.599998474121</ele>
        <time>2020-07-30T10:13:41.000Z</time>
      </trkpt>
      <trkpt lat="47.29017" lon="-2.39334">
        <ele>83.599998474121</ele>
        <time>2020-07-30T10:13:49.000Z</time>
      </trkpt>
      <trkpt lat="47.2898" lon="-2.3932">
        <ele>83.599998474121</ele>
        <time>2020-07-30T10:13:56.000Z</time>
      </trkpt>
      <trkpt lat="47.28953" lon="-2.3932">
        <ele>83.599998474121</ele>
        <time>2020-07-30T10:14:02.000Z</time>
      </trkpt>
      <trkpt lat="47.28941" lon="-2.39301">
        <ele>83.599998474121</ele>
        <time>2020-07-30T10:14:06.000Z</time>
      </trkpt>
      <trkpt lat="47.28934" lon="-2.39266">
        <ele>83.599998474121</ele>
        <time>2020-07-30T10:14:11.000Z</time>
      </trkpt>
      <trkpt lat="47.28932" lon="-2.39205">
        <ele>83.599998474121</ele>
        <time>2020-07-30T10:14:19.000Z</time>
      </trkpt>
      <trkpt lat="47.28932" lon="-2.39158">
        <ele>83.599998474121</ele>
        <time>2020-07-30T10:14:25.000Z</time>
      </trkpt>
      <trkpt lat="47.28933" lon="-2.3915">
        <ele>83.599998474121</ele>
        <time>2020-07-30T10:14:26.000Z</time>
      </trkpt>
      <trkpt lat="47.28942" lon="-2.39088">
        <ele>83.599998474121</ele>
        <time>2020-07-30T10:14:34.000Z</time>
      </trkpt>
      <trkpt lat="47.28949" lon="-2.39019">
        <ele>83.599998474121</ele>
        <time>2020-07-30T10:14:43.000Z</time>
      </trkpt>
      <trkpt lat="47.28953" lon="-2.38964">
        <ele>83.599998474121</ele>
        <time>2020-07-30T10:14:50.000Z</time>
      </trkpt>
      <trkpt lat="47.28954" lon="-2.38933">
        <ele>83.599998474121</ele>
        <time>2020-07-30T10:14:54.000Z</time>
      </trkpt>
      <trkpt lat="47.28955" lon="-2.38909">
        <ele>83.599998474121</ele>
        <time>2020-07-30T10:14:57.000Z</time>
      </trkpt>
      <trkpt lat="47.28957" lon="-2.38861">
        <ele>83.599998474121</ele>
        <time>2020-07-30T10:15:03.000Z</time>
      </trkpt>
      <trkpt lat="47.28958" lon="-2.38845">
        <ele>83.599998474121</ele>
        <time>2020-07-30T10:15:05.000Z</time>
      </trkpt>
      <trkpt lat="47.28959" lon="-2.38828">
        <ele>83.599998474121</ele>
        <time>2020-07-30T10:15:07.000Z</time>
      </trkpt>
      <trkpt lat="47.28959" lon="-2.38811">
        <ele>83.599998474121</ele>
        <time>2020-07-30T10:15:09.000Z</time>
      </trkpt>
      <trkpt lat="47.28959" lon="-2.38752">
        <ele>83.599998474121</ele>
        <time>2020-07-30T10:15:16.000Z</time>
      </trkpt>
      <trkpt lat="47.28957" lon="-2.38703">
        <ele>83.599998474121</ele>
        <time>2020-07-30T10:15:22.000Z</time>
      </trkpt>
      <trkpt lat="47.28957" lon="-2.38625">
        <ele>83.599998474121</ele>
        <time>2020-07-30T10:15:31.000Z</time>
      </trkpt>
      <trkpt lat="47.28952" lon="-2.38549">
        <ele>83.599998474121</ele>
        <time>2020-07-30T10:15:40.000Z</time>
      </trkpt>
      <trkpt lat="47.28943" lon="-2.3847">
        <ele>83.599998474121</ele>
        <time>2020-07-30T10:15:49.000Z</time>
      </trkpt>
      <trkpt lat="47.28939" lon="-2.38414">
        <ele>83.599998474121</ele>
        <time>2020-07-30T10:15:56.000Z</time>
      </trkpt>
      <trkpt lat="47.28935" lon="-2.38352">
        <ele>83.599998474121</ele>
        <time>2020-07-30T10:16:03.000Z</time>
      </trkpt>
      <trkpt lat="47.28934" lon="-2.38287">
        <ele>83.599998474121</ele>
        <time>2020-07-30T10:16:10.000Z</time>
      </trkpt>
      <trkpt lat="47.28936" lon="-2.38235">
        <ele>83.599998474121</ele>
        <time>2020-07-30T10:16:16.000Z</time>
      </trkpt>
      <trkpt lat="47.28934" lon="-2.38228">
        <ele>83.599998474121</ele>
        <time>2020-07-30T10:16:17.000Z</time>
      </trkpt>
      <trkpt lat="47.28919" lon="-2.38217">
        <ele>83.599998474121</ele>
        <time>2020-07-30T10:16:20.000Z</time>
      </trkpt>
      <trkpt lat="47.28904" lon="-2.38208">
        <ele>83.599998474121</ele>
        <time>2020-07-30T10:16:23.000Z</time>
      </trkpt>
      <trkpt lat="47.28898" lon="-2.38195">
        <ele>83.599998474121</ele>
        <time>2020-07-30T10:16:25.000Z</time>
      </trkpt>
      <trkpt lat="47.28901" lon="-2.38169">
        <ele>83.599998474121</ele>
        <time>2020-07-30T10:16:28.000Z</time>
      </trkpt>
      <trkpt lat="47.28906" lon="-2.38093">
        <ele>83.599998474121</ele>
        <time>2020-07-30T10:16:36.000Z</time>
      </trkpt>
      <trkpt lat="47.28908" lon="-2.38026">
        <ele>83.599998474121</ele>
        <time>2020-07-30T10:16:43.000Z</time>
      </trkpt>
      <trkpt lat="47.28914" lon="-2.37956">
        <ele>83.599998474121</ele>
        <time>2020-07-30T10:16:50.000Z</time>
      </trkpt>
      <trkpt lat="47.2892" lon="-2.37883">
        <ele>83.599998474121</ele>
        <time>2020-07-30T10:16:58.000Z</time>
      </trkpt>
      <trkpt lat="47.28924" lon="-2.37825">
        <ele>83.599998474121</ele>
        <time>2020-07-30T10:17:05.000Z</time>
      </trkpt>
      <trkpt lat="47.28927" lon="-2.37791">
        <ele>83.599998474121</ele>
        <time>2020-07-30T10:17:09.000Z</time>
      </trkpt>
      <trkpt lat="47.28929" lon="-2.37766">
        <ele>83.599998474121</ele>
        <time>2020-07-30T10:17:12.000Z</time>
      </trkpt>
      <trkpt lat="47.2893" lon="-2.37725">
        <ele>83.599998474121</ele>
        <time>2020-07-30T10:17:17.000Z</time>
      </trkpt>
      <trkpt lat="47.28932" lon="-2.37711">
        <ele>83.599998474121</ele>
        <time>2020-07-30T10:17:19.000Z</time>
      </trkpt>
      <trkpt lat="47.28936" lon="-2.37672">
        <ele>83.599998474121</ele>
        <time>2020-07-30T10:17:26.000Z</time>
      </trkpt>
      <trkpt lat="47.28936" lon="-2.37662">
        <ele>83.599998474121</ele>
        <time>2020-07-30T10:17:30.000Z</time>
      </trkpt>
      <trkpt lat="47.28934" lon="-2.37656">
        <ele>83.599998474121</ele>
        <time>2020-07-30T10:17:35.000Z</time>
      </trkpt>
      <trkpt lat="47.28932" lon="-2.37654">
        <ele>83.599998474121</ele>
        <time>2020-07-30T10:18:55.000Z</time>
      </trkpt>
      <trkpt lat="47.2893" lon="-2.37651">
        <ele>83.599998474121</ele>
        <time>2020-07-30T10:18:57.000Z</time>
      </trkpt>
      <trkpt lat="47.28926" lon="-2.3765">
        <ele>83.599998474121</ele>
        <time>2020-07-30T10:18:59.000Z</time>
      </trkpt>
      <trkpt lat="47.28908" lon="-2.37652">
        <ele>83.599998474121</ele>
        <time>2020-07-30T10:19:05.000Z</time>
      </trkpt>
      <trkpt lat="47.28885" lon="-2.37657">
        <ele>83.599998474121</ele>
        <time>2020-07-30T10:19:11.000Z</time>
      </trkpt>
      <trkpt lat="47.28863" lon="-2.37654">
        <ele>83.599998474121</ele>
        <time>2020-07-30T10:19:17.000Z</time>
      </trkpt>
      <trkpt lat="47.2886" lon="-2.37648">
        <ele>83.599998474121</ele>
        <time>2020-07-30T10:19:21.000Z</time>
      </trkpt>
      <trkpt lat="47.28859" lon="-2.37647">
        <ele>83.599998474121</ele>
        <time>2020-07-30T10:19:22.000Z</time>
      </trkpt>
      <trkpt lat="47.28853" lon="-2.37637">
        <ele>83.599998474121</ele>
        <time>2020-07-30T10:19:28.000Z</time>
      </trkpt>
      <trkpt lat="47.28849" lon="-2.37633">
        <ele>83.599998474121</ele>
        <time>2020-07-30T10:19:30.000Z</time>
      </trkpt>
      <trkpt lat="47.28847" lon="-2.37634">
        <ele>83.599998474121</ele>
        <time>2020-07-30T10:19:31.000Z</time>
      </trkpt>
      <trkpt lat="47.28841" lon="-2.3764">
        <ele>83.599998474121</ele>
        <time>2020-07-30T10:19:33.000Z</time>
      </trkpt>
      <trkpt lat="47.28833" lon="-2.37656">
        <ele>83.599998474121</ele>
        <time>2020-07-30T10:19:36.000Z</time>
      </trkpt>
      <trkpt lat="47.2883" lon="-2.37663">
        <ele>83.599998474121</ele>
        <time>2020-07-30T10:19:37.000Z</time>
      </trkpt>
      <trkpt lat="47.28816" lon="-2.37692">
        <ele>83.599998474121</ele>
        <time>2020-07-30T10:19:42.000Z</time>
      </trkpt>
      <trkpt lat="47.28812" lon="-2.37697">
        <ele>83.599998474121</ele>
        <time>2020-07-30T10:19:43.000Z</time>
      </trkpt>
      <trkpt lat="47.28791" lon="-2.37704">
        <ele>83.599998474121</ele>
        <time>2020-07-30T10:19:47.000Z</time>
      </trkpt>
      <trkpt lat="47.28786" lon="-2.37708">
        <ele>83.599998474121</ele>
        <time>2020-07-30T10:19:48.000Z</time>
      </trkpt>
      <trkpt lat="47.28761" lon="-2.3773">
        <ele>83.599998474121</ele>
        <time>2020-07-30T10:19:54.000Z</time>
      </trkpt>
      <trkpt lat="47.28745" lon="-2.3775">
        <ele>83.599998474121</ele>
        <time>2020-07-30T10:19:59.000Z</time>
      </trkpt>
      <trkpt lat="47.28742" lon="-2.37755">
        <ele>83.599998474121</ele>
        <time>2020-07-30T10:20:00.000Z</time>
      </trkpt>
      <trkpt lat="47.28726" lon="-2.37778">
        <ele>83.599998474121</ele>
        <time>2020-07-30T10:20:04.000Z</time>
      </trkpt>
      <trkpt lat="47.28702" lon="-2.37818">
        <ele>83.599998474121</ele>
        <time>2020-07-30T10:20:11.000Z</time>
      </trkpt>
      <trkpt lat="47.28691" lon="-2.37838">
        <ele>83.599998474121</ele>
        <time>2020-07-30T10:20:15.000Z</time>
      </trkpt>
      <trkpt lat="47.28677" lon="-2.37863">
        <ele>83.599998474121</ele>
        <time>2020-07-30T10:20:21.000Z</time>
      </trkpt>
      <trkpt lat="47.28673" lon="-2.3787">
        <ele>83.599998474121</ele>
        <time>2020-07-30T10:20:26.000Z</time>
      </trkpt>
      <trkpt lat="47.28672" lon="-2.3787">
        <ele>83.599998474121</ele>
        <time>2020-07-30T10:20:27.000Z</time>
      </trkpt>
      <trkpt lat="47.28672" lon="-2.37871">
        <ele>83.599998474121</ele>
        <time>2020-07-30T10:20:42.000Z</time>
      </trkpt>
      <trkpt lat="47.2867" lon="-2.37877">
        <ele>83.599998474121</ele>
        <time>2020-07-30T10:20:44.000Z</time>
      </trkpt>
      <trkpt lat="47.28661" lon="-2.3789">
        <ele>83.599998474121</ele>
        <time>2020-07-30T10:20:48.000Z</time>
      </trkpt>
      <trkpt lat="47.28653" lon="-2.37905">
        <ele>83.599998474121</ele>
        <time>2020-07-30T10:20:52.000Z</time>
      </trkpt>
      <trkpt lat="47.28648" lon="-2.37915">
        <ele>83.599998474121</ele>
        <time>2020-07-30T10:20:54.000Z</time>
      </trkpt>
      <trkpt lat="47.28635" lon="-2.37933">
        <ele>83.599998474121</ele>
        <time>2020-07-30T10:20:58.000Z</time>
      </trkpt>
      <trkpt lat="47.28613" lon="-2.37964">
        <ele>83.599998474121</ele>
        <time>2020-07-30T10:21:05.000Z</time>
      </trkpt>
      <trkpt lat="47.28593" lon="-2.37989">
        <ele>83.599998474121</ele>
        <time>2020-07-30T10:21:11.000Z</time>
      </trkpt>
      <trkpt lat="47.2859" lon="-2.37993">
        <ele>83.599998474121</ele>
        <time>2020-07-30T10:21:12.000Z</time>
      </trkpt>
      <trkpt lat="47.28562" lon="-2.38027">
        <ele>83.599998474121</ele>
        <time>2020-07-30T10:21:20.000Z</time>
      </trkpt>
      <trkpt lat="47.2855" lon="-2.38037">
        <ele>83.599998474121</ele>
        <time>2020-07-30T10:21:23.000Z</time>
      </trkpt>
      <trkpt lat="47.2854" lon="-2.38048">
        <ele>83.599998474121</ele>
        <time>2020-07-30T10:21:26.000Z</time>
      </trkpt>
      <trkpt lat="47.28529" lon="-2.38062">
        <ele>83.599998474121</ele>
        <time>2020-07-30T10:21:31.000Z</time>
      </trkpt>
      <trkpt lat="47.28529" lon="-2.38063">
        <ele>83.599998474121</ele>
        <time>2020-07-30T10:21:32.000Z</time>
      </trkpt>
      <trkpt lat="47.28527" lon="-2.38066">
        <ele>83.599998474121</ele>
        <time>2020-07-30T10:21:40.000Z</time>
      </trkpt>
      <trkpt lat="47.28522" lon="-2.3807">
        <ele>83.599998474121</ele>
        <time>2020-07-30T10:21:42.000Z</time>
      </trkpt>
      <trkpt lat="47.28511" lon="-2.38079">
        <ele>83.599998474121</ele>
        <time>2020-07-30T10:21:45.000Z</time>
      </trkpt>
      <trkpt lat="47.28503" lon="-2.38086">
        <ele>83.599998474121</ele>
        <time>2020-07-30T10:21:47.000Z</time>
      </trkpt>
      <trkpt lat="47.28499" lon="-2.38089">
        <ele>83.599998474121</ele>
        <time>2020-07-30T10:21:48.000Z</time>
      </trkpt>
      <trkpt lat="47.28481" lon="-2.381">
        <ele>83.599998474121</ele>
        <time>2020-07-30T10:21:52.000Z</time>
      </trkpt>
      <trkpt lat="47.28466" lon="-2.38106">
        <ele>83.599998474121</ele>
        <time>2020-07-30T10:21:55.000Z</time>
      </trkpt>
      <trkpt lat="47.28457" lon="-2.3811">
        <ele>83.599998474121</ele>
        <time>2020-07-30T10:21:57.000Z</time>
      </trkpt>
      <trkpt lat="47.28429" lon="-2.38117">
        <ele>83.599998474121</ele>
        <time>2020-07-30T10:22:02.000Z</time>
      </trkpt>
      <trkpt lat="47.284" lon="-2.38116">
        <ele>83.599998474121</ele>
        <time>2020-07-30T10:22:07.000Z</time>
      </trkpt>
      <trkpt lat="47.28389" lon="-2.38113">
        <ele>83.599998474121</ele>
        <time>2020-07-30T10:22:09.000Z</time>
      </trkpt>
      <trkpt lat="47.28367" lon="-2.38104">
        <ele>83.599998474121</ele>
        <time>2020-07-30T10:22:13.000Z</time>
      </trkpt>
      <trkpt lat="47.28357" lon="-2.38096">
        <ele>83.599998474121</ele>
        <time>2020-07-30T10:22:15.000Z</time>
      </trkpt>
      <trkpt lat="47.28325" lon="-2.38062">
        <ele>83.599998474121</ele>
        <time>2020-07-30T10:22:22.000Z</time>
      </trkpt>
      <trkpt lat="47.28299" lon="-2.38034">
        <ele>83.599998474121</ele>
        <time>2020-07-30T10:22:28.000Z</time>
      </trkpt>
      <trkpt lat="47.28289" lon="-2.38027">
        <ele>83.599998474121</ele>
        <time>2020-07-30T10:22:30.000Z</time>
      </trkpt>
      <trkpt lat="47.28274" lon="-2.38019">
        <ele>83.599998474121</ele>
        <time>2020-07-30T10:22:33.000Z</time>
      </trkpt>
      <trkpt lat="47.28256" lon="-2.38014">
        <ele>83.599998474121</ele>
        <time>2020-07-30T10:22:36.000Z</time>
      </trkpt>
      <trkpt lat="47.2824" lon="-2.38014">
        <ele>83.599998474121</ele>
        <time>2020-07-30T10:22:39.000Z</time>
      </trkpt>
      <trkpt lat="47.28207" lon="-2.38024">
        <ele>83.599998474121</ele>
        <time>2020-07-30T10:22:46.000Z</time>
      </trkpt>
      <trkpt lat="47.28174" lon="-2.38035">
        <ele>84</ele>
        <time>2020-07-30T10:22:53.000Z</time>
      </trkpt>
      <trkpt lat="47.2817" lon="-2.38036">
        <ele>84.400001525879</ele>
        <time>2020-07-30T10:22:54.000Z</time>
      </trkpt>
      <trkpt lat="47.28166" lon="-2.38037">
        <ele>84.800003051758</ele>
        <time>2020-07-30T10:22:55.000Z</time>
      </trkpt>
      <trkpt lat="47.28161" lon="-2.38039">
        <ele>85.199996948242</ele>
        <time>2020-07-30T10:22:56.000Z</time>
      </trkpt>
      <trkpt lat="47.28156" lon="-2.38041">
        <ele>85.599998474121</ele>
        <time>2020-07-30T10:22:57.000Z</time>
      </trkpt>
      <trkpt lat="47.28146" lon="-2.38046">
        <ele>85.599998474121</ele>
        <time>2020-07-30T10:22:59.000Z</time>
      </trkpt>
      <trkpt lat="47.28107" lon="-2.38063">
        <ele>85.599998474121</ele>
        <time>2020-07-30T10:23:07.000Z</time>
      </trkpt>
      <trkpt lat="47.28065" lon="-2.38084">
        <ele>85.599998474121</ele>
        <time>2020-07-30T10:23:16.000Z</time>
      </trkpt>
      <trkpt lat="47.28037" lon="-2.38096">
        <ele>85.599998474121</ele>
        <time>2020-07-30T10:23:23.000Z</time>
      </trkpt>
      <trkpt lat="47.28034" lon="-2.38096">
        <ele>85.599998474121</ele>
        <time>2020-07-30T10:23:27.000Z</time>
      </trkpt>
      <trkpt lat="47.28031" lon="-2.38097">
        <ele>85.599998474121</ele>
        <time>2020-07-30T10:23:35.000Z</time>
      </trkpt>
      <trkpt lat="47.28027" lon="-2.38098">
        <ele>85.599998474121</ele>
        <time>2020-07-30T10:23:37.000Z</time>
      </trkpt>
      <trkpt lat="47.28025" lon="-2.38097">
        <ele>85.599998474121</ele>
        <time>2020-07-30T10:23:38.000Z</time>
      </trkpt>
      <trkpt lat="47.28021" lon="-2.38091">
        <ele>85.599998474121</ele>
        <time>2020-07-30T10:23:40.000Z</time>
      </trkpt>
      <trkpt lat="47.28013" lon="-2.38056">
        <ele>85.599998474121</ele>
        <time>2020-07-30T10:23:46.000Z</time>
      </trkpt>
      <trkpt lat="47.28005" lon="-2.38011">
        <ele>85.599998474121</ele>
        <time>2020-07-30T10:23:53.000Z</time>
      </trkpt>
      <trkpt lat="47.27996" lon="-2.37966">
        <ele>86</ele>
        <time>2020-07-30T10:23:59.000Z</time>
      </trkpt>
      <trkpt lat="47.27994" lon="-2.37958">
        <ele>86.599998474121</ele>
        <time>2020-07-30T10:24:00.000Z</time>
      </trkpt>
      <trkpt lat="47.27993" lon="-2.3795">
        <ele>87</ele>
        <time>2020-07-30T10:24:01.000Z</time>
      </trkpt>
      <trkpt lat="47.27992" lon="-2.37943">
        <ele>87.400001525879</ele>
        <time>2020-07-30T10:24:02.000Z</time>
      </trkpt>
      <trkpt lat="47.2799" lon="-2.37935">
        <ele>87.800003051758</ele>
        <time>2020-07-30T10:24:03.000Z</time>
      </trkpt>
      <trkpt lat="47.2798" lon="-2.37881">
        <ele>87.800003051758</ele>
        <time>2020-07-30T10:24:10.000Z</time>
      </trkpt>
      <trkpt lat="47.27973" lon="-2.3784">
        <ele>87.800003051758</ele>
        <time>2020-07-30T10:24:17.000Z</time>
      </trkpt>
      <trkpt lat="47.27967" lon="-2.3781">
        <ele>87.800003051758</ele>
        <time>2020-07-30T10:24:23.000Z</time>
      </trkpt>
      <trkpt lat="47.27966" lon="-2.37799">
        <ele>87.800003051758</ele>
        <time>2020-07-30T10:24:25.000Z</time>
      </trkpt>
      <trkpt lat="47.27965" lon="-2.37785">
        <ele>87.800003051758</ele>
        <time>2020-07-30T10:24:27.000Z</time>
      </trkpt>
      <trkpt lat="47.27958" lon="-2.37754">
        <ele>87.800003051758</ele>
        <time>2020-07-30T10:24:31.000Z</time>
      </trkpt>
      <trkpt lat="47.27956" lon="-2.37745">
        <ele>87.800003051758</ele>
        <time>2020-07-30T10:24:32.000Z</time>
      </trkpt>
      <trkpt lat="47.27938" lon="-2.3768">
        <ele>87.800003051758</ele>
        <time>2020-07-30T10:24:39.000Z</time>
      </trkpt>
      <trkpt lat="47.27921" lon="-2.37605">
        <ele>87.800003051758</ele>
        <time>2020-07-30T10:24:47.000Z</time>
      </trkpt>
      <trkpt lat="47.27904" lon="-2.37536">
        <ele>87.800003051758</ele>
        <time>2020-07-30T10:24:55.000Z</time>
      </trkpt>
      <trkpt lat="47.27892" lon="-2.3748">
        <ele>87.800003051758</ele>
        <time>2020-07-30T10:25:02.000Z</time>
      </trkpt>
      <trkpt lat="47.27877" lon="-2.37419">
        <ele>87.800003051758</ele>
        <time>2020-07-30T10:25:10.000Z</time>
      </trkpt>
      <trkpt lat="47.27855" lon="-2.3734">
        <ele>87.800003051758</ele>
        <time>2020-07-30T10:25:20.000Z</time>
      </trkpt>
      <trkpt lat="47.27853" lon="-2.37331">
        <ele>87.800003051758</ele>
        <time>2020-07-30T10:25:21.000Z</time>
      </trkpt>
      <trkpt lat="47.27831" lon="-2.37254">
        <ele>87.800003051758</ele>
        <time>2020-07-30T10:25:30.000Z</time>
      </trkpt>
      <trkpt lat="47.27823" lon="-2.37213">
        <ele>87.800003051758</ele>
        <time>2020-07-30T10:25:35.000Z</time>
      </trkpt>
      <trkpt lat="47.27821" lon="-2.37205">
        <ele>87.800003051758</ele>
        <time>2020-07-30T10:25:36.000Z</time>
      </trkpt>
      <trkpt lat="47.27816" lon="-2.37189">
        <ele>87.800003051758</ele>
        <time>2020-07-30T10:25:38.000Z</time>
      </trkpt>
      <trkpt lat="47.27813" lon="-2.37171">
        <ele>87.800003051758</ele>
        <time>2020-07-30T10:25:40.000Z</time>
      </trkpt>
      <trkpt lat="47.27807" lon="-2.37155">
        <ele>87.800003051758</ele>
        <time>2020-07-30T10:25:42.000Z</time>
      </trkpt>
      <trkpt lat="47.27801" lon="-2.37138">
        <ele>87.800003051758</ele>
        <time>2020-07-30T10:25:44.000Z</time>
      </trkpt>
      <trkpt lat="47.27785" lon="-2.37076">
        <ele>87.800003051758</ele>
        <time>2020-07-30T10:25:51.000Z</time>
      </trkpt>
      <trkpt lat="47.27783" lon="-2.37068">
        <ele>88.199996948242</ele>
        <time>2020-07-30T10:25:52.000Z</time>
      </trkpt>
      <trkpt lat="47.2778" lon="-2.37059">
        <ele>88.599998474121</ele>
        <time>2020-07-30T10:25:53.000Z</time>
      </trkpt>
      <trkpt lat="47.27778" lon="-2.3705">
        <ele>89</ele>
        <time>2020-07-30T10:25:54.000Z</time>
      </trkpt>
      <trkpt lat="47.27776" lon="-2.37041">
        <ele>89.400001525879</ele>
        <time>2020-07-30T10:25:55.000Z</time>
      </trkpt>
      <trkpt lat="47.27774" lon="-2.37033">
        <ele>89.800003051758</ele>
        <time>2020-07-30T10:25:56.000Z</time>
      </trkpt>
      <trkpt lat="47.27767" lon="-2.37007">
        <ele>89.800003051758</ele>
        <time>2020-07-30T10:25:59.000Z</time>
      </trkpt>
      <trkpt lat="47.27745" lon="-2.36931">
        <ele>89.800003051758</ele>
        <time>2020-07-30T10:26:08.000Z</time>
      </trkpt>
      <trkpt lat="47.27742" lon="-2.36922">
        <ele>89.800003051758</ele>
        <time>2020-07-30T10:26:09.000Z</time>
      </trkpt>
      <trkpt lat="47.27721" lon="-2.3685">
        <ele>89.800003051758</ele>
        <time>2020-07-30T10:26:17.000Z</time>
      </trkpt>
      <trkpt lat="47.27698" lon="-2.36771">
        <ele>89.800003051758</ele>
        <time>2020-07-30T10:26:26.000Z</time>
      </trkpt>
      <trkpt lat="47.27671" lon="-2.36692">
        <ele>89.800003051758</ele>
        <time>2020-07-30T10:26:35.000Z</time>
      </trkpt>
      <trkpt lat="47.27649" lon="-2.3663">
        <ele>89.800003051758</ele>
        <time>2020-07-30T10:26:42.000Z</time>
      </trkpt>
      <trkpt lat="47.27628" lon="-2.3657">
        <ele>89.800003051758</ele>
        <time>2020-07-30T10:26:49.000Z</time>
      </trkpt>
      <trkpt lat="47.27608" lon="-2.36513">
        <ele>89.800003051758</ele>
        <time>2020-07-30T10:26:55.000Z</time>
      </trkpt>
      <trkpt lat="47.27585" lon="-2.36448">
        <ele>89.800003051758</ele>
        <time>2020-07-30T10:27:02.000Z</time>
      </trkpt>
      <trkpt lat="47.27562" lon="-2.36391">
        <ele>89.800003051758</ele>
        <time>2020-07-30T10:27:08.000Z</time>
      </trkpt>
      <trkpt lat="47.27535" lon="-2.36317">
        <ele>89.800003051758</ele>
        <time>2020-07-30T10:27:16.000Z</time>
      </trkpt>
      <trkpt lat="47.27514" lon="-2.3626">
        <ele>89.800003051758</ele>
        <time>2020-07-30T10:27:23.000Z</time>
      </trkpt>
      <trkpt lat="47.2751" lon="-2.36252">
        <ele>89.800003051758</ele>
        <time>2020-07-30T10:27:24.000Z</time>
      </trkpt>
      <trkpt lat="47.27497" lon="-2.3622">
        <ele>89.800003051758</ele>
        <time>2020-07-30T10:27:28.000Z</time>
      </trkpt>
      <trkpt lat="47.2747" lon="-2.3615">
        <ele>89.800003051758</ele>
        <time>2020-07-30T10:27:36.000Z</time>
      </trkpt>
      <trkpt lat="47.27459" lon="-2.36114">
        <ele>89.800003051758</ele>
        <time>2020-07-30T10:27:40.000Z</time>
      </trkpt>
      <trkpt lat="47.27455" lon="-2.36106">
        <ele>89.800003051758</ele>
        <time>2020-07-30T10:27:41.000Z</time>
      </trkpt>
      <trkpt lat="47.27451" lon="-2.36099">
        <ele>89.800003051758</ele>
        <time>2020-07-30T10:27:42.000Z</time>
      </trkpt>
      <trkpt lat="47.27447" lon="-2.36091">
        <ele>89.800003051758</ele>
        <time>2020-07-30T10:27:43.000Z</time>
      </trkpt>
      <trkpt lat="47.27439" lon="-2.36064">
        <ele>89.800003051758</ele>
        <time>2020-07-30T10:27:46.000Z</time>
      </trkpt>
      <trkpt lat="47.27435" lon="-2.36056">
        <ele>89.800003051758</ele>
        <time>2020-07-30T10:27:47.000Z</time>
      </trkpt>
      <trkpt lat="47.27421" lon="-2.36022">
        <ele>89.800003051758</ele>
        <time>2020-07-30T10:27:51.000Z</time>
      </trkpt>
      <trkpt lat="47.27389" lon="-2.35947">
        <ele>89.800003051758</ele>
        <time>2020-07-30T10:28:00.000Z</time>
      </trkpt>
      <trkpt lat="47.27386" lon="-2.35938">
        <ele>89.800003051758</ele>
        <time>2020-07-30T10:28:01.000Z</time>
      </trkpt>
      <trkpt lat="47.27359" lon="-2.35868">
        <ele>89.800003051758</ele>
        <time>2020-07-30T10:28:09.000Z</time>
      </trkpt>
      <trkpt lat="47.27331" lon="-2.35797">
        <ele>89.800003051758</ele>
        <time>2020-07-30T10:28:17.000Z</time>
      </trkpt>
      <trkpt lat="47.27325" lon="-2.35778">
        <ele>89.400001525879</ele>
        <time>2020-07-30T10:28:19.000Z</time>
      </trkpt>
      <trkpt lat="47.27322" lon="-2.35769">
        <ele>89</ele>
        <time>2020-07-30T10:28:20.000Z</time>
      </trkpt>
      <trkpt lat="47.27319" lon="-2.3576">
        <ele>88.599998474121</ele>
        <time>2020-07-30T10:28:21.000Z</time>
      </trkpt>
      <trkpt lat="47.27315" lon="-2.35752">
        <ele>88.199996948242</ele>
        <time>2020-07-30T10:28:22.000Z</time>
      </trkpt>
      <trkpt lat="47.27311" lon="-2.35744">
        <ele>87.800003051758</ele>
        <time>2020-07-30T10:28:23.000Z</time>
      </trkpt>
      <trkpt lat="47.27307" lon="-2.35736">
        <ele>87.800003051758</ele>
        <time>2020-07-30T10:28:24.000Z</time>
      </trkpt>
      <trkpt lat="47.27298" lon="-2.3571">
        <ele>87.800003051758</ele>
        <time>2020-07-30T10:28:27.000Z</time>
      </trkpt>
      <trkpt lat="47.27295" lon="-2.35703">
        <ele>87.800003051758</ele>
        <time>2020-07-30T10:28:28.000Z</time>
      </trkpt>
      <trkpt lat="47.27283" lon="-2.35681">
        <ele>87.800003051758</ele>
        <time>2020-07-30T10:28:31.000Z</time>
      </trkpt>
      <trkpt lat="47.2726" lon="-2.35628">
        <ele>87.800003051758</ele>
        <time>2020-07-30T10:28:38.000Z</time>
      </trkpt>
      <trkpt lat="47.27231" lon="-2.35562">
        <ele>87.800003051758</ele>
        <time>2020-07-30T10:28:47.000Z</time>
      </trkpt>
      <trkpt lat="47.27208" lon="-2.35514">
        <ele>87.800003051758</ele>
        <time>2020-07-30T10:28:54.000Z</time>
      </trkpt>
      <trkpt lat="47.27179" lon="-2.35457">
        <ele>87.800003051758</ele>
        <time>2020-07-30T10:29:02.000Z</time>
      </trkpt>
      <trkpt lat="47.27148" lon="-2.35399">
        <ele>87.800003051758</ele>
        <time>2020-07-30T10:29:10.000Z</time>
      </trkpt>
      <trkpt lat="47.27111" lon="-2.35334">
        <ele>87.800003051758</ele>
        <time>2020-07-30T10:29:19.000Z</time>
      </trkpt>
      <trkpt lat="47.27074" lon="-2.35275">
        <ele>87.800003051758</ele>
        <time>2020-07-30T10:29:27.000Z</time>
      </trkpt>
      <trkpt lat="47.27069" lon="-2.35268">
        <ele>87.800003051758</ele>
        <time>2020-07-30T10:29:28.000Z</time>
      </trkpt>
      <trkpt lat="47.27039" lon="-2.35224">
        <ele>87.800003051758</ele>
        <time>2020-07-30T10:29:34.000Z</time>
      </trkpt>
      <trkpt lat="47.27" lon="-2.35162">
        <ele>87.800003051758</ele>
        <time>2020-07-30T10:29:42.000Z</time>
      </trkpt>
      <trkpt lat="47.26965" lon="-2.35108">
        <ele>87.800003051758</ele>
        <time>2020-07-30T10:29:49.000Z</time>
      </trkpt>
      <trkpt lat="47.26926" lon="-2.35047">
        <ele>87.800003051758</ele>
        <time>2020-07-30T10:29:57.000Z</time>
      </trkpt>
      <trkpt lat="47.26893" lon="-2.34997">
        <ele>87.800003051758</ele>
        <time>2020-07-30T10:30:04.000Z</time>
      </trkpt>
      <trkpt lat="47.26867" lon="-2.34957">
        <ele>87.800003051758</ele>
        <time>2020-07-30T10:30:10.000Z</time>
      </trkpt>
      <trkpt lat="47.26842" lon="-2.34919">
        <ele>87.800003051758</ele>
        <time>2020-07-30T10:30:16.000Z</time>
      </trkpt>
      <trkpt lat="47.26817" lon="-2.34883">
        <ele>87.800003051758</ele>
        <time>2020-07-30T10:30:22.000Z</time>
      </trkpt>
      <trkpt lat="47.26791" lon="-2.34847">
        <ele>87.800003051758</ele>
        <time>2020-07-30T10:30:28.000Z</time>
      </trkpt>
      <trkpt lat="47.26772" lon="-2.3482">
        <ele>87.800003051758</ele>
        <time>2020-07-30T10:30:34.000Z</time>
      </trkpt>
      <trkpt lat="47.26765" lon="-2.34812">
        <ele>87.800003051758</ele>
        <time>2020-07-30T10:30:36.000Z</time>
      </trkpt>
      <trkpt lat="47.26755" lon="-2.34798">
        <ele>87.800003051758</ele>
        <time>2020-07-30T10:30:39.000Z</time>
      </trkpt>
      <trkpt lat="47.26749" lon="-2.34789">
        <ele>87.800003051758</ele>
        <time>2020-07-30T10:30:41.000Z</time>
      </trkpt>
      <trkpt lat="47.26731" lon="-2.34766">
        <ele>87.800003051758</ele>
        <time>2020-07-30T10:30:46.000Z</time>
      </trkpt>
      <trkpt lat="47.26701" lon="-2.34729">
        <ele>87.800003051758</ele>
        <time>2020-07-30T10:30:54.000Z</time>
      </trkpt>
      <trkpt lat="47.26658" lon="-2.34675">
        <ele>87.800003051758</ele>
        <time>2020-07-30T10:31:05.000Z</time>
      </trkpt>
      <trkpt lat="47.26623" lon="-2.34631">
        <ele>87.800003051758</ele>
        <time>2020-07-30T10:31:14.000Z</time>
      </trkpt>
      <trkpt lat="47.2659" lon="-2.34591">
        <ele>87.800003051758</ele>
        <time>2020-07-30T10:31:22.000Z</time>
      </trkpt>
      <trkpt lat="47.26558" lon="-2.3456">
        <ele>87.800003051758</ele>
        <time>2020-07-30T10:31:29.000Z</time>
      </trkpt>
      <trkpt lat="47.26535" lon="-2.34535">
        <ele>87.800003051758</ele>
        <time>2020-07-30T10:31:35.000Z</time>
      </trkpt>
      <trkpt lat="47.26519" lon="-2.34521">
        <ele>87.800003051758</ele>
        <time>2020-07-30T10:31:40.000Z</time>
      </trkpt>
      <trkpt lat="47.26499" lon="-2.34508">
        <ele>87.800003051758</ele>
        <time>2020-07-30T10:31:47.000Z</time>
      </trkpt>
      <trkpt lat="47.26471" lon="-2.34486">
        <ele>87.800003051758</ele>
        <time>2020-07-30T10:31:56.000Z</time>
      </trkpt>
      <trkpt lat="47.26443" lon="-2.34467">
        <ele>87.800003051758</ele>
        <time>2020-07-30T10:32:04.000Z</time>
      </trkpt>
      <trkpt lat="47.26413" lon="-2.34445">
        <ele>87.800003051758</ele>
        <time>2020-07-30T10:32:12.000Z</time>
      </trkpt>
      <trkpt lat="47.26384" lon="-2.34422">
        <ele>87.800003051758</ele>
        <time>2020-07-30T10:32:20.000Z</time>
      </trkpt>
      <trkpt lat="47.26352" lon="-2.34393">
        <ele>87.800003051758</ele>
        <time>2020-07-30T10:32:29.000Z</time>
      </trkpt>
      <trkpt lat="47.26341" lon="-2.34384">
        <ele>87.800003051758</ele>
        <time>2020-07-30T10:32:32.000Z</time>
      </trkpt>
      <trkpt lat="47.26329" lon="-2.34381">
        <ele>87.800003051758</ele>
        <time>2020-07-30T10:32:35.000Z</time>
      </trkpt>
      <trkpt lat="47.26316" lon="-2.34367">
        <ele>87.800003051758</ele>
        <time>2020-07-30T10:32:39.000Z</time>
      </trkpt>
      <trkpt lat="47.26314" lon="-2.34361">
        <ele>87.800003051758</ele>
        <time>2020-07-30T10:32:40.000Z</time>
      </trkpt>
      <trkpt lat="47.26311" lon="-2.34357">
        <ele>87.800003051758</ele>
        <time>2020-07-30T10:32:41.000Z</time>
      </trkpt>
      <trkpt lat="47.263" lon="-2.34345">
        <ele>87.800003051758</ele>
        <time>2020-07-30T10:32:44.000Z</time>
      </trkpt>
      <trkpt lat="47.26277" lon="-2.34321">
        <ele>87.800003051758</ele>
        <time>2020-07-30T10:32:50.000Z</time>
      </trkpt>
      <trkpt lat="47.26273" lon="-2.34317">
        <ele>87.800003051758</ele>
        <time>2020-07-30T10:32:51.000Z</time>
      </trkpt>
      <trkpt lat="47.2625" lon="-2.34292">
        <ele>87.800003051758</ele>
        <time>2020-07-30T10:32:57.000Z</time>
      </trkpt>
      <trkpt lat="47.26243" lon="-2.34284">
        <ele>87.800003051758</ele>
        <time>2020-07-30T10:32:59.000Z</time>
      </trkpt>
      <trkpt lat="47.2624" lon="-2.3428">
        <ele>87.800003051758</ele>
        <time>2020-07-30T10:33:00.000Z</time>
      </trkpt>
      <trkpt lat="47.26211" lon="-2.34249">
        <ele>87.800003051758</ele>
        <time>2020-07-30T10:33:08.000Z</time>
      </trkpt>
      <trkpt lat="47.26172" lon="-2.3421">
        <ele>87.800003051758</ele>
        <time>2020-07-30T10:33:19.000Z</time>
      </trkpt>
      <trkpt lat="47.26147" lon="-2.34186">
        <ele>87.800003051758</ele>
        <time>2020-07-30T10:33:26.000Z</time>
      </trkpt>
      <trkpt lat="47.26134" lon="-2.34182">
        <ele>87.800003051758</ele>
        <time>2020-07-30T10:33:29.000Z</time>
      </trkpt>
      <trkpt lat="47.2613" lon="-2.34179">
        <ele>87.800003051758</ele>
        <time>2020-07-30T10:33:30.000Z</time>
      </trkpt>
      <trkpt lat="47.26119" lon="-2.34166">
        <ele>87.800003051758</ele>
        <time>2020-07-30T10:33:33.000Z</time>
      </trkpt>
      <trkpt lat="47.26111" lon="-2.34161">
        <ele>87.800003051758</ele>
        <time>2020-07-30T10:33:35.000Z</time>
      </trkpt>
      <trkpt lat="47.26076" lon="-2.34142">
        <ele>87.400001525879</ele>
        <time>2020-07-30T10:33:43.000Z</time>
      </trkpt>
      <trkpt lat="47.26072" lon="-2.34139">
        <ele>87</ele>
        <time>2020-07-30T10:33:44.000Z</time>
      </trkpt>
      <trkpt lat="47.26068" lon="-2.34136">
        <ele>86.599998474121</ele>
        <time>2020-07-30T10:33:45.000Z</time>
      </trkpt>
      <trkpt lat="47.26063" lon="-2.34134">
        <ele>86</ele>
        <time>2020-07-30T10:33:46.000Z</time>
      </trkpt>
      <trkpt lat="47.26059" lon="-2.34131">
        <ele>85.599998474121</ele>
        <time>2020-07-30T10:33:47.000Z</time>
      </trkpt>
      <trkpt lat="47.26036" lon="-2.3412">
        <ele>85.599998474121</ele>
        <time>2020-07-30T10:33:52.000Z</time>
      </trkpt>
      <trkpt lat="47.25992" lon="-2.34098">
        <ele>85.599998474121</ele>
        <time>2020-07-30T10:34:02.000Z</time>
      </trkpt>
      <trkpt lat="47.25961" lon="-2.34083">
        <ele>85.599998474121</ele>
        <time>2020-07-30T10:34:09.000Z</time>
      </trkpt>
      <trkpt lat="47.25929" lon="-2.34071">
        <ele>85.599998474121</ele>
        <time>2020-07-30T10:34:16.000Z</time>
      </trkpt>
      <trkpt lat="47.25908" lon="-2.34067">
        <ele>85.599998474121</ele>
        <time>2020-07-30T10:34:20.000Z</time>
      </trkpt>
      <trkpt lat="47.25904" lon="-2.34062">
        <ele>85.599998474121</ele>
        <time>2020-07-30T10:34:21.000Z</time>
      </trkpt>
      <trkpt lat="47.25899" lon="-2.34041">
        <ele>85.599998474121</ele>
        <time>2020-07-30T10:34:24.000Z</time>
      </trkpt>
      <trkpt lat="47.25905" lon="-2.34021">
        <ele>85.599998474121</ele>
        <time>2020-07-30T10:34:27.000Z</time>
      </trkpt>
      <trkpt lat="47.25912" lon="-2.33995">
        <ele>85.599998474121</ele>
        <time>2020-07-30T10:34:31.000Z</time>
      </trkpt>
      <trkpt lat="47.25915" lon="-2.33983">
        <ele>85.599998474121</ele>
        <time>2020-07-30T10:34:33.000Z</time>
      </trkpt>
      <trkpt lat="47.25921" lon="-2.33968">
        <ele>85.599998474121</ele>
        <time>2020-07-30T10:34:36.000Z</time>
      </trkpt>
      <trkpt lat="47.25923" lon="-2.33962">
        <ele>85.599998474121</ele>
        <time>2020-07-30T10:34:37.000Z</time>
      </trkpt>
      <trkpt lat="47.25934" lon="-2.33939">
        <ele>85.599998474121</ele>
        <time>2020-07-30T10:34:42.000Z</time>
      </trkpt>
      <trkpt lat="47.25937" lon="-2.33934">
        <ele>85.599998474121</ele>
        <time>2020-07-30T10:34:43.000Z</time>
      </trkpt>
      <trkpt lat="47.25947" lon="-2.33913">
        <ele>85.599998474121</ele>
        <time>2020-07-30T10:34:47.000Z</time>
      </trkpt>
      <trkpt lat="47.25953" lon="-2.33893">
        <ele>85.599998474121</ele>
        <time>2020-07-30T10:34:50.000Z</time>
      </trkpt>
      <trkpt lat="47.2596" lon="-2.33872">
        <ele>85.599998474121</ele>
        <time>2020-07-30T10:34:53.000Z</time>
      </trkpt>
      <trkpt lat="47.25976" lon="-2.33822">
        <ele>85.599998474121</ele>
        <time>2020-07-30T10:35:00.000Z</time>
      </trkpt>
      <trkpt lat="47.25994" lon="-2.33763">
        <ele>85.599998474121</ele>
        <time>2020-07-30T10:35:08.000Z</time>
      </trkpt>
      <trkpt lat="47.2601" lon="-2.33714">
        <ele>85.599998474121</ele>
        <time>2020-07-30T10:35:15.000Z</time>
      </trkpt>
      <trkpt lat="47.26023" lon="-2.33674">
        <ele>85.199996948242</ele>
        <time>2020-07-30T10:35:21.000Z</time>
      </trkpt>
      <trkpt lat="47.26026" lon="-2.33671">
        <ele>84.800003051758</ele>
        <time>2020-07-30T10:35:22.000Z</time>
      </trkpt>
      <trkpt lat="47.2603" lon="-2.3367">
        <ele>84.400001525879</ele>
        <time>2020-07-30T10:35:23.000Z</time>
      </trkpt>
      <trkpt lat="47.26034" lon="-2.33669">
        <ele>84</ele>
        <time>2020-07-30T10:35:24.000Z</time>
      </trkpt>
      <trkpt lat="47.26038" lon="-2.3367">
        <ele>83.599998474121</ele>
        <time>2020-07-30T10:35:25.000Z</time>
      </trkpt>
      <trkpt lat="47.26043" lon="-2.33668">
        <ele>83.599998474121</ele>
        <time>2020-07-30T10:35:26.000Z</time>
      </trkpt>
      <trkpt lat="47.26051" lon="-2.33652">
        <ele>83.599998474121</ele>
        <time>2020-07-30T10:35:29.000Z</time>
      </trkpt>
      <trkpt lat="47.26053" lon="-2.33645">
        <ele>83.599998474121</ele>
        <time>2020-07-30T10:35:30.000Z</time>
      </trkpt>
      <trkpt lat="47.26055" lon="-2.33638">
        <ele>83.599998474121</ele>
        <time>2020-07-30T10:35:31.000Z</time>
      </trkpt>
      <trkpt lat="47.2606" lon="-2.33617">
        <ele>83.599998474121</ele>
        <time>2020-07-30T10:35:34.000Z</time>
      </trkpt>
      <trkpt lat="47.26071" lon="-2.33568">
        <ele>83.599998474121</ele>
        <time>2020-07-30T10:35:41.000Z</time>
      </trkpt>
      <trkpt lat="47.26085" lon="-2.33504">
        <ele>83.599998474121</ele>
        <time>2020-07-30T10:35:50.000Z</time>
      </trkpt>
      <trkpt lat="47.26083" lon="-2.33477">
        <ele>83.599998474121</ele>
        <time>2020-07-30T10:35:55.000Z</time>
      </trkpt>
      <trkpt lat="47.26077" lon="-2.33468">
        <ele>83.599998474121</ele>
        <time>2020-07-30T10:35:57.000Z</time>
      </trkpt>
      <trkpt lat="47.26071" lon="-2.33457">
        <ele>83.599998474121</ele>
        <time>2020-07-30T10:35:59.000Z</time>
      </trkpt>
      <trkpt lat="47.26067" lon="-2.33434">
        <ele>83.599998474121</ele>
        <time>2020-07-30T10:36:02.000Z</time>
      </trkpt>
      <trkpt lat="47.26073" lon="-2.33407">
        <ele>83.599998474121</ele>
        <time>2020-07-30T10:36:06.000Z</time>
      </trkpt>
      <trkpt lat="47.26084" lon="-2.33397">
        <ele>83.599998474121</ele>
        <time>2020-07-30T10:36:09.000Z</time>
      </trkpt>
      <trkpt lat="47.26086" lon="-2.33386">
        <ele>83.599998474121</ele>
        <time>2020-07-30T10:36:12.000Z</time>
      </trkpt>
      <trkpt lat="47.26084" lon="-2.33377">
        <ele>83.599998474121</ele>
        <time>2020-07-30T10:36:15.000Z</time>
      </trkpt>
      <trkpt lat="47.2608" lon="-2.33365">
        <ele>83.599998474121</ele>
        <time>2020-07-30T10:36:17.000Z</time>
      </trkpt>
      <trkpt lat="47.26071" lon="-2.33333">
        <ele>83.599998474121</ele>
        <time>2020-07-30T10:36:22.000Z</time>
      </trkpt>
      <trkpt lat="47.2607" lon="-2.33326">
        <ele>83.599998474121</ele>
        <time>2020-07-30T10:36:23.000Z</time>
      </trkpt>
      <trkpt lat="47.26064" lon="-2.33307">
        <ele>83.599998474121</ele>
        <time>2020-07-30T10:36:26.000Z</time>
      </trkpt>
      <trkpt lat="47.26059" lon="-2.33295">
        <ele>83.599998474121</ele>
        <time>2020-07-30T10:36:28.000Z</time>
      </trkpt>
      <trkpt lat="47.26041" lon="-2.33244">
        <ele>83.599998474121</ele>
        <time>2020-07-30T10:36:36.000Z</time>
      </trkpt>
      <trkpt lat="47.26021" lon="-2.33186">
        <ele>83.599998474121</ele>
        <time>2020-07-30T10:36:45.000Z</time>
      </trkpt>
      <trkpt lat="47.26002" lon="-2.33134">
        <ele>83.599998474121</ele>
        <time>2020-07-30T10:36:53.000Z</time>
      </trkpt>
      <trkpt lat="47.25982" lon="-2.33082">
        <ele>83.599998474121</ele>
        <time>2020-07-30T10:37:01.000Z</time>
      </trkpt>
      <trkpt lat="47.25968" lon="-2.33036">
        <ele>83.599998474121</ele>
        <time>2020-07-30T10:37:08.000Z</time>
      </trkpt>
      <trkpt lat="47.25952" lon="-2.32991">
        <ele>84</ele>
        <time>2020-07-30T10:37:15.000Z</time>
      </trkpt>
      <trkpt lat="47.25949" lon="-2.32985">
        <ele>84.400001525879</ele>
        <time>2020-07-30T10:37:16.000Z</time>
      </trkpt>
      <trkpt lat="47.25946" lon="-2.32978">
        <ele>84.800003051758</ele>
        <time>2020-07-30T10:37:17.000Z</time>
      </trkpt>
      <trkpt lat="47.25944" lon="-2.32972">
        <ele>85.199996948242</ele>
        <time>2020-07-30T10:37:18.000Z</time>
      </trkpt>
      <trkpt lat="47.25941" lon="-2.32965">
        <ele>85.599998474121</ele>
        <time>2020-07-30T10:37:19.000Z</time>
      </trkpt>
      <trkpt lat="47.25926" lon="-2.32919">
        <ele>85.599998474121</ele>
        <time>2020-07-30T10:37:26.000Z</time>
      </trkpt>
      <trkpt lat="47.25909" lon="-2.32872">
        <ele>85.599998474121</ele>
        <time>2020-07-30T10:37:33.000Z</time>
      </trkpt>
      <trkpt lat="47.25893" lon="-2.32827">
        <ele>85.599998474121</ele>
        <time>2020-07-30T10:37:40.000Z</time>
      </trkpt>
      <trkpt lat="47.25876" lon="-2.32773">
        <ele>85.599998474121</ele>
        <time>2020-07-30T10:37:48.000Z</time>
      </trkpt>
      <trkpt lat="47.25862" lon="-2.32719">
        <ele>85.599998474121</ele>
        <time>2020-07-30T10:37:56.000Z</time>
      </trkpt>
      <trkpt lat="47.25849" lon="-2.32672">
        <ele>85.599998474121</ele>
        <time>2020-07-30T10:38:03.000Z</time>
      </trkpt>
      <trkpt lat="47.25831" lon="-2.32604">
        <ele>85.599998474121</ele>
        <time>2020-07-30T10:38:13.000Z</time>
      </trkpt>
      <trkpt lat="47.25818" lon="-2.32551">
        <ele>85.599998474121</ele>
        <time>2020-07-30T10:38:21.000Z</time>
      </trkpt>
      <trkpt lat="47.25809" lon="-2.32508">
        <ele>85.599998474121</ele>
        <time>2020-07-30T10:38:28.000Z</time>
      </trkpt>
      <trkpt lat="47.25815" lon="-2.3249">
        <ele>85.599998474121</ele>
        <time>2020-07-30T10:38:32.000Z</time>
      </trkpt>
      <trkpt lat="47.25824" lon="-2.32487">
        <ele>85.199996948242</ele>
        <time>2020-07-30T10:38:34.000Z</time>
      </trkpt>
      <trkpt lat="47.25828" lon="-2.32486">
        <ele>84.800003051758</ele>
        <time>2020-07-30T10:38:35.000Z</time>
      </trkpt>
      <trkpt lat="47.25832" lon="-2.32486">
        <ele>84.400001525879</ele>
        <time>2020-07-30T10:38:36.000Z</time>
      </trkpt>
      <trkpt lat="47.25837" lon="-2.32487">
        <ele>84</ele>
        <time>2020-07-30T10:38:37.000Z</time>
      </trkpt>
      <trkpt lat="47.25841" lon="-2.32487">
        <ele>83.599998474121</ele>
        <time>2020-07-30T10:38:38.000Z</time>
      </trkpt>
      <trkpt lat="47.25861" lon="-2.32488">
        <ele>83.599998474121</ele>
        <time>2020-07-30T10:38:42.000Z</time>
      </trkpt>
      <trkpt lat="47.25879" lon="-2.32488">
        <ele>83.599998474121</ele>
        <time>2020-07-30T10:38:46.000Z</time>
      </trkpt>
      <trkpt lat="47.25886" lon="-2.32486">
        <ele>83.599998474121</ele>
        <time>2020-07-30T10:38:48.000Z</time>
      </trkpt>
      <trkpt lat="47.25891" lon="-2.32473">
        <ele>83.599998474121</ele>
        <time>2020-07-30T10:38:51.000Z</time>
      </trkpt>
      <trkpt lat="47.25895" lon="-2.32465">
        <ele>83.599998474121</ele>
        <time>2020-07-30T10:38:53.000Z</time>
      </trkpt>
      <trkpt lat="47.25905" lon="-2.32453">
        <ele>83.599998474121</ele>
        <time>2020-07-30T10:38:56.000Z</time>
      </trkpt>
      <trkpt lat="47.25918" lon="-2.32438">
        <ele>83.599998474121</ele>
        <time>2020-07-30T10:39:00.000Z</time>
      </trkpt>
      <trkpt lat="47.25932" lon="-2.3242">
        <ele>83.599998474121</ele>
        <time>2020-07-30T10:39:04.000Z</time>
      </trkpt>
      <trkpt lat="47.25958" lon="-2.32388">
        <ele>83.599998474121</ele>
        <time>2020-07-30T10:39:11.000Z</time>
      </trkpt>
      <trkpt lat="47.25983" lon="-2.32356">
        <ele>83.599998474121</ele>
        <time>2020-07-30T10:39:18.000Z</time>
      </trkpt>
      <trkpt lat="47.2599" lon="-2.32347">
        <ele>83.599998474121</ele>
        <time>2020-07-30T10:39:20.000Z</time>
      </trkpt>
      <trkpt lat="47.26003" lon="-2.32329">
        <ele>83.599998474121</ele>
        <time>2020-07-30T10:39:24.000Z</time>
      </trkpt>
      <trkpt lat="47.26029" lon="-2.32297">
        <ele>83.599998474121</ele>
        <time>2020-07-30T10:39:31.000Z</time>
      </trkpt>
      <trkpt lat="47.26056" lon="-2.32266">
        <ele>83.599998474121</ele>
        <time>2020-07-30T10:39:38.000Z</time>
      </trkpt>
      <trkpt lat="47.26089" lon="-2.32224">
        <ele>83.599998474121</ele>
        <time>2020-07-30T10:39:47.000Z</time>
      </trkpt>
      <trkpt lat="47.26103" lon="-2.32202">
        <ele>83.599998474121</ele>
        <time>2020-07-30T10:39:51.000Z</time>
      </trkpt>
      <trkpt lat="47.26113" lon="-2.32185">
        <ele>83.599998474121</ele>
        <time>2020-07-30T10:39:54.000Z</time>
      </trkpt>
      <trkpt lat="47.26117" lon="-2.32179">
        <ele>83.599998474121</ele>
        <time>2020-07-30T10:39:55.000Z</time>
      </trkpt>
      <trkpt lat="47.26123" lon="-2.32161">
        <ele>83.599998474121</ele>
        <time>2020-07-30T10:39:58.000Z</time>
      </trkpt>
      <trkpt lat="47.26136" lon="-2.32118">
        <ele>83.599998474121</ele>
        <time>2020-07-30T10:40:05.000Z</time>
      </trkpt>
      <trkpt lat="47.26145" lon="-2.32082">
        <ele>83.599998474121</ele>
        <time>2020-07-30T10:40:11.000Z</time>
      </trkpt>
      <trkpt lat="47.26158" lon="-2.3204">
        <ele>83.599998474121</ele>
        <time>2020-07-30T10:40:18.000Z</time>
      </trkpt>
      <trkpt lat="47.26173" lon="-2.32024">
        <ele>83.599998474121</ele>
        <time>2020-07-30T10:40:23.000Z</time>
      </trkpt>
      <trkpt lat="47.26188" lon="-2.32027">
        <ele>83.599998474121</ele>
        <time>2020-07-30T10:40:28.000Z</time>
      </trkpt>
      <trkpt lat="47.26196" lon="-2.32025">
        <ele>83.599998474121</ele>
        <time>2020-07-30T10:40:33.000Z</time>
      </trkpt>
      <trkpt lat="47.26197" lon="-2.32022">
        <ele>83.599998474121</ele>
        <time>2020-07-30T10:40:34.000Z</time>
      </trkpt>
      <trkpt lat="47.26203" lon="-2.32007">
        <ele>83.599998474121</ele>
        <time>2020-07-30T10:40:39.000Z</time>
      </trkpt>
      <trkpt lat="47.26204" lon="-2.32005">
        <ele>83.599998474121</ele>
        <time>2020-07-30T10:40:40.000Z</time>
      </trkpt>
      <trkpt lat="47.26215" lon="-2.31991">
        <ele>83.599998474121</ele>
        <time>2020-07-30T10:40:46.000Z</time>
      </trkpt>
      <trkpt lat="47.26219" lon="-2.31986">
        <ele>83.599998474121</ele>
        <time>2020-07-30T10:40:48.000Z</time>
      </trkpt>
      <trkpt lat="47.26224" lon="-2.31983">
        <ele>83.599998474121</ele>
        <time>2020-07-30T10:40:50.000Z</time>
      </trkpt>
      <trkpt lat="47.26235" lon="-2.31973">
        <ele>83.599998474121</ele>
        <time>2020-07-30T10:40:54.000Z</time>
      </trkpt>
      <trkpt lat="47.26238" lon="-2.31968">
        <ele>83.599998474121</ele>
        <time>2020-07-30T10:40:55.000Z</time>
      </trkpt>
      <trkpt lat="47.26253" lon="-2.31945">
        <ele>83.599998474121</ele>
        <time>2020-07-30T10:41:01.000Z</time>
      </trkpt>
      <trkpt lat="47.26273" lon="-2.31919">
        <ele>83.599998474121</ele>
        <time>2020-07-30T10:41:08.000Z</time>
      </trkpt>
      <trkpt lat="47.26289" lon="-2.31901">
        <ele>83.599998474121</ele>
        <time>2020-07-30T10:41:13.000Z</time>
      </trkpt>
      <trkpt lat="47.26298" lon="-2.31891">
        <ele>83.599998474121</ele>
        <time>2020-07-30T10:41:16.000Z</time>
      </trkpt>
      <trkpt lat="47.26302" lon="-2.31881">
        <ele>83.599998474121</ele>
        <time>2020-07-30T10:41:18.000Z</time>
      </trkpt>
      <trkpt lat="47.26302" lon="-2.31875">
        <ele>83.599998474121</ele>
        <time>2020-07-30T10:41:19.000Z</time>
      </trkpt>
      <trkpt lat="47.26303" lon="-2.31857">
        <ele>83.599998474121</ele>
        <time>2020-07-30T10:41:22.000Z</time>
      </trkpt>
      <trkpt lat="47.26303" lon="-2.31852">
        <ele>83.599998474121</ele>
        <time>2020-07-30T10:41:23.000Z</time>
      </trkpt>
      <trkpt lat="47.26303" lon="-2.31828">
        <ele>83.599998474121</ele>
        <time>2020-07-30T10:41:28.000Z</time>
      </trkpt>
      <trkpt lat="47.26304" lon="-2.31797">
        <ele>83.599998474121</ele>
        <time>2020-07-30T10:41:34.000Z</time>
      </trkpt>
      <trkpt lat="47.26303" lon="-2.31763">
        <ele>83.599998474121</ele>
        <time>2020-07-30T10:41:40.000Z</time>
      </trkpt>
      <trkpt lat="47.26305" lon="-2.31726">
        <ele>83.599998474121</ele>
        <time>2020-07-30T10:41:46.000Z</time>
      </trkpt>
      <trkpt lat="47.2631" lon="-2.31718">
        <ele>84</ele>
        <time>2020-07-30T10:41:48.000Z</time>
      </trkpt>
      <trkpt lat="47.26314" lon="-2.31716">
        <ele>84.400001525879</ele>
        <time>2020-07-30T10:41:49.000Z</time>
      </trkpt>
      <trkpt lat="47.26317" lon="-2.31714">
        <ele>84.800003051758</ele>
        <time>2020-07-30T10:41:50.000Z</time>
      </trkpt>
      <trkpt lat="47.26321" lon="-2.31713">
        <ele>85.199996948242</ele>
        <time>2020-07-30T10:41:51.000Z</time>
      </trkpt>
      <trkpt lat="47.26324" lon="-2.31711">
        <ele>85.599998474121</ele>
        <time>2020-07-30T10:41:52.000Z</time>
      </trkpt>
      <trkpt lat="47.26333" lon="-2.31703">
        <ele>85.599998474121</ele>
        <time>2020-07-30T10:41:55.000Z</time>
      </trkpt>
      <trkpt lat="47.26334" lon="-2.31699">
        <ele>85.599998474121</ele>
        <time>2020-07-30T10:41:56.000Z</time>
      </trkpt>
      <trkpt lat="47.26342" lon="-2.3169">
        <ele>85.599998474121</ele>
        <time>2020-07-30T10:41:59.000Z</time>
      </trkpt>
      <trkpt lat="47.26348" lon="-2.31687">
        <ele>85.599998474121</ele>
        <time>2020-07-30T10:42:01.000Z</time>
      </trkpt>
      <trkpt lat="47.26357" lon="-2.31682">
        <ele>86.199996948242</ele>
        <time>2020-07-30T10:42:04.000Z</time>
      </trkpt>
      <trkpt lat="47.2636" lon="-2.3168">
        <ele>87</ele>
        <time>2020-07-30T10:42:05.000Z</time>
      </trkpt>
      <trkpt lat="47.26363" lon="-2.31679">
        <ele>87.400001525879</ele>
        <time>2020-07-30T10:42:06.000Z</time>
      </trkpt>
      <trkpt lat="47.26366" lon="-2.31677">
        <ele>87.800003051758</ele>
        <time>2020-07-30T10:42:07.000Z</time>
      </trkpt>
      <trkpt lat="47.26376" lon="-2.31672">
        <ele>87.800003051758</ele>
        <time>2020-07-30T10:42:10.000Z</time>
      </trkpt>
      <trkpt lat="47.26394" lon="-2.31662">
        <ele>87.800003051758</ele>
        <time>2020-07-30T10:42:16.000Z</time>
      </trkpt>
      <trkpt lat="47.26411" lon="-2.31648">
        <ele>87.800003051758</ele>
        <time>2020-07-30T10:42:23.000Z</time>
      </trkpt>
      <trkpt lat="47.26411" lon="-2.31637">
        <ele>88.199996948242</ele>
        <time>2020-07-30T10:42:26.000Z</time>
      </trkpt>
      <trkpt lat="47.26411" lon="-2.31632">
        <ele>88.599998474121</ele>
        <time>2020-07-30T10:42:27.000Z</time>
      </trkpt>
      <trkpt lat="47.26411" lon="-2.31628">
        <ele>89</ele>
        <time>2020-07-30T10:42:28.000Z</time>
      </trkpt>
      <trkpt lat="47.26411" lon="-2.31623">
        <ele>89.400001525879</ele>
        <time>2020-07-30T10:42:29.000Z</time>
      </trkpt>
      <trkpt lat="47.26412" lon="-2.31618">
        <ele>89.800003051758</ele>
        <time>2020-07-30T10:42:30.000Z</time>
      </trkpt>
      <trkpt lat="47.26411" lon="-2.31597">
        <ele>89.800003051758</ele>
        <time>2020-07-30T10:42:34.000Z</time>
      </trkpt>
      <trkpt lat="47.26411" lon="-2.31575">
        <ele>89.800003051758</ele>
        <time>2020-07-30T10:42:39.000Z</time>
      </trkpt>
      <trkpt lat="47.26412" lon="-2.31556">
        <ele>89.800003051758</ele>
        <time>2020-07-30T10:42:44.000Z</time>
      </trkpt>
      <trkpt lat="47.26417" lon="-2.31554">
        <ele>89.800003051758</ele>
        <time>2020-07-30T10:42:47.000Z</time>
      </trkpt>
      <trkpt lat="47.26417" lon="-2.31553">
        <ele>89.800003051758</ele>
        <time>2020-07-30T10:42:49.000Z</time>
      </trkpt>
    </trkseg>
  </trk>
</gpx>